<?xml version="1.0" encoding="UTF-8" standalone="no" ?>
<gpx xmlns="http://www.topografix.com/GPX/1/1" xmlns:xsi="http://www.w3.org/2001/XMLSchema-instance" xsi:schemaLocation="http://www.topografix.com/GPX/1/1 http://www.topografix.com/GPX/1/1/gpx.xsd" version="1.1" creator="VisuGPX - https://www.visugpx.com">
  <metadata>
    <name>Nocturne Mercy le Bas 28 km</name>
    <desc><![CDATA[Nocturne MLB 16/09/2022
Parcours technique et difficile selon m�t�o.
Possibilit�s de raccourcis ou d'extension � partir du 2e ravitaillement.]]></desc>
  </metadata>
  <trk>
    <name><![CDATA[Nocturne Mercy le Bas 28 km_2]]></name>
    <trkseg>
      <trkpt lat="49.38715" lon="5.83511">
        <ele>302.60000610352</ele>
        <time>2022-09-13T11:20:24.000Z</time>
      </trkpt>
      <trkpt lat="49.38722" lon="5.83498">
        <ele>301</ele>
        <time>2022-09-13T11:20:27.000Z</time>
      </trkpt>
      <trkpt lat="49.38725" lon="5.8349">
        <ele>299</ele>
        <time>2022-09-13T11:20:29.000Z</time>
      </trkpt>
      <trkpt lat="49.3873" lon="5.83481">
        <ele>296.60000610352</ele>
        <time>2022-09-13T11:20:31.000Z</time>
      </trkpt>
      <trkpt lat="49.38735" lon="5.83469">
        <ele>294</ele>
        <time>2022-09-13T11:20:34.000Z</time>
      </trkpt>
      <trkpt lat="49.38734" lon="5.83464">
        <ele>291.60000610352</ele>
        <time>2022-09-13T11:20:36.000Z</time>
      </trkpt>
      <trkpt lat="49.38733" lon="5.83458">
        <ele>290.60000610352</ele>
        <time>2022-09-13T11:20:38.000Z</time>
      </trkpt>
      <trkpt lat="49.38736" lon="5.8345">
        <ele>289.60000610352</ele>
        <time>2022-09-13T11:20:41.000Z</time>
      </trkpt>
      <trkpt lat="49.38741" lon="5.83441">
        <ele>289.20001220703</ele>
        <time>2022-09-13T11:20:43.000Z</time>
      </trkpt>
      <trkpt lat="49.38742" lon="5.83437">
        <ele>288.60000610352</ele>
        <time>2022-09-13T11:20:45.000Z</time>
      </trkpt>
      <trkpt lat="49.3875" lon="5.83429">
        <ele>286.79998779297</ele>
        <time>2022-09-13T11:20:50.000Z</time>
      </trkpt>
      <trkpt lat="49.38758" lon="5.83421">
        <ele>285.79998779297</ele>
        <time>2022-09-13T11:20:55.000Z</time>
      </trkpt>
      <trkpt lat="49.38761" lon="5.83413">
        <ele>285.79998779297</ele>
        <time>2022-09-13T11:20:57.000Z</time>
      </trkpt>
      <trkpt lat="49.38763" lon="5.83409">
        <ele>285.79998779297</ele>
        <time>2022-09-13T11:20:58.000Z</time>
      </trkpt>
      <trkpt lat="49.38766" lon="5.83404">
        <ele>285.79998779297</ele>
        <time>2022-09-13T11:20:59.000Z</time>
      </trkpt>
      <trkpt lat="49.38769" lon="5.83402">
        <ele>285.79998779297</ele>
        <time>2022-09-13T11:21:00.000Z</time>
      </trkpt>
      <trkpt lat="49.38772" lon="5.83398">
        <ele>285.79998779297</ele>
        <time>2022-09-13T11:21:01.000Z</time>
      </trkpt>
      <trkpt lat="49.38774" lon="5.83396">
        <ele>285.79998779297</ele>
        <time>2022-09-13T11:21:02.000Z</time>
      </trkpt>
      <trkpt lat="49.38778" lon="5.83392">
        <ele>285.60000610352</ele>
        <time>2022-09-13T11:21:04.000Z</time>
      </trkpt>
      <trkpt lat="49.38785" lon="5.8339">
        <ele>285.60000610352</ele>
        <time>2022-09-13T11:21:07.000Z</time>
      </trkpt>
      <trkpt lat="49.38786" lon="5.83391">
        <ele>285.60000610352</ele>
        <time>2022-09-13T11:21:08.000Z</time>
      </trkpt>
      <trkpt lat="49.38787" lon="5.83391">
        <ele>285.60000610352</ele>
        <time>2022-09-13T11:21:09.000Z</time>
      </trkpt>
      <trkpt lat="49.38788" lon="5.83392">
        <ele>285.60000610352</ele>
        <time>2022-09-13T11:21:10.000Z</time>
      </trkpt>
      <trkpt lat="49.3879" lon="5.83393">
        <ele>285.60000610352</ele>
        <time>2022-09-13T11:21:11.000Z</time>
      </trkpt>
      <trkpt lat="49.38794" lon="5.83392">
        <ele>285.60000610352</ele>
        <time>2022-09-13T11:21:12.000Z</time>
      </trkpt>
      <trkpt lat="49.38798" lon="5.83391">
        <ele>285.60000610352</ele>
        <time>2022-09-13T11:21:13.000Z</time>
      </trkpt>
      <trkpt lat="49.38802" lon="5.83392">
        <ele>285.60000610352</ele>
        <time>2022-09-13T11:21:14.000Z</time>
      </trkpt>
      <trkpt lat="49.38805" lon="5.83396">
        <ele>285.79998779297</ele>
        <time>2022-09-13T11:21:15.000Z</time>
      </trkpt>
      <trkpt lat="49.38806" lon="5.83398">
        <ele>285.79998779297</ele>
        <time>2022-09-13T11:21:16.000Z</time>
      </trkpt>
      <trkpt lat="49.38808" lon="5.83402">
        <ele>286</ele>
        <time>2022-09-13T11:21:17.000Z</time>
      </trkpt>
      <trkpt lat="49.3881" lon="5.83406">
        <ele>286</ele>
        <time>2022-09-13T11:21:18.000Z</time>
      </trkpt>
      <trkpt lat="49.38812" lon="5.8341">
        <ele>286</ele>
        <time>2022-09-13T11:21:19.000Z</time>
      </trkpt>
      <trkpt lat="49.38814" lon="5.83414">
        <ele>286</ele>
        <time>2022-09-13T11:21:20.000Z</time>
      </trkpt>
      <trkpt lat="49.38818" lon="5.83429">
        <ele>286.20001220703</ele>
        <time>2022-09-13T11:21:24.000Z</time>
      </trkpt>
      <trkpt lat="49.38818" lon="5.83432">
        <ele>286.20001220703</ele>
        <time>2022-09-13T11:21:25.000Z</time>
      </trkpt>
      <trkpt lat="49.38817" lon="5.83435">
        <ele>286.20001220703</ele>
        <time>2022-09-13T11:21:26.000Z</time>
      </trkpt>
      <trkpt lat="49.38811" lon="5.83451">
        <ele>286.20001220703</ele>
        <time>2022-09-13T11:21:31.000Z</time>
      </trkpt>
      <trkpt lat="49.38809" lon="5.83454">
        <ele>286.20001220703</ele>
        <time>2022-09-13T11:21:32.000Z</time>
      </trkpt>
      <trkpt lat="49.38807" lon="5.83457">
        <ele>286.20001220703</ele>
        <time>2022-09-13T11:21:33.000Z</time>
      </trkpt>
      <trkpt lat="49.38806" lon="5.83461">
        <ele>286</ele>
        <time>2022-09-13T11:21:34.000Z</time>
      </trkpt>
      <trkpt lat="49.38804" lon="5.83465">
        <ele>286</ele>
        <time>2022-09-13T11:21:35.000Z</time>
      </trkpt>
      <trkpt lat="49.38804" lon="5.83468">
        <ele>286</ele>
        <time>2022-09-13T11:21:36.000Z</time>
      </trkpt>
      <trkpt lat="49.38803" lon="5.83471">
        <ele>285.79998779297</ele>
        <time>2022-09-13T11:21:37.000Z</time>
      </trkpt>
      <trkpt lat="49.38804" lon="5.83473">
        <ele>285.79998779297</ele>
        <time>2022-09-13T11:21:38.000Z</time>
      </trkpt>
      <trkpt lat="49.38805" lon="5.83477">
        <ele>285.60000610352</ele>
        <time>2022-09-13T11:21:39.000Z</time>
      </trkpt>
      <trkpt lat="49.38809" lon="5.83484">
        <ele>285.60000610352</ele>
        <time>2022-09-13T11:21:41.000Z</time>
      </trkpt>
      <trkpt lat="49.38812" lon="5.83485">
        <ele>285.60000610352</ele>
        <time>2022-09-13T11:21:42.000Z</time>
      </trkpt>
      <trkpt lat="49.38814" lon="5.83485">
        <ele>285.60000610352</ele>
        <time>2022-09-13T11:21:43.000Z</time>
      </trkpt>
      <trkpt lat="49.38816" lon="5.83485">
        <ele>285.60000610352</ele>
        <time>2022-09-13T11:21:44.000Z</time>
      </trkpt>
      <trkpt lat="49.38818" lon="5.83485">
        <ele>285.60000610352</ele>
        <time>2022-09-13T11:21:45.000Z</time>
      </trkpt>
      <trkpt lat="49.3882" lon="5.83485">
        <ele>285.60000610352</ele>
        <time>2022-09-13T11:21:46.000Z</time>
      </trkpt>
      <trkpt lat="49.38824" lon="5.83483">
        <ele>285.60000610352</ele>
        <time>2022-09-13T11:21:48.000Z</time>
      </trkpt>
      <trkpt lat="49.38826" lon="5.8348">
        <ele>285.60000610352</ele>
        <time>2022-09-13T11:21:49.000Z</time>
      </trkpt>
      <trkpt lat="49.38828" lon="5.83477">
        <ele>285.60000610352</ele>
        <time>2022-09-13T11:21:50.000Z</time>
      </trkpt>
      <trkpt lat="49.3883" lon="5.83476">
        <ele>285.60000610352</ele>
        <time>2022-09-13T11:21:51.000Z</time>
      </trkpt>
      <trkpt lat="49.38832" lon="5.83475">
        <ele>285.79998779297</ele>
        <time>2022-09-13T11:21:52.000Z</time>
      </trkpt>
      <trkpt lat="49.38839" lon="5.83461">
        <ele>286.20001220703</ele>
        <time>2022-09-13T11:21:56.000Z</time>
      </trkpt>
      <trkpt lat="49.38841" lon="5.83454">
        <ele>286.79998779297</ele>
        <time>2022-09-13T11:21:59.000Z</time>
      </trkpt>
      <trkpt lat="49.38841" lon="5.83451">
        <ele>287</ele>
        <time>2022-09-13T11:22:00.000Z</time>
      </trkpt>
      <trkpt lat="49.38842" lon="5.83449">
        <ele>287.39999389648</ele>
        <time>2022-09-13T11:22:01.000Z</time>
      </trkpt>
      <trkpt lat="49.38843" lon="5.83447">
        <ele>287.60000610352</ele>
        <time>2022-09-13T11:22:02.000Z</time>
      </trkpt>
      <trkpt lat="49.38843" lon="5.83444">
        <ele>288</ele>
        <time>2022-09-13T11:22:03.000Z</time>
      </trkpt>
      <trkpt lat="49.38843" lon="5.83442">
        <ele>289</ele>
        <time>2022-09-13T11:22:04.000Z</time>
      </trkpt>
      <trkpt lat="49.38842" lon="5.83439">
        <ele>289.60000610352</ele>
        <time>2022-09-13T11:22:05.000Z</time>
      </trkpt>
      <trkpt lat="49.38842" lon="5.83435">
        <ele>290.39999389648</ele>
        <time>2022-09-13T11:22:06.000Z</time>
      </trkpt>
      <trkpt lat="49.38843" lon="5.83433">
        <ele>290.79998779297</ele>
        <time>2022-09-13T11:22:07.000Z</time>
      </trkpt>
      <trkpt lat="49.38845" lon="5.83431">
        <ele>291.20001220703</ele>
        <time>2022-09-13T11:22:08.000Z</time>
      </trkpt>
      <trkpt lat="49.38846" lon="5.83428">
        <ele>291.39999389648</ele>
        <time>2022-09-13T11:22:09.000Z</time>
      </trkpt>
      <trkpt lat="49.38847" lon="5.83426">
        <ele>292.20001220703</ele>
        <time>2022-09-13T11:22:10.000Z</time>
      </trkpt>
      <trkpt lat="49.38849" lon="5.83424">
        <ele>293.20001220703</ele>
        <time>2022-09-13T11:22:11.000Z</time>
      </trkpt>
      <trkpt lat="49.38849" lon="5.83422">
        <ele>293.60000610352</ele>
        <time>2022-09-13T11:22:12.000Z</time>
      </trkpt>
      <trkpt lat="49.3885" lon="5.8342">
        <ele>294</ele>
        <time>2022-09-13T11:22:13.000Z</time>
      </trkpt>
      <trkpt lat="49.38852" lon="5.83419">
        <ele>294.39999389648</ele>
        <time>2022-09-13T11:22:14.000Z</time>
      </trkpt>
      <trkpt lat="49.38853" lon="5.83419">
        <ele>294.79998779297</ele>
        <time>2022-09-13T11:22:15.000Z</time>
      </trkpt>
      <trkpt lat="49.38854" lon="5.83419">
        <ele>295.20001220703</ele>
        <time>2022-09-13T11:22:16.000Z</time>
      </trkpt>
      <trkpt lat="49.38855" lon="5.8342">
        <ele>296</ele>
        <time>2022-09-13T11:22:17.000Z</time>
      </trkpt>
      <trkpt lat="49.38857" lon="5.83422">
        <ele>296.79998779297</ele>
        <time>2022-09-13T11:22:18.000Z</time>
      </trkpt>
      <trkpt lat="49.38858" lon="5.83422">
        <ele>297.20001220703</ele>
        <time>2022-09-13T11:22:19.000Z</time>
      </trkpt>
      <trkpt lat="49.3886" lon="5.83421">
        <ele>297.60000610352</ele>
        <time>2022-09-13T11:22:20.000Z</time>
      </trkpt>
      <trkpt lat="49.38862" lon="5.83422">
        <ele>298</ele>
        <time>2022-09-13T11:22:21.000Z</time>
      </trkpt>
      <trkpt lat="49.38865" lon="5.83423">
        <ele>298.60000610352</ele>
        <time>2022-09-13T11:22:22.000Z</time>
      </trkpt>
      <trkpt lat="49.38866" lon="5.83424">
        <ele>298.79998779297</ele>
        <time>2022-09-13T11:22:23.000Z</time>
      </trkpt>
      <trkpt lat="49.38868" lon="5.83425">
        <ele>299.20001220703</ele>
        <time>2022-09-13T11:22:24.000Z</time>
      </trkpt>
      <trkpt lat="49.3887" lon="5.83425">
        <ele>299.79998779297</ele>
        <time>2022-09-13T11:22:25.000Z</time>
      </trkpt>
      <trkpt lat="49.3887" lon="5.83426">
        <ele>300.39999389648</ele>
        <time>2022-09-13T11:22:26.000Z</time>
      </trkpt>
      <trkpt lat="49.38872" lon="5.83427">
        <ele>301</ele>
        <time>2022-09-13T11:22:27.000Z</time>
      </trkpt>
      <trkpt lat="49.38873" lon="5.83426">
        <ele>301.39999389648</ele>
        <time>2022-09-13T11:22:28.000Z</time>
      </trkpt>
      <trkpt lat="49.38874" lon="5.83426">
        <ele>302</ele>
        <time>2022-09-13T11:22:29.000Z</time>
      </trkpt>
      <trkpt lat="49.38876" lon="5.83427">
        <ele>302.20001220703</ele>
        <time>2022-09-13T11:22:30.000Z</time>
      </trkpt>
      <trkpt lat="49.38877" lon="5.83427">
        <ele>303</ele>
        <time>2022-09-13T11:22:31.000Z</time>
      </trkpt>
      <trkpt lat="49.38878" lon="5.83429">
        <ele>303.39999389648</ele>
        <time>2022-09-13T11:22:32.000Z</time>
      </trkpt>
      <trkpt lat="49.3888" lon="5.8343">
        <ele>303.79998779297</ele>
        <time>2022-09-13T11:22:33.000Z</time>
      </trkpt>
      <trkpt lat="49.38883" lon="5.83432">
        <ele>304.20001220703</ele>
        <time>2022-09-13T11:22:34.000Z</time>
      </trkpt>
      <trkpt lat="49.38885" lon="5.83433">
        <ele>304.39999389648</ele>
        <time>2022-09-13T11:22:35.000Z</time>
      </trkpt>
      <trkpt lat="49.38886" lon="5.83434">
        <ele>305.20001220703</ele>
        <time>2022-09-13T11:22:36.000Z</time>
      </trkpt>
      <trkpt lat="49.38888" lon="5.83435">
        <ele>305.79998779297</ele>
        <time>2022-09-13T11:22:37.000Z</time>
      </trkpt>
      <trkpt lat="49.3889" lon="5.83436">
        <ele>306.60000610352</ele>
        <time>2022-09-13T11:22:38.000Z</time>
      </trkpt>
      <trkpt lat="49.38892" lon="5.83437">
        <ele>306.79998779297</ele>
        <time>2022-09-13T11:22:39.000Z</time>
      </trkpt>
      <trkpt lat="49.38894" lon="5.83436">
        <ele>307.20001220703</ele>
        <time>2022-09-13T11:22:40.000Z</time>
      </trkpt>
      <trkpt lat="49.38896" lon="5.83435">
        <ele>307.79998779297</ele>
        <time>2022-09-13T11:22:41.000Z</time>
      </trkpt>
      <trkpt lat="49.38898" lon="5.83433">
        <ele>308.20001220703</ele>
        <time>2022-09-13T11:22:42.000Z</time>
      </trkpt>
      <trkpt lat="49.389" lon="5.83433">
        <ele>308.79998779297</ele>
        <time>2022-09-13T11:22:43.000Z</time>
      </trkpt>
      <trkpt lat="49.38903" lon="5.83434">
        <ele>309</ele>
        <time>2022-09-13T11:22:44.000Z</time>
      </trkpt>
      <trkpt lat="49.38904" lon="5.83435">
        <ele>309.60000610352</ele>
        <time>2022-09-13T11:22:45.000Z</time>
      </trkpt>
      <trkpt lat="49.38905" lon="5.83436">
        <ele>310</ele>
        <time>2022-09-13T11:22:46.000Z</time>
      </trkpt>
      <trkpt lat="49.38907" lon="5.83437">
        <ele>310.39999389648</ele>
        <time>2022-09-13T11:22:47.000Z</time>
      </trkpt>
      <trkpt lat="49.38909" lon="5.83439">
        <ele>310.60000610352</ele>
        <time>2022-09-13T11:22:48.000Z</time>
      </trkpt>
      <trkpt lat="49.38911" lon="5.8344">
        <ele>311.20001220703</ele>
        <time>2022-09-13T11:22:49.000Z</time>
      </trkpt>
      <trkpt lat="49.38914" lon="5.83442">
        <ele>311.39999389648</ele>
        <time>2022-09-13T11:22:50.000Z</time>
      </trkpt>
      <trkpt lat="49.38915" lon="5.83443">
        <ele>311.39999389648</ele>
        <time>2022-09-13T11:22:51.000Z</time>
      </trkpt>
      <trkpt lat="49.38917" lon="5.83445">
        <ele>312</ele>
        <time>2022-09-13T11:22:52.000Z</time>
      </trkpt>
      <trkpt lat="49.38919" lon="5.83446">
        <ele>312</ele>
        <time>2022-09-13T11:22:53.000Z</time>
      </trkpt>
      <trkpt lat="49.3892" lon="5.83448">
        <ele>312.39999389648</ele>
        <time>2022-09-13T11:22:54.000Z</time>
      </trkpt>
      <trkpt lat="49.38921" lon="5.83448">
        <ele>312.60000610352</ele>
        <time>2022-09-13T11:22:55.000Z</time>
      </trkpt>
      <trkpt lat="49.38923" lon="5.83449">
        <ele>313</ele>
        <time>2022-09-13T11:22:56.000Z</time>
      </trkpt>
      <trkpt lat="49.38924" lon="5.83448">
        <ele>313.20001220703</ele>
        <time>2022-09-13T11:22:57.000Z</time>
      </trkpt>
      <trkpt lat="49.38926" lon="5.83449">
        <ele>313.39999389648</ele>
        <time>2022-09-13T11:22:58.000Z</time>
      </trkpt>
      <trkpt lat="49.38928" lon="5.8345">
        <ele>313.79998779297</ele>
        <time>2022-09-13T11:22:59.000Z</time>
      </trkpt>
      <trkpt lat="49.3893" lon="5.8345">
        <ele>314</ele>
        <time>2022-09-13T11:23:00.000Z</time>
      </trkpt>
      <trkpt lat="49.38932" lon="5.8345">
        <ele>314.39999389648</ele>
        <time>2022-09-13T11:23:01.000Z</time>
      </trkpt>
      <trkpt lat="49.38934" lon="5.8345">
        <ele>314.39999389648</ele>
        <time>2022-09-13T11:23:02.000Z</time>
      </trkpt>
      <trkpt lat="49.38935" lon="5.8345">
        <ele>314.60000610352</ele>
        <time>2022-09-13T11:23:03.000Z</time>
      </trkpt>
      <trkpt lat="49.38936" lon="5.83451">
        <ele>315</ele>
        <time>2022-09-13T11:23:04.000Z</time>
      </trkpt>
      <trkpt lat="49.38937" lon="5.83452">
        <ele>315.39999389648</ele>
        <time>2022-09-13T11:23:05.000Z</time>
      </trkpt>
      <trkpt lat="49.38939" lon="5.83453">
        <ele>315.60000610352</ele>
        <time>2022-09-13T11:23:06.000Z</time>
      </trkpt>
      <trkpt lat="49.38941" lon="5.83455">
        <ele>315.79998779297</ele>
        <time>2022-09-13T11:23:07.000Z</time>
      </trkpt>
      <trkpt lat="49.38943" lon="5.83457">
        <ele>316.20001220703</ele>
        <time>2022-09-13T11:23:08.000Z</time>
      </trkpt>
      <trkpt lat="49.38945" lon="5.83459">
        <ele>316.20001220703</ele>
        <time>2022-09-13T11:23:09.000Z</time>
      </trkpt>
      <trkpt lat="49.38947" lon="5.8346">
        <ele>316.39999389648</ele>
        <time>2022-09-13T11:23:10.000Z</time>
      </trkpt>
      <trkpt lat="49.38949" lon="5.83461">
        <ele>316.60000610352</ele>
        <time>2022-09-13T11:23:11.000Z</time>
      </trkpt>
      <trkpt lat="49.38952" lon="5.83462">
        <ele>316.79998779297</ele>
        <time>2022-09-13T11:23:12.000Z</time>
      </trkpt>
      <trkpt lat="49.38953" lon="5.83463">
        <ele>317</ele>
        <time>2022-09-13T11:23:13.000Z</time>
      </trkpt>
      <trkpt lat="49.38954" lon="5.83464">
        <ele>317.20001220703</ele>
        <time>2022-09-13T11:23:14.000Z</time>
      </trkpt>
      <trkpt lat="49.38955" lon="5.83462">
        <ele>317.39999389648</ele>
        <time>2022-09-13T11:23:15.000Z</time>
      </trkpt>
      <trkpt lat="49.38957" lon="5.83462">
        <ele>317.60000610352</ele>
        <time>2022-09-13T11:23:16.000Z</time>
      </trkpt>
      <trkpt lat="49.38959" lon="5.83463">
        <ele>318</ele>
        <time>2022-09-13T11:23:17.000Z</time>
      </trkpt>
      <trkpt lat="49.38961" lon="5.83465">
        <ele>318</ele>
        <time>2022-09-13T11:23:18.000Z</time>
      </trkpt>
      <trkpt lat="49.38963" lon="5.83464">
        <ele>318.39999389648</ele>
        <time>2022-09-13T11:23:19.000Z</time>
      </trkpt>
      <trkpt lat="49.38964" lon="5.83463">
        <ele>318.60000610352</ele>
        <time>2022-09-13T11:23:20.000Z</time>
      </trkpt>
      <trkpt lat="49.38965" lon="5.83464">
        <ele>319</ele>
        <time>2022-09-13T11:23:21.000Z</time>
      </trkpt>
      <trkpt lat="49.38966" lon="5.83466">
        <ele>319.39999389648</ele>
        <time>2022-09-13T11:23:22.000Z</time>
      </trkpt>
      <trkpt lat="49.38968" lon="5.83467">
        <ele>319.60000610352</ele>
        <time>2022-09-13T11:23:23.000Z</time>
      </trkpt>
      <trkpt lat="49.38969" lon="5.83468">
        <ele>319.79998779297</ele>
        <time>2022-09-13T11:23:24.000Z</time>
      </trkpt>
      <trkpt lat="49.38971" lon="5.83467">
        <ele>320</ele>
        <time>2022-09-13T11:23:25.000Z</time>
      </trkpt>
      <trkpt lat="49.38973" lon="5.83469">
        <ele>320.39999389648</ele>
        <time>2022-09-13T11:23:26.000Z</time>
      </trkpt>
      <trkpt lat="49.38975" lon="5.8347">
        <ele>320.60000610352</ele>
        <time>2022-09-13T11:23:27.000Z</time>
      </trkpt>
      <trkpt lat="49.38976" lon="5.83471">
        <ele>320.79998779297</ele>
        <time>2022-09-13T11:23:28.000Z</time>
      </trkpt>
      <trkpt lat="49.38978" lon="5.83472">
        <ele>321</ele>
        <time>2022-09-13T11:23:29.000Z</time>
      </trkpt>
      <trkpt lat="49.38979" lon="5.83472">
        <ele>321.20001220703</ele>
        <time>2022-09-13T11:23:30.000Z</time>
      </trkpt>
      <trkpt lat="49.38981" lon="5.83473">
        <ele>321.39999389648</ele>
        <time>2022-09-13T11:23:31.000Z</time>
      </trkpt>
      <trkpt lat="49.38987" lon="5.83473">
        <ele>321.60000610352</ele>
        <time>2022-09-13T11:23:32.000Z</time>
      </trkpt>
      <trkpt lat="49.38989" lon="5.83473">
        <ele>322</ele>
        <time>2022-09-13T11:23:33.000Z</time>
      </trkpt>
      <trkpt lat="49.3899" lon="5.83472">
        <ele>322.20001220703</ele>
        <time>2022-09-13T11:23:34.000Z</time>
      </trkpt>
      <trkpt lat="49.38993" lon="5.83471">
        <ele>322.39999389648</ele>
        <time>2022-09-13T11:23:35.000Z</time>
      </trkpt>
      <trkpt lat="49.38993" lon="5.83471">
        <ele>322.79998779297</ele>
        <time>2022-09-13T11:23:36.000Z</time>
      </trkpt>
      <trkpt lat="49.38994" lon="5.83468">
        <ele>323</ele>
        <time>2022-09-13T11:23:37.000Z</time>
      </trkpt>
      <trkpt lat="49.38994" lon="5.83465">
        <ele>323.20001220703</ele>
        <time>2022-09-13T11:23:38.000Z</time>
      </trkpt>
      <trkpt lat="49.38993" lon="5.83463">
        <ele>323.39999389648</ele>
        <time>2022-09-13T11:23:39.000Z</time>
      </trkpt>
      <trkpt lat="49.38994" lon="5.83461">
        <ele>323.60000610352</ele>
        <time>2022-09-13T11:23:40.000Z</time>
      </trkpt>
      <trkpt lat="49.38994" lon="5.83457">
        <ele>323.79998779297</ele>
        <time>2022-09-13T11:23:41.000Z</time>
      </trkpt>
      <trkpt lat="49.38994" lon="5.83454">
        <ele>323.79998779297</ele>
        <time>2022-09-13T11:23:42.000Z</time>
      </trkpt>
      <trkpt lat="49.38994" lon="5.83449">
        <ele>323.79998779297</ele>
        <time>2022-09-13T11:23:43.000Z</time>
      </trkpt>
      <trkpt lat="49.38994" lon="5.83445">
        <ele>323.79998779297</ele>
        <time>2022-09-13T11:23:44.000Z</time>
      </trkpt>
      <trkpt lat="49.38994" lon="5.83441">
        <ele>324</ele>
        <time>2022-09-13T11:23:45.000Z</time>
      </trkpt>
      <trkpt lat="49.38994" lon="5.83436">
        <ele>323.79998779297</ele>
        <time>2022-09-13T11:23:46.000Z</time>
      </trkpt>
      <trkpt lat="49.38996" lon="5.8343">
        <ele>323.79998779297</ele>
        <time>2022-09-13T11:23:47.000Z</time>
      </trkpt>
      <trkpt lat="49.38996" lon="5.83425">
        <ele>323.79998779297</ele>
        <time>2022-09-13T11:23:48.000Z</time>
      </trkpt>
      <trkpt lat="49.38995" lon="5.83416">
        <ele>323.79998779297</ele>
        <time>2022-09-13T11:23:49.000Z</time>
      </trkpt>
      <trkpt lat="49.38995" lon="5.83406">
        <ele>323.79998779297</ele>
        <time>2022-09-13T11:23:50.000Z</time>
      </trkpt>
      <trkpt lat="49.38997" lon="5.83394">
        <ele>323.79998779297</ele>
        <time>2022-09-13T11:23:51.000Z</time>
      </trkpt>
      <trkpt lat="49.39" lon="5.83382">
        <ele>323.60000610352</ele>
        <time>2022-09-13T11:23:52.000Z</time>
      </trkpt>
      <trkpt lat="49.39005" lon="5.83371">
        <ele>323.39999389648</ele>
        <time>2022-09-13T11:23:53.000Z</time>
      </trkpt>
      <trkpt lat="49.39009" lon="5.8336">
        <ele>323.20001220703</ele>
        <time>2022-09-13T11:23:54.000Z</time>
      </trkpt>
      <trkpt lat="49.39014" lon="5.83351">
        <ele>323</ele>
        <time>2022-09-13T11:23:55.000Z</time>
      </trkpt>
      <trkpt lat="49.3902" lon="5.83343">
        <ele>321.39999389648</ele>
        <time>2022-09-13T11:23:56.000Z</time>
      </trkpt>
      <trkpt lat="49.39027" lon="5.83337">
        <ele>320.20001220703</ele>
        <time>2022-09-13T11:23:57.000Z</time>
      </trkpt>
      <trkpt lat="49.39035" lon="5.83332">
        <ele>319.79998779297</ele>
        <time>2022-09-13T11:23:58.000Z</time>
      </trkpt>
      <trkpt lat="49.39043" lon="5.83328">
        <ele>319</ele>
        <time>2022-09-13T11:23:59.000Z</time>
      </trkpt>
      <trkpt lat="49.39059" lon="5.83321">
        <ele>317.39999389648</ele>
        <time>2022-09-13T11:24:01.000Z</time>
      </trkpt>
      <trkpt lat="49.39075" lon="5.83317">
        <ele>315.39999389648</ele>
        <time>2022-09-13T11:24:03.000Z</time>
      </trkpt>
      <trkpt lat="49.39096" lon="5.83315">
        <ele>314.60000610352</ele>
        <time>2022-09-13T11:24:05.000Z</time>
      </trkpt>
      <trkpt lat="49.39105" lon="5.83314">
        <ele>313.79998779297</ele>
        <time>2022-09-13T11:24:06.000Z</time>
      </trkpt>
      <trkpt lat="49.39113" lon="5.83311">
        <ele>313.60000610352</ele>
        <time>2022-09-13T11:24:07.000Z</time>
      </trkpt>
      <trkpt lat="49.39119" lon="5.83308">
        <ele>312.39999389648</ele>
        <time>2022-09-13T11:24:08.000Z</time>
      </trkpt>
      <trkpt lat="49.39125" lon="5.83304">
        <ele>312.20001220703</ele>
        <time>2022-09-13T11:24:09.000Z</time>
      </trkpt>
      <trkpt lat="49.39133" lon="5.83298">
        <ele>311</ele>
        <time>2022-09-13T11:24:10.000Z</time>
      </trkpt>
      <trkpt lat="49.3914" lon="5.83293">
        <ele>310.60000610352</ele>
        <time>2022-09-13T11:24:11.000Z</time>
      </trkpt>
      <trkpt lat="49.39147" lon="5.83288">
        <ele>310</ele>
        <time>2022-09-13T11:24:12.000Z</time>
      </trkpt>
      <trkpt lat="49.39161" lon="5.83281">
        <ele>308.79998779297</ele>
        <time>2022-09-13T11:24:14.000Z</time>
      </trkpt>
      <trkpt lat="49.39168" lon="5.83278">
        <ele>308.20001220703</ele>
        <time>2022-09-13T11:24:15.000Z</time>
      </trkpt>
      <trkpt lat="49.39175" lon="5.83276">
        <ele>307.79998779297</ele>
        <time>2022-09-13T11:24:16.000Z</time>
      </trkpt>
      <trkpt lat="49.3918" lon="5.83275">
        <ele>307.39999389648</ele>
        <time>2022-09-13T11:24:17.000Z</time>
      </trkpt>
      <trkpt lat="49.39185" lon="5.83273">
        <ele>307.20001220703</ele>
        <time>2022-09-13T11:24:18.000Z</time>
      </trkpt>
      <trkpt lat="49.3919" lon="5.8327">
        <ele>306.39999389648</ele>
        <time>2022-09-13T11:24:19.000Z</time>
      </trkpt>
      <trkpt lat="49.39193" lon="5.83268">
        <ele>305.60000610352</ele>
        <time>2022-09-13T11:24:20.000Z</time>
      </trkpt>
      <trkpt lat="49.39197" lon="5.83264">
        <ele>305.39999389648</ele>
        <time>2022-09-13T11:24:21.000Z</time>
      </trkpt>
      <trkpt lat="49.392" lon="5.83261">
        <ele>305.20001220703</ele>
        <time>2022-09-13T11:24:22.000Z</time>
      </trkpt>
      <trkpt lat="49.39204" lon="5.83258">
        <ele>305</ele>
        <time>2022-09-13T11:24:23.000Z</time>
      </trkpt>
      <trkpt lat="49.39207" lon="5.83256">
        <ele>304.79998779297</ele>
        <time>2022-09-13T11:24:24.000Z</time>
      </trkpt>
      <trkpt lat="49.39211" lon="5.83254">
        <ele>304.79998779297</ele>
        <time>2022-09-13T11:24:25.000Z</time>
      </trkpt>
      <trkpt lat="49.39214" lon="5.8325">
        <ele>304.60000610352</ele>
        <time>2022-09-13T11:24:26.000Z</time>
      </trkpt>
      <trkpt lat="49.39221" lon="5.83246">
        <ele>304.39999389648</ele>
        <time>2022-09-13T11:24:28.000Z</time>
      </trkpt>
      <trkpt lat="49.39222" lon="5.83245">
        <ele>304</ele>
        <time>2022-09-13T11:24:29.000Z</time>
      </trkpt>
      <trkpt lat="49.39225" lon="5.83243">
        <ele>304</ele>
        <time>2022-09-13T11:24:30.000Z</time>
      </trkpt>
      <trkpt lat="49.39228" lon="5.8324">
        <ele>303.79998779297</ele>
        <time>2022-09-13T11:24:31.000Z</time>
      </trkpt>
      <trkpt lat="49.39231" lon="5.83238">
        <ele>303.79998779297</ele>
        <time>2022-09-13T11:24:32.000Z</time>
      </trkpt>
      <trkpt lat="49.39236" lon="5.83235">
        <ele>303.60000610352</ele>
        <time>2022-09-13T11:24:34.000Z</time>
      </trkpt>
      <trkpt lat="49.39239" lon="5.83233">
        <ele>303.60000610352</ele>
        <time>2022-09-13T11:24:35.000Z</time>
      </trkpt>
      <trkpt lat="49.39243" lon="5.83229">
        <ele>303.60000610352</ele>
        <time>2022-09-13T11:24:36.000Z</time>
      </trkpt>
      <trkpt lat="49.39245" lon="5.83227">
        <ele>303.60000610352</ele>
        <time>2022-09-13T11:24:37.000Z</time>
      </trkpt>
      <trkpt lat="49.39248" lon="5.83223">
        <ele>303.60000610352</ele>
        <time>2022-09-13T11:24:38.000Z</time>
      </trkpt>
      <trkpt lat="49.3925" lon="5.83221">
        <ele>303.79998779297</ele>
        <time>2022-09-13T11:24:39.000Z</time>
      </trkpt>
      <trkpt lat="49.39252" lon="5.83218">
        <ele>303.79998779297</ele>
        <time>2022-09-13T11:24:40.000Z</time>
      </trkpt>
      <trkpt lat="49.39253" lon="5.83217">
        <ele>303.79998779297</ele>
        <time>2022-09-13T11:24:41.000Z</time>
      </trkpt>
      <trkpt lat="49.39255" lon="5.83215">
        <ele>303.79998779297</ele>
        <time>2022-09-13T11:24:42.000Z</time>
      </trkpt>
      <trkpt lat="49.39262" lon="5.83211">
        <ele>303.79998779297</ele>
        <time>2022-09-13T11:24:43.000Z</time>
      </trkpt>
      <trkpt lat="49.39269" lon="5.83204">
        <ele>304</ele>
        <time>2022-09-13T11:24:45.000Z</time>
      </trkpt>
      <trkpt lat="49.39273" lon="5.83201">
        <ele>304</ele>
        <time>2022-09-13T11:24:46.000Z</time>
      </trkpt>
      <trkpt lat="49.39279" lon="5.83193">
        <ele>304.20001220703</ele>
        <time>2022-09-13T11:24:48.000Z</time>
      </trkpt>
      <trkpt lat="49.39281" lon="5.8319">
        <ele>304.39999389648</ele>
        <time>2022-09-13T11:24:49.000Z</time>
      </trkpt>
      <trkpt lat="49.39282" lon="5.83186">
        <ele>304.60000610352</ele>
        <time>2022-09-13T11:24:50.000Z</time>
      </trkpt>
      <trkpt lat="49.39284" lon="5.83183">
        <ele>304.60000610352</ele>
        <time>2022-09-13T11:24:51.000Z</time>
      </trkpt>
      <trkpt lat="49.39286" lon="5.8318">
        <ele>304.60000610352</ele>
        <time>2022-09-13T11:24:52.000Z</time>
      </trkpt>
      <trkpt lat="49.39285" lon="5.83177">
        <ele>304.79998779297</ele>
        <time>2022-09-13T11:24:53.000Z</time>
      </trkpt>
      <trkpt lat="49.39286" lon="5.83173">
        <ele>304.79998779297</ele>
        <time>2022-09-13T11:24:54.000Z</time>
      </trkpt>
      <trkpt lat="49.39286" lon="5.8317">
        <ele>304.79998779297</ele>
        <time>2022-09-13T11:24:55.000Z</time>
      </trkpt>
      <trkpt lat="49.39287" lon="5.83166">
        <ele>304.79998779297</ele>
        <time>2022-09-13T11:24:56.000Z</time>
      </trkpt>
      <trkpt lat="49.39293" lon="5.83154">
        <ele>305.60000610352</ele>
        <time>2022-09-13T11:24:59.000Z</time>
      </trkpt>
      <trkpt lat="49.39299" lon="5.83143">
        <ele>306.20001220703</ele>
        <time>2022-09-13T11:25:03.000Z</time>
      </trkpt>
      <trkpt lat="49.39304" lon="5.83138">
        <ele>306.60000610352</ele>
        <time>2022-09-13T11:25:05.000Z</time>
      </trkpt>
      <trkpt lat="49.39305" lon="5.83135">
        <ele>307</ele>
        <time>2022-09-13T11:25:06.000Z</time>
      </trkpt>
      <trkpt lat="49.39308" lon="5.83132">
        <ele>307</ele>
        <time>2022-09-13T11:25:07.000Z</time>
      </trkpt>
      <trkpt lat="49.39313" lon="5.83125">
        <ele>307.20001220703</ele>
        <time>2022-09-13T11:25:09.000Z</time>
      </trkpt>
      <trkpt lat="49.39314" lon="5.83119">
        <ele>307.39999389648</ele>
        <time>2022-09-13T11:25:10.000Z</time>
      </trkpt>
      <trkpt lat="49.39317" lon="5.83113">
        <ele>307.39999389648</ele>
        <time>2022-09-13T11:25:11.000Z</time>
      </trkpt>
      <trkpt lat="49.39318" lon="5.83108">
        <ele>307.39999389648</ele>
        <time>2022-09-13T11:25:12.000Z</time>
      </trkpt>
      <trkpt lat="49.39319" lon="5.83103">
        <ele>307.39999389648</ele>
        <time>2022-09-13T11:25:13.000Z</time>
      </trkpt>
      <trkpt lat="49.3932" lon="5.83097">
        <ele>307.39999389648</ele>
        <time>2022-09-13T11:25:14.000Z</time>
      </trkpt>
      <trkpt lat="49.39321" lon="5.83092">
        <ele>307.39999389648</ele>
        <time>2022-09-13T11:25:15.000Z</time>
      </trkpt>
      <trkpt lat="49.39323" lon="5.83088">
        <ele>307.60000610352</ele>
        <time>2022-09-13T11:25:16.000Z</time>
      </trkpt>
      <trkpt lat="49.39323" lon="5.83084">
        <ele>307.60000610352</ele>
        <time>2022-09-13T11:25:17.000Z</time>
      </trkpt>
      <trkpt lat="49.39324" lon="5.8308">
        <ele>307.60000610352</ele>
        <time>2022-09-13T11:25:18.000Z</time>
      </trkpt>
      <trkpt lat="49.39327" lon="5.83076">
        <ele>307.60000610352</ele>
        <time>2022-09-13T11:25:19.000Z</time>
      </trkpt>
      <trkpt lat="49.3933" lon="5.83071">
        <ele>307.79998779297</ele>
        <time>2022-09-13T11:25:20.000Z</time>
      </trkpt>
      <trkpt lat="49.3933" lon="5.83068">
        <ele>307.79998779297</ele>
        <time>2022-09-13T11:25:21.000Z</time>
      </trkpt>
      <trkpt lat="49.39331" lon="5.83064">
        <ele>308</ele>
        <time>2022-09-13T11:25:22.000Z</time>
      </trkpt>
      <trkpt lat="49.39332" lon="5.8306">
        <ele>308</ele>
        <time>2022-09-13T11:25:23.000Z</time>
      </trkpt>
      <trkpt lat="49.39334" lon="5.83056">
        <ele>308</ele>
        <time>2022-09-13T11:25:24.000Z</time>
      </trkpt>
      <trkpt lat="49.39335" lon="5.83053">
        <ele>308.20001220703</ele>
        <time>2022-09-13T11:25:25.000Z</time>
      </trkpt>
      <trkpt lat="49.39336" lon="5.8305">
        <ele>308.20001220703</ele>
        <time>2022-09-13T11:25:26.000Z</time>
      </trkpt>
      <trkpt lat="49.39338" lon="5.83047">
        <ele>308.20001220703</ele>
        <time>2022-09-13T11:25:27.000Z</time>
      </trkpt>
      <trkpt lat="49.3934" lon="5.83043">
        <ele>308.39999389648</ele>
        <time>2022-09-13T11:25:28.000Z</time>
      </trkpt>
      <trkpt lat="49.39344" lon="5.83034">
        <ele>308.60000610352</ele>
        <time>2022-09-13T11:25:31.000Z</time>
      </trkpt>
      <trkpt lat="49.39349" lon="5.83009">
        <ele>308.60000610352</ele>
        <time>2022-09-13T11:25:36.000Z</time>
      </trkpt>
      <trkpt lat="49.39351" lon="5.83005">
        <ele>308.60000610352</ele>
        <time>2022-09-13T11:25:37.000Z</time>
      </trkpt>
      <trkpt lat="49.39355" lon="5.83001">
        <ele>308.60000610352</ele>
        <time>2022-09-13T11:25:38.000Z</time>
      </trkpt>
      <trkpt lat="49.39357" lon="5.82997">
        <ele>308.60000610352</ele>
        <time>2022-09-13T11:25:39.000Z</time>
      </trkpt>
      <trkpt lat="49.3936" lon="5.82993">
        <ele>308.39999389648</ele>
        <time>2022-09-13T11:25:40.000Z</time>
      </trkpt>
      <trkpt lat="49.39364" lon="5.82988">
        <ele>308.39999389648</ele>
        <time>2022-09-13T11:25:41.000Z</time>
      </trkpt>
      <trkpt lat="49.39365" lon="5.82984">
        <ele>308.20001220703</ele>
        <time>2022-09-13T11:25:42.000Z</time>
      </trkpt>
      <trkpt lat="49.39365" lon="5.82979">
        <ele>308</ele>
        <time>2022-09-13T11:25:43.000Z</time>
      </trkpt>
      <trkpt lat="49.39366" lon="5.82975">
        <ele>308</ele>
        <time>2022-09-13T11:25:44.000Z</time>
      </trkpt>
      <trkpt lat="49.39365" lon="5.82971">
        <ele>307.79998779297</ele>
        <time>2022-09-13T11:25:45.000Z</time>
      </trkpt>
      <trkpt lat="49.39363" lon="5.82966">
        <ele>307.79998779297</ele>
        <time>2022-09-13T11:25:46.000Z</time>
      </trkpt>
      <trkpt lat="49.39361" lon="5.82961">
        <ele>307.60000610352</ele>
        <time>2022-09-13T11:25:47.000Z</time>
      </trkpt>
      <trkpt lat="49.39357" lon="5.82955">
        <ele>307.39999389648</ele>
        <time>2022-09-13T11:25:48.000Z</time>
      </trkpt>
      <trkpt lat="49.39354" lon="5.82949">
        <ele>307</ele>
        <time>2022-09-13T11:25:49.000Z</time>
      </trkpt>
      <trkpt lat="49.3935" lon="5.82944">
        <ele>306.60000610352</ele>
        <time>2022-09-13T11:25:50.000Z</time>
      </trkpt>
      <trkpt lat="49.39341" lon="5.82937">
        <ele>305.60000610352</ele>
        <time>2022-09-13T11:25:52.000Z</time>
      </trkpt>
      <trkpt lat="49.39338" lon="5.82934">
        <ele>305.39999389648</ele>
        <time>2022-09-13T11:25:53.000Z</time>
      </trkpt>
      <trkpt lat="49.39335" lon="5.8293">
        <ele>305</ele>
        <time>2022-09-13T11:25:54.000Z</time>
      </trkpt>
      <trkpt lat="49.39331" lon="5.82918">
        <ele>304.20001220703</ele>
        <time>2022-09-13T11:25:56.000Z</time>
      </trkpt>
      <trkpt lat="49.3933" lon="5.82911">
        <ele>304</ele>
        <time>2022-09-13T11:25:57.000Z</time>
      </trkpt>
      <trkpt lat="49.39329" lon="5.82905">
        <ele>303</ele>
        <time>2022-09-13T11:25:58.000Z</time>
      </trkpt>
      <trkpt lat="49.39327" lon="5.82898">
        <ele>302.39999389648</ele>
        <time>2022-09-13T11:25:59.000Z</time>
      </trkpt>
      <trkpt lat="49.39323" lon="5.82891">
        <ele>301.79998779297</ele>
        <time>2022-09-13T11:26:00.000Z</time>
      </trkpt>
      <trkpt lat="49.39319" lon="5.82886">
        <ele>301</ele>
        <time>2022-09-13T11:26:01.000Z</time>
      </trkpt>
      <trkpt lat="49.39316" lon="5.82884">
        <ele>300.39999389648</ele>
        <time>2022-09-13T11:26:02.000Z</time>
      </trkpt>
      <trkpt lat="49.3931" lon="5.82881">
        <ele>299</ele>
        <time>2022-09-13T11:26:03.000Z</time>
      </trkpt>
      <trkpt lat="49.39303" lon="5.82877">
        <ele>298.39999389648</ele>
        <time>2022-09-13T11:26:04.000Z</time>
      </trkpt>
      <trkpt lat="49.39296" lon="5.82869">
        <ele>297.39999389648</ele>
        <time>2022-09-13T11:26:05.000Z</time>
      </trkpt>
      <trkpt lat="49.39292" lon="5.82863">
        <ele>296.60000610352</ele>
        <time>2022-09-13T11:26:06.000Z</time>
      </trkpt>
      <trkpt lat="49.39287" lon="5.82857">
        <ele>296.20001220703</ele>
        <time>2022-09-13T11:26:07.000Z</time>
      </trkpt>
      <trkpt lat="49.3928" lon="5.82851">
        <ele>295.20001220703</ele>
        <time>2022-09-13T11:26:08.000Z</time>
      </trkpt>
      <trkpt lat="49.39274" lon="5.82846">
        <ele>294.39999389648</ele>
        <time>2022-09-13T11:26:09.000Z</time>
      </trkpt>
      <trkpt lat="49.39269" lon="5.8284">
        <ele>293.20001220703</ele>
        <time>2022-09-13T11:26:10.000Z</time>
      </trkpt>
      <trkpt lat="49.39267" lon="5.82831">
        <ele>292.39999389648</ele>
        <time>2022-09-13T11:26:11.000Z</time>
      </trkpt>
      <trkpt lat="49.39268" lon="5.82823">
        <ele>291.20001220703</ele>
        <time>2022-09-13T11:26:12.000Z</time>
      </trkpt>
      <trkpt lat="49.39267" lon="5.82814">
        <ele>290.39999389648</ele>
        <time>2022-09-13T11:26:13.000Z</time>
      </trkpt>
      <trkpt lat="49.39262" lon="5.82807">
        <ele>289.39999389648</ele>
        <time>2022-09-13T11:26:14.000Z</time>
      </trkpt>
      <trkpt lat="49.39258" lon="5.82802">
        <ele>288.60000610352</ele>
        <time>2022-09-13T11:26:15.000Z</time>
      </trkpt>
      <trkpt lat="49.39255" lon="5.82798">
        <ele>288.20001220703</ele>
        <time>2022-09-13T11:26:16.000Z</time>
      </trkpt>
      <trkpt lat="49.39254" lon="5.82795">
        <ele>287.60000610352</ele>
        <time>2022-09-13T11:26:17.000Z</time>
      </trkpt>
      <trkpt lat="49.39254" lon="5.82791">
        <ele>287.39999389648</ele>
        <time>2022-09-13T11:26:18.000Z</time>
      </trkpt>
      <trkpt lat="49.39254" lon="5.82787">
        <ele>287</ele>
        <time>2022-09-13T11:26:19.000Z</time>
      </trkpt>
      <trkpt lat="49.39255" lon="5.82784">
        <ele>286.79998779297</ele>
        <time>2022-09-13T11:26:20.000Z</time>
      </trkpt>
      <trkpt lat="49.39256" lon="5.82782">
        <ele>286.79998779297</ele>
        <time>2022-09-13T11:26:21.000Z</time>
      </trkpt>
      <trkpt lat="49.39257" lon="5.8278">
        <ele>286.79998779297</ele>
        <time>2022-09-13T11:26:22.000Z</time>
      </trkpt>
      <trkpt lat="49.39258" lon="5.82779">
        <ele>286.79998779297</ele>
        <time>2022-09-13T11:26:23.000Z</time>
      </trkpt>
      <trkpt lat="49.39259" lon="5.82777">
        <ele>286.79998779297</ele>
        <time>2022-09-13T11:26:24.000Z</time>
      </trkpt>
      <trkpt lat="49.39259" lon="5.82775">
        <ele>286.79998779297</ele>
        <time>2022-09-13T11:26:25.000Z</time>
      </trkpt>
      <trkpt lat="49.39261" lon="5.82773">
        <ele>287</ele>
        <time>2022-09-13T11:26:26.000Z</time>
      </trkpt>
      <trkpt lat="49.39261" lon="5.82771">
        <ele>287.20001220703</ele>
        <time>2022-09-13T11:26:27.000Z</time>
      </trkpt>
      <trkpt lat="49.39262" lon="5.82769">
        <ele>287.20001220703</ele>
        <time>2022-09-13T11:26:28.000Z</time>
      </trkpt>
      <trkpt lat="49.39262" lon="5.82767">
        <ele>287.60000610352</ele>
        <time>2022-09-13T11:26:29.000Z</time>
      </trkpt>
      <trkpt lat="49.39264" lon="5.82764">
        <ele>287.79998779297</ele>
        <time>2022-09-13T11:26:30.000Z</time>
      </trkpt>
      <trkpt lat="49.39265" lon="5.8276">
        <ele>288</ele>
        <time>2022-09-13T11:26:31.000Z</time>
      </trkpt>
      <trkpt lat="49.39265" lon="5.82757">
        <ele>288</ele>
        <time>2022-09-13T11:26:32.000Z</time>
      </trkpt>
      <trkpt lat="49.3927" lon="5.82749">
        <ele>289.20001220703</ele>
        <time>2022-09-13T11:26:35.000Z</time>
      </trkpt>
      <trkpt lat="49.39278" lon="5.82741">
        <ele>290</ele>
        <time>2022-09-13T11:26:39.000Z</time>
      </trkpt>
      <trkpt lat="49.3928" lon="5.82738">
        <ele>290.39999389648</ele>
        <time>2022-09-13T11:26:40.000Z</time>
      </trkpt>
      <trkpt lat="49.39289" lon="5.82727">
        <ele>291.60000610352</ele>
        <time>2022-09-13T11:26:45.000Z</time>
      </trkpt>
      <trkpt lat="49.39292" lon="5.82723">
        <ele>292.39999389648</ele>
        <time>2022-09-13T11:26:47.000Z</time>
      </trkpt>
      <trkpt lat="49.39294" lon="5.82721">
        <ele>292.79998779297</ele>
        <time>2022-09-13T11:26:48.000Z</time>
      </trkpt>
      <trkpt lat="49.39297" lon="5.82718">
        <ele>293.20001220703</ele>
        <time>2022-09-13T11:26:49.000Z</time>
      </trkpt>
      <trkpt lat="49.393" lon="5.82716">
        <ele>293.60000610352</ele>
        <time>2022-09-13T11:26:50.000Z</time>
      </trkpt>
      <trkpt lat="49.39303" lon="5.82714">
        <ele>294</ele>
        <time>2022-09-13T11:26:51.000Z</time>
      </trkpt>
      <trkpt lat="49.39306" lon="5.82712">
        <ele>294.60000610352</ele>
        <time>2022-09-13T11:26:52.000Z</time>
      </trkpt>
      <trkpt lat="49.39308" lon="5.82711">
        <ele>295</ele>
        <time>2022-09-13T11:26:53.000Z</time>
      </trkpt>
      <trkpt lat="49.39311" lon="5.82709">
        <ele>295.39999389648</ele>
        <time>2022-09-13T11:26:54.000Z</time>
      </trkpt>
      <trkpt lat="49.39313" lon="5.82706">
        <ele>295.79998779297</ele>
        <time>2022-09-13T11:26:55.000Z</time>
      </trkpt>
      <trkpt lat="49.39315" lon="5.82704">
        <ele>296.20001220703</ele>
        <time>2022-09-13T11:26:56.000Z</time>
      </trkpt>
      <trkpt lat="49.39317" lon="5.82703">
        <ele>296.39999389648</ele>
        <time>2022-09-13T11:26:57.000Z</time>
      </trkpt>
      <trkpt lat="49.3932" lon="5.82701">
        <ele>297</ele>
        <time>2022-09-13T11:26:58.000Z</time>
      </trkpt>
      <trkpt lat="49.39322" lon="5.82699">
        <ele>297.20001220703</ele>
        <time>2022-09-13T11:26:59.000Z</time>
      </trkpt>
      <trkpt lat="49.39323" lon="5.82696">
        <ele>297.79998779297</ele>
        <time>2022-09-13T11:27:00.000Z</time>
      </trkpt>
      <trkpt lat="49.39325" lon="5.82693">
        <ele>298.39999389648</ele>
        <time>2022-09-13T11:27:01.000Z</time>
      </trkpt>
      <trkpt lat="49.39326" lon="5.82691">
        <ele>298.79998779297</ele>
        <time>2022-09-13T11:27:02.000Z</time>
      </trkpt>
      <trkpt lat="49.39328" lon="5.8269">
        <ele>299.20001220703</ele>
        <time>2022-09-13T11:27:03.000Z</time>
      </trkpt>
      <trkpt lat="49.3933" lon="5.82688">
        <ele>299.39999389648</ele>
        <time>2022-09-13T11:27:04.000Z</time>
      </trkpt>
      <trkpt lat="49.39332" lon="5.82686">
        <ele>299.60000610352</ele>
        <time>2022-09-13T11:27:05.000Z</time>
      </trkpt>
      <trkpt lat="49.39334" lon="5.82684">
        <ele>299.79998779297</ele>
        <time>2022-09-13T11:27:06.000Z</time>
      </trkpt>
      <trkpt lat="49.39336" lon="5.82683">
        <ele>300</ele>
        <time>2022-09-13T11:27:07.000Z</time>
      </trkpt>
      <trkpt lat="49.39338" lon="5.82681">
        <ele>300.20001220703</ele>
        <time>2022-09-13T11:27:08.000Z</time>
      </trkpt>
      <trkpt lat="49.3934" lon="5.8268">
        <ele>300.60000610352</ele>
        <time>2022-09-13T11:27:09.000Z</time>
      </trkpt>
      <trkpt lat="49.39342" lon="5.82679">
        <ele>301</ele>
        <time>2022-09-13T11:27:10.000Z</time>
      </trkpt>
      <trkpt lat="49.39344" lon="5.82677">
        <ele>301.20001220703</ele>
        <time>2022-09-13T11:27:11.000Z</time>
      </trkpt>
      <trkpt lat="49.39346" lon="5.82676">
        <ele>301.39999389648</ele>
        <time>2022-09-13T11:27:12.000Z</time>
      </trkpt>
      <trkpt lat="49.39349" lon="5.82675">
        <ele>301.60000610352</ele>
        <time>2022-09-13T11:27:13.000Z</time>
      </trkpt>
      <trkpt lat="49.3935" lon="5.82674">
        <ele>301.79998779297</ele>
        <time>2022-09-13T11:27:14.000Z</time>
      </trkpt>
      <trkpt lat="49.39351" lon="5.82672">
        <ele>302</ele>
        <time>2022-09-13T11:27:15.000Z</time>
      </trkpt>
      <trkpt lat="49.39352" lon="5.82671">
        <ele>302</ele>
        <time>2022-09-13T11:27:16.000Z</time>
      </trkpt>
      <trkpt lat="49.39353" lon="5.82669">
        <ele>302.39999389648</ele>
        <time>2022-09-13T11:27:17.000Z</time>
      </trkpt>
      <trkpt lat="49.39354" lon="5.82667">
        <ele>302.39999389648</ele>
        <time>2022-09-13T11:27:18.000Z</time>
      </trkpt>
      <trkpt lat="49.39355" lon="5.82663">
        <ele>302.60000610352</ele>
        <time>2022-09-13T11:27:19.000Z</time>
      </trkpt>
      <trkpt lat="49.39357" lon="5.82659">
        <ele>302.60000610352</ele>
        <time>2022-09-13T11:27:20.000Z</time>
      </trkpt>
      <trkpt lat="49.39359" lon="5.82655">
        <ele>302.60000610352</ele>
        <time>2022-09-13T11:27:21.000Z</time>
      </trkpt>
      <trkpt lat="49.39362" lon="5.82651">
        <ele>302.60000610352</ele>
        <time>2022-09-13T11:27:22.000Z</time>
      </trkpt>
      <trkpt lat="49.39366" lon="5.82646">
        <ele>302.60000610352</ele>
        <time>2022-09-13T11:27:23.000Z</time>
      </trkpt>
      <trkpt lat="49.3937" lon="5.82641">
        <ele>302.60000610352</ele>
        <time>2022-09-13T11:27:24.000Z</time>
      </trkpt>
      <trkpt lat="49.39375" lon="5.82635">
        <ele>302.60000610352</ele>
        <time>2022-09-13T11:27:25.000Z</time>
      </trkpt>
      <trkpt lat="49.39378" lon="5.8263">
        <ele>302.39999389648</ele>
        <time>2022-09-13T11:27:26.000Z</time>
      </trkpt>
      <trkpt lat="49.39382" lon="5.82626">
        <ele>302.20001220703</ele>
        <time>2022-09-13T11:27:27.000Z</time>
      </trkpt>
      <trkpt lat="49.39385" lon="5.82623">
        <ele>301.79998779297</ele>
        <time>2022-09-13T11:27:28.000Z</time>
      </trkpt>
      <trkpt lat="49.3939" lon="5.8262">
        <ele>301.79998779297</ele>
        <time>2022-09-13T11:27:29.000Z</time>
      </trkpt>
      <trkpt lat="49.39395" lon="5.82617">
        <ele>301.60000610352</ele>
        <time>2022-09-13T11:27:30.000Z</time>
      </trkpt>
      <trkpt lat="49.39401" lon="5.82615">
        <ele>301.20001220703</ele>
        <time>2022-09-13T11:27:31.000Z</time>
      </trkpt>
      <trkpt lat="49.39407" lon="5.82612">
        <ele>300.79998779297</ele>
        <time>2022-09-13T11:27:32.000Z</time>
      </trkpt>
      <trkpt lat="49.39413" lon="5.82608">
        <ele>300</ele>
        <time>2022-09-13T11:27:33.000Z</time>
      </trkpt>
      <trkpt lat="49.39425" lon="5.82604">
        <ele>298.60000610352</ele>
        <time>2022-09-13T11:27:35.000Z</time>
      </trkpt>
      <trkpt lat="49.39429" lon="5.82602">
        <ele>298</ele>
        <time>2022-09-13T11:27:36.000Z</time>
      </trkpt>
      <trkpt lat="49.39434" lon="5.826">
        <ele>297.39999389648</ele>
        <time>2022-09-13T11:27:37.000Z</time>
      </trkpt>
      <trkpt lat="49.3944" lon="5.82597">
        <ele>297</ele>
        <time>2022-09-13T11:27:38.000Z</time>
      </trkpt>
      <trkpt lat="49.39445" lon="5.82595">
        <ele>296.79998779297</ele>
        <time>2022-09-13T11:27:39.000Z</time>
      </trkpt>
      <trkpt lat="49.3945" lon="5.82594">
        <ele>296.60000610352</ele>
        <time>2022-09-13T11:27:40.000Z</time>
      </trkpt>
      <trkpt lat="49.39453" lon="5.82594">
        <ele>296.39999389648</ele>
        <time>2022-09-13T11:27:41.000Z</time>
      </trkpt>
      <trkpt lat="49.39457" lon="5.82594">
        <ele>296.20001220703</ele>
        <time>2022-09-13T11:27:42.000Z</time>
      </trkpt>
      <trkpt lat="49.39463" lon="5.82594">
        <ele>295.79998779297</ele>
        <time>2022-09-13T11:27:43.000Z</time>
      </trkpt>
      <trkpt lat="49.3947" lon="5.82593">
        <ele>295.20001220703</ele>
        <time>2022-09-13T11:27:44.000Z</time>
      </trkpt>
      <trkpt lat="49.39478" lon="5.82589">
        <ele>294.79998779297</ele>
        <time>2022-09-13T11:27:45.000Z</time>
      </trkpt>
      <trkpt lat="49.39486" lon="5.82584">
        <ele>294.60000610352</ele>
        <time>2022-09-13T11:27:46.000Z</time>
      </trkpt>
      <trkpt lat="49.39494" lon="5.82578">
        <ele>294</ele>
        <time>2022-09-13T11:27:47.000Z</time>
      </trkpt>
      <trkpt lat="49.39502" lon="5.82575">
        <ele>293.79998779297</ele>
        <time>2022-09-13T11:27:48.000Z</time>
      </trkpt>
      <trkpt lat="49.39509" lon="5.82571">
        <ele>293.39999389648</ele>
        <time>2022-09-13T11:27:49.000Z</time>
      </trkpt>
      <trkpt lat="49.39517" lon="5.82568">
        <ele>293</ele>
        <time>2022-09-13T11:27:50.000Z</time>
      </trkpt>
      <trkpt lat="49.39523" lon="5.82565">
        <ele>292.79998779297</ele>
        <time>2022-09-13T11:27:51.000Z</time>
      </trkpt>
      <trkpt lat="49.39529" lon="5.82562">
        <ele>292.60000610352</ele>
        <time>2022-09-13T11:27:52.000Z</time>
      </trkpt>
      <trkpt lat="49.39535" lon="5.82558">
        <ele>292.39999389648</ele>
        <time>2022-09-13T11:27:53.000Z</time>
      </trkpt>
      <trkpt lat="49.39541" lon="5.82554">
        <ele>292.20001220703</ele>
        <time>2022-09-13T11:27:54.000Z</time>
      </trkpt>
      <trkpt lat="49.39547" lon="5.8255">
        <ele>292.20001220703</ele>
        <time>2022-09-13T11:27:55.000Z</time>
      </trkpt>
      <trkpt lat="49.39559" lon="5.8254">
        <ele>292</ele>
        <time>2022-09-13T11:27:57.000Z</time>
      </trkpt>
      <trkpt lat="49.39573" lon="5.82528">
        <ele>291.79998779297</ele>
        <time>2022-09-13T11:27:59.000Z</time>
      </trkpt>
      <trkpt lat="49.39585" lon="5.82515">
        <ele>290.79998779297</ele>
        <time>2022-09-13T11:28:01.000Z</time>
      </trkpt>
      <trkpt lat="49.39599" lon="5.82502">
        <ele>289.79998779297</ele>
        <time>2022-09-13T11:28:03.000Z</time>
      </trkpt>
      <trkpt lat="49.39606" lon="5.82496">
        <ele>289.60000610352</ele>
        <time>2022-09-13T11:28:04.000Z</time>
      </trkpt>
      <trkpt lat="49.39628" lon="5.82478">
        <ele>288.20001220703</ele>
        <time>2022-09-13T11:28:07.000Z</time>
      </trkpt>
      <trkpt lat="49.39635" lon="5.82472">
        <ele>287.60000610352</ele>
        <time>2022-09-13T11:28:08.000Z</time>
      </trkpt>
      <trkpt lat="49.39642" lon="5.82465">
        <ele>287.39999389648</ele>
        <time>2022-09-13T11:28:09.000Z</time>
      </trkpt>
      <trkpt lat="49.39648" lon="5.82459">
        <ele>286.79998779297</ele>
        <time>2022-09-13T11:28:10.000Z</time>
      </trkpt>
      <trkpt lat="49.39654" lon="5.82453">
        <ele>286.79998779297</ele>
        <time>2022-09-13T11:28:11.000Z</time>
      </trkpt>
      <trkpt lat="49.39659" lon="5.82448">
        <ele>286.60000610352</ele>
        <time>2022-09-13T11:28:12.000Z</time>
      </trkpt>
      <trkpt lat="49.39663" lon="5.82446">
        <ele>286.39999389648</ele>
        <time>2022-09-13T11:28:13.000Z</time>
      </trkpt>
      <trkpt lat="49.39665" lon="5.82444">
        <ele>286.39999389648</ele>
        <time>2022-09-13T11:28:14.000Z</time>
      </trkpt>
      <trkpt lat="49.39667" lon="5.82444">
        <ele>286.39999389648</ele>
        <time>2022-09-13T11:28:15.000Z</time>
      </trkpt>
      <trkpt lat="49.39668" lon="5.82442">
        <ele>286.39999389648</ele>
        <time>2022-09-13T11:28:16.000Z</time>
      </trkpt>
      <trkpt lat="49.3967" lon="5.82441">
        <ele>286.39999389648</ele>
        <time>2022-09-13T11:28:17.000Z</time>
      </trkpt>
      <trkpt lat="49.3967" lon="5.82441">
        <ele>286.60000610352</ele>
        <time>2022-09-13T11:28:18.000Z</time>
      </trkpt>
      <trkpt lat="49.39672" lon="5.82438">
        <ele>286.79998779297</ele>
        <time>2022-09-13T11:28:19.000Z</time>
      </trkpt>
      <trkpt lat="49.39674" lon="5.82435">
        <ele>287</ele>
        <time>2022-09-13T11:28:20.000Z</time>
      </trkpt>
      <trkpt lat="49.39679" lon="5.82429">
        <ele>287.60000610352</ele>
        <time>2022-09-13T11:28:22.000Z</time>
      </trkpt>
      <trkpt lat="49.3968" lon="5.82428">
        <ele>288.20001220703</ele>
        <time>2022-09-13T11:28:23.000Z</time>
      </trkpt>
      <trkpt lat="49.39682" lon="5.82427">
        <ele>289</ele>
        <time>2022-09-13T11:28:24.000Z</time>
      </trkpt>
      <trkpt lat="49.39683" lon="5.82424">
        <ele>289.20001220703</ele>
        <time>2022-09-13T11:28:25.000Z</time>
      </trkpt>
      <trkpt lat="49.39685" lon="5.82422">
        <ele>289.79998779297</ele>
        <time>2022-09-13T11:28:26.000Z</time>
      </trkpt>
      <trkpt lat="49.39687" lon="5.82421">
        <ele>290.20001220703</ele>
        <time>2022-09-13T11:28:27.000Z</time>
      </trkpt>
      <trkpt lat="49.39687" lon="5.8242">
        <ele>290.60000610352</ele>
        <time>2022-09-13T11:28:28.000Z</time>
      </trkpt>
      <trkpt lat="49.39689" lon="5.82419">
        <ele>290.79998779297</ele>
        <time>2022-09-13T11:28:29.000Z</time>
      </trkpt>
      <trkpt lat="49.39692" lon="5.82416">
        <ele>291.20001220703</ele>
        <time>2022-09-13T11:28:30.000Z</time>
      </trkpt>
      <trkpt lat="49.39693" lon="5.82415">
        <ele>291.79998779297</ele>
        <time>2022-09-13T11:28:31.000Z</time>
      </trkpt>
      <trkpt lat="49.39693" lon="5.82415">
        <ele>292</ele>
        <time>2022-09-13T11:28:32.000Z</time>
      </trkpt>
      <trkpt lat="49.39694" lon="5.82415">
        <ele>292.60000610352</ele>
        <time>2022-09-13T11:28:33.000Z</time>
      </trkpt>
      <trkpt lat="49.39695" lon="5.82415">
        <ele>292.79998779297</ele>
        <time>2022-09-13T11:28:34.000Z</time>
      </trkpt>
      <trkpt lat="49.39697" lon="5.82414">
        <ele>293.20001220703</ele>
        <time>2022-09-13T11:28:35.000Z</time>
      </trkpt>
      <trkpt lat="49.39697" lon="5.82413">
        <ele>293.39999389648</ele>
        <time>2022-09-13T11:28:36.000Z</time>
      </trkpt>
      <trkpt lat="49.39698" lon="5.82412">
        <ele>293.60000610352</ele>
        <time>2022-09-13T11:28:37.000Z</time>
      </trkpt>
      <trkpt lat="49.39699" lon="5.8241">
        <ele>294</ele>
        <time>2022-09-13T11:28:38.000Z</time>
      </trkpt>
      <trkpt lat="49.397" lon="5.82409">
        <ele>294.60000610352</ele>
        <time>2022-09-13T11:28:39.000Z</time>
      </trkpt>
      <trkpt lat="49.39701" lon="5.82407">
        <ele>295</ele>
        <time>2022-09-13T11:28:40.000Z</time>
      </trkpt>
      <trkpt lat="49.39702" lon="5.82406">
        <ele>295.20001220703</ele>
        <time>2022-09-13T11:28:41.000Z</time>
      </trkpt>
      <trkpt lat="49.39703" lon="5.82404">
        <ele>295.79998779297</ele>
        <time>2022-09-13T11:28:42.000Z</time>
      </trkpt>
      <trkpt lat="49.39704" lon="5.82402">
        <ele>296</ele>
        <time>2022-09-13T11:28:43.000Z</time>
      </trkpt>
      <trkpt lat="49.39705" lon="5.824">
        <ele>296.60000610352</ele>
        <time>2022-09-13T11:28:44.000Z</time>
      </trkpt>
      <trkpt lat="49.39707" lon="5.82398">
        <ele>296.79998779297</ele>
        <time>2022-09-13T11:28:45.000Z</time>
      </trkpt>
      <trkpt lat="49.39707" lon="5.82395">
        <ele>297.39999389648</ele>
        <time>2022-09-13T11:28:46.000Z</time>
      </trkpt>
      <trkpt lat="49.39708" lon="5.82393">
        <ele>298</ele>
        <time>2022-09-13T11:28:47.000Z</time>
      </trkpt>
      <trkpt lat="49.39709" lon="5.8239">
        <ele>298.20001220703</ele>
        <time>2022-09-13T11:28:48.000Z</time>
      </trkpt>
      <trkpt lat="49.3971" lon="5.82388">
        <ele>298.60000610352</ele>
        <time>2022-09-13T11:28:49.000Z</time>
      </trkpt>
      <trkpt lat="49.39711" lon="5.82386">
        <ele>298.79998779297</ele>
        <time>2022-09-13T11:28:50.000Z</time>
      </trkpt>
      <trkpt lat="49.39711" lon="5.82384">
        <ele>299</ele>
        <time>2022-09-13T11:28:51.000Z</time>
      </trkpt>
      <trkpt lat="49.39712" lon="5.82382">
        <ele>299</ele>
        <time>2022-09-13T11:28:52.000Z</time>
      </trkpt>
      <trkpt lat="49.39713" lon="5.8238">
        <ele>299.20001220703</ele>
        <time>2022-09-13T11:28:53.000Z</time>
      </trkpt>
      <trkpt lat="49.39714" lon="5.82375">
        <ele>299.39999389648</ele>
        <time>2022-09-13T11:28:54.000Z</time>
      </trkpt>
      <trkpt lat="49.39715" lon="5.82372">
        <ele>299.60000610352</ele>
        <time>2022-09-13T11:28:55.000Z</time>
      </trkpt>
      <trkpt lat="49.39716" lon="5.8237">
        <ele>299.60000610352</ele>
        <time>2022-09-13T11:28:56.000Z</time>
      </trkpt>
      <trkpt lat="49.39717" lon="5.82367">
        <ele>299.79998779297</ele>
        <time>2022-09-13T11:28:57.000Z</time>
      </trkpt>
      <trkpt lat="49.39718" lon="5.82363">
        <ele>299.79998779297</ele>
        <time>2022-09-13T11:28:58.000Z</time>
      </trkpt>
      <trkpt lat="49.39718" lon="5.82359">
        <ele>299.79998779297</ele>
        <time>2022-09-13T11:28:59.000Z</time>
      </trkpt>
      <trkpt lat="49.39719" lon="5.82354">
        <ele>300</ele>
        <time>2022-09-13T11:29:00.000Z</time>
      </trkpt>
      <trkpt lat="49.3972" lon="5.8235">
        <ele>300.20001220703</ele>
        <time>2022-09-13T11:29:01.000Z</time>
      </trkpt>
      <trkpt lat="49.39721" lon="5.82345">
        <ele>300.20001220703</ele>
        <time>2022-09-13T11:29:02.000Z</time>
      </trkpt>
      <trkpt lat="49.39722" lon="5.82341">
        <ele>300.20001220703</ele>
        <time>2022-09-13T11:29:03.000Z</time>
      </trkpt>
      <trkpt lat="49.39723" lon="5.82336">
        <ele>300.20001220703</ele>
        <time>2022-09-13T11:29:04.000Z</time>
      </trkpt>
      <trkpt lat="49.39723" lon="5.82331">
        <ele>300.20001220703</ele>
        <time>2022-09-13T11:29:05.000Z</time>
      </trkpt>
      <trkpt lat="49.39724" lon="5.82327">
        <ele>300.20001220703</ele>
        <time>2022-09-13T11:29:06.000Z</time>
      </trkpt>
      <trkpt lat="49.39723" lon="5.82321">
        <ele>300.20001220703</ele>
        <time>2022-09-13T11:29:07.000Z</time>
      </trkpt>
      <trkpt lat="49.39724" lon="5.82316">
        <ele>300.20001220703</ele>
        <time>2022-09-13T11:29:08.000Z</time>
      </trkpt>
      <trkpt lat="49.39724" lon="5.82312">
        <ele>300.39999389648</ele>
        <time>2022-09-13T11:29:09.000Z</time>
      </trkpt>
      <trkpt lat="49.39726" lon="5.82307">
        <ele>300.39999389648</ele>
        <time>2022-09-13T11:29:10.000Z</time>
      </trkpt>
      <trkpt lat="49.39729" lon="5.82301">
        <ele>300.39999389648</ele>
        <time>2022-09-13T11:29:11.000Z</time>
      </trkpt>
      <trkpt lat="49.39729" lon="5.82296">
        <ele>300.39999389648</ele>
        <time>2022-09-13T11:29:12.000Z</time>
      </trkpt>
      <trkpt lat="49.39728" lon="5.82291">
        <ele>300.39999389648</ele>
        <time>2022-09-13T11:29:13.000Z</time>
      </trkpt>
      <trkpt lat="49.39728" lon="5.82286">
        <ele>300.39999389648</ele>
        <time>2022-09-13T11:29:14.000Z</time>
      </trkpt>
      <trkpt lat="49.39728" lon="5.82282">
        <ele>300.39999389648</ele>
        <time>2022-09-13T11:29:15.000Z</time>
      </trkpt>
      <trkpt lat="49.39728" lon="5.82278">
        <ele>300.39999389648</ele>
        <time>2022-09-13T11:29:16.000Z</time>
      </trkpt>
      <trkpt lat="49.39728" lon="5.82274">
        <ele>300.60000610352</ele>
        <time>2022-09-13T11:29:17.000Z</time>
      </trkpt>
      <trkpt lat="49.39729" lon="5.82271">
        <ele>300.60000610352</ele>
        <time>2022-09-13T11:29:18.000Z</time>
      </trkpt>
      <trkpt lat="49.39729" lon="5.82268">
        <ele>300.60000610352</ele>
        <time>2022-09-13T11:29:19.000Z</time>
      </trkpt>
      <trkpt lat="49.39727" lon="5.82265">
        <ele>300.79998779297</ele>
        <time>2022-09-13T11:29:20.000Z</time>
      </trkpt>
      <trkpt lat="49.39726" lon="5.82262">
        <ele>300.79998779297</ele>
        <time>2022-09-13T11:29:21.000Z</time>
      </trkpt>
      <trkpt lat="49.39725" lon="5.8226">
        <ele>300.79998779297</ele>
        <time>2022-09-13T11:29:22.000Z</time>
      </trkpt>
      <trkpt lat="49.39725" lon="5.82257">
        <ele>300.79998779297</ele>
        <time>2022-09-13T11:29:23.000Z</time>
      </trkpt>
      <trkpt lat="49.39726" lon="5.82253">
        <ele>300.79998779297</ele>
        <time>2022-09-13T11:29:24.000Z</time>
      </trkpt>
      <trkpt lat="49.39726" lon="5.8225">
        <ele>300.79998779297</ele>
        <time>2022-09-13T11:29:25.000Z</time>
      </trkpt>
      <trkpt lat="49.39725" lon="5.82246">
        <ele>300.79998779297</ele>
        <time>2022-09-13T11:29:26.000Z</time>
      </trkpt>
      <trkpt lat="49.39725" lon="5.82242">
        <ele>301</ele>
        <time>2022-09-13T11:29:27.000Z</time>
      </trkpt>
      <trkpt lat="49.39725" lon="5.82239">
        <ele>301</ele>
        <time>2022-09-13T11:29:28.000Z</time>
      </trkpt>
      <trkpt lat="49.39724" lon="5.82231">
        <ele>301.39999389648</ele>
        <time>2022-09-13T11:29:30.000Z</time>
      </trkpt>
      <trkpt lat="49.39725" lon="5.82228">
        <ele>301.39999389648</ele>
        <time>2022-09-13T11:29:31.000Z</time>
      </trkpt>
      <trkpt lat="49.39725" lon="5.82225">
        <ele>301.60000610352</ele>
        <time>2022-09-13T11:29:32.000Z</time>
      </trkpt>
      <trkpt lat="49.39726" lon="5.82222">
        <ele>301.79998779297</ele>
        <time>2022-09-13T11:29:33.000Z</time>
      </trkpt>
      <trkpt lat="49.39726" lon="5.82218">
        <ele>302</ele>
        <time>2022-09-13T11:29:34.000Z</time>
      </trkpt>
      <trkpt lat="49.39725" lon="5.82214">
        <ele>302</ele>
        <time>2022-09-13T11:29:35.000Z</time>
      </trkpt>
      <trkpt lat="49.39726" lon="5.8221">
        <ele>302.20001220703</ele>
        <time>2022-09-13T11:29:36.000Z</time>
      </trkpt>
      <trkpt lat="49.39726" lon="5.82204">
        <ele>302.20001220703</ele>
        <time>2022-09-13T11:29:37.000Z</time>
      </trkpt>
      <trkpt lat="49.39725" lon="5.82196">
        <ele>302.20001220703</ele>
        <time>2022-09-13T11:29:39.000Z</time>
      </trkpt>
      <trkpt lat="49.39724" lon="5.82187">
        <ele>302.20001220703</ele>
        <time>2022-09-13T11:29:41.000Z</time>
      </trkpt>
      <trkpt lat="49.39721" lon="5.82182">
        <ele>302.20001220703</ele>
        <time>2022-09-13T11:29:42.000Z</time>
      </trkpt>
      <trkpt lat="49.39718" lon="5.82175">
        <ele>302.20001220703</ele>
        <time>2022-09-13T11:29:43.000Z</time>
      </trkpt>
      <trkpt lat="49.39715" lon="5.8217">
        <ele>302.20001220703</ele>
        <time>2022-09-13T11:29:44.000Z</time>
      </trkpt>
      <trkpt lat="49.39714" lon="5.82165">
        <ele>302.20001220703</ele>
        <time>2022-09-13T11:29:45.000Z</time>
      </trkpt>
      <trkpt lat="49.39704" lon="5.82152">
        <ele>302.20001220703</ele>
        <time>2022-09-13T11:29:49.000Z</time>
      </trkpt>
      <trkpt lat="49.39703" lon="5.82149">
        <ele>302.20001220703</ele>
        <time>2022-09-13T11:29:50.000Z</time>
      </trkpt>
      <trkpt lat="49.39702" lon="5.82145">
        <ele>302</ele>
        <time>2022-09-13T11:29:51.000Z</time>
      </trkpt>
      <trkpt lat="49.397" lon="5.82136">
        <ele>302</ele>
        <time>2022-09-13T11:29:53.000Z</time>
      </trkpt>
      <trkpt lat="49.397" lon="5.82133">
        <ele>302</ele>
        <time>2022-09-13T11:29:54.000Z</time>
      </trkpt>
      <trkpt lat="49.39705" lon="5.82128">
        <ele>302</ele>
        <time>2022-09-13T11:29:55.000Z</time>
      </trkpt>
      <trkpt lat="49.39706" lon="5.82118">
        <ele>302</ele>
        <time>2022-09-13T11:29:57.000Z</time>
      </trkpt>
      <trkpt lat="49.39704" lon="5.82114">
        <ele>302.20001220703</ele>
        <time>2022-09-13T11:29:58.000Z</time>
      </trkpt>
      <trkpt lat="49.39695" lon="5.82098">
        <ele>302.20001220703</ele>
        <time>2022-09-13T11:30:02.000Z</time>
      </trkpt>
      <trkpt lat="49.39693" lon="5.82094">
        <ele>302.39999389648</ele>
        <time>2022-09-13T11:30:03.000Z</time>
      </trkpt>
      <trkpt lat="49.39689" lon="5.82089">
        <ele>302.39999389648</ele>
        <time>2022-09-13T11:30:04.000Z</time>
      </trkpt>
      <trkpt lat="49.39684" lon="5.82083">
        <ele>302.39999389648</ele>
        <time>2022-09-13T11:30:06.000Z</time>
      </trkpt>
      <trkpt lat="49.3968" lon="5.82079">
        <ele>302.39999389648</ele>
        <time>2022-09-13T11:30:07.000Z</time>
      </trkpt>
      <trkpt lat="49.39678" lon="5.82075">
        <ele>302.39999389648</ele>
        <time>2022-09-13T11:30:08.000Z</time>
      </trkpt>
      <trkpt lat="49.39676" lon="5.82073">
        <ele>302.39999389648</ele>
        <time>2022-09-13T11:30:09.000Z</time>
      </trkpt>
      <trkpt lat="49.39674" lon="5.8207">
        <ele>302.39999389648</ele>
        <time>2022-09-13T11:30:10.000Z</time>
      </trkpt>
      <trkpt lat="49.39671" lon="5.82064">
        <ele>302.39999389648</ele>
        <time>2022-09-13T11:30:11.000Z</time>
      </trkpt>
      <trkpt lat="49.3967" lon="5.8206">
        <ele>302.39999389648</ele>
        <time>2022-09-13T11:30:12.000Z</time>
      </trkpt>
      <trkpt lat="49.39669" lon="5.82057">
        <ele>302.39999389648</ele>
        <time>2022-09-13T11:30:13.000Z</time>
      </trkpt>
      <trkpt lat="49.39666" lon="5.82054">
        <ele>302.39999389648</ele>
        <time>2022-09-13T11:30:14.000Z</time>
      </trkpt>
      <trkpt lat="49.39664" lon="5.82051">
        <ele>302.39999389648</ele>
        <time>2022-09-13T11:30:15.000Z</time>
      </trkpt>
      <trkpt lat="49.39657" lon="5.82045">
        <ele>302.39999389648</ele>
        <time>2022-09-13T11:30:17.000Z</time>
      </trkpt>
      <trkpt lat="49.39654" lon="5.82041">
        <ele>302.39999389648</ele>
        <time>2022-09-13T11:30:18.000Z</time>
      </trkpt>
      <trkpt lat="49.39651" lon="5.82038">
        <ele>302.39999389648</ele>
        <time>2022-09-13T11:30:19.000Z</time>
      </trkpt>
      <trkpt lat="49.3965" lon="5.82035">
        <ele>302.39999389648</ele>
        <time>2022-09-13T11:30:20.000Z</time>
      </trkpt>
      <trkpt lat="49.39647" lon="5.82032">
        <ele>302.39999389648</ele>
        <time>2022-09-13T11:30:21.000Z</time>
      </trkpt>
      <trkpt lat="49.39644" lon="5.82028">
        <ele>302.39999389648</ele>
        <time>2022-09-13T11:30:22.000Z</time>
      </trkpt>
      <trkpt lat="49.3964" lon="5.82025">
        <ele>302.39999389648</ele>
        <time>2022-09-13T11:30:24.000Z</time>
      </trkpt>
      <trkpt lat="49.39628" lon="5.82008">
        <ele>301.79998779297</ele>
        <time>2022-09-13T11:30:28.000Z</time>
      </trkpt>
      <trkpt lat="49.39625" lon="5.82004">
        <ele>301.79998779297</ele>
        <time>2022-09-13T11:30:29.000Z</time>
      </trkpt>
      <trkpt lat="49.39623" lon="5.82001">
        <ele>301.60000610352</ele>
        <time>2022-09-13T11:30:30.000Z</time>
      </trkpt>
      <trkpt lat="49.3962" lon="5.81997">
        <ele>301.60000610352</ele>
        <time>2022-09-13T11:30:31.000Z</time>
      </trkpt>
      <trkpt lat="49.39614" lon="5.81989">
        <ele>301.60000610352</ele>
        <time>2022-09-13T11:30:33.000Z</time>
      </trkpt>
      <trkpt lat="49.39614" lon="5.81987">
        <ele>301.39999389648</ele>
        <time>2022-09-13T11:30:34.000Z</time>
      </trkpt>
      <trkpt lat="49.39613" lon="5.81984">
        <ele>301.39999389648</ele>
        <time>2022-09-13T11:30:35.000Z</time>
      </trkpt>
      <trkpt lat="49.39611" lon="5.81978">
        <ele>301.20001220703</ele>
        <time>2022-09-13T11:30:37.000Z</time>
      </trkpt>
      <trkpt lat="49.39609" lon="5.81974">
        <ele>301.20001220703</ele>
        <time>2022-09-13T11:30:38.000Z</time>
      </trkpt>
      <trkpt lat="49.39606" lon="5.81969">
        <ele>300.79998779297</ele>
        <time>2022-09-13T11:30:39.000Z</time>
      </trkpt>
      <trkpt lat="49.39601" lon="5.81964">
        <ele>300.79998779297</ele>
        <time>2022-09-13T11:30:40.000Z</time>
      </trkpt>
      <trkpt lat="49.39578" lon="5.81936">
        <ele>300</ele>
        <time>2022-09-13T11:30:45.000Z</time>
      </trkpt>
      <trkpt lat="49.39573" lon="5.81929">
        <ele>299.79998779297</ele>
        <time>2022-09-13T11:30:46.000Z</time>
      </trkpt>
      <trkpt lat="49.39563" lon="5.81916">
        <ele>299.60000610352</ele>
        <time>2022-09-13T11:30:48.000Z</time>
      </trkpt>
      <trkpt lat="49.39551" lon="5.819">
        <ele>299.39999389648</ele>
        <time>2022-09-13T11:30:50.000Z</time>
      </trkpt>
      <trkpt lat="49.39546" lon="5.81893">
        <ele>298.79998779297</ele>
        <time>2022-09-13T11:30:51.000Z</time>
      </trkpt>
      <trkpt lat="49.39533" lon="5.81876">
        <ele>297.20001220703</ele>
        <time>2022-09-13T11:30:53.000Z</time>
      </trkpt>
      <trkpt lat="49.39531" lon="5.81868">
        <ele>297</ele>
        <time>2022-09-13T11:30:54.000Z</time>
      </trkpt>
      <trkpt lat="49.39528" lon="5.8186">
        <ele>296.39999389648</ele>
        <time>2022-09-13T11:30:55.000Z</time>
      </trkpt>
      <trkpt lat="49.39526" lon="5.81853">
        <ele>296.39999389648</ele>
        <time>2022-09-13T11:30:56.000Z</time>
      </trkpt>
      <trkpt lat="49.39524" lon="5.81847">
        <ele>296</ele>
        <time>2022-09-13T11:30:57.000Z</time>
      </trkpt>
      <trkpt lat="49.39522" lon="5.81843">
        <ele>295.60000610352</ele>
        <time>2022-09-13T11:30:58.000Z</time>
      </trkpt>
      <trkpt lat="49.39519" lon="5.81838">
        <ele>295.60000610352</ele>
        <time>2022-09-13T11:30:59.000Z</time>
      </trkpt>
      <trkpt lat="49.39518" lon="5.81836">
        <ele>295.60000610352</ele>
        <time>2022-09-13T11:31:00.000Z</time>
      </trkpt>
      <trkpt lat="49.39516" lon="5.81833">
        <ele>295.39999389648</ele>
        <time>2022-09-13T11:31:01.000Z</time>
      </trkpt>
      <trkpt lat="49.39515" lon="5.81829">
        <ele>295.39999389648</ele>
        <time>2022-09-13T11:31:02.000Z</time>
      </trkpt>
      <trkpt lat="49.39514" lon="5.81827">
        <ele>295.39999389648</ele>
        <time>2022-09-13T11:31:03.000Z</time>
      </trkpt>
      <trkpt lat="49.39513" lon="5.81825">
        <ele>295.60000610352</ele>
        <time>2022-09-13T11:31:04.000Z</time>
      </trkpt>
      <trkpt lat="49.39513" lon="5.81821">
        <ele>295.60000610352</ele>
        <time>2022-09-13T11:31:05.000Z</time>
      </trkpt>
      <trkpt lat="49.39513" lon="5.81817">
        <ele>295.60000610352</ele>
        <time>2022-09-13T11:31:06.000Z</time>
      </trkpt>
      <trkpt lat="49.39511" lon="5.81813">
        <ele>295.79998779297</ele>
        <time>2022-09-13T11:31:07.000Z</time>
      </trkpt>
      <trkpt lat="49.3951" lon="5.81809">
        <ele>296</ele>
        <time>2022-09-13T11:31:08.000Z</time>
      </trkpt>
      <trkpt lat="49.3951" lon="5.81806">
        <ele>296.20001220703</ele>
        <time>2022-09-13T11:31:09.000Z</time>
      </trkpt>
      <trkpt lat="49.39512" lon="5.81803">
        <ele>296.20001220703</ele>
        <time>2022-09-13T11:31:10.000Z</time>
      </trkpt>
      <trkpt lat="49.39513" lon="5.81801">
        <ele>296.39999389648</ele>
        <time>2022-09-13T11:31:11.000Z</time>
      </trkpt>
      <trkpt lat="49.39513" lon="5.81799">
        <ele>296.79998779297</ele>
        <time>2022-09-13T11:31:12.000Z</time>
      </trkpt>
      <trkpt lat="49.39513" lon="5.81794">
        <ele>297</ele>
        <time>2022-09-13T11:31:13.000Z</time>
      </trkpt>
      <trkpt lat="49.39512" lon="5.81787">
        <ele>297.79998779297</ele>
        <time>2022-09-13T11:31:15.000Z</time>
      </trkpt>
      <trkpt lat="49.39512" lon="5.81785">
        <ele>298.20001220703</ele>
        <time>2022-09-13T11:31:16.000Z</time>
      </trkpt>
      <trkpt lat="49.3951" lon="5.81781">
        <ele>298.39999389648</ele>
        <time>2022-09-13T11:31:17.000Z</time>
      </trkpt>
      <trkpt lat="49.39509" lon="5.81779">
        <ele>298.60000610352</ele>
        <time>2022-09-13T11:31:18.000Z</time>
      </trkpt>
      <trkpt lat="49.39508" lon="5.81775">
        <ele>298.60000610352</ele>
        <time>2022-09-13T11:31:19.000Z</time>
      </trkpt>
      <trkpt lat="49.39497" lon="5.8176">
        <ele>298.79998779297</ele>
        <time>2022-09-13T11:31:22.000Z</time>
      </trkpt>
      <trkpt lat="49.39475" lon="5.81734">
        <ele>298.60000610352</ele>
        <time>2022-09-13T11:31:26.000Z</time>
      </trkpt>
      <trkpt lat="49.39463" lon="5.81718">
        <ele>297.79998779297</ele>
        <time>2022-09-13T11:31:28.000Z</time>
      </trkpt>
      <trkpt lat="49.39454" lon="5.81696">
        <ele>296.79998779297</ele>
        <time>2022-09-13T11:31:30.000Z</time>
      </trkpt>
      <trkpt lat="49.39446" lon="5.8167">
        <ele>295.79998779297</ele>
        <time>2022-09-13T11:31:32.000Z</time>
      </trkpt>
      <trkpt lat="49.39442" lon="5.81643">
        <ele>294.79998779297</ele>
        <time>2022-09-13T11:31:34.000Z</time>
      </trkpt>
      <trkpt lat="49.39432" lon="5.81601">
        <ele>293.60000610352</ele>
        <time>2022-09-13T11:31:37.000Z</time>
      </trkpt>
      <trkpt lat="49.39426" lon="5.81571">
        <ele>292</ele>
        <time>2022-09-13T11:31:39.000Z</time>
      </trkpt>
      <trkpt lat="49.3942" lon="5.8154">
        <ele>290.79998779297</ele>
        <time>2022-09-13T11:31:41.000Z</time>
      </trkpt>
      <trkpt lat="49.39416" lon="5.81506">
        <ele>289.79998779297</ele>
        <time>2022-09-13T11:31:43.000Z</time>
      </trkpt>
      <trkpt lat="49.39414" lon="5.81472">
        <ele>288.79998779297</ele>
        <time>2022-09-13T11:31:45.000Z</time>
      </trkpt>
      <trkpt lat="49.39413" lon="5.81436">
        <ele>287.39999389648</ele>
        <time>2022-09-13T11:31:47.000Z</time>
      </trkpt>
      <trkpt lat="49.39412" lon="5.81418">
        <ele>286.20001220703</ele>
        <time>2022-09-13T11:31:48.000Z</time>
      </trkpt>
      <trkpt lat="49.39411" lon="5.814">
        <ele>285.79998779297</ele>
        <time>2022-09-13T11:31:49.000Z</time>
      </trkpt>
      <trkpt lat="49.3941" lon="5.81384">
        <ele>285</ele>
        <time>2022-09-13T11:31:50.000Z</time>
      </trkpt>
      <trkpt lat="49.39408" lon="5.81369">
        <ele>283.79998779297</ele>
        <time>2022-09-13T11:31:51.000Z</time>
      </trkpt>
      <trkpt lat="49.39406" lon="5.81358">
        <ele>283.39999389648</ele>
        <time>2022-09-13T11:31:52.000Z</time>
      </trkpt>
      <trkpt lat="49.39404" lon="5.8135">
        <ele>282.60000610352</ele>
        <time>2022-09-13T11:31:53.000Z</time>
      </trkpt>
      <trkpt lat="49.39404" lon="5.81343">
        <ele>282</ele>
        <time>2022-09-13T11:31:54.000Z</time>
      </trkpt>
      <trkpt lat="49.39404" lon="5.81337">
        <ele>281.20001220703</ele>
        <time>2022-09-13T11:31:55.000Z</time>
      </trkpt>
      <trkpt lat="49.39403" lon="5.81332">
        <ele>280.60000610352</ele>
        <time>2022-09-13T11:31:56.000Z</time>
      </trkpt>
      <trkpt lat="49.39403" lon="5.81327">
        <ele>279.60000610352</ele>
        <time>2022-09-13T11:31:57.000Z</time>
      </trkpt>
      <trkpt lat="49.39404" lon="5.81322">
        <ele>278.79998779297</ele>
        <time>2022-09-13T11:31:58.000Z</time>
      </trkpt>
      <trkpt lat="49.39404" lon="5.81318">
        <ele>278.39999389648</ele>
        <time>2022-09-13T11:31:59.000Z</time>
      </trkpt>
      <trkpt lat="49.39403" lon="5.81314">
        <ele>278.20001220703</ele>
        <time>2022-09-13T11:32:00.000Z</time>
      </trkpt>
      <trkpt lat="49.39403" lon="5.8131">
        <ele>278</ele>
        <time>2022-09-13T11:32:01.000Z</time>
      </trkpt>
      <trkpt lat="49.39404" lon="5.81307">
        <ele>278</ele>
        <time>2022-09-13T11:32:02.000Z</time>
      </trkpt>
      <trkpt lat="49.39404" lon="5.81304">
        <ele>277.79998779297</ele>
        <time>2022-09-13T11:32:03.000Z</time>
      </trkpt>
      <trkpt lat="49.39405" lon="5.81302">
        <ele>277.79998779297</ele>
        <time>2022-09-13T11:32:04.000Z</time>
      </trkpt>
      <trkpt lat="49.39405" lon="5.813">
        <ele>277.79998779297</ele>
        <time>2022-09-13T11:32:05.000Z</time>
      </trkpt>
      <trkpt lat="49.39405" lon="5.81298">
        <ele>277.60000610352</ele>
        <time>2022-09-13T11:32:06.000Z</time>
      </trkpt>
      <trkpt lat="49.39405" lon="5.81296">
        <ele>277.60000610352</ele>
        <time>2022-09-13T11:32:07.000Z</time>
      </trkpt>
      <trkpt lat="49.39405" lon="5.81295">
        <ele>277.60000610352</ele>
        <time>2022-09-13T11:32:08.000Z</time>
      </trkpt>
      <trkpt lat="49.39404" lon="5.81293">
        <ele>277.39999389648</ele>
        <time>2022-09-13T11:32:09.000Z</time>
      </trkpt>
      <trkpt lat="49.39403" lon="5.81291">
        <ele>277.39999389648</ele>
        <time>2022-09-13T11:32:10.000Z</time>
      </trkpt>
      <trkpt lat="49.39403" lon="5.81289">
        <ele>277.39999389648</ele>
        <time>2022-09-13T11:32:11.000Z</time>
      </trkpt>
      <trkpt lat="49.39402" lon="5.81286">
        <ele>277.39999389648</ele>
        <time>2022-09-13T11:32:12.000Z</time>
      </trkpt>
      <trkpt lat="49.39403" lon="5.81283">
        <ele>277.39999389648</ele>
        <time>2022-09-13T11:32:13.000Z</time>
      </trkpt>
      <trkpt lat="49.39403" lon="5.81278">
        <ele>277.39999389648</ele>
        <time>2022-09-13T11:32:14.000Z</time>
      </trkpt>
      <trkpt lat="49.39403" lon="5.81274">
        <ele>277.39999389648</ele>
        <time>2022-09-13T11:32:15.000Z</time>
      </trkpt>
      <trkpt lat="49.39403" lon="5.81264">
        <ele>277.60000610352</ele>
        <time>2022-09-13T11:32:17.000Z</time>
      </trkpt>
      <trkpt lat="49.39403" lon="5.81254">
        <ele>277.60000610352</ele>
        <time>2022-09-13T11:32:19.000Z</time>
      </trkpt>
      <trkpt lat="49.39403" lon="5.81239">
        <ele>277.60000610352</ele>
        <time>2022-09-13T11:32:22.000Z</time>
      </trkpt>
      <trkpt lat="49.39403" lon="5.81218">
        <ele>277.60000610352</ele>
        <time>2022-09-13T11:32:26.000Z</time>
      </trkpt>
      <trkpt lat="49.39401" lon="5.81203">
        <ele>277.60000610352</ele>
        <time>2022-09-13T11:32:29.000Z</time>
      </trkpt>
      <trkpt lat="49.394" lon="5.81199">
        <ele>277.60000610352</ele>
        <time>2022-09-13T11:32:30.000Z</time>
      </trkpt>
      <trkpt lat="49.394" lon="5.81194">
        <ele>277.60000610352</ele>
        <time>2022-09-13T11:32:31.000Z</time>
      </trkpt>
      <trkpt lat="49.394" lon="5.81191">
        <ele>277.60000610352</ele>
        <time>2022-09-13T11:32:32.000Z</time>
      </trkpt>
      <trkpt lat="49.394" lon="5.81187">
        <ele>277.60000610352</ele>
        <time>2022-09-13T11:32:33.000Z</time>
      </trkpt>
      <trkpt lat="49.394" lon="5.81185">
        <ele>277.79998779297</ele>
        <time>2022-09-13T11:32:34.000Z</time>
      </trkpt>
      <trkpt lat="49.394" lon="5.81179">
        <ele>278.60000610352</ele>
        <time>2022-09-13T11:32:36.000Z</time>
      </trkpt>
      <trkpt lat="49.394" lon="5.81176">
        <ele>278.79998779297</ele>
        <time>2022-09-13T11:32:37.000Z</time>
      </trkpt>
      <trkpt lat="49.394" lon="5.81174">
        <ele>278.79998779297</ele>
        <time>2022-09-13T11:32:38.000Z</time>
      </trkpt>
      <trkpt lat="49.394" lon="5.81171">
        <ele>279.39999389648</ele>
        <time>2022-09-13T11:32:39.000Z</time>
      </trkpt>
      <trkpt lat="49.39401" lon="5.81169">
        <ele>279.60000610352</ele>
        <time>2022-09-13T11:32:40.000Z</time>
      </trkpt>
      <trkpt lat="49.39401" lon="5.81166">
        <ele>279.79998779297</ele>
        <time>2022-09-13T11:32:41.000Z</time>
      </trkpt>
      <trkpt lat="49.394" lon="5.81164">
        <ele>280</ele>
        <time>2022-09-13T11:32:42.000Z</time>
      </trkpt>
      <trkpt lat="49.394" lon="5.81162">
        <ele>280.39999389648</ele>
        <time>2022-09-13T11:32:43.000Z</time>
      </trkpt>
      <trkpt lat="49.394" lon="5.8116">
        <ele>280.60000610352</ele>
        <time>2022-09-13T11:32:44.000Z</time>
      </trkpt>
      <trkpt lat="49.39401" lon="5.81158">
        <ele>281</ele>
        <time>2022-09-13T11:32:45.000Z</time>
      </trkpt>
      <trkpt lat="49.39402" lon="5.81155">
        <ele>281.20001220703</ele>
        <time>2022-09-13T11:32:46.000Z</time>
      </trkpt>
      <trkpt lat="49.39402" lon="5.81153">
        <ele>281.60000610352</ele>
        <time>2022-09-13T11:32:47.000Z</time>
      </trkpt>
      <trkpt lat="49.39403" lon="5.81151">
        <ele>282.20001220703</ele>
        <time>2022-09-13T11:32:48.000Z</time>
      </trkpt>
      <trkpt lat="49.39403" lon="5.81148">
        <ele>282.39999389648</ele>
        <time>2022-09-13T11:32:49.000Z</time>
      </trkpt>
      <trkpt lat="49.39403" lon="5.81146">
        <ele>282.60000610352</ele>
        <time>2022-09-13T11:32:50.000Z</time>
      </trkpt>
      <trkpt lat="49.39404" lon="5.81143">
        <ele>283</ele>
        <time>2022-09-13T11:32:51.000Z</time>
      </trkpt>
      <trkpt lat="49.39404" lon="5.8114">
        <ele>283.20001220703</ele>
        <time>2022-09-13T11:32:52.000Z</time>
      </trkpt>
      <trkpt lat="49.39405" lon="5.81138">
        <ele>283.39999389648</ele>
        <time>2022-09-13T11:32:53.000Z</time>
      </trkpt>
      <trkpt lat="49.39405" lon="5.81135">
        <ele>283.60000610352</ele>
        <time>2022-09-13T11:32:54.000Z</time>
      </trkpt>
      <trkpt lat="49.39406" lon="5.81133">
        <ele>283.60000610352</ele>
        <time>2022-09-13T11:32:55.000Z</time>
      </trkpt>
      <trkpt lat="49.39407" lon="5.81132">
        <ele>283.79998779297</ele>
        <time>2022-09-13T11:32:56.000Z</time>
      </trkpt>
      <trkpt lat="49.39408" lon="5.81129">
        <ele>284.20001220703</ele>
        <time>2022-09-13T11:32:57.000Z</time>
      </trkpt>
      <trkpt lat="49.39409" lon="5.81127">
        <ele>284.60000610352</ele>
        <time>2022-09-13T11:32:58.000Z</time>
      </trkpt>
      <trkpt lat="49.3941" lon="5.81124">
        <ele>285.20001220703</ele>
        <time>2022-09-13T11:32:59.000Z</time>
      </trkpt>
      <trkpt lat="49.39411" lon="5.81122">
        <ele>285.79998779297</ele>
        <time>2022-09-13T11:33:00.000Z</time>
      </trkpt>
      <trkpt lat="49.39412" lon="5.81119">
        <ele>286</ele>
        <time>2022-09-13T11:33:01.000Z</time>
      </trkpt>
      <trkpt lat="49.39413" lon="5.81116">
        <ele>286.39999389648</ele>
        <time>2022-09-13T11:33:02.000Z</time>
      </trkpt>
      <trkpt lat="49.39414" lon="5.81113">
        <ele>286.60000610352</ele>
        <time>2022-09-13T11:33:03.000Z</time>
      </trkpt>
      <trkpt lat="49.39413" lon="5.8111">
        <ele>286.79998779297</ele>
        <time>2022-09-13T11:33:04.000Z</time>
      </trkpt>
      <trkpt lat="49.39413" lon="5.81109">
        <ele>287</ele>
        <time>2022-09-13T11:33:05.000Z</time>
      </trkpt>
      <trkpt lat="49.39415" lon="5.81107">
        <ele>287.20001220703</ele>
        <time>2022-09-13T11:33:06.000Z</time>
      </trkpt>
      <trkpt lat="49.39417" lon="5.81104">
        <ele>287.60000610352</ele>
        <time>2022-09-13T11:33:07.000Z</time>
      </trkpt>
      <trkpt lat="49.39418" lon="5.81103">
        <ele>287.79998779297</ele>
        <time>2022-09-13T11:33:08.000Z</time>
      </trkpt>
      <trkpt lat="49.39419" lon="5.81101">
        <ele>288</ele>
        <time>2022-09-13T11:33:09.000Z</time>
      </trkpt>
      <trkpt lat="49.39421" lon="5.811">
        <ele>288.20001220703</ele>
        <time>2022-09-13T11:33:10.000Z</time>
      </trkpt>
      <trkpt lat="49.39422" lon="5.81098">
        <ele>288.60000610352</ele>
        <time>2022-09-13T11:33:11.000Z</time>
      </trkpt>
      <trkpt lat="49.39423" lon="5.81097">
        <ele>288.60000610352</ele>
        <time>2022-09-13T11:33:12.000Z</time>
      </trkpt>
      <trkpt lat="49.39424" lon="5.81095">
        <ele>289</ele>
        <time>2022-09-13T11:33:13.000Z</time>
      </trkpt>
      <trkpt lat="49.39425" lon="5.81093">
        <ele>289.39999389648</ele>
        <time>2022-09-13T11:33:14.000Z</time>
      </trkpt>
      <trkpt lat="49.39426" lon="5.81091">
        <ele>289.79998779297</ele>
        <time>2022-09-13T11:33:15.000Z</time>
      </trkpt>
      <trkpt lat="49.39427" lon="5.81089">
        <ele>290</ele>
        <time>2022-09-13T11:33:16.000Z</time>
      </trkpt>
      <trkpt lat="49.39428" lon="5.81087">
        <ele>290.20001220703</ele>
        <time>2022-09-13T11:33:17.000Z</time>
      </trkpt>
      <trkpt lat="49.39429" lon="5.81084">
        <ele>290.79998779297</ele>
        <time>2022-09-13T11:33:18.000Z</time>
      </trkpt>
      <trkpt lat="49.39431" lon="5.81081">
        <ele>291</ele>
        <time>2022-09-13T11:33:19.000Z</time>
      </trkpt>
      <trkpt lat="49.39432" lon="5.81079">
        <ele>291.20001220703</ele>
        <time>2022-09-13T11:33:20.000Z</time>
      </trkpt>
      <trkpt lat="49.39433" lon="5.81077">
        <ele>292</ele>
        <time>2022-09-13T11:33:21.000Z</time>
      </trkpt>
      <trkpt lat="49.39434" lon="5.81073">
        <ele>292.20001220703</ele>
        <time>2022-09-13T11:33:22.000Z</time>
      </trkpt>
      <trkpt lat="49.39435" lon="5.81071">
        <ele>292.39999389648</ele>
        <time>2022-09-13T11:33:23.000Z</time>
      </trkpt>
      <trkpt lat="49.39436" lon="5.8107">
        <ele>292.60000610352</ele>
        <time>2022-09-13T11:33:24.000Z</time>
      </trkpt>
      <trkpt lat="49.39437" lon="5.81068">
        <ele>292.79998779297</ele>
        <time>2022-09-13T11:33:25.000Z</time>
      </trkpt>
      <trkpt lat="49.39438" lon="5.81065">
        <ele>292.79998779297</ele>
        <time>2022-09-13T11:33:26.000Z</time>
      </trkpt>
      <trkpt lat="49.39438" lon="5.81061">
        <ele>293</ele>
        <time>2022-09-13T11:33:27.000Z</time>
      </trkpt>
      <trkpt lat="49.39439" lon="5.81058">
        <ele>293.20001220703</ele>
        <time>2022-09-13T11:33:28.000Z</time>
      </trkpt>
      <trkpt lat="49.39439" lon="5.81056">
        <ele>294</ele>
        <time>2022-09-13T11:33:29.000Z</time>
      </trkpt>
      <trkpt lat="49.39441" lon="5.81054">
        <ele>294.39999389648</ele>
        <time>2022-09-13T11:33:30.000Z</time>
      </trkpt>
      <trkpt lat="49.39442" lon="5.81052">
        <ele>294.79998779297</ele>
        <time>2022-09-13T11:33:31.000Z</time>
      </trkpt>
      <trkpt lat="49.39442" lon="5.81049">
        <ele>295.39999389648</ele>
        <time>2022-09-13T11:33:32.000Z</time>
      </trkpt>
      <trkpt lat="49.39443" lon="5.81047">
        <ele>295.60000610352</ele>
        <time>2022-09-13T11:33:33.000Z</time>
      </trkpt>
      <trkpt lat="49.39443" lon="5.81046">
        <ele>296.20001220703</ele>
        <time>2022-09-13T11:33:34.000Z</time>
      </trkpt>
      <trkpt lat="49.39444" lon="5.81044">
        <ele>296.39999389648</ele>
        <time>2022-09-13T11:33:35.000Z</time>
      </trkpt>
      <trkpt lat="49.39446" lon="5.81042">
        <ele>296.79998779297</ele>
        <time>2022-09-13T11:33:36.000Z</time>
      </trkpt>
      <trkpt lat="49.39446" lon="5.81042">
        <ele>297</ele>
        <time>2022-09-13T11:33:37.000Z</time>
      </trkpt>
      <trkpt lat="49.39448" lon="5.8104">
        <ele>297.20001220703</ele>
        <time>2022-09-13T11:33:38.000Z</time>
      </trkpt>
      <trkpt lat="49.39449" lon="5.81038">
        <ele>297.39999389648</ele>
        <time>2022-09-13T11:33:39.000Z</time>
      </trkpt>
      <trkpt lat="49.39451" lon="5.81036">
        <ele>297.60000610352</ele>
        <time>2022-09-13T11:33:40.000Z</time>
      </trkpt>
      <trkpt lat="49.39453" lon="5.81034">
        <ele>298.39999389648</ele>
        <time>2022-09-13T11:33:41.000Z</time>
      </trkpt>
      <trkpt lat="49.39455" lon="5.81032">
        <ele>298.60000610352</ele>
        <time>2022-09-13T11:33:42.000Z</time>
      </trkpt>
      <trkpt lat="49.39457" lon="5.81029">
        <ele>299.20001220703</ele>
        <time>2022-09-13T11:33:43.000Z</time>
      </trkpt>
      <trkpt lat="49.39458" lon="5.81027">
        <ele>299.39999389648</ele>
        <time>2022-09-13T11:33:44.000Z</time>
      </trkpt>
      <trkpt lat="49.3946" lon="5.81025">
        <ele>299.79998779297</ele>
        <time>2022-09-13T11:33:45.000Z</time>
      </trkpt>
      <trkpt lat="49.39461" lon="5.81023">
        <ele>300.20001220703</ele>
        <time>2022-09-13T11:33:46.000Z</time>
      </trkpt>
      <trkpt lat="49.39462" lon="5.81021">
        <ele>300.39999389648</ele>
        <time>2022-09-13T11:33:47.000Z</time>
      </trkpt>
      <trkpt lat="49.39464" lon="5.8102">
        <ele>300.60000610352</ele>
        <time>2022-09-13T11:33:48.000Z</time>
      </trkpt>
      <trkpt lat="49.39467" lon="5.81019">
        <ele>300.79998779297</ele>
        <time>2022-09-13T11:33:49.000Z</time>
      </trkpt>
      <trkpt lat="49.39468" lon="5.81017">
        <ele>301.20001220703</ele>
        <time>2022-09-13T11:33:50.000Z</time>
      </trkpt>
      <trkpt lat="49.3947" lon="5.81016">
        <ele>301.60000610352</ele>
        <time>2022-09-13T11:33:51.000Z</time>
      </trkpt>
      <trkpt lat="49.39471" lon="5.81014">
        <ele>301.79998779297</ele>
        <time>2022-09-13T11:33:52.000Z</time>
      </trkpt>
      <trkpt lat="49.39471" lon="5.81013">
        <ele>302.20001220703</ele>
        <time>2022-09-13T11:33:53.000Z</time>
      </trkpt>
      <trkpt lat="49.39472" lon="5.81012">
        <ele>302.20001220703</ele>
        <time>2022-09-13T11:33:54.000Z</time>
      </trkpt>
      <trkpt lat="49.39474" lon="5.81011">
        <ele>302.60000610352</ele>
        <time>2022-09-13T11:33:55.000Z</time>
      </trkpt>
      <trkpt lat="49.39476" lon="5.81009">
        <ele>302.60000610352</ele>
        <time>2022-09-13T11:33:56.000Z</time>
      </trkpt>
      <trkpt lat="49.39477" lon="5.81008">
        <ele>302.79998779297</ele>
        <time>2022-09-13T11:33:57.000Z</time>
      </trkpt>
      <trkpt lat="49.39478" lon="5.81007">
        <ele>303</ele>
        <time>2022-09-13T11:33:58.000Z</time>
      </trkpt>
      <trkpt lat="49.39478" lon="5.81006">
        <ele>303.20001220703</ele>
        <time>2022-09-13T11:33:59.000Z</time>
      </trkpt>
      <trkpt lat="49.39479" lon="5.81005">
        <ele>303.39999389648</ele>
        <time>2022-09-13T11:34:00.000Z</time>
      </trkpt>
      <trkpt lat="49.39482" lon="5.81004">
        <ele>303.39999389648</ele>
        <time>2022-09-13T11:34:01.000Z</time>
      </trkpt>
      <trkpt lat="49.39483" lon="5.81003">
        <ele>303.60000610352</ele>
        <time>2022-09-13T11:34:02.000Z</time>
      </trkpt>
      <trkpt lat="49.39488" lon="5.81002">
        <ele>303.79998779297</ele>
        <time>2022-09-13T11:34:03.000Z</time>
      </trkpt>
      <trkpt lat="49.3949" lon="5.81001">
        <ele>304.20001220703</ele>
        <time>2022-09-13T11:34:04.000Z</time>
      </trkpt>
      <trkpt lat="49.39491" lon="5.81001">
        <ele>304.20001220703</ele>
        <time>2022-09-13T11:34:05.000Z</time>
      </trkpt>
      <trkpt lat="49.39491" lon="5.81002">
        <ele>304.39999389648</ele>
        <time>2022-09-13T11:34:06.000Z</time>
      </trkpt>
      <trkpt lat="49.39492" lon="5.81002">
        <ele>304.60000610352</ele>
        <time>2022-09-13T11:34:07.000Z</time>
      </trkpt>
      <trkpt lat="49.39492" lon="5.81002">
        <ele>304.60000610352</ele>
        <time>2022-09-13T11:34:08.000Z</time>
      </trkpt>
      <trkpt lat="49.39495" lon="5.80998">
        <ele>304.79998779297</ele>
        <time>2022-09-13T11:34:10.000Z</time>
      </trkpt>
      <trkpt lat="49.39497" lon="5.80997">
        <ele>305.20001220703</ele>
        <time>2022-09-13T11:34:11.000Z</time>
      </trkpt>
      <trkpt lat="49.39498" lon="5.80997">
        <ele>305.39999389648</ele>
        <time>2022-09-13T11:34:12.000Z</time>
      </trkpt>
      <trkpt lat="49.39498" lon="5.80997">
        <ele>305.60000610352</ele>
        <time>2022-09-13T11:34:13.000Z</time>
      </trkpt>
      <trkpt lat="49.39499" lon="5.80997">
        <ele>306</ele>
        <time>2022-09-13T11:34:14.000Z</time>
      </trkpt>
      <trkpt lat="49.395" lon="5.80997">
        <ele>306</ele>
        <time>2022-09-13T11:34:15.000Z</time>
      </trkpt>
      <trkpt lat="49.39501" lon="5.80997">
        <ele>306.20001220703</ele>
        <time>2022-09-13T11:34:16.000Z</time>
      </trkpt>
      <trkpt lat="49.39503" lon="5.80996">
        <ele>306.39999389648</ele>
        <time>2022-09-13T11:34:17.000Z</time>
      </trkpt>
      <trkpt lat="49.39505" lon="5.80995">
        <ele>306.60000610352</ele>
        <time>2022-09-13T11:34:18.000Z</time>
      </trkpt>
      <trkpt lat="49.39506" lon="5.80995">
        <ele>306.79998779297</ele>
        <time>2022-09-13T11:34:19.000Z</time>
      </trkpt>
      <trkpt lat="49.39508" lon="5.80995">
        <ele>307</ele>
        <time>2022-09-13T11:34:20.000Z</time>
      </trkpt>
      <trkpt lat="49.39509" lon="5.80995">
        <ele>307.39999389648</ele>
        <time>2022-09-13T11:34:21.000Z</time>
      </trkpt>
      <trkpt lat="49.3951" lon="5.80995">
        <ele>307.39999389648</ele>
        <time>2022-09-13T11:34:22.000Z</time>
      </trkpt>
      <trkpt lat="49.39512" lon="5.80995">
        <ele>307.60000610352</ele>
        <time>2022-09-13T11:34:23.000Z</time>
      </trkpt>
      <trkpt lat="49.39514" lon="5.80993">
        <ele>307.79998779297</ele>
        <time>2022-09-13T11:34:24.000Z</time>
      </trkpt>
      <trkpt lat="49.39516" lon="5.80992">
        <ele>308.20001220703</ele>
        <time>2022-09-13T11:34:25.000Z</time>
      </trkpt>
      <trkpt lat="49.39519" lon="5.80993">
        <ele>308.20001220703</ele>
        <time>2022-09-13T11:34:26.000Z</time>
      </trkpt>
      <trkpt lat="49.39521" lon="5.80993">
        <ele>308.60000610352</ele>
        <time>2022-09-13T11:34:27.000Z</time>
      </trkpt>
      <trkpt lat="49.39523" lon="5.80993">
        <ele>309</ele>
        <time>2022-09-13T11:34:28.000Z</time>
      </trkpt>
      <trkpt lat="49.39525" lon="5.80992">
        <ele>309.20001220703</ele>
        <time>2022-09-13T11:34:29.000Z</time>
      </trkpt>
      <trkpt lat="49.39526" lon="5.80993">
        <ele>309.39999389648</ele>
        <time>2022-09-13T11:34:30.000Z</time>
      </trkpt>
      <trkpt lat="49.39529" lon="5.80993">
        <ele>309.60000610352</ele>
        <time>2022-09-13T11:34:31.000Z</time>
      </trkpt>
      <trkpt lat="49.39531" lon="5.80993">
        <ele>309.79998779297</ele>
        <time>2022-09-13T11:34:32.000Z</time>
      </trkpt>
      <trkpt lat="49.39533" lon="5.80993">
        <ele>310</ele>
        <time>2022-09-13T11:34:33.000Z</time>
      </trkpt>
      <trkpt lat="49.39535" lon="5.80993">
        <ele>310.39999389648</ele>
        <time>2022-09-13T11:34:34.000Z</time>
      </trkpt>
      <trkpt lat="49.39536" lon="5.80994">
        <ele>310.60000610352</ele>
        <time>2022-09-13T11:34:35.000Z</time>
      </trkpt>
      <trkpt lat="49.39538" lon="5.80994">
        <ele>311</ele>
        <time>2022-09-13T11:34:36.000Z</time>
      </trkpt>
      <trkpt lat="49.3954" lon="5.80993">
        <ele>311.60000610352</ele>
        <time>2022-09-13T11:34:37.000Z</time>
      </trkpt>
      <trkpt lat="49.39543" lon="5.80992">
        <ele>312</ele>
        <time>2022-09-13T11:34:38.000Z</time>
      </trkpt>
      <trkpt lat="49.39545" lon="5.80991">
        <ele>312.39999389648</ele>
        <time>2022-09-13T11:34:39.000Z</time>
      </trkpt>
      <trkpt lat="49.39547" lon="5.80992">
        <ele>312.60000610352</ele>
        <time>2022-09-13T11:34:40.000Z</time>
      </trkpt>
      <trkpt lat="49.39549" lon="5.80993">
        <ele>312.79998779297</ele>
        <time>2022-09-13T11:34:41.000Z</time>
      </trkpt>
      <trkpt lat="49.39552" lon="5.80994">
        <ele>313</ele>
        <time>2022-09-13T11:34:42.000Z</time>
      </trkpt>
      <trkpt lat="49.39555" lon="5.80993">
        <ele>313.39999389648</ele>
        <time>2022-09-13T11:34:43.000Z</time>
      </trkpt>
      <trkpt lat="49.39558" lon="5.80993">
        <ele>313.60000610352</ele>
        <time>2022-09-13T11:34:44.000Z</time>
      </trkpt>
      <trkpt lat="49.3956" lon="5.80994">
        <ele>313.79998779297</ele>
        <time>2022-09-13T11:34:45.000Z</time>
      </trkpt>
      <trkpt lat="49.39562" lon="5.80993">
        <ele>314.20001220703</ele>
        <time>2022-09-13T11:34:46.000Z</time>
      </trkpt>
      <trkpt lat="49.39564" lon="5.80993">
        <ele>314.39999389648</ele>
        <time>2022-09-13T11:34:47.000Z</time>
      </trkpt>
      <trkpt lat="49.39565" lon="5.80991">
        <ele>314.39999389648</ele>
        <time>2022-09-13T11:34:48.000Z</time>
      </trkpt>
      <trkpt lat="49.39567" lon="5.8099">
        <ele>314.60000610352</ele>
        <time>2022-09-13T11:34:49.000Z</time>
      </trkpt>
      <trkpt lat="49.3957" lon="5.80988">
        <ele>314.79998779297</ele>
        <time>2022-09-13T11:34:50.000Z</time>
      </trkpt>
      <trkpt lat="49.39573" lon="5.80986">
        <ele>315</ele>
        <time>2022-09-13T11:34:51.000Z</time>
      </trkpt>
      <trkpt lat="49.39575" lon="5.80987">
        <ele>315.20001220703</ele>
        <time>2022-09-13T11:34:52.000Z</time>
      </trkpt>
      <trkpt lat="49.39578" lon="5.80986">
        <ele>315.39999389648</ele>
        <time>2022-09-13T11:34:53.000Z</time>
      </trkpt>
      <trkpt lat="49.39579" lon="5.80984">
        <ele>315.60000610352</ele>
        <time>2022-09-13T11:34:54.000Z</time>
      </trkpt>
      <trkpt lat="49.39581" lon="5.80984">
        <ele>315.60000610352</ele>
        <time>2022-09-13T11:34:55.000Z</time>
      </trkpt>
      <trkpt lat="49.39582" lon="5.80984">
        <ele>315.79998779297</ele>
        <time>2022-09-13T11:34:56.000Z</time>
      </trkpt>
      <trkpt lat="49.39583" lon="5.80984">
        <ele>316</ele>
        <time>2022-09-13T11:34:57.000Z</time>
      </trkpt>
      <trkpt lat="49.39584" lon="5.80985">
        <ele>316.39999389648</ele>
        <time>2022-09-13T11:34:58.000Z</time>
      </trkpt>
      <trkpt lat="49.39586" lon="5.80986">
        <ele>316.39999389648</ele>
        <time>2022-09-13T11:34:59.000Z</time>
      </trkpt>
      <trkpt lat="49.39587" lon="5.80986">
        <ele>316.79998779297</ele>
        <time>2022-09-13T11:35:00.000Z</time>
      </trkpt>
      <trkpt lat="49.39588" lon="5.80986">
        <ele>316.79998779297</ele>
        <time>2022-09-13T11:35:01.000Z</time>
      </trkpt>
      <trkpt lat="49.3959" lon="5.80986">
        <ele>317</ele>
        <time>2022-09-13T11:35:02.000Z</time>
      </trkpt>
      <trkpt lat="49.39591" lon="5.80986">
        <ele>317.20001220703</ele>
        <time>2022-09-13T11:35:03.000Z</time>
      </trkpt>
      <trkpt lat="49.39592" lon="5.80986">
        <ele>317.39999389648</ele>
        <time>2022-09-13T11:35:04.000Z</time>
      </trkpt>
      <trkpt lat="49.39595" lon="5.80984">
        <ele>317.60000610352</ele>
        <time>2022-09-13T11:35:05.000Z</time>
      </trkpt>
      <trkpt lat="49.39595" lon="5.80985">
        <ele>317.79998779297</ele>
        <time>2022-09-13T11:35:06.000Z</time>
      </trkpt>
      <trkpt lat="49.39598" lon="5.80982">
        <ele>318</ele>
        <time>2022-09-13T11:35:07.000Z</time>
      </trkpt>
      <trkpt lat="49.39603" lon="5.80979">
        <ele>318.20001220703</ele>
        <time>2022-09-13T11:35:08.000Z</time>
      </trkpt>
      <trkpt lat="49.39606" lon="5.80977">
        <ele>318.39999389648</ele>
        <time>2022-09-13T11:35:09.000Z</time>
      </trkpt>
      <trkpt lat="49.39609" lon="5.80975">
        <ele>318.39999389648</ele>
        <time>2022-09-13T11:35:10.000Z</time>
      </trkpt>
      <trkpt lat="49.39611" lon="5.80974">
        <ele>318.60000610352</ele>
        <time>2022-09-13T11:35:11.000Z</time>
      </trkpt>
      <trkpt lat="49.39611" lon="5.80974">
        <ele>318.79998779297</ele>
        <time>2022-09-13T11:35:12.000Z</time>
      </trkpt>
      <trkpt lat="49.39613" lon="5.80974">
        <ele>319</ele>
        <time>2022-09-13T11:35:13.000Z</time>
      </trkpt>
      <trkpt lat="49.39614" lon="5.80975">
        <ele>319.20001220703</ele>
        <time>2022-09-13T11:35:14.000Z</time>
      </trkpt>
      <trkpt lat="49.39617" lon="5.80973">
        <ele>319.20001220703</ele>
        <time>2022-09-13T11:35:15.000Z</time>
      </trkpt>
      <trkpt lat="49.39619" lon="5.80972">
        <ele>319.60000610352</ele>
        <time>2022-09-13T11:35:16.000Z</time>
      </trkpt>
      <trkpt lat="49.39622" lon="5.8097">
        <ele>319.79998779297</ele>
        <time>2022-09-13T11:35:17.000Z</time>
      </trkpt>
      <trkpt lat="49.39624" lon="5.80968">
        <ele>319.79998779297</ele>
        <time>2022-09-13T11:35:18.000Z</time>
      </trkpt>
      <trkpt lat="49.39625" lon="5.80968">
        <ele>320</ele>
        <time>2022-09-13T11:35:19.000Z</time>
      </trkpt>
      <trkpt lat="49.39627" lon="5.80967">
        <ele>320.20001220703</ele>
        <time>2022-09-13T11:35:20.000Z</time>
      </trkpt>
      <trkpt lat="49.39632" lon="5.80962">
        <ele>320.39999389648</ele>
        <time>2022-09-13T11:35:21.000Z</time>
      </trkpt>
      <trkpt lat="49.39636" lon="5.80959">
        <ele>320.60000610352</ele>
        <time>2022-09-13T11:35:22.000Z</time>
      </trkpt>
      <trkpt lat="49.39637" lon="5.80957">
        <ele>320.60000610352</ele>
        <time>2022-09-13T11:35:23.000Z</time>
      </trkpt>
      <trkpt lat="49.39639" lon="5.80955">
        <ele>320.60000610352</ele>
        <time>2022-09-13T11:35:24.000Z</time>
      </trkpt>
      <trkpt lat="49.3964" lon="5.80955">
        <ele>320.79998779297</ele>
        <time>2022-09-13T11:35:25.000Z</time>
      </trkpt>
      <trkpt lat="49.39641" lon="5.80953">
        <ele>320.79998779297</ele>
        <time>2022-09-13T11:35:26.000Z</time>
      </trkpt>
      <trkpt lat="49.39644" lon="5.80953">
        <ele>320.79998779297</ele>
        <time>2022-09-13T11:35:27.000Z</time>
      </trkpt>
      <trkpt lat="49.39646" lon="5.80952">
        <ele>320.79998779297</ele>
        <time>2022-09-13T11:35:28.000Z</time>
      </trkpt>
      <trkpt lat="49.39647" lon="5.80952">
        <ele>321</ele>
        <time>2022-09-13T11:35:29.000Z</time>
      </trkpt>
      <trkpt lat="49.39648" lon="5.80952">
        <ele>321.20001220703</ele>
        <time>2022-09-13T11:35:30.000Z</time>
      </trkpt>
      <trkpt lat="49.39649" lon="5.80951">
        <ele>321.20001220703</ele>
        <time>2022-09-13T11:35:31.000Z</time>
      </trkpt>
      <trkpt lat="49.39651" lon="5.8095">
        <ele>321.20001220703</ele>
        <time>2022-09-13T11:35:32.000Z</time>
      </trkpt>
      <trkpt lat="49.39654" lon="5.80951">
        <ele>321.20001220703</ele>
        <time>2022-09-13T11:35:33.000Z</time>
      </trkpt>
      <trkpt lat="49.39656" lon="5.8095">
        <ele>321.39999389648</ele>
        <time>2022-09-13T11:35:34.000Z</time>
      </trkpt>
      <trkpt lat="49.3966" lon="5.80947">
        <ele>321.60000610352</ele>
        <time>2022-09-13T11:35:35.000Z</time>
      </trkpt>
      <trkpt lat="49.39662" lon="5.80944">
        <ele>321.79998779297</ele>
        <time>2022-09-13T11:35:36.000Z</time>
      </trkpt>
      <trkpt lat="49.39661" lon="5.80942">
        <ele>321.79998779297</ele>
        <time>2022-09-13T11:35:37.000Z</time>
      </trkpt>
      <trkpt lat="49.3966" lon="5.80939">
        <ele>321.79998779297</ele>
        <time>2022-09-13T11:35:38.000Z</time>
      </trkpt>
      <trkpt lat="49.39659" lon="5.80935">
        <ele>321.79998779297</ele>
        <time>2022-09-13T11:35:39.000Z</time>
      </trkpt>
      <trkpt lat="49.39659" lon="5.80931">
        <ele>321.79998779297</ele>
        <time>2022-09-13T11:35:40.000Z</time>
      </trkpt>
      <trkpt lat="49.3966" lon="5.80927">
        <ele>321.79998779297</ele>
        <time>2022-09-13T11:35:41.000Z</time>
      </trkpt>
      <trkpt lat="49.39662" lon="5.80923">
        <ele>321.79998779297</ele>
        <time>2022-09-13T11:35:42.000Z</time>
      </trkpt>
      <trkpt lat="49.39664" lon="5.80918">
        <ele>321.79998779297</ele>
        <time>2022-09-13T11:35:43.000Z</time>
      </trkpt>
      <trkpt lat="49.39665" lon="5.80914">
        <ele>321.79998779297</ele>
        <time>2022-09-13T11:35:44.000Z</time>
      </trkpt>
      <trkpt lat="49.39668" lon="5.8091">
        <ele>321.79998779297</ele>
        <time>2022-09-13T11:35:45.000Z</time>
      </trkpt>
      <trkpt lat="49.39672" lon="5.80897">
        <ele>321.39999389648</ele>
        <time>2022-09-13T11:35:48.000Z</time>
      </trkpt>
      <trkpt lat="49.39673" lon="5.80892">
        <ele>321.39999389648</ele>
        <time>2022-09-13T11:35:49.000Z</time>
      </trkpt>
      <trkpt lat="49.3968" lon="5.80878">
        <ele>321</ele>
        <time>2022-09-13T11:35:52.000Z</time>
      </trkpt>
      <trkpt lat="49.39682" lon="5.80873">
        <ele>320.79998779297</ele>
        <time>2022-09-13T11:35:53.000Z</time>
      </trkpt>
      <trkpt lat="49.39683" lon="5.80868">
        <ele>320.79998779297</ele>
        <time>2022-09-13T11:35:54.000Z</time>
      </trkpt>
      <trkpt lat="49.39684" lon="5.80864">
        <ele>320.79998779297</ele>
        <time>2022-09-13T11:35:55.000Z</time>
      </trkpt>
      <trkpt lat="49.39686" lon="5.80859">
        <ele>320.60000610352</ele>
        <time>2022-09-13T11:35:56.000Z</time>
      </trkpt>
      <trkpt lat="49.39687" lon="5.80855">
        <ele>320.60000610352</ele>
        <time>2022-09-13T11:35:57.000Z</time>
      </trkpt>
      <trkpt lat="49.39688" lon="5.8085">
        <ele>320.39999389648</ele>
        <time>2022-09-13T11:35:58.000Z</time>
      </trkpt>
      <trkpt lat="49.39688" lon="5.80847">
        <ele>320.39999389648</ele>
        <time>2022-09-13T11:35:59.000Z</time>
      </trkpt>
      <trkpt lat="49.39689" lon="5.80843">
        <ele>320.20001220703</ele>
        <time>2022-09-13T11:36:00.000Z</time>
      </trkpt>
      <trkpt lat="49.39689" lon="5.8084">
        <ele>320.20001220703</ele>
        <time>2022-09-13T11:36:01.000Z</time>
      </trkpt>
      <trkpt lat="49.3969" lon="5.80837">
        <ele>320</ele>
        <time>2022-09-13T11:36:02.000Z</time>
      </trkpt>
      <trkpt lat="49.39692" lon="5.80833">
        <ele>320</ele>
        <time>2022-09-13T11:36:03.000Z</time>
      </trkpt>
      <trkpt lat="49.39693" lon="5.80829">
        <ele>320</ele>
        <time>2022-09-13T11:36:04.000Z</time>
      </trkpt>
      <trkpt lat="49.39693" lon="5.80825">
        <ele>320</ele>
        <time>2022-09-13T11:36:05.000Z</time>
      </trkpt>
      <trkpt lat="49.39693" lon="5.80821">
        <ele>320</ele>
        <time>2022-09-13T11:36:06.000Z</time>
      </trkpt>
      <trkpt lat="49.39694" lon="5.80818">
        <ele>320</ele>
        <time>2022-09-13T11:36:07.000Z</time>
      </trkpt>
      <trkpt lat="49.39694" lon="5.80816">
        <ele>320.20001220703</ele>
        <time>2022-09-13T11:36:08.000Z</time>
      </trkpt>
      <trkpt lat="49.39697" lon="5.80811">
        <ele>320.20001220703</ele>
        <time>2022-09-13T11:36:09.000Z</time>
      </trkpt>
      <trkpt lat="49.39699" lon="5.80809">
        <ele>320.20001220703</ele>
        <time>2022-09-13T11:36:10.000Z</time>
      </trkpt>
      <trkpt lat="49.397" lon="5.80807">
        <ele>320.39999389648</ele>
        <time>2022-09-13T11:36:11.000Z</time>
      </trkpt>
      <trkpt lat="49.39702" lon="5.80802">
        <ele>320.39999389648</ele>
        <time>2022-09-13T11:36:12.000Z</time>
      </trkpt>
      <trkpt lat="49.39703" lon="5.80799">
        <ele>320.39999389648</ele>
        <time>2022-09-13T11:36:13.000Z</time>
      </trkpt>
      <trkpt lat="49.39705" lon="5.80796">
        <ele>320.39999389648</ele>
        <time>2022-09-13T11:36:14.000Z</time>
      </trkpt>
      <trkpt lat="49.39708" lon="5.80792">
        <ele>320.39999389648</ele>
        <time>2022-09-13T11:36:15.000Z</time>
      </trkpt>
      <trkpt lat="49.39709" lon="5.80789">
        <ele>320.60000610352</ele>
        <time>2022-09-13T11:36:16.000Z</time>
      </trkpt>
      <trkpt lat="49.3971" lon="5.80782">
        <ele>320.60000610352</ele>
        <time>2022-09-13T11:36:18.000Z</time>
      </trkpt>
      <trkpt lat="49.39712" lon="5.80779">
        <ele>320.60000610352</ele>
        <time>2022-09-13T11:36:19.000Z</time>
      </trkpt>
      <trkpt lat="49.39716" lon="5.80765">
        <ele>320.79998779297</ele>
        <time>2022-09-13T11:36:23.000Z</time>
      </trkpt>
      <trkpt lat="49.39716" lon="5.80762">
        <ele>320.79998779297</ele>
        <time>2022-09-13T11:36:24.000Z</time>
      </trkpt>
      <trkpt lat="49.39716" lon="5.80759">
        <ele>320.79998779297</ele>
        <time>2022-09-13T11:36:25.000Z</time>
      </trkpt>
      <trkpt lat="49.39721" lon="5.8075">
        <ele>321.20001220703</ele>
        <time>2022-09-13T11:36:28.000Z</time>
      </trkpt>
      <trkpt lat="49.3972" lon="5.80746">
        <ele>321.39999389648</ele>
        <time>2022-09-13T11:36:29.000Z</time>
      </trkpt>
      <trkpt lat="49.39719" lon="5.80742">
        <ele>321.39999389648</ele>
        <time>2022-09-13T11:36:30.000Z</time>
      </trkpt>
      <trkpt lat="49.3972" lon="5.80737">
        <ele>321.39999389648</ele>
        <time>2022-09-13T11:36:31.000Z</time>
      </trkpt>
      <trkpt lat="49.39721" lon="5.80733">
        <ele>321.60000610352</ele>
        <time>2022-09-13T11:36:32.000Z</time>
      </trkpt>
      <trkpt lat="49.39723" lon="5.80729">
        <ele>321.60000610352</ele>
        <time>2022-09-13T11:36:33.000Z</time>
      </trkpt>
      <trkpt lat="49.39725" lon="5.80726">
        <ele>321.60000610352</ele>
        <time>2022-09-13T11:36:34.000Z</time>
      </trkpt>
      <trkpt lat="49.3973" lon="5.80717">
        <ele>321.79998779297</ele>
        <time>2022-09-13T11:36:37.000Z</time>
      </trkpt>
      <trkpt lat="49.39743" lon="5.80685">
        <ele>322.20001220703</ele>
        <time>2022-09-13T11:36:46.000Z</time>
      </trkpt>
      <trkpt lat="49.39747" lon="5.80676">
        <ele>322.20001220703</ele>
        <time>2022-09-13T11:36:49.000Z</time>
      </trkpt>
      <trkpt lat="49.3975" lon="5.80672">
        <ele>322.20001220703</ele>
        <time>2022-09-13T11:36:50.000Z</time>
      </trkpt>
      <trkpt lat="49.39755" lon="5.8066">
        <ele>322.20001220703</ele>
        <time>2022-09-13T11:36:53.000Z</time>
      </trkpt>
      <trkpt lat="49.39759" lon="5.80654">
        <ele>322.20001220703</ele>
        <time>2022-09-13T11:36:55.000Z</time>
      </trkpt>
      <trkpt lat="49.39759" lon="5.8065">
        <ele>322.20001220703</ele>
        <time>2022-09-13T11:36:56.000Z</time>
      </trkpt>
      <trkpt lat="49.39758" lon="5.80644">
        <ele>322.39999389648</ele>
        <time>2022-09-13T11:36:57.000Z</time>
      </trkpt>
      <trkpt lat="49.39759" lon="5.8064">
        <ele>322.39999389648</ele>
        <time>2022-09-13T11:36:58.000Z</time>
      </trkpt>
      <trkpt lat="49.3976" lon="5.80637">
        <ele>322.39999389648</ele>
        <time>2022-09-13T11:36:59.000Z</time>
      </trkpt>
      <trkpt lat="49.39761" lon="5.80634">
        <ele>322.20001220703</ele>
        <time>2022-09-13T11:37:00.000Z</time>
      </trkpt>
      <trkpt lat="49.39762" lon="5.8063">
        <ele>322.20001220703</ele>
        <time>2022-09-13T11:37:01.000Z</time>
      </trkpt>
      <trkpt lat="49.39763" lon="5.80627">
        <ele>322.20001220703</ele>
        <time>2022-09-13T11:37:02.000Z</time>
      </trkpt>
      <trkpt lat="49.39763" lon="5.80624">
        <ele>322.20001220703</ele>
        <time>2022-09-13T11:37:03.000Z</time>
      </trkpt>
      <trkpt lat="49.39765" lon="5.80621">
        <ele>322.20001220703</ele>
        <time>2022-09-13T11:37:04.000Z</time>
      </trkpt>
      <trkpt lat="49.39766" lon="5.80618">
        <ele>322.20001220703</ele>
        <time>2022-09-13T11:37:05.000Z</time>
      </trkpt>
      <trkpt lat="49.39769" lon="5.80604">
        <ele>322.20001220703</ele>
        <time>2022-09-13T11:37:08.000Z</time>
      </trkpt>
      <trkpt lat="49.39769" lon="5.80599">
        <ele>322</ele>
        <time>2022-09-13T11:37:09.000Z</time>
      </trkpt>
      <trkpt lat="49.39769" lon="5.80594">
        <ele>322</ele>
        <time>2022-09-13T11:37:10.000Z</time>
      </trkpt>
      <trkpt lat="49.39768" lon="5.80588">
        <ele>321.79998779297</ele>
        <time>2022-09-13T11:37:11.000Z</time>
      </trkpt>
      <trkpt lat="49.39768" lon="5.80582">
        <ele>321.79998779297</ele>
        <time>2022-09-13T11:37:12.000Z</time>
      </trkpt>
      <trkpt lat="49.39761" lon="5.80554">
        <ele>321</ele>
        <time>2022-09-13T11:37:16.000Z</time>
      </trkpt>
      <trkpt lat="49.39748" lon="5.80515">
        <ele>320.60000610352</ele>
        <time>2022-09-13T11:37:21.000Z</time>
      </trkpt>
      <trkpt lat="49.39743" lon="5.80505">
        <ele>320.39999389648</ele>
        <time>2022-09-13T11:37:22.000Z</time>
      </trkpt>
      <trkpt lat="49.39736" lon="5.80486">
        <ele>320</ele>
        <time>2022-09-13T11:37:24.000Z</time>
      </trkpt>
      <trkpt lat="49.39734" lon="5.80477">
        <ele>319.20001220703</ele>
        <time>2022-09-13T11:37:25.000Z</time>
      </trkpt>
      <trkpt lat="49.39734" lon="5.80467">
        <ele>319</ele>
        <time>2022-09-13T11:37:26.000Z</time>
      </trkpt>
      <trkpt lat="49.39734" lon="5.80458">
        <ele>318.39999389648</ele>
        <time>2022-09-13T11:37:27.000Z</time>
      </trkpt>
      <trkpt lat="49.39732" lon="5.80448">
        <ele>318.20001220703</ele>
        <time>2022-09-13T11:37:28.000Z</time>
      </trkpt>
      <trkpt lat="49.3973" lon="5.80436">
        <ele>317.39999389648</ele>
        <time>2022-09-13T11:37:29.000Z</time>
      </trkpt>
      <trkpt lat="49.39724" lon="5.80403">
        <ele>315.79998779297</ele>
        <time>2022-09-13T11:37:32.000Z</time>
      </trkpt>
      <trkpt lat="49.39721" lon="5.8039">
        <ele>315.60000610352</ele>
        <time>2022-09-13T11:37:33.000Z</time>
      </trkpt>
      <trkpt lat="49.39718" lon="5.80378">
        <ele>315.20001220703</ele>
        <time>2022-09-13T11:37:34.000Z</time>
      </trkpt>
      <trkpt lat="49.3971" lon="5.80354">
        <ele>314.39999389648</ele>
        <time>2022-09-13T11:37:36.000Z</time>
      </trkpt>
      <trkpt lat="49.39702" lon="5.8033">
        <ele>313</ele>
        <time>2022-09-13T11:37:38.000Z</time>
      </trkpt>
      <trkpt lat="49.397" lon="5.80319">
        <ele>312.20001220703</ele>
        <time>2022-09-13T11:37:39.000Z</time>
      </trkpt>
      <trkpt lat="49.39698" lon="5.80309">
        <ele>311.79998779297</ele>
        <time>2022-09-13T11:37:40.000Z</time>
      </trkpt>
      <trkpt lat="49.39698" lon="5.80298">
        <ele>311.20001220703</ele>
        <time>2022-09-13T11:37:41.000Z</time>
      </trkpt>
      <trkpt lat="49.39699" lon="5.80288">
        <ele>310.79998779297</ele>
        <time>2022-09-13T11:37:42.000Z</time>
      </trkpt>
      <trkpt lat="49.39701" lon="5.80279">
        <ele>309.20001220703</ele>
        <time>2022-09-13T11:37:43.000Z</time>
      </trkpt>
      <trkpt lat="49.39703" lon="5.80267">
        <ele>308.60000610352</ele>
        <time>2022-09-13T11:37:44.000Z</time>
      </trkpt>
      <trkpt lat="49.39706" lon="5.80256">
        <ele>307</ele>
        <time>2022-09-13T11:37:45.000Z</time>
      </trkpt>
      <trkpt lat="49.39709" lon="5.80243">
        <ele>306</ele>
        <time>2022-09-13T11:37:46.000Z</time>
      </trkpt>
      <trkpt lat="49.39711" lon="5.80232">
        <ele>305.60000610352</ele>
        <time>2022-09-13T11:37:47.000Z</time>
      </trkpt>
      <trkpt lat="49.39719" lon="5.80209">
        <ele>304</ele>
        <time>2022-09-13T11:37:49.000Z</time>
      </trkpt>
      <trkpt lat="49.39721" lon="5.80201">
        <ele>302.39999389648</ele>
        <time>2022-09-13T11:37:50.000Z</time>
      </trkpt>
      <trkpt lat="49.39724" lon="5.80193">
        <ele>301.39999389648</ele>
        <time>2022-09-13T11:37:51.000Z</time>
      </trkpt>
      <trkpt lat="49.39728" lon="5.80183">
        <ele>299.79998779297</ele>
        <time>2022-09-13T11:37:52.000Z</time>
      </trkpt>
      <trkpt lat="49.39732" lon="5.80174">
        <ele>297.79998779297</ele>
        <time>2022-09-13T11:37:53.000Z</time>
      </trkpt>
      <trkpt lat="49.39737" lon="5.80167">
        <ele>297.20001220703</ele>
        <time>2022-09-13T11:37:54.000Z</time>
      </trkpt>
      <trkpt lat="49.39741" lon="5.80161">
        <ele>295.20001220703</ele>
        <time>2022-09-13T11:37:55.000Z</time>
      </trkpt>
      <trkpt lat="49.39743" lon="5.80155">
        <ele>294</ele>
        <time>2022-09-13T11:37:56.000Z</time>
      </trkpt>
      <trkpt lat="49.39746" lon="5.80149">
        <ele>292.39999389648</ele>
        <time>2022-09-13T11:37:57.000Z</time>
      </trkpt>
      <trkpt lat="49.39751" lon="5.80144">
        <ele>292</ele>
        <time>2022-09-13T11:37:58.000Z</time>
      </trkpt>
      <trkpt lat="49.39754" lon="5.80138">
        <ele>291</ele>
        <time>2022-09-13T11:37:59.000Z</time>
      </trkpt>
      <trkpt lat="49.39758" lon="5.80132">
        <ele>289.79998779297</ele>
        <time>2022-09-13T11:38:00.000Z</time>
      </trkpt>
      <trkpt lat="49.39767" lon="5.80124">
        <ele>289.20001220703</ele>
        <time>2022-09-13T11:38:01.000Z</time>
      </trkpt>
      <trkpt lat="49.39775" lon="5.80118">
        <ele>288</ele>
        <time>2022-09-13T11:38:02.000Z</time>
      </trkpt>
      <trkpt lat="49.39783" lon="5.80112">
        <ele>287</ele>
        <time>2022-09-13T11:38:03.000Z</time>
      </trkpt>
      <trkpt lat="49.3979" lon="5.80106">
        <ele>284.39999389648</ele>
        <time>2022-09-13T11:38:04.000Z</time>
      </trkpt>
      <trkpt lat="49.39797" lon="5.80101">
        <ele>283.60000610352</ele>
        <time>2022-09-13T11:38:05.000Z</time>
      </trkpt>
      <trkpt lat="49.39808" lon="5.80094">
        <ele>282.60000610352</ele>
        <time>2022-09-13T11:38:06.000Z</time>
      </trkpt>
      <trkpt lat="49.39826" lon="5.8008">
        <ele>280.79998779297</ele>
        <time>2022-09-13T11:38:08.000Z</time>
      </trkpt>
      <trkpt lat="49.39828" lon="5.80074">
        <ele>280</ele>
        <time>2022-09-13T11:38:09.000Z</time>
      </trkpt>
      <trkpt lat="49.39832" lon="5.80068">
        <ele>279.60000610352</ele>
        <time>2022-09-13T11:38:10.000Z</time>
      </trkpt>
      <trkpt lat="49.39837" lon="5.80062">
        <ele>279.39999389648</ele>
        <time>2022-09-13T11:38:11.000Z</time>
      </trkpt>
      <trkpt lat="49.39841" lon="5.80057">
        <ele>279.20001220703</ele>
        <time>2022-09-13T11:38:12.000Z</time>
      </trkpt>
      <trkpt lat="49.39845" lon="5.80054">
        <ele>279</ele>
        <time>2022-09-13T11:38:13.000Z</time>
      </trkpt>
      <trkpt lat="49.39848" lon="5.80051">
        <ele>278.60000610352</ele>
        <time>2022-09-13T11:38:14.000Z</time>
      </trkpt>
      <trkpt lat="49.3985" lon="5.80048">
        <ele>278.39999389648</ele>
        <time>2022-09-13T11:38:15.000Z</time>
      </trkpt>
      <trkpt lat="49.39852" lon="5.80046">
        <ele>278.20001220703</ele>
        <time>2022-09-13T11:38:16.000Z</time>
      </trkpt>
      <trkpt lat="49.39853" lon="5.80043">
        <ele>278.20001220703</ele>
        <time>2022-09-13T11:38:17.000Z</time>
      </trkpt>
      <trkpt lat="49.39854" lon="5.80041">
        <ele>278.20001220703</ele>
        <time>2022-09-13T11:38:18.000Z</time>
      </trkpt>
      <trkpt lat="49.39855" lon="5.80039">
        <ele>278</ele>
        <time>2022-09-13T11:38:19.000Z</time>
      </trkpt>
      <trkpt lat="49.39857" lon="5.80038">
        <ele>278</ele>
        <time>2022-09-13T11:38:20.000Z</time>
      </trkpt>
      <trkpt lat="49.39858" lon="5.80036">
        <ele>278</ele>
        <time>2022-09-13T11:38:21.000Z</time>
      </trkpt>
      <trkpt lat="49.39863" lon="5.80028">
        <ele>278.20001220703</ele>
        <time>2022-09-13T11:38:25.000Z</time>
      </trkpt>
      <trkpt lat="49.39864" lon="5.80026">
        <ele>278.20001220703</ele>
        <time>2022-09-13T11:38:26.000Z</time>
      </trkpt>
      <trkpt lat="49.39865" lon="5.80024">
        <ele>278.20001220703</ele>
        <time>2022-09-13T11:38:27.000Z</time>
      </trkpt>
      <trkpt lat="49.39867" lon="5.80022">
        <ele>278.20001220703</ele>
        <time>2022-09-13T11:38:28.000Z</time>
      </trkpt>
      <trkpt lat="49.39872" lon="5.80017">
        <ele>278.39999389648</ele>
        <time>2022-09-13T11:38:30.000Z</time>
      </trkpt>
      <trkpt lat="49.39874" lon="5.80015">
        <ele>278.79998779297</ele>
        <time>2022-09-13T11:38:31.000Z</time>
      </trkpt>
      <trkpt lat="49.39881" lon="5.8001">
        <ele>279.60000610352</ele>
        <time>2022-09-13T11:38:34.000Z</time>
      </trkpt>
      <trkpt lat="49.39896" lon="5.8">
        <ele>280.39999389648</ele>
        <time>2022-09-13T11:38:41.000Z</time>
      </trkpt>
      <trkpt lat="49.39899" lon="5.79999">
        <ele>280.60000610352</ele>
        <time>2022-09-13T11:38:42.000Z</time>
      </trkpt>
      <trkpt lat="49.39904" lon="5.79997">
        <ele>280.79998779297</ele>
        <time>2022-09-13T11:38:44.000Z</time>
      </trkpt>
      <trkpt lat="49.39905" lon="5.79996">
        <ele>281</ele>
        <time>2022-09-13T11:38:45.000Z</time>
      </trkpt>
      <trkpt lat="49.39907" lon="5.79997">
        <ele>281.20001220703</ele>
        <time>2022-09-13T11:38:46.000Z</time>
      </trkpt>
      <trkpt lat="49.39909" lon="5.79996">
        <ele>281.20001220703</ele>
        <time>2022-09-13T11:38:47.000Z</time>
      </trkpt>
      <trkpt lat="49.39912" lon="5.79995">
        <ele>281.39999389648</ele>
        <time>2022-09-13T11:38:48.000Z</time>
      </trkpt>
      <trkpt lat="49.39915" lon="5.79994">
        <ele>281.39999389648</ele>
        <time>2022-09-13T11:38:49.000Z</time>
      </trkpt>
      <trkpt lat="49.3992" lon="5.79988">
        <ele>281.60000610352</ele>
        <time>2022-09-13T11:38:50.000Z</time>
      </trkpt>
      <trkpt lat="49.39921" lon="5.79984">
        <ele>281.60000610352</ele>
        <time>2022-09-13T11:38:51.000Z</time>
      </trkpt>
      <trkpt lat="49.39922" lon="5.79981">
        <ele>281.79998779297</ele>
        <time>2022-09-13T11:38:52.000Z</time>
      </trkpt>
      <trkpt lat="49.39922" lon="5.79977">
        <ele>281.79998779297</ele>
        <time>2022-09-13T11:38:53.000Z</time>
      </trkpt>
      <trkpt lat="49.3992" lon="5.79964">
        <ele>282</ele>
        <time>2022-09-13T11:38:55.000Z</time>
      </trkpt>
      <trkpt lat="49.3992" lon="5.79955">
        <ele>282</ele>
        <time>2022-09-13T11:38:56.000Z</time>
      </trkpt>
      <trkpt lat="49.39923" lon="5.79946">
        <ele>281.79998779297</ele>
        <time>2022-09-13T11:38:57.000Z</time>
      </trkpt>
      <trkpt lat="49.39926" lon="5.79923">
        <ele>281.60000610352</ele>
        <time>2022-09-13T11:38:59.000Z</time>
      </trkpt>
      <trkpt lat="49.39931" lon="5.79901">
        <ele>280.60000610352</ele>
        <time>2022-09-13T11:39:01.000Z</time>
      </trkpt>
      <trkpt lat="49.39931" lon="5.7989">
        <ele>279.79998779297</ele>
        <time>2022-09-13T11:39:02.000Z</time>
      </trkpt>
      <trkpt lat="49.39929" lon="5.79879">
        <ele>279.39999389648</ele>
        <time>2022-09-13T11:39:03.000Z</time>
      </trkpt>
      <trkpt lat="49.39929" lon="5.79871">
        <ele>279</ele>
        <time>2022-09-13T11:39:04.000Z</time>
      </trkpt>
      <trkpt lat="49.39928" lon="5.79864">
        <ele>278.79998779297</ele>
        <time>2022-09-13T11:39:05.000Z</time>
      </trkpt>
      <trkpt lat="49.39927" lon="5.79857">
        <ele>278.60000610352</ele>
        <time>2022-09-13T11:39:06.000Z</time>
      </trkpt>
      <trkpt lat="49.39926" lon="5.79851">
        <ele>278.39999389648</ele>
        <time>2022-09-13T11:39:07.000Z</time>
      </trkpt>
      <trkpt lat="49.39925" lon="5.79844">
        <ele>278</ele>
        <time>2022-09-13T11:39:08.000Z</time>
      </trkpt>
      <trkpt lat="49.39923" lon="5.79837">
        <ele>277.60000610352</ele>
        <time>2022-09-13T11:39:09.000Z</time>
      </trkpt>
      <trkpt lat="49.39922" lon="5.79832">
        <ele>277.60000610352</ele>
        <time>2022-09-13T11:39:10.000Z</time>
      </trkpt>
      <trkpt lat="49.3992" lon="5.79825">
        <ele>277.20001220703</ele>
        <time>2022-09-13T11:39:11.000Z</time>
      </trkpt>
      <trkpt lat="49.39919" lon="5.79819">
        <ele>277.20001220703</ele>
        <time>2022-09-13T11:39:12.000Z</time>
      </trkpt>
      <trkpt lat="49.39917" lon="5.79814">
        <ele>277.20001220703</ele>
        <time>2022-09-13T11:39:13.000Z</time>
      </trkpt>
      <trkpt lat="49.39917" lon="5.79808">
        <ele>277</ele>
        <time>2022-09-13T11:39:14.000Z</time>
      </trkpt>
      <trkpt lat="49.39917" lon="5.79802">
        <ele>276.79998779297</ele>
        <time>2022-09-13T11:39:15.000Z</time>
      </trkpt>
      <trkpt lat="49.39915" lon="5.79796">
        <ele>276.60000610352</ele>
        <time>2022-09-13T11:39:16.000Z</time>
      </trkpt>
      <trkpt lat="49.39912" lon="5.79789">
        <ele>276.60000610352</ele>
        <time>2022-09-13T11:39:17.000Z</time>
      </trkpt>
      <trkpt lat="49.3991" lon="5.79783">
        <ele>276.60000610352</ele>
        <time>2022-09-13T11:39:18.000Z</time>
      </trkpt>
      <trkpt lat="49.39907" lon="5.79777">
        <ele>276.39999389648</ele>
        <time>2022-09-13T11:39:19.000Z</time>
      </trkpt>
      <trkpt lat="49.39905" lon="5.79772">
        <ele>276.39999389648</ele>
        <time>2022-09-13T11:39:20.000Z</time>
      </trkpt>
      <trkpt lat="49.39903" lon="5.79766">
        <ele>276.39999389648</ele>
        <time>2022-09-13T11:39:21.000Z</time>
      </trkpt>
      <trkpt lat="49.39901" lon="5.7976">
        <ele>276.20001220703</ele>
        <time>2022-09-13T11:39:22.000Z</time>
      </trkpt>
      <trkpt lat="49.39899" lon="5.79754">
        <ele>276.20001220703</ele>
        <time>2022-09-13T11:39:23.000Z</time>
      </trkpt>
      <trkpt lat="49.39899" lon="5.79747">
        <ele>276.20001220703</ele>
        <time>2022-09-13T11:39:24.000Z</time>
      </trkpt>
      <trkpt lat="49.399" lon="5.79742">
        <ele>276.20001220703</ele>
        <time>2022-09-13T11:39:25.000Z</time>
      </trkpt>
      <trkpt lat="49.39901" lon="5.79737">
        <ele>276.20001220703</ele>
        <time>2022-09-13T11:39:26.000Z</time>
      </trkpt>
      <trkpt lat="49.399" lon="5.79732">
        <ele>276.20001220703</ele>
        <time>2022-09-13T11:39:27.000Z</time>
      </trkpt>
      <trkpt lat="49.39898" lon="5.79726">
        <ele>276.20001220703</ele>
        <time>2022-09-13T11:39:28.000Z</time>
      </trkpt>
      <trkpt lat="49.39893" lon="5.79721">
        <ele>276.20001220703</ele>
        <time>2022-09-13T11:39:29.000Z</time>
      </trkpt>
      <trkpt lat="49.3989" lon="5.79717">
        <ele>276.20001220703</ele>
        <time>2022-09-13T11:39:30.000Z</time>
      </trkpt>
      <trkpt lat="49.3989" lon="5.79712">
        <ele>276.20001220703</ele>
        <time>2022-09-13T11:39:31.000Z</time>
      </trkpt>
      <trkpt lat="49.3989" lon="5.79708">
        <ele>276.20001220703</ele>
        <time>2022-09-13T11:39:32.000Z</time>
      </trkpt>
      <trkpt lat="49.39889" lon="5.79704">
        <ele>276.20001220703</ele>
        <time>2022-09-13T11:39:33.000Z</time>
      </trkpt>
      <trkpt lat="49.39883" lon="5.79695">
        <ele>276.39999389648</ele>
        <time>2022-09-13T11:39:35.000Z</time>
      </trkpt>
      <trkpt lat="49.39879" lon="5.7969">
        <ele>276.39999389648</ele>
        <time>2022-09-13T11:39:36.000Z</time>
      </trkpt>
      <trkpt lat="49.39878" lon="5.79685">
        <ele>276.60000610352</ele>
        <time>2022-09-13T11:39:37.000Z</time>
      </trkpt>
      <trkpt lat="49.39877" lon="5.79679">
        <ele>276.60000610352</ele>
        <time>2022-09-13T11:39:38.000Z</time>
      </trkpt>
      <trkpt lat="49.39877" lon="5.79676">
        <ele>276.79998779297</ele>
        <time>2022-09-13T11:39:39.000Z</time>
      </trkpt>
      <trkpt lat="49.39878" lon="5.79673">
        <ele>277</ele>
        <time>2022-09-13T11:39:40.000Z</time>
      </trkpt>
      <trkpt lat="49.39879" lon="5.79669">
        <ele>277.20001220703</ele>
        <time>2022-09-13T11:39:41.000Z</time>
      </trkpt>
      <trkpt lat="49.39877" lon="5.79665">
        <ele>277.39999389648</ele>
        <time>2022-09-13T11:39:42.000Z</time>
      </trkpt>
      <trkpt lat="49.39876" lon="5.7966">
        <ele>277.60000610352</ele>
        <time>2022-09-13T11:39:43.000Z</time>
      </trkpt>
      <trkpt lat="49.39874" lon="5.79655">
        <ele>277.60000610352</ele>
        <time>2022-09-13T11:39:44.000Z</time>
      </trkpt>
      <trkpt lat="49.39868" lon="5.79645">
        <ele>277.79998779297</ele>
        <time>2022-09-13T11:39:46.000Z</time>
      </trkpt>
      <trkpt lat="49.39864" lon="5.79629">
        <ele>278.39999389648</ele>
        <time>2022-09-13T11:39:51.000Z</time>
      </trkpt>
      <trkpt lat="49.39863" lon="5.79626">
        <ele>278.39999389648</ele>
        <time>2022-09-13T11:39:52.000Z</time>
      </trkpt>
      <trkpt lat="49.39851" lon="5.79616">
        <ele>278.60000610352</ele>
        <time>2022-09-13T11:39:55.000Z</time>
      </trkpt>
      <trkpt lat="49.39848" lon="5.79613">
        <ele>278.60000610352</ele>
        <time>2022-09-13T11:39:56.000Z</time>
      </trkpt>
      <trkpt lat="49.39847" lon="5.79611">
        <ele>278.60000610352</ele>
        <time>2022-09-13T11:39:57.000Z</time>
      </trkpt>
      <trkpt lat="49.39844" lon="5.79608">
        <ele>278.60000610352</ele>
        <time>2022-09-13T11:39:58.000Z</time>
      </trkpt>
      <trkpt lat="49.39841" lon="5.79605">
        <ele>278.60000610352</ele>
        <time>2022-09-13T11:39:59.000Z</time>
      </trkpt>
      <trkpt lat="49.3984" lon="5.79603">
        <ele>278.60000610352</ele>
        <time>2022-09-13T11:40:00.000Z</time>
      </trkpt>
      <trkpt lat="49.3984" lon="5.79601">
        <ele>278.39999389648</ele>
        <time>2022-09-13T11:40:01.000Z</time>
      </trkpt>
      <trkpt lat="49.39837" lon="5.79598">
        <ele>278.20001220703</ele>
        <time>2022-09-13T11:40:02.000Z</time>
      </trkpt>
      <trkpt lat="49.39834" lon="5.79596">
        <ele>278.20001220703</ele>
        <time>2022-09-13T11:40:03.000Z</time>
      </trkpt>
      <trkpt lat="49.39831" lon="5.79594">
        <ele>278</ele>
        <time>2022-09-13T11:40:04.000Z</time>
      </trkpt>
      <trkpt lat="49.39827" lon="5.79589">
        <ele>278</ele>
        <time>2022-09-13T11:40:05.000Z</time>
      </trkpt>
      <trkpt lat="49.39823" lon="5.79585">
        <ele>277.79998779297</ele>
        <time>2022-09-13T11:40:06.000Z</time>
      </trkpt>
      <trkpt lat="49.3981" lon="5.79571">
        <ele>277.39999389648</ele>
        <time>2022-09-13T11:40:09.000Z</time>
      </trkpt>
      <trkpt lat="49.39804" lon="5.79564">
        <ele>277.20001220703</ele>
        <time>2022-09-13T11:40:11.000Z</time>
      </trkpt>
      <trkpt lat="49.398" lon="5.79561">
        <ele>277</ele>
        <time>2022-09-13T11:40:12.000Z</time>
      </trkpt>
      <trkpt lat="49.39796" lon="5.79557">
        <ele>276.79998779297</ele>
        <time>2022-09-13T11:40:13.000Z</time>
      </trkpt>
      <trkpt lat="49.39791" lon="5.79553">
        <ele>276.79998779297</ele>
        <time>2022-09-13T11:40:14.000Z</time>
      </trkpt>
      <trkpt lat="49.39789" lon="5.79551">
        <ele>276.60000610352</ele>
        <time>2022-09-13T11:40:15.000Z</time>
      </trkpt>
      <trkpt lat="49.39785" lon="5.79549">
        <ele>276.60000610352</ele>
        <time>2022-09-13T11:40:16.000Z</time>
      </trkpt>
      <trkpt lat="49.39783" lon="5.79545">
        <ele>276.20001220703</ele>
        <time>2022-09-13T11:40:17.000Z</time>
      </trkpt>
      <trkpt lat="49.39781" lon="5.79539">
        <ele>276.20001220703</ele>
        <time>2022-09-13T11:40:18.000Z</time>
      </trkpt>
      <trkpt lat="49.39778" lon="5.79534">
        <ele>276.20001220703</ele>
        <time>2022-09-13T11:40:19.000Z</time>
      </trkpt>
      <trkpt lat="49.39777" lon="5.79531">
        <ele>276.20001220703</ele>
        <time>2022-09-13T11:40:20.000Z</time>
      </trkpt>
      <trkpt lat="49.39775" lon="5.79528">
        <ele>276.20001220703</ele>
        <time>2022-09-13T11:40:21.000Z</time>
      </trkpt>
      <trkpt lat="49.39773" lon="5.79527">
        <ele>276.20001220703</ele>
        <time>2022-09-13T11:40:22.000Z</time>
      </trkpt>
      <trkpt lat="49.39772" lon="5.79527">
        <ele>276.20001220703</ele>
        <time>2022-09-13T11:40:23.000Z</time>
      </trkpt>
      <trkpt lat="49.39772" lon="5.79526">
        <ele>276.20001220703</ele>
        <time>2022-09-13T11:40:24.000Z</time>
      </trkpt>
      <trkpt lat="49.39771" lon="5.79525">
        <ele>276.20001220703</ele>
        <time>2022-09-13T11:40:25.000Z</time>
      </trkpt>
      <trkpt lat="49.39769" lon="5.79523">
        <ele>276.20001220703</ele>
        <time>2022-09-13T11:40:26.000Z</time>
      </trkpt>
      <trkpt lat="49.39763" lon="5.79516">
        <ele>276.20001220703</ele>
        <time>2022-09-13T11:40:28.000Z</time>
      </trkpt>
      <trkpt lat="49.39762" lon="5.79514">
        <ele>276.20001220703</ele>
        <time>2022-09-13T11:40:29.000Z</time>
      </trkpt>
      <trkpt lat="49.3976" lon="5.79513">
        <ele>276.20001220703</ele>
        <time>2022-09-13T11:40:30.000Z</time>
      </trkpt>
      <trkpt lat="49.39759" lon="5.7951">
        <ele>276.39999389648</ele>
        <time>2022-09-13T11:40:31.000Z</time>
      </trkpt>
      <trkpt lat="49.39757" lon="5.79507">
        <ele>276.39999389648</ele>
        <time>2022-09-13T11:40:32.000Z</time>
      </trkpt>
      <trkpt lat="49.39743" lon="5.7949">
        <ele>276.39999389648</ele>
        <time>2022-09-13T11:40:38.000Z</time>
      </trkpt>
      <trkpt lat="49.3974" lon="5.79487">
        <ele>276.20001220703</ele>
        <time>2022-09-13T11:40:39.000Z</time>
      </trkpt>
      <trkpt lat="49.39725" lon="5.79462">
        <ele>276</ele>
        <time>2022-09-13T11:40:45.000Z</time>
      </trkpt>
      <trkpt lat="49.39721" lon="5.79448">
        <ele>276</ele>
        <time>2022-09-13T11:40:48.000Z</time>
      </trkpt>
      <trkpt lat="49.39716" lon="5.79436">
        <ele>276</ele>
        <time>2022-09-13T11:40:50.000Z</time>
      </trkpt>
      <trkpt lat="49.39713" lon="5.79432">
        <ele>276</ele>
        <time>2022-09-13T11:40:51.000Z</time>
      </trkpt>
      <trkpt lat="49.3971" lon="5.79425">
        <ele>276</ele>
        <time>2022-09-13T11:40:52.000Z</time>
      </trkpt>
      <trkpt lat="49.39706" lon="5.79411">
        <ele>276</ele>
        <time>2022-09-13T11:40:55.000Z</time>
      </trkpt>
      <trkpt lat="49.39705" lon="5.79405">
        <ele>276</ele>
        <time>2022-09-13T11:40:56.000Z</time>
      </trkpt>
      <trkpt lat="49.39703" lon="5.79397">
        <ele>276</ele>
        <time>2022-09-13T11:40:57.000Z</time>
      </trkpt>
      <trkpt lat="49.39702" lon="5.7939">
        <ele>276</ele>
        <time>2022-09-13T11:40:58.000Z</time>
      </trkpt>
      <trkpt lat="49.39701" lon="5.79374">
        <ele>276</ele>
        <time>2022-09-13T11:41:01.000Z</time>
      </trkpt>
      <trkpt lat="49.39701" lon="5.79356">
        <ele>275.79998779297</ele>
        <time>2022-09-13T11:41:05.000Z</time>
      </trkpt>
      <trkpt lat="49.39702" lon="5.79351">
        <ele>275.79998779297</ele>
        <time>2022-09-13T11:41:06.000Z</time>
      </trkpt>
      <trkpt lat="49.39702" lon="5.79346">
        <ele>275.79998779297</ele>
        <time>2022-09-13T11:41:07.000Z</time>
      </trkpt>
      <trkpt lat="49.39705" lon="5.79317">
        <ele>276.60000610352</ele>
        <time>2022-09-13T11:41:13.000Z</time>
      </trkpt>
      <trkpt lat="49.39704" lon="5.79309">
        <ele>276.60000610352</ele>
        <time>2022-09-13T11:41:15.000Z</time>
      </trkpt>
      <trkpt lat="49.39705" lon="5.79306">
        <ele>276.60000610352</ele>
        <time>2022-09-13T11:41:16.000Z</time>
      </trkpt>
      <trkpt lat="49.39705" lon="5.79303">
        <ele>276.39999389648</ele>
        <time>2022-09-13T11:41:17.000Z</time>
      </trkpt>
      <trkpt lat="49.39705" lon="5.793">
        <ele>276.39999389648</ele>
        <time>2022-09-13T11:41:18.000Z</time>
      </trkpt>
      <trkpt lat="49.39706" lon="5.79297">
        <ele>276.39999389648</ele>
        <time>2022-09-13T11:41:19.000Z</time>
      </trkpt>
      <trkpt lat="49.39708" lon="5.79294">
        <ele>276.20001220703</ele>
        <time>2022-09-13T11:41:20.000Z</time>
      </trkpt>
      <trkpt lat="49.39709" lon="5.79292">
        <ele>276.20001220703</ele>
        <time>2022-09-13T11:41:21.000Z</time>
      </trkpt>
      <trkpt lat="49.39711" lon="5.7929">
        <ele>276.20001220703</ele>
        <time>2022-09-13T11:41:22.000Z</time>
      </trkpt>
      <trkpt lat="49.39713" lon="5.79287">
        <ele>276.20001220703</ele>
        <time>2022-09-13T11:41:23.000Z</time>
      </trkpt>
      <trkpt lat="49.39713" lon="5.79285">
        <ele>276.20001220703</ele>
        <time>2022-09-13T11:41:24.000Z</time>
      </trkpt>
      <trkpt lat="49.39713" lon="5.79283">
        <ele>276.20001220703</ele>
        <time>2022-09-13T11:41:25.000Z</time>
      </trkpt>
      <trkpt lat="49.39714" lon="5.79281">
        <ele>276.20001220703</ele>
        <time>2022-09-13T11:41:26.000Z</time>
      </trkpt>
      <trkpt lat="49.39719" lon="5.79271">
        <ele>276.20001220703</ele>
        <time>2022-09-13T11:41:30.000Z</time>
      </trkpt>
      <trkpt lat="49.39722" lon="5.79268">
        <ele>276.20001220703</ele>
        <time>2022-09-13T11:41:31.000Z</time>
      </trkpt>
      <trkpt lat="49.39724" lon="5.79266">
        <ele>276.39999389648</ele>
        <time>2022-09-13T11:41:32.000Z</time>
      </trkpt>
      <trkpt lat="49.39727" lon="5.79261">
        <ele>276.39999389648</ele>
        <time>2022-09-13T11:41:34.000Z</time>
      </trkpt>
      <trkpt lat="49.39728" lon="5.79258">
        <ele>276.39999389648</ele>
        <time>2022-09-13T11:41:35.000Z</time>
      </trkpt>
      <trkpt lat="49.39729" lon="5.79255">
        <ele>276.39999389648</ele>
        <time>2022-09-13T11:41:36.000Z</time>
      </trkpt>
      <trkpt lat="49.39735" lon="5.7924">
        <ele>276.79998779297</ele>
        <time>2022-09-13T11:41:40.000Z</time>
      </trkpt>
      <trkpt lat="49.39736" lon="5.79238">
        <ele>276.79998779297</ele>
        <time>2022-09-13T11:41:41.000Z</time>
      </trkpt>
      <trkpt lat="49.39738" lon="5.79236">
        <ele>276.79998779297</ele>
        <time>2022-09-13T11:41:42.000Z</time>
      </trkpt>
      <trkpt lat="49.3974" lon="5.79232">
        <ele>277</ele>
        <time>2022-09-13T11:41:43.000Z</time>
      </trkpt>
      <trkpt lat="49.39743" lon="5.79228">
        <ele>277</ele>
        <time>2022-09-13T11:41:45.000Z</time>
      </trkpt>
      <trkpt lat="49.39744" lon="5.79227">
        <ele>277</ele>
        <time>2022-09-13T11:41:46.000Z</time>
      </trkpt>
      <trkpt lat="49.39747" lon="5.79223">
        <ele>277.39999389648</ele>
        <time>2022-09-13T11:41:47.000Z</time>
      </trkpt>
      <trkpt lat="49.39749" lon="5.79221">
        <ele>277.60000610352</ele>
        <time>2022-09-13T11:41:48.000Z</time>
      </trkpt>
      <trkpt lat="49.3975" lon="5.7922">
        <ele>277.60000610352</ele>
        <time>2022-09-13T11:41:49.000Z</time>
      </trkpt>
      <trkpt lat="49.39752" lon="5.79213">
        <ele>278.79998779297</ele>
        <time>2022-09-13T11:41:52.000Z</time>
      </trkpt>
      <trkpt lat="49.39752" lon="5.79213">
        <ele>279.20001220703</ele>
        <time>2022-09-13T11:41:53.000Z</time>
      </trkpt>
      <trkpt lat="49.39754" lon="5.79213">
        <ele>280.39999389648</ele>
        <time>2022-09-13T11:41:55.000Z</time>
      </trkpt>
      <trkpt lat="49.39756" lon="5.79213">
        <ele>280.60000610352</ele>
        <time>2022-09-13T11:41:56.000Z</time>
      </trkpt>
      <trkpt lat="49.39756" lon="5.79214">
        <ele>281.60000610352</ele>
        <time>2022-09-13T11:41:57.000Z</time>
      </trkpt>
      <trkpt lat="49.39759" lon="5.79212">
        <ele>282.60000610352</ele>
        <time>2022-09-13T11:41:59.000Z</time>
      </trkpt>
      <trkpt lat="49.39762" lon="5.79211">
        <ele>282.60000610352</ele>
        <time>2022-09-13T11:42:00.000Z</time>
      </trkpt>
      <trkpt lat="49.39764" lon="5.7921">
        <ele>283.20001220703</ele>
        <time>2022-09-13T11:42:01.000Z</time>
      </trkpt>
      <trkpt lat="49.39766" lon="5.79208">
        <ele>283.60000610352</ele>
        <time>2022-09-13T11:42:02.000Z</time>
      </trkpt>
      <trkpt lat="49.39768" lon="5.79208">
        <ele>284.39999389648</ele>
        <time>2022-09-13T11:42:03.000Z</time>
      </trkpt>
      <trkpt lat="49.39773" lon="5.79206">
        <ele>284.79998779297</ele>
        <time>2022-09-13T11:42:04.000Z</time>
      </trkpt>
      <trkpt lat="49.39773" lon="5.79206">
        <ele>285.20001220703</ele>
        <time>2022-09-13T11:42:05.000Z</time>
      </trkpt>
      <trkpt lat="49.39781" lon="5.79205">
        <ele>286</ele>
        <time>2022-09-13T11:42:06.000Z</time>
      </trkpt>
      <trkpt lat="49.39783" lon="5.79204">
        <ele>286.39999389648</ele>
        <time>2022-09-13T11:42:07.000Z</time>
      </trkpt>
      <trkpt lat="49.39785" lon="5.79203">
        <ele>287.20001220703</ele>
        <time>2022-09-13T11:42:08.000Z</time>
      </trkpt>
      <trkpt lat="49.39787" lon="5.79203">
        <ele>287.39999389648</ele>
        <time>2022-09-13T11:42:09.000Z</time>
      </trkpt>
      <trkpt lat="49.39788" lon="5.79202">
        <ele>287.79998779297</ele>
        <time>2022-09-13T11:42:10.000Z</time>
      </trkpt>
      <trkpt lat="49.3979" lon="5.79202">
        <ele>288.60000610352</ele>
        <time>2022-09-13T11:42:11.000Z</time>
      </trkpt>
      <trkpt lat="49.39794" lon="5.79202">
        <ele>288.79998779297</ele>
        <time>2022-09-13T11:42:12.000Z</time>
      </trkpt>
      <trkpt lat="49.39797" lon="5.79201">
        <ele>289.20001220703</ele>
        <time>2022-09-13T11:42:13.000Z</time>
      </trkpt>
      <trkpt lat="49.39799" lon="5.79201">
        <ele>289.39999389648</ele>
        <time>2022-09-13T11:42:14.000Z</time>
      </trkpt>
      <trkpt lat="49.398" lon="5.79201">
        <ele>290</ele>
        <time>2022-09-13T11:42:15.000Z</time>
      </trkpt>
      <trkpt lat="49.39802" lon="5.79201">
        <ele>290.39999389648</ele>
        <time>2022-09-13T11:42:16.000Z</time>
      </trkpt>
      <trkpt lat="49.39804" lon="5.79201">
        <ele>291.20001220703</ele>
        <time>2022-09-13T11:42:17.000Z</time>
      </trkpt>
      <trkpt lat="49.39806" lon="5.79201">
        <ele>291.60000610352</ele>
        <time>2022-09-13T11:42:18.000Z</time>
      </trkpt>
      <trkpt lat="49.39808" lon="5.79202">
        <ele>291.79998779297</ele>
        <time>2022-09-13T11:42:19.000Z</time>
      </trkpt>
      <trkpt lat="49.39808" lon="5.79201">
        <ele>292.39999389648</ele>
        <time>2022-09-13T11:42:20.000Z</time>
      </trkpt>
      <trkpt lat="49.3981" lon="5.79201">
        <ele>292.60000610352</ele>
        <time>2022-09-13T11:42:21.000Z</time>
      </trkpt>
      <trkpt lat="49.39811" lon="5.79202">
        <ele>293.20001220703</ele>
        <time>2022-09-13T11:42:22.000Z</time>
      </trkpt>
      <trkpt lat="49.39814" lon="5.79199">
        <ele>293.39999389648</ele>
        <time>2022-09-13T11:42:23.000Z</time>
      </trkpt>
      <trkpt lat="49.39816" lon="5.79199">
        <ele>294</ele>
        <time>2022-09-13T11:42:24.000Z</time>
      </trkpt>
      <trkpt lat="49.39817" lon="5.79199">
        <ele>294.39999389648</ele>
        <time>2022-09-13T11:42:25.000Z</time>
      </trkpt>
      <trkpt lat="49.39819" lon="5.79199">
        <ele>294.60000610352</ele>
        <time>2022-09-13T11:42:26.000Z</time>
      </trkpt>
      <trkpt lat="49.39821" lon="5.79198">
        <ele>295</ele>
        <time>2022-09-13T11:42:27.000Z</time>
      </trkpt>
      <trkpt lat="49.39823" lon="5.79197">
        <ele>295.20001220703</ele>
        <time>2022-09-13T11:42:28.000Z</time>
      </trkpt>
      <trkpt lat="49.39825" lon="5.79197">
        <ele>295.60000610352</ele>
        <time>2022-09-13T11:42:29.000Z</time>
      </trkpt>
      <trkpt lat="49.39827" lon="5.79198">
        <ele>295.79998779297</ele>
        <time>2022-09-13T11:42:30.000Z</time>
      </trkpt>
      <trkpt lat="49.3983" lon="5.79198">
        <ele>296.20001220703</ele>
        <time>2022-09-13T11:42:31.000Z</time>
      </trkpt>
      <trkpt lat="49.39835" lon="5.79194">
        <ele>296.39999389648</ele>
        <time>2022-09-13T11:42:32.000Z</time>
      </trkpt>
      <trkpt lat="49.39837" lon="5.79193">
        <ele>296.79998779297</ele>
        <time>2022-09-13T11:42:33.000Z</time>
      </trkpt>
      <trkpt lat="49.39838" lon="5.79194">
        <ele>297</ele>
        <time>2022-09-13T11:42:34.000Z</time>
      </trkpt>
      <trkpt lat="49.39839" lon="5.79195">
        <ele>297</ele>
        <time>2022-09-13T11:42:35.000Z</time>
      </trkpt>
      <trkpt lat="49.39842" lon="5.79196">
        <ele>297.20001220703</ele>
        <time>2022-09-13T11:42:36.000Z</time>
      </trkpt>
      <trkpt lat="49.39844" lon="5.79197">
        <ele>297.39999389648</ele>
        <time>2022-09-13T11:42:37.000Z</time>
      </trkpt>
      <trkpt lat="49.39846" lon="5.79197">
        <ele>297.60000610352</ele>
        <time>2022-09-13T11:42:38.000Z</time>
      </trkpt>
      <trkpt lat="49.39848" lon="5.79198">
        <ele>297.79998779297</ele>
        <time>2022-09-13T11:42:39.000Z</time>
      </trkpt>
      <trkpt lat="49.3985" lon="5.79198">
        <ele>298</ele>
        <time>2022-09-13T11:42:40.000Z</time>
      </trkpt>
      <trkpt lat="49.39852" lon="5.79197">
        <ele>298.39999389648</ele>
        <time>2022-09-13T11:42:41.000Z</time>
      </trkpt>
      <trkpt lat="49.39854" lon="5.79196">
        <ele>298.60000610352</ele>
        <time>2022-09-13T11:42:42.000Z</time>
      </trkpt>
      <trkpt lat="49.39856" lon="5.79195">
        <ele>298.79998779297</ele>
        <time>2022-09-13T11:42:43.000Z</time>
      </trkpt>
      <trkpt lat="49.39858" lon="5.79195">
        <ele>299</ele>
        <time>2022-09-13T11:42:44.000Z</time>
      </trkpt>
      <trkpt lat="49.39861" lon="5.79194">
        <ele>299.20001220703</ele>
        <time>2022-09-13T11:42:45.000Z</time>
      </trkpt>
      <trkpt lat="49.39863" lon="5.79193">
        <ele>299.20001220703</ele>
        <time>2022-09-13T11:42:46.000Z</time>
      </trkpt>
      <trkpt lat="49.39864" lon="5.79193">
        <ele>299.39999389648</ele>
        <time>2022-09-13T11:42:47.000Z</time>
      </trkpt>
      <trkpt lat="49.39866" lon="5.79194">
        <ele>299.60000610352</ele>
        <time>2022-09-13T11:42:48.000Z</time>
      </trkpt>
      <trkpt lat="49.39869" lon="5.79195">
        <ele>299.60000610352</ele>
        <time>2022-09-13T11:42:49.000Z</time>
      </trkpt>
      <trkpt lat="49.39872" lon="5.79194">
        <ele>299.60000610352</ele>
        <time>2022-09-13T11:42:50.000Z</time>
      </trkpt>
      <trkpt lat="49.39874" lon="5.79193">
        <ele>299.60000610352</ele>
        <time>2022-09-13T11:42:51.000Z</time>
      </trkpt>
      <trkpt lat="49.39877" lon="5.79192">
        <ele>299.79998779297</ele>
        <time>2022-09-13T11:42:52.000Z</time>
      </trkpt>
      <trkpt lat="49.39879" lon="5.79192">
        <ele>299.79998779297</ele>
        <time>2022-09-13T11:42:53.000Z</time>
      </trkpt>
      <trkpt lat="49.3988" lon="5.79193">
        <ele>300</ele>
        <time>2022-09-13T11:42:54.000Z</time>
      </trkpt>
      <trkpt lat="49.39884" lon="5.79195">
        <ele>300</ele>
        <time>2022-09-13T11:42:55.000Z</time>
      </trkpt>
      <trkpt lat="49.39885" lon="5.79195">
        <ele>300</ele>
        <time>2022-09-13T11:42:56.000Z</time>
      </trkpt>
      <trkpt lat="49.39887" lon="5.79196">
        <ele>300</ele>
        <time>2022-09-13T11:42:57.000Z</time>
      </trkpt>
      <trkpt lat="49.39891" lon="5.79196">
        <ele>300</ele>
        <time>2022-09-13T11:42:58.000Z</time>
      </trkpt>
      <trkpt lat="49.39894" lon="5.79196">
        <ele>300</ele>
        <time>2022-09-13T11:42:59.000Z</time>
      </trkpt>
      <trkpt lat="49.39899" lon="5.79193">
        <ele>300</ele>
        <time>2022-09-13T11:43:00.000Z</time>
      </trkpt>
      <trkpt lat="49.39904" lon="5.7919">
        <ele>300</ele>
        <time>2022-09-13T11:43:01.000Z</time>
      </trkpt>
      <trkpt lat="49.39906" lon="5.7919">
        <ele>300</ele>
        <time>2022-09-13T11:43:02.000Z</time>
      </trkpt>
      <trkpt lat="49.3991" lon="5.7919">
        <ele>300</ele>
        <time>2022-09-13T11:43:03.000Z</time>
      </trkpt>
      <trkpt lat="49.39914" lon="5.7919">
        <ele>300</ele>
        <time>2022-09-13T11:43:04.000Z</time>
      </trkpt>
      <trkpt lat="49.3992" lon="5.7919">
        <ele>300</ele>
        <time>2022-09-13T11:43:05.000Z</time>
      </trkpt>
      <trkpt lat="49.39929" lon="5.79188">
        <ele>299.79998779297</ele>
        <time>2022-09-13T11:43:06.000Z</time>
      </trkpt>
      <trkpt lat="49.39938" lon="5.79187">
        <ele>299.60000610352</ele>
        <time>2022-09-13T11:43:07.000Z</time>
      </trkpt>
      <trkpt lat="49.39949" lon="5.79186">
        <ele>298.79998779297</ele>
        <time>2022-09-13T11:43:08.000Z</time>
      </trkpt>
      <trkpt lat="49.39964" lon="5.79187">
        <ele>297.79998779297</ele>
        <time>2022-09-13T11:43:10.000Z</time>
      </trkpt>
      <trkpt lat="49.3997" lon="5.79187">
        <ele>297</ele>
        <time>2022-09-13T11:43:11.000Z</time>
      </trkpt>
      <trkpt lat="49.39977" lon="5.79187">
        <ele>296.79998779297</ele>
        <time>2022-09-13T11:43:12.000Z</time>
      </trkpt>
      <trkpt lat="49.39982" lon="5.79185">
        <ele>296.39999389648</ele>
        <time>2022-09-13T11:43:13.000Z</time>
      </trkpt>
      <trkpt lat="49.39991" lon="5.79181">
        <ele>296.20001220703</ele>
        <time>2022-09-13T11:43:14.000Z</time>
      </trkpt>
      <trkpt lat="49.4" lon="5.79179">
        <ele>295.79998779297</ele>
        <time>2022-09-13T11:43:15.000Z</time>
      </trkpt>
      <trkpt lat="49.40006" lon="5.79181">
        <ele>295.39999389648</ele>
        <time>2022-09-13T11:43:16.000Z</time>
      </trkpt>
      <trkpt lat="49.4001" lon="5.79181">
        <ele>295</ele>
        <time>2022-09-13T11:43:17.000Z</time>
      </trkpt>
      <trkpt lat="49.40012" lon="5.79181">
        <ele>294.39999389648</ele>
        <time>2022-09-13T11:43:18.000Z</time>
      </trkpt>
      <trkpt lat="49.40015" lon="5.7918">
        <ele>294.20001220703</ele>
        <time>2022-09-13T11:43:19.000Z</time>
      </trkpt>
      <trkpt lat="49.40018" lon="5.79179">
        <ele>294.20001220703</ele>
        <time>2022-09-13T11:43:20.000Z</time>
      </trkpt>
      <trkpt lat="49.40022" lon="5.79179">
        <ele>294.20001220703</ele>
        <time>2022-09-13T11:43:21.000Z</time>
      </trkpt>
      <trkpt lat="49.40024" lon="5.79179">
        <ele>294</ele>
        <time>2022-09-13T11:43:22.000Z</time>
      </trkpt>
      <trkpt lat="49.40031" lon="5.7918">
        <ele>294</ele>
        <time>2022-09-13T11:43:24.000Z</time>
      </trkpt>
      <trkpt lat="49.40034" lon="5.79179">
        <ele>294</ele>
        <time>2022-09-13T11:43:25.000Z</time>
      </trkpt>
      <trkpt lat="49.40037" lon="5.7918">
        <ele>294</ele>
        <time>2022-09-13T11:43:26.000Z</time>
      </trkpt>
      <trkpt lat="49.4004" lon="5.79179">
        <ele>294</ele>
        <time>2022-09-13T11:43:27.000Z</time>
      </trkpt>
      <trkpt lat="49.40044" lon="5.79179">
        <ele>294</ele>
        <time>2022-09-13T11:43:28.000Z</time>
      </trkpt>
      <trkpt lat="49.40053" lon="5.79178">
        <ele>294.39999389648</ele>
        <time>2022-09-13T11:43:31.000Z</time>
      </trkpt>
      <trkpt lat="49.40053" lon="5.79178">
        <ele>294.39999389648</ele>
        <time>2022-09-13T11:43:32.000Z</time>
      </trkpt>
      <trkpt lat="49.40058" lon="5.79178">
        <ele>294.39999389648</ele>
        <time>2022-09-13T11:43:33.000Z</time>
      </trkpt>
      <trkpt lat="49.4006" lon="5.79179">
        <ele>294.39999389648</ele>
        <time>2022-09-13T11:43:34.000Z</time>
      </trkpt>
      <trkpt lat="49.40062" lon="5.79179">
        <ele>294.60000610352</ele>
        <time>2022-09-13T11:43:35.000Z</time>
      </trkpt>
      <trkpt lat="49.40063" lon="5.7918">
        <ele>294.79998779297</ele>
        <time>2022-09-13T11:43:36.000Z</time>
      </trkpt>
      <trkpt lat="49.40067" lon="5.79181">
        <ele>295.39999389648</ele>
        <time>2022-09-13T11:43:38.000Z</time>
      </trkpt>
      <trkpt lat="49.40072" lon="5.7918">
        <ele>295.20001220703</ele>
        <time>2022-09-13T11:43:39.000Z</time>
      </trkpt>
      <trkpt lat="49.4008" lon="5.7918">
        <ele>295.60000610352</ele>
        <time>2022-09-13T11:43:40.000Z</time>
      </trkpt>
      <trkpt lat="49.40083" lon="5.7918">
        <ele>295.79998779297</ele>
        <time>2022-09-13T11:43:41.000Z</time>
      </trkpt>
      <trkpt lat="49.40085" lon="5.79179">
        <ele>295.79998779297</ele>
        <time>2022-09-13T11:43:42.000Z</time>
      </trkpt>
      <trkpt lat="49.40087" lon="5.79179">
        <ele>295.79998779297</ele>
        <time>2022-09-13T11:43:43.000Z</time>
      </trkpt>
      <trkpt lat="49.40111" lon="5.79175">
        <ele>296.60000610352</ele>
        <time>2022-09-13T11:43:49.000Z</time>
      </trkpt>
      <trkpt lat="49.40114" lon="5.79174">
        <ele>296.60000610352</ele>
        <time>2022-09-13T11:43:50.000Z</time>
      </trkpt>
      <trkpt lat="49.40126" lon="5.79171">
        <ele>296.60000610352</ele>
        <time>2022-09-13T11:43:54.000Z</time>
      </trkpt>
      <trkpt lat="49.4013" lon="5.79172">
        <ele>296.79998779297</ele>
        <time>2022-09-13T11:43:55.000Z</time>
      </trkpt>
      <trkpt lat="49.40138" lon="5.79171">
        <ele>296.79998779297</ele>
        <time>2022-09-13T11:43:57.000Z</time>
      </trkpt>
      <trkpt lat="49.40142" lon="5.79171">
        <ele>296.79998779297</ele>
        <time>2022-09-13T11:43:58.000Z</time>
      </trkpt>
      <trkpt lat="49.40147" lon="5.79171">
        <ele>296.79998779297</ele>
        <time>2022-09-13T11:44:01.000Z</time>
      </trkpt>
      <trkpt lat="49.4015" lon="5.7917">
        <ele>296.79998779297</ele>
        <time>2022-09-13T11:44:02.000Z</time>
      </trkpt>
      <trkpt lat="49.40156" lon="5.79168">
        <ele>297</ele>
        <time>2022-09-13T11:44:03.000Z</time>
      </trkpt>
      <trkpt lat="49.4016" lon="5.79169">
        <ele>297</ele>
        <time>2022-09-13T11:44:04.000Z</time>
      </trkpt>
      <trkpt lat="49.40178" lon="5.7917">
        <ele>296.79998779297</ele>
        <time>2022-09-13T11:44:08.000Z</time>
      </trkpt>
      <trkpt lat="49.40209" lon="5.79167">
        <ele>296</ele>
        <time>2022-09-13T11:44:14.000Z</time>
      </trkpt>
      <trkpt lat="49.40228" lon="5.79161">
        <ele>295.39999389648</ele>
        <time>2022-09-13T11:44:17.000Z</time>
      </trkpt>
      <trkpt lat="49.40229" lon="5.79159">
        <ele>295.20001220703</ele>
        <time>2022-09-13T11:44:18.000Z</time>
      </trkpt>
      <trkpt lat="49.40229" lon="5.79157">
        <ele>295.20001220703</ele>
        <time>2022-09-13T11:44:19.000Z</time>
      </trkpt>
      <trkpt lat="49.40233" lon="5.79154">
        <ele>295</ele>
        <time>2022-09-13T11:44:20.000Z</time>
      </trkpt>
      <trkpt lat="49.40236" lon="5.7913">
        <ele>295</ele>
        <time>2022-09-13T11:44:25.000Z</time>
      </trkpt>
      <trkpt lat="49.40235" lon="5.79125">
        <ele>294.79998779297</ele>
        <time>2022-09-13T11:44:26.000Z</time>
      </trkpt>
      <trkpt lat="49.40235" lon="5.79119">
        <ele>294.79998779297</ele>
        <time>2022-09-13T11:44:27.000Z</time>
      </trkpt>
      <trkpt lat="49.40235" lon="5.79114">
        <ele>294.60000610352</ele>
        <time>2022-09-13T11:44:28.000Z</time>
      </trkpt>
      <trkpt lat="49.40236" lon="5.79109">
        <ele>294.39999389648</ele>
        <time>2022-09-13T11:44:29.000Z</time>
      </trkpt>
      <trkpt lat="49.40236" lon="5.79105">
        <ele>294.20001220703</ele>
        <time>2022-09-13T11:44:30.000Z</time>
      </trkpt>
      <trkpt lat="49.40237" lon="5.79101">
        <ele>294.20001220703</ele>
        <time>2022-09-13T11:44:31.000Z</time>
      </trkpt>
      <trkpt lat="49.40239" lon="5.79099">
        <ele>294</ele>
        <time>2022-09-13T11:44:32.000Z</time>
      </trkpt>
      <trkpt lat="49.4024" lon="5.79098">
        <ele>293.79998779297</ele>
        <time>2022-09-13T11:44:33.000Z</time>
      </trkpt>
      <trkpt lat="49.4024" lon="5.79098">
        <ele>293.60000610352</ele>
        <time>2022-09-13T11:44:34.000Z</time>
      </trkpt>
      <trkpt lat="49.40242" lon="5.79094">
        <ele>293.60000610352</ele>
        <time>2022-09-13T11:44:38.000Z</time>
      </trkpt>
      <trkpt lat="49.40244" lon="5.79091">
        <ele>293.60000610352</ele>
        <time>2022-09-13T11:44:39.000Z</time>
      </trkpt>
      <trkpt lat="49.40246" lon="5.7909">
        <ele>294.20001220703</ele>
        <time>2022-09-13T11:44:41.000Z</time>
      </trkpt>
      <trkpt lat="49.40246" lon="5.79089">
        <ele>294.39999389648</ele>
        <time>2022-09-13T11:44:42.000Z</time>
      </trkpt>
      <trkpt lat="49.40248" lon="5.79088">
        <ele>294.39999389648</ele>
        <time>2022-09-13T11:44:43.000Z</time>
      </trkpt>
      <trkpt lat="49.40253" lon="5.79082">
        <ele>294.79998779297</ele>
        <time>2022-09-13T11:44:45.000Z</time>
      </trkpt>
      <trkpt lat="49.40255" lon="5.79079">
        <ele>295</ele>
        <time>2022-09-13T11:44:46.000Z</time>
      </trkpt>
      <trkpt lat="49.40256" lon="5.79075">
        <ele>295.20001220703</ele>
        <time>2022-09-13T11:44:47.000Z</time>
      </trkpt>
      <trkpt lat="49.40257" lon="5.79072">
        <ele>295.39999389648</ele>
        <time>2022-09-13T11:44:48.000Z</time>
      </trkpt>
      <trkpt lat="49.40271" lon="5.7906">
        <ele>296</ele>
        <time>2022-09-13T11:44:52.000Z</time>
      </trkpt>
      <trkpt lat="49.40274" lon="5.79056">
        <ele>296</ele>
        <time>2022-09-13T11:44:53.000Z</time>
      </trkpt>
      <trkpt lat="49.40276" lon="5.79052">
        <ele>296.39999389648</ele>
        <time>2022-09-13T11:44:54.000Z</time>
      </trkpt>
      <trkpt lat="49.40277" lon="5.79049">
        <ele>296.60000610352</ele>
        <time>2022-09-13T11:44:55.000Z</time>
      </trkpt>
      <trkpt lat="49.40278" lon="5.79047">
        <ele>297</ele>
        <time>2022-09-13T11:44:56.000Z</time>
      </trkpt>
      <trkpt lat="49.40281" lon="5.79043">
        <ele>297.60000610352</ele>
        <time>2022-09-13T11:44:57.000Z</time>
      </trkpt>
      <trkpt lat="49.40285" lon="5.79041">
        <ele>297.79998779297</ele>
        <time>2022-09-13T11:44:58.000Z</time>
      </trkpt>
      <trkpt lat="49.4029" lon="5.79037">
        <ele>298.20001220703</ele>
        <time>2022-09-13T11:44:59.000Z</time>
      </trkpt>
      <trkpt lat="49.40291" lon="5.79034">
        <ele>298.39999389648</ele>
        <time>2022-09-13T11:45:00.000Z</time>
      </trkpt>
      <trkpt lat="49.40293" lon="5.79031">
        <ele>298.79998779297</ele>
        <time>2022-09-13T11:45:01.000Z</time>
      </trkpt>
      <trkpt lat="49.40293" lon="5.79028">
        <ele>299</ele>
        <time>2022-09-13T11:45:02.000Z</time>
      </trkpt>
      <trkpt lat="49.40294" lon="5.79024">
        <ele>299.39999389648</ele>
        <time>2022-09-13T11:45:03.000Z</time>
      </trkpt>
      <trkpt lat="49.40295" lon="5.79021">
        <ele>299.79998779297</ele>
        <time>2022-09-13T11:45:04.000Z</time>
      </trkpt>
      <trkpt lat="49.40295" lon="5.79018">
        <ele>300.20001220703</ele>
        <time>2022-09-13T11:45:05.000Z</time>
      </trkpt>
      <trkpt lat="49.40295" lon="5.79016">
        <ele>300.60000610352</ele>
        <time>2022-09-13T11:45:06.000Z</time>
      </trkpt>
      <trkpt lat="49.40297" lon="5.79014">
        <ele>301</ele>
        <time>2022-09-13T11:45:07.000Z</time>
      </trkpt>
      <trkpt lat="49.403" lon="5.79012">
        <ele>301.60000610352</ele>
        <time>2022-09-13T11:45:08.000Z</time>
      </trkpt>
      <trkpt lat="49.40301" lon="5.79009">
        <ele>301.79998779297</ele>
        <time>2022-09-13T11:45:09.000Z</time>
      </trkpt>
      <trkpt lat="49.40303" lon="5.79006">
        <ele>302.20001220703</ele>
        <time>2022-09-13T11:45:10.000Z</time>
      </trkpt>
      <trkpt lat="49.40304" lon="5.79004">
        <ele>302.39999389648</ele>
        <time>2022-09-13T11:45:11.000Z</time>
      </trkpt>
      <trkpt lat="49.40304" lon="5.79">
        <ele>302.60000610352</ele>
        <time>2022-09-13T11:45:12.000Z</time>
      </trkpt>
      <trkpt lat="49.40306" lon="5.78996">
        <ele>303.20001220703</ele>
        <time>2022-09-13T11:45:13.000Z</time>
      </trkpt>
      <trkpt lat="49.40308" lon="5.78993">
        <ele>303.39999389648</ele>
        <time>2022-09-13T11:45:14.000Z</time>
      </trkpt>
      <trkpt lat="49.40308" lon="5.7899">
        <ele>303.79998779297</ele>
        <time>2022-09-13T11:45:15.000Z</time>
      </trkpt>
      <trkpt lat="49.40309" lon="5.78988">
        <ele>303.79998779297</ele>
        <time>2022-09-13T11:45:16.000Z</time>
      </trkpt>
      <trkpt lat="49.4031" lon="5.78987">
        <ele>304.20001220703</ele>
        <time>2022-09-13T11:45:17.000Z</time>
      </trkpt>
      <trkpt lat="49.40312" lon="5.78985">
        <ele>304.60000610352</ele>
        <time>2022-09-13T11:45:18.000Z</time>
      </trkpt>
      <trkpt lat="49.40315" lon="5.78983">
        <ele>305</ele>
        <time>2022-09-13T11:45:19.000Z</time>
      </trkpt>
      <trkpt lat="49.40319" lon="5.7898">
        <ele>305.20001220703</ele>
        <time>2022-09-13T11:45:20.000Z</time>
      </trkpt>
      <trkpt lat="49.40321" lon="5.78976">
        <ele>305.39999389648</ele>
        <time>2022-09-13T11:45:21.000Z</time>
      </trkpt>
      <trkpt lat="49.40322" lon="5.78974">
        <ele>305.79998779297</ele>
        <time>2022-09-13T11:45:22.000Z</time>
      </trkpt>
      <trkpt lat="49.40322" lon="5.78973">
        <ele>306</ele>
        <time>2022-09-13T11:45:23.000Z</time>
      </trkpt>
      <trkpt lat="49.40323" lon="5.78971">
        <ele>306.39999389648</ele>
        <time>2022-09-13T11:45:24.000Z</time>
      </trkpt>
      <trkpt lat="49.40323" lon="5.78969">
        <ele>306.60000610352</ele>
        <time>2022-09-13T11:45:25.000Z</time>
      </trkpt>
      <trkpt lat="49.40324" lon="5.78968">
        <ele>307.20001220703</ele>
        <time>2022-09-13T11:45:26.000Z</time>
      </trkpt>
      <trkpt lat="49.40325" lon="5.78966">
        <ele>307.60000610352</ele>
        <time>2022-09-13T11:45:27.000Z</time>
      </trkpt>
      <trkpt lat="49.40326" lon="5.78964">
        <ele>307.79998779297</ele>
        <time>2022-09-13T11:45:28.000Z</time>
      </trkpt>
      <trkpt lat="49.40328" lon="5.78962">
        <ele>308</ele>
        <time>2022-09-13T11:45:29.000Z</time>
      </trkpt>
      <trkpt lat="49.40329" lon="5.78959">
        <ele>308.20001220703</ele>
        <time>2022-09-13T11:45:30.000Z</time>
      </trkpt>
      <trkpt lat="49.40331" lon="5.78957">
        <ele>308.60000610352</ele>
        <time>2022-09-13T11:45:31.000Z</time>
      </trkpt>
      <trkpt lat="49.40332" lon="5.78955">
        <ele>308.60000610352</ele>
        <time>2022-09-13T11:45:32.000Z</time>
      </trkpt>
      <trkpt lat="49.40333" lon="5.78952">
        <ele>308.79998779297</ele>
        <time>2022-09-13T11:45:33.000Z</time>
      </trkpt>
      <trkpt lat="49.40335" lon="5.7895">
        <ele>309.20001220703</ele>
        <time>2022-09-13T11:45:34.000Z</time>
      </trkpt>
      <trkpt lat="49.4034" lon="5.78947">
        <ele>309.20001220703</ele>
        <time>2022-09-13T11:45:35.000Z</time>
      </trkpt>
      <trkpt lat="49.40343" lon="5.78945">
        <ele>309.39999389648</ele>
        <time>2022-09-13T11:45:36.000Z</time>
      </trkpt>
      <trkpt lat="49.40345" lon="5.78944">
        <ele>309.60000610352</ele>
        <time>2022-09-13T11:45:37.000Z</time>
      </trkpt>
      <trkpt lat="49.40345" lon="5.78944">
        <ele>310</ele>
        <time>2022-09-13T11:45:38.000Z</time>
      </trkpt>
      <trkpt lat="49.40346" lon="5.78943">
        <ele>310</ele>
        <time>2022-09-13T11:45:39.000Z</time>
      </trkpt>
      <trkpt lat="49.40346" lon="5.78944">
        <ele>310.20001220703</ele>
        <time>2022-09-13T11:45:40.000Z</time>
      </trkpt>
      <trkpt lat="49.40347" lon="5.78943">
        <ele>310.60000610352</ele>
        <time>2022-09-13T11:45:41.000Z</time>
      </trkpt>
      <trkpt lat="49.40348" lon="5.78942">
        <ele>310.60000610352</ele>
        <time>2022-09-13T11:45:42.000Z</time>
      </trkpt>
      <trkpt lat="49.40349" lon="5.78941">
        <ele>311</ele>
        <time>2022-09-13T11:45:43.000Z</time>
      </trkpt>
      <trkpt lat="49.40351" lon="5.7894">
        <ele>311.20001220703</ele>
        <time>2022-09-13T11:45:44.000Z</time>
      </trkpt>
      <trkpt lat="49.40352" lon="5.78939">
        <ele>311.39999389648</ele>
        <time>2022-09-13T11:45:45.000Z</time>
      </trkpt>
      <trkpt lat="49.40354" lon="5.78938">
        <ele>311.39999389648</ele>
        <time>2022-09-13T11:45:46.000Z</time>
      </trkpt>
      <trkpt lat="49.40355" lon="5.78937">
        <ele>311.79998779297</ele>
        <time>2022-09-13T11:45:47.000Z</time>
      </trkpt>
      <trkpt lat="49.40357" lon="5.78936">
        <ele>312.20001220703</ele>
        <time>2022-09-13T11:45:48.000Z</time>
      </trkpt>
      <trkpt lat="49.40358" lon="5.78934">
        <ele>312.20001220703</ele>
        <time>2022-09-13T11:45:49.000Z</time>
      </trkpt>
      <trkpt lat="49.40359" lon="5.78933">
        <ele>312.79998779297</ele>
        <time>2022-09-13T11:45:50.000Z</time>
      </trkpt>
      <trkpt lat="49.4036" lon="5.78932">
        <ele>313</ele>
        <time>2022-09-13T11:45:51.000Z</time>
      </trkpt>
      <trkpt lat="49.40361" lon="5.78932">
        <ele>313.39999389648</ele>
        <time>2022-09-13T11:45:52.000Z</time>
      </trkpt>
      <trkpt lat="49.40362" lon="5.7893">
        <ele>313.60000610352</ele>
        <time>2022-09-13T11:45:53.000Z</time>
      </trkpt>
      <trkpt lat="49.40364" lon="5.78929">
        <ele>314.20001220703</ele>
        <time>2022-09-13T11:45:54.000Z</time>
      </trkpt>
      <trkpt lat="49.40366" lon="5.78928">
        <ele>314.39999389648</ele>
        <time>2022-09-13T11:45:55.000Z</time>
      </trkpt>
      <trkpt lat="49.40368" lon="5.78926">
        <ele>314.60000610352</ele>
        <time>2022-09-13T11:45:56.000Z</time>
      </trkpt>
      <trkpt lat="49.40369" lon="5.78925">
        <ele>315</ele>
        <time>2022-09-13T11:45:57.000Z</time>
      </trkpt>
      <trkpt lat="49.40371" lon="5.78923">
        <ele>315</ele>
        <time>2022-09-13T11:45:58.000Z</time>
      </trkpt>
      <trkpt lat="49.40372" lon="5.78922">
        <ele>315.39999389648</ele>
        <time>2022-09-13T11:45:59.000Z</time>
      </trkpt>
      <trkpt lat="49.40373" lon="5.78921">
        <ele>315.39999389648</ele>
        <time>2022-09-13T11:46:00.000Z</time>
      </trkpt>
      <trkpt lat="49.40373" lon="5.78919">
        <ele>315.60000610352</ele>
        <time>2022-09-13T11:46:01.000Z</time>
      </trkpt>
      <trkpt lat="49.40374" lon="5.78918">
        <ele>315.60000610352</ele>
        <time>2022-09-13T11:46:02.000Z</time>
      </trkpt>
      <trkpt lat="49.40375" lon="5.78917">
        <ele>315.79998779297</ele>
        <time>2022-09-13T11:46:03.000Z</time>
      </trkpt>
      <trkpt lat="49.40376" lon="5.78914">
        <ele>316</ele>
        <time>2022-09-13T11:46:04.000Z</time>
      </trkpt>
      <trkpt lat="49.40379" lon="5.78912">
        <ele>316.20001220703</ele>
        <time>2022-09-13T11:46:05.000Z</time>
      </trkpt>
      <trkpt lat="49.40382" lon="5.78909">
        <ele>316.39999389648</ele>
        <time>2022-09-13T11:46:06.000Z</time>
      </trkpt>
      <trkpt lat="49.40384" lon="5.78907">
        <ele>316.79998779297</ele>
        <time>2022-09-13T11:46:07.000Z</time>
      </trkpt>
      <trkpt lat="49.40385" lon="5.78906">
        <ele>317.20001220703</ele>
        <time>2022-09-13T11:46:08.000Z</time>
      </trkpt>
      <trkpt lat="49.40387" lon="5.78906">
        <ele>317.20001220703</ele>
        <time>2022-09-13T11:46:09.000Z</time>
      </trkpt>
      <trkpt lat="49.40389" lon="5.78904">
        <ele>317.39999389648</ele>
        <time>2022-09-13T11:46:10.000Z</time>
      </trkpt>
      <trkpt lat="49.40391" lon="5.78902">
        <ele>317.60000610352</ele>
        <time>2022-09-13T11:46:11.000Z</time>
      </trkpt>
      <trkpt lat="49.40393" lon="5.789">
        <ele>317.60000610352</ele>
        <time>2022-09-13T11:46:12.000Z</time>
      </trkpt>
      <trkpt lat="49.40395" lon="5.78898">
        <ele>318</ele>
        <time>2022-09-13T11:46:13.000Z</time>
      </trkpt>
      <trkpt lat="49.40398" lon="5.78897">
        <ele>318</ele>
        <time>2022-09-13T11:46:14.000Z</time>
      </trkpt>
      <trkpt lat="49.40402" lon="5.78894">
        <ele>318.39999389648</ele>
        <time>2022-09-13T11:46:15.000Z</time>
      </trkpt>
      <trkpt lat="49.40406" lon="5.78892">
        <ele>318.60000610352</ele>
        <time>2022-09-13T11:46:16.000Z</time>
      </trkpt>
      <trkpt lat="49.40411" lon="5.78889">
        <ele>318.79998779297</ele>
        <time>2022-09-13T11:46:17.000Z</time>
      </trkpt>
      <trkpt lat="49.40413" lon="5.78887">
        <ele>319</ele>
        <time>2022-09-13T11:46:18.000Z</time>
      </trkpt>
      <trkpt lat="49.40414" lon="5.78885">
        <ele>319.20001220703</ele>
        <time>2022-09-13T11:46:19.000Z</time>
      </trkpt>
      <trkpt lat="49.40416" lon="5.78883">
        <ele>319.20001220703</ele>
        <time>2022-09-13T11:46:20.000Z</time>
      </trkpt>
      <trkpt lat="49.40417" lon="5.78882">
        <ele>319.39999389648</ele>
        <time>2022-09-13T11:46:21.000Z</time>
      </trkpt>
      <trkpt lat="49.40419" lon="5.78883">
        <ele>319.39999389648</ele>
        <time>2022-09-13T11:46:22.000Z</time>
      </trkpt>
      <trkpt lat="49.4042" lon="5.78882">
        <ele>319.39999389648</ele>
        <time>2022-09-13T11:46:23.000Z</time>
      </trkpt>
      <trkpt lat="49.40422" lon="5.7888">
        <ele>319.39999389648</ele>
        <time>2022-09-13T11:46:24.000Z</time>
      </trkpt>
      <trkpt lat="49.40425" lon="5.78878">
        <ele>319.39999389648</ele>
        <time>2022-09-13T11:46:25.000Z</time>
      </trkpt>
      <trkpt lat="49.40426" lon="5.78875">
        <ele>319.60000610352</ele>
        <time>2022-09-13T11:46:26.000Z</time>
      </trkpt>
      <trkpt lat="49.40427" lon="5.78874">
        <ele>319.79998779297</ele>
        <time>2022-09-13T11:46:27.000Z</time>
      </trkpt>
      <trkpt lat="49.40428" lon="5.78873">
        <ele>319.79998779297</ele>
        <time>2022-09-13T11:46:28.000Z</time>
      </trkpt>
      <trkpt lat="49.40429" lon="5.78876">
        <ele>320.20001220703</ele>
        <time>2022-09-13T11:46:29.000Z</time>
      </trkpt>
      <trkpt lat="49.40432" lon="5.78875">
        <ele>320.20001220703</ele>
        <time>2022-09-13T11:46:30.000Z</time>
      </trkpt>
      <trkpt lat="49.40434" lon="5.78874">
        <ele>320</ele>
        <time>2022-09-13T11:46:31.000Z</time>
      </trkpt>
      <trkpt lat="49.40436" lon="5.78871">
        <ele>320.20001220703</ele>
        <time>2022-09-13T11:46:32.000Z</time>
      </trkpt>
      <trkpt lat="49.40436" lon="5.78869">
        <ele>320</ele>
        <time>2022-09-13T11:46:33.000Z</time>
      </trkpt>
      <trkpt lat="49.40435" lon="5.78867">
        <ele>320.20001220703</ele>
        <time>2022-09-13T11:46:34.000Z</time>
      </trkpt>
      <trkpt lat="49.40434" lon="5.78865">
        <ele>320.20001220703</ele>
        <time>2022-09-13T11:46:35.000Z</time>
      </trkpt>
      <trkpt lat="49.40432" lon="5.78864">
        <ele>320</ele>
        <time>2022-09-13T11:46:36.000Z</time>
      </trkpt>
      <trkpt lat="49.4043" lon="5.78863">
        <ele>320</ele>
        <time>2022-09-13T11:46:37.000Z</time>
      </trkpt>
      <trkpt lat="49.40427" lon="5.78863">
        <ele>319.79998779297</ele>
        <time>2022-09-13T11:46:38.000Z</time>
      </trkpt>
      <trkpt lat="49.40423" lon="5.78862">
        <ele>319.79998779297</ele>
        <time>2022-09-13T11:46:39.000Z</time>
      </trkpt>
      <trkpt lat="49.40421" lon="5.78861">
        <ele>319.79998779297</ele>
        <time>2022-09-13T11:46:40.000Z</time>
      </trkpt>
      <trkpt lat="49.40396" lon="5.78854">
        <ele>318.79998779297</ele>
        <time>2022-09-13T11:46:46.000Z</time>
      </trkpt>
      <trkpt lat="49.40393" lon="5.78855">
        <ele>318.60000610352</ele>
        <time>2022-09-13T11:46:47.000Z</time>
      </trkpt>
      <trkpt lat="49.40391" lon="5.78854">
        <ele>318.60000610352</ele>
        <time>2022-09-13T11:46:48.000Z</time>
      </trkpt>
      <trkpt lat="49.4039" lon="5.78852">
        <ele>318.20001220703</ele>
        <time>2022-09-13T11:46:49.000Z</time>
      </trkpt>
      <trkpt lat="49.40388" lon="5.7885">
        <ele>317.60000610352</ele>
        <time>2022-09-13T11:46:50.000Z</time>
      </trkpt>
      <trkpt lat="49.40388" lon="5.78848">
        <ele>317.39999389648</ele>
        <time>2022-09-13T11:46:51.000Z</time>
      </trkpt>
      <trkpt lat="49.40388" lon="5.78846">
        <ele>316.60000610352</ele>
        <time>2022-09-13T11:46:52.000Z</time>
      </trkpt>
      <trkpt lat="49.40389" lon="5.78843">
        <ele>316.39999389648</ele>
        <time>2022-09-13T11:46:53.000Z</time>
      </trkpt>
      <trkpt lat="49.4039" lon="5.78838">
        <ele>316</ele>
        <time>2022-09-13T11:46:54.000Z</time>
      </trkpt>
      <trkpt lat="49.40391" lon="5.78833">
        <ele>315.79998779297</ele>
        <time>2022-09-13T11:46:55.000Z</time>
      </trkpt>
      <trkpt lat="49.40394" lon="5.78816">
        <ele>315</ele>
        <time>2022-09-13T11:46:58.000Z</time>
      </trkpt>
      <trkpt lat="49.40394" lon="5.78814">
        <ele>314</ele>
        <time>2022-09-13T11:46:59.000Z</time>
      </trkpt>
      <trkpt lat="49.40394" lon="5.78811">
        <ele>313.39999389648</ele>
        <time>2022-09-13T11:47:00.000Z</time>
      </trkpt>
      <trkpt lat="49.40394" lon="5.78807">
        <ele>312.39999389648</ele>
        <time>2022-09-13T11:47:01.000Z</time>
      </trkpt>
      <trkpt lat="49.40399" lon="5.78798">
        <ele>311.39999389648</ele>
        <time>2022-09-13T11:47:03.000Z</time>
      </trkpt>
      <trkpt lat="49.40403" lon="5.78794">
        <ele>311.20001220703</ele>
        <time>2022-09-13T11:47:04.000Z</time>
      </trkpt>
      <trkpt lat="49.40404" lon="5.7879">
        <ele>311</ele>
        <time>2022-09-13T11:47:05.000Z</time>
      </trkpt>
      <trkpt lat="49.40406" lon="5.78786">
        <ele>310.79998779297</ele>
        <time>2022-09-13T11:47:06.000Z</time>
      </trkpt>
      <trkpt lat="49.40408" lon="5.78781">
        <ele>310.79998779297</ele>
        <time>2022-09-13T11:47:07.000Z</time>
      </trkpt>
      <trkpt lat="49.40408" lon="5.78778">
        <ele>310.79998779297</ele>
        <time>2022-09-13T11:47:08.000Z</time>
      </trkpt>
      <trkpt lat="49.40408" lon="5.78772">
        <ele>311.39999389648</ele>
        <time>2022-09-13T11:47:10.000Z</time>
      </trkpt>
      <trkpt lat="49.40409" lon="5.78771">
        <ele>311.60000610352</ele>
        <time>2022-09-13T11:47:11.000Z</time>
      </trkpt>
      <trkpt lat="49.40409" lon="5.78769">
        <ele>312</ele>
        <time>2022-09-13T11:47:12.000Z</time>
      </trkpt>
      <trkpt lat="49.4041" lon="5.78768">
        <ele>312.79998779297</ele>
        <time>2022-09-13T11:47:13.000Z</time>
      </trkpt>
      <trkpt lat="49.40412" lon="5.78766">
        <ele>313</ele>
        <time>2022-09-13T11:47:14.000Z</time>
      </trkpt>
      <trkpt lat="49.40413" lon="5.78763">
        <ele>313.39999389648</ele>
        <time>2022-09-13T11:47:15.000Z</time>
      </trkpt>
      <trkpt lat="49.40412" lon="5.78761">
        <ele>313.60000610352</ele>
        <time>2022-09-13T11:47:16.000Z</time>
      </trkpt>
      <trkpt lat="49.40413" lon="5.7876">
        <ele>314.39999389648</ele>
        <time>2022-09-13T11:47:17.000Z</time>
      </trkpt>
      <trkpt lat="49.40413" lon="5.78759">
        <ele>315</ele>
        <time>2022-09-13T11:47:18.000Z</time>
      </trkpt>
      <trkpt lat="49.40414" lon="5.78757">
        <ele>316</ele>
        <time>2022-09-13T11:47:19.000Z</time>
      </trkpt>
      <trkpt lat="49.40416" lon="5.78755">
        <ele>316.79998779297</ele>
        <time>2022-09-13T11:47:20.000Z</time>
      </trkpt>
      <trkpt lat="49.40417" lon="5.78752">
        <ele>317</ele>
        <time>2022-09-13T11:47:21.000Z</time>
      </trkpt>
      <trkpt lat="49.40417" lon="5.7875">
        <ele>317.60000610352</ele>
        <time>2022-09-13T11:47:22.000Z</time>
      </trkpt>
      <trkpt lat="49.40416" lon="5.78748">
        <ele>317.79998779297</ele>
        <time>2022-09-13T11:47:23.000Z</time>
      </trkpt>
      <trkpt lat="49.40415" lon="5.78747">
        <ele>318.39999389648</ele>
        <time>2022-09-13T11:47:24.000Z</time>
      </trkpt>
      <trkpt lat="49.40413" lon="5.78745">
        <ele>318.60000610352</ele>
        <time>2022-09-13T11:47:25.000Z</time>
      </trkpt>
      <trkpt lat="49.40411" lon="5.78743">
        <ele>318.79998779297</ele>
        <time>2022-09-13T11:47:26.000Z</time>
      </trkpt>
      <trkpt lat="49.40409" lon="5.78741">
        <ele>318.79998779297</ele>
        <time>2022-09-13T11:47:27.000Z</time>
      </trkpt>
      <trkpt lat="49.40406" lon="5.7874">
        <ele>318.79998779297</ele>
        <time>2022-09-13T11:47:28.000Z</time>
      </trkpt>
      <trkpt lat="49.40403" lon="5.78738">
        <ele>319</ele>
        <time>2022-09-13T11:47:29.000Z</time>
      </trkpt>
      <trkpt lat="49.40399" lon="5.78736">
        <ele>319</ele>
        <time>2022-09-13T11:47:30.000Z</time>
      </trkpt>
      <trkpt lat="49.40395" lon="5.78734">
        <ele>319</ele>
        <time>2022-09-13T11:47:31.000Z</time>
      </trkpt>
      <trkpt lat="49.4039" lon="5.78731">
        <ele>319</ele>
        <time>2022-09-13T11:47:32.000Z</time>
      </trkpt>
      <trkpt lat="49.40385" lon="5.78728">
        <ele>318.60000610352</ele>
        <time>2022-09-13T11:47:33.000Z</time>
      </trkpt>
      <trkpt lat="49.4038" lon="5.78725">
        <ele>318.79998779297</ele>
        <time>2022-09-13T11:47:34.000Z</time>
      </trkpt>
      <trkpt lat="49.40375" lon="5.78723">
        <ele>318.60000610352</ele>
        <time>2022-09-13T11:47:35.000Z</time>
      </trkpt>
      <trkpt lat="49.40369" lon="5.7872">
        <ele>318.39999389648</ele>
        <time>2022-09-13T11:47:36.000Z</time>
      </trkpt>
      <trkpt lat="49.40363" lon="5.78716">
        <ele>318.20001220703</ele>
        <time>2022-09-13T11:47:37.000Z</time>
      </trkpt>
      <trkpt lat="49.40358" lon="5.78712">
        <ele>318</ele>
        <time>2022-09-13T11:47:38.000Z</time>
      </trkpt>
      <trkpt lat="49.40354" lon="5.78708">
        <ele>317.79998779297</ele>
        <time>2022-09-13T11:47:39.000Z</time>
      </trkpt>
      <trkpt lat="49.4035" lon="5.78705">
        <ele>317.39999389648</ele>
        <time>2022-09-13T11:47:40.000Z</time>
      </trkpt>
      <trkpt lat="49.40347" lon="5.78701">
        <ele>317.39999389648</ele>
        <time>2022-09-13T11:47:41.000Z</time>
      </trkpt>
      <trkpt lat="49.40343" lon="5.78696">
        <ele>317.20001220703</ele>
        <time>2022-09-13T11:47:42.000Z</time>
      </trkpt>
      <trkpt lat="49.40339" lon="5.78693">
        <ele>316.79998779297</ele>
        <time>2022-09-13T11:47:43.000Z</time>
      </trkpt>
      <trkpt lat="49.40336" lon="5.7869">
        <ele>316.60000610352</ele>
        <time>2022-09-13T11:47:44.000Z</time>
      </trkpt>
      <trkpt lat="49.40332" lon="5.78688">
        <ele>316.20001220703</ele>
        <time>2022-09-13T11:47:45.000Z</time>
      </trkpt>
      <trkpt lat="49.40329" lon="5.78685">
        <ele>316.20001220703</ele>
        <time>2022-09-13T11:47:46.000Z</time>
      </trkpt>
      <trkpt lat="49.40326" lon="5.78681">
        <ele>316</ele>
        <time>2022-09-13T11:47:47.000Z</time>
      </trkpt>
      <trkpt lat="49.40323" lon="5.78679">
        <ele>316</ele>
        <time>2022-09-13T11:47:48.000Z</time>
      </trkpt>
      <trkpt lat="49.40321" lon="5.78676">
        <ele>315.79998779297</ele>
        <time>2022-09-13T11:47:49.000Z</time>
      </trkpt>
      <trkpt lat="49.40317" lon="5.78673">
        <ele>315.79998779297</ele>
        <time>2022-09-13T11:47:50.000Z</time>
      </trkpt>
      <trkpt lat="49.40314" lon="5.78672">
        <ele>315.79998779297</ele>
        <time>2022-09-13T11:47:51.000Z</time>
      </trkpt>
      <trkpt lat="49.4031" lon="5.78669">
        <ele>315.79998779297</ele>
        <time>2022-09-13T11:47:52.000Z</time>
      </trkpt>
      <trkpt lat="49.40307" lon="5.78666">
        <ele>315.79998779297</ele>
        <time>2022-09-13T11:47:53.000Z</time>
      </trkpt>
      <trkpt lat="49.40305" lon="5.78664">
        <ele>315.79998779297</ele>
        <time>2022-09-13T11:47:54.000Z</time>
      </trkpt>
      <trkpt lat="49.40301" lon="5.78661">
        <ele>315.79998779297</ele>
        <time>2022-09-13T11:47:55.000Z</time>
      </trkpt>
      <trkpt lat="49.40299" lon="5.78659">
        <ele>315.79998779297</ele>
        <time>2022-09-13T11:47:56.000Z</time>
      </trkpt>
      <trkpt lat="49.40294" lon="5.78654">
        <ele>315.60000610352</ele>
        <time>2022-09-13T11:47:58.000Z</time>
      </trkpt>
      <trkpt lat="49.40293" lon="5.78652">
        <ele>315.60000610352</ele>
        <time>2022-09-13T11:47:59.000Z</time>
      </trkpt>
      <trkpt lat="49.40291" lon="5.7865">
        <ele>315.60000610352</ele>
        <time>2022-09-13T11:48:00.000Z</time>
      </trkpt>
      <trkpt lat="49.40289" lon="5.78648">
        <ele>315.60000610352</ele>
        <time>2022-09-13T11:48:01.000Z</time>
      </trkpt>
      <trkpt lat="49.40286" lon="5.78646">
        <ele>315.60000610352</ele>
        <time>2022-09-13T11:48:02.000Z</time>
      </trkpt>
      <trkpt lat="49.40284" lon="5.78645">
        <ele>315.39999389648</ele>
        <time>2022-09-13T11:48:03.000Z</time>
      </trkpt>
      <trkpt lat="49.40282" lon="5.78644">
        <ele>315.39999389648</ele>
        <time>2022-09-13T11:48:04.000Z</time>
      </trkpt>
      <trkpt lat="49.40272" lon="5.78642">
        <ele>315.39999389648</ele>
        <time>2022-09-13T11:48:07.000Z</time>
      </trkpt>
      <trkpt lat="49.40263" lon="5.78639">
        <ele>315.20001220703</ele>
        <time>2022-09-13T11:48:10.000Z</time>
      </trkpt>
      <trkpt lat="49.40263" lon="5.78638">
        <ele>315.20001220703</ele>
        <time>2022-09-13T11:48:11.000Z</time>
      </trkpt>
      <trkpt lat="49.40263" lon="5.78635">
        <ele>315</ele>
        <time>2022-09-13T11:48:12.000Z</time>
      </trkpt>
      <trkpt lat="49.40263" lon="5.78632">
        <ele>315</ele>
        <time>2022-09-13T11:48:13.000Z</time>
      </trkpt>
      <trkpt lat="49.40264" lon="5.78622">
        <ele>314.79998779297</ele>
        <time>2022-09-13T11:48:16.000Z</time>
      </trkpt>
      <trkpt lat="49.40264" lon="5.78619">
        <ele>314.60000610352</ele>
        <time>2022-09-13T11:48:17.000Z</time>
      </trkpt>
      <trkpt lat="49.40264" lon="5.78616">
        <ele>314.60000610352</ele>
        <time>2022-09-13T11:48:18.000Z</time>
      </trkpt>
      <trkpt lat="49.40264" lon="5.78609">
        <ele>314.79998779297</ele>
        <time>2022-09-13T11:48:20.000Z</time>
      </trkpt>
      <trkpt lat="49.40265" lon="5.78606">
        <ele>315</ele>
        <time>2022-09-13T11:48:21.000Z</time>
      </trkpt>
      <trkpt lat="49.40266" lon="5.78604">
        <ele>315.20001220703</ele>
        <time>2022-09-13T11:48:22.000Z</time>
      </trkpt>
      <trkpt lat="49.40266" lon="5.78601">
        <ele>315.20001220703</ele>
        <time>2022-09-13T11:48:23.000Z</time>
      </trkpt>
      <trkpt lat="49.40267" lon="5.78598">
        <ele>315.20001220703</ele>
        <time>2022-09-13T11:48:24.000Z</time>
      </trkpt>
      <trkpt lat="49.40271" lon="5.78586">
        <ele>315.79998779297</ele>
        <time>2022-09-13T11:48:28.000Z</time>
      </trkpt>
      <trkpt lat="49.40272" lon="5.78584">
        <ele>315.79998779297</ele>
        <time>2022-09-13T11:48:29.000Z</time>
      </trkpt>
      <trkpt lat="49.40273" lon="5.78582">
        <ele>316</ele>
        <time>2022-09-13T11:48:30.000Z</time>
      </trkpt>
      <trkpt lat="49.40274" lon="5.7858">
        <ele>316.20001220703</ele>
        <time>2022-09-13T11:48:31.000Z</time>
      </trkpt>
      <trkpt lat="49.40275" lon="5.78578">
        <ele>316.20001220703</ele>
        <time>2022-09-13T11:48:32.000Z</time>
      </trkpt>
      <trkpt lat="49.40276" lon="5.78575">
        <ele>316.20001220703</ele>
        <time>2022-09-13T11:48:33.000Z</time>
      </trkpt>
      <trkpt lat="49.40277" lon="5.78572">
        <ele>316.20001220703</ele>
        <time>2022-09-13T11:48:34.000Z</time>
      </trkpt>
      <trkpt lat="49.40278" lon="5.78569">
        <ele>316.39999389648</ele>
        <time>2022-09-13T11:48:35.000Z</time>
      </trkpt>
      <trkpt lat="49.40277" lon="5.78565">
        <ele>316.60000610352</ele>
        <time>2022-09-13T11:48:36.000Z</time>
      </trkpt>
      <trkpt lat="49.40278" lon="5.78554">
        <ele>316.79998779297</ele>
        <time>2022-09-13T11:48:39.000Z</time>
      </trkpt>
      <trkpt lat="49.40277" lon="5.7855">
        <ele>317</ele>
        <time>2022-09-13T11:48:40.000Z</time>
      </trkpt>
      <trkpt lat="49.40276" lon="5.78545">
        <ele>317</ele>
        <time>2022-09-13T11:48:41.000Z</time>
      </trkpt>
      <trkpt lat="49.40274" lon="5.7854">
        <ele>317.39999389648</ele>
        <time>2022-09-13T11:48:42.000Z</time>
      </trkpt>
      <trkpt lat="49.40274" lon="5.78534">
        <ele>317.60000610352</ele>
        <time>2022-09-13T11:48:43.000Z</time>
      </trkpt>
      <trkpt lat="49.40274" lon="5.78529">
        <ele>317.60000610352</ele>
        <time>2022-09-13T11:48:44.000Z</time>
      </trkpt>
      <trkpt lat="49.40278" lon="5.78513">
        <ele>318</ele>
        <time>2022-09-13T11:48:48.000Z</time>
      </trkpt>
      <trkpt lat="49.40279" lon="5.78509">
        <ele>318</ele>
        <time>2022-09-13T11:48:49.000Z</time>
      </trkpt>
      <trkpt lat="49.40279" lon="5.78487">
        <ele>318.20001220703</ele>
        <time>2022-09-13T11:48:53.000Z</time>
      </trkpt>
      <trkpt lat="49.40278" lon="5.78481">
        <ele>318.39999389648</ele>
        <time>2022-09-13T11:48:54.000Z</time>
      </trkpt>
      <trkpt lat="49.40278" lon="5.78475">
        <ele>318.39999389648</ele>
        <time>2022-09-13T11:48:55.000Z</time>
      </trkpt>
      <trkpt lat="49.40277" lon="5.78468">
        <ele>318.39999389648</ele>
        <time>2022-09-13T11:48:56.000Z</time>
      </trkpt>
      <trkpt lat="49.40274" lon="5.78451">
        <ele>318.60000610352</ele>
        <time>2022-09-13T11:48:59.000Z</time>
      </trkpt>
      <trkpt lat="49.40275" lon="5.78447">
        <ele>318.60000610352</ele>
        <time>2022-09-13T11:49:00.000Z</time>
      </trkpt>
      <trkpt lat="49.40275" lon="5.78442">
        <ele>318.60000610352</ele>
        <time>2022-09-13T11:49:01.000Z</time>
      </trkpt>
      <trkpt lat="49.40274" lon="5.78437">
        <ele>318.60000610352</ele>
        <time>2022-09-13T11:49:02.000Z</time>
      </trkpt>
      <trkpt lat="49.40275" lon="5.78422">
        <ele>318.20001220703</ele>
        <time>2022-09-13T11:49:05.000Z</time>
      </trkpt>
      <trkpt lat="49.40278" lon="5.78417">
        <ele>318</ele>
        <time>2022-09-13T11:49:06.000Z</time>
      </trkpt>
      <trkpt lat="49.4028" lon="5.78414">
        <ele>317.79998779297</ele>
        <time>2022-09-13T11:49:07.000Z</time>
      </trkpt>
      <trkpt lat="49.40287" lon="5.7841">
        <ele>317.39999389648</ele>
        <time>2022-09-13T11:49:08.000Z</time>
      </trkpt>
      <trkpt lat="49.40294" lon="5.78406">
        <ele>317.20001220703</ele>
        <time>2022-09-13T11:49:09.000Z</time>
      </trkpt>
      <trkpt lat="49.40299" lon="5.78403">
        <ele>317.20001220703</ele>
        <time>2022-09-13T11:49:10.000Z</time>
      </trkpt>
      <trkpt lat="49.40305" lon="5.78399">
        <ele>317</ele>
        <time>2022-09-13T11:49:11.000Z</time>
      </trkpt>
      <trkpt lat="49.40309" lon="5.78398">
        <ele>317</ele>
        <time>2022-09-13T11:49:12.000Z</time>
      </trkpt>
      <trkpt lat="49.40312" lon="5.78397">
        <ele>316.79998779297</ele>
        <time>2022-09-13T11:49:13.000Z</time>
      </trkpt>
      <trkpt lat="49.40314" lon="5.78395">
        <ele>316.60000610352</ele>
        <time>2022-09-13T11:49:14.000Z</time>
      </trkpt>
      <trkpt lat="49.40316" lon="5.78395">
        <ele>316.20001220703</ele>
        <time>2022-09-13T11:49:15.000Z</time>
      </trkpt>
      <trkpt lat="49.40318" lon="5.78395">
        <ele>316</ele>
        <time>2022-09-13T11:49:16.000Z</time>
      </trkpt>
      <trkpt lat="49.40321" lon="5.78395">
        <ele>315.60000610352</ele>
        <time>2022-09-13T11:49:17.000Z</time>
      </trkpt>
      <trkpt lat="49.40323" lon="5.78394">
        <ele>315.60000610352</ele>
        <time>2022-09-13T11:49:18.000Z</time>
      </trkpt>
      <trkpt lat="49.40325" lon="5.78394">
        <ele>315.60000610352</ele>
        <time>2022-09-13T11:49:19.000Z</time>
      </trkpt>
      <trkpt lat="49.40327" lon="5.78393">
        <ele>315.60000610352</ele>
        <time>2022-09-13T11:49:20.000Z</time>
      </trkpt>
      <trkpt lat="49.4033" lon="5.78393">
        <ele>315.60000610352</ele>
        <time>2022-09-13T11:49:21.000Z</time>
      </trkpt>
      <trkpt lat="49.40334" lon="5.78393">
        <ele>315.60000610352</ele>
        <time>2022-09-13T11:49:22.000Z</time>
      </trkpt>
      <trkpt lat="49.40336" lon="5.78392">
        <ele>315.60000610352</ele>
        <time>2022-09-13T11:49:23.000Z</time>
      </trkpt>
      <trkpt lat="49.40339" lon="5.78391">
        <ele>315.60000610352</ele>
        <time>2022-09-13T11:49:24.000Z</time>
      </trkpt>
      <trkpt lat="49.40343" lon="5.78391">
        <ele>315.60000610352</ele>
        <time>2022-09-13T11:49:25.000Z</time>
      </trkpt>
      <trkpt lat="49.40349" lon="5.78391">
        <ele>315.79998779297</ele>
        <time>2022-09-13T11:49:26.000Z</time>
      </trkpt>
      <trkpt lat="49.40381" lon="5.78387">
        <ele>316.20001220703</ele>
        <time>2022-09-13T11:49:35.000Z</time>
      </trkpt>
      <trkpt lat="49.40386" lon="5.78385">
        <ele>316.39999389648</ele>
        <time>2022-09-13T11:49:36.000Z</time>
      </trkpt>
      <trkpt lat="49.40389" lon="5.78385">
        <ele>316.39999389648</ele>
        <time>2022-09-13T11:49:37.000Z</time>
      </trkpt>
      <trkpt lat="49.40392" lon="5.78383">
        <ele>316.79998779297</ele>
        <time>2022-09-13T11:49:38.000Z</time>
      </trkpt>
      <trkpt lat="49.40407" lon="5.78374">
        <ele>317.39999389648</ele>
        <time>2022-09-13T11:49:44.000Z</time>
      </trkpt>
      <trkpt lat="49.40415" lon="5.78369">
        <ele>317.39999389648</ele>
        <time>2022-09-13T11:49:46.000Z</time>
      </trkpt>
      <trkpt lat="49.40419" lon="5.78368">
        <ele>317.39999389648</ele>
        <time>2022-09-13T11:49:47.000Z</time>
      </trkpt>
      <trkpt lat="49.40423" lon="5.78366">
        <ele>317.39999389648</ele>
        <time>2022-09-13T11:49:48.000Z</time>
      </trkpt>
      <trkpt lat="49.40428" lon="5.78361">
        <ele>317.39999389648</ele>
        <time>2022-09-13T11:49:51.000Z</time>
      </trkpt>
      <trkpt lat="49.4043" lon="5.78358">
        <ele>317.39999389648</ele>
        <time>2022-09-13T11:49:52.000Z</time>
      </trkpt>
      <trkpt lat="49.40431" lon="5.78355">
        <ele>317.20001220703</ele>
        <time>2022-09-13T11:49:53.000Z</time>
      </trkpt>
      <trkpt lat="49.40443" lon="5.78348">
        <ele>317.20001220703</ele>
        <time>2022-09-13T11:49:55.000Z</time>
      </trkpt>
      <trkpt lat="49.40451" lon="5.78344">
        <ele>317.20001220703</ele>
        <time>2022-09-13T11:49:56.000Z</time>
      </trkpt>
      <trkpt lat="49.40456" lon="5.78341">
        <ele>317.20001220703</ele>
        <time>2022-09-13T11:49:57.000Z</time>
      </trkpt>
      <trkpt lat="49.40457" lon="5.78337">
        <ele>317.20001220703</ele>
        <time>2022-09-13T11:49:58.000Z</time>
      </trkpt>
      <trkpt lat="49.40459" lon="5.78327">
        <ele>317.20001220703</ele>
        <time>2022-09-13T11:50:00.000Z</time>
      </trkpt>
      <trkpt lat="49.40462" lon="5.78319">
        <ele>317.20001220703</ele>
        <time>2022-09-13T11:50:01.000Z</time>
      </trkpt>
      <trkpt lat="49.40467" lon="5.78313">
        <ele>317</ele>
        <time>2022-09-13T11:50:02.000Z</time>
      </trkpt>
      <trkpt lat="49.40472" lon="5.78306">
        <ele>317</ele>
        <time>2022-09-13T11:50:03.000Z</time>
      </trkpt>
      <trkpt lat="49.40478" lon="5.783">
        <ele>316.79998779297</ele>
        <time>2022-09-13T11:50:04.000Z</time>
      </trkpt>
      <trkpt lat="49.40487" lon="5.78291">
        <ele>316.79998779297</ele>
        <time>2022-09-13T11:50:06.000Z</time>
      </trkpt>
      <trkpt lat="49.40491" lon="5.78288">
        <ele>316.60000610352</ele>
        <time>2022-09-13T11:50:07.000Z</time>
      </trkpt>
      <trkpt lat="49.40493" lon="5.78286">
        <ele>316.39999389648</ele>
        <time>2022-09-13T11:50:08.000Z</time>
      </trkpt>
      <trkpt lat="49.40496" lon="5.78283">
        <ele>316.20001220703</ele>
        <time>2022-09-13T11:50:09.000Z</time>
      </trkpt>
      <trkpt lat="49.40501" lon="5.78281">
        <ele>316</ele>
        <time>2022-09-13T11:50:10.000Z</time>
      </trkpt>
      <trkpt lat="49.40504" lon="5.78278">
        <ele>316</ele>
        <time>2022-09-13T11:50:11.000Z</time>
      </trkpt>
      <trkpt lat="49.40508" lon="5.78274">
        <ele>315.79998779297</ele>
        <time>2022-09-13T11:50:13.000Z</time>
      </trkpt>
      <trkpt lat="49.4051" lon="5.78272">
        <ele>315.79998779297</ele>
        <time>2022-09-13T11:50:14.000Z</time>
      </trkpt>
      <trkpt lat="49.40513" lon="5.7827">
        <ele>315.60000610352</ele>
        <time>2022-09-13T11:50:15.000Z</time>
      </trkpt>
      <trkpt lat="49.40517" lon="5.78268">
        <ele>315.60000610352</ele>
        <time>2022-09-13T11:50:16.000Z</time>
      </trkpt>
      <trkpt lat="49.4052" lon="5.78267">
        <ele>315.60000610352</ele>
        <time>2022-09-13T11:50:17.000Z</time>
      </trkpt>
      <trkpt lat="49.40527" lon="5.78262">
        <ele>315.39999389648</ele>
        <time>2022-09-13T11:50:19.000Z</time>
      </trkpt>
      <trkpt lat="49.40554" lon="5.7825">
        <ele>315</ele>
        <time>2022-09-13T11:50:24.000Z</time>
      </trkpt>
      <trkpt lat="49.40556" lon="5.78247">
        <ele>315</ele>
        <time>2022-09-13T11:50:25.000Z</time>
      </trkpt>
      <trkpt lat="49.40559" lon="5.78245">
        <ele>314.79998779297</ele>
        <time>2022-09-13T11:50:26.000Z</time>
      </trkpt>
      <trkpt lat="49.4056" lon="5.78243">
        <ele>314.79998779297</ele>
        <time>2022-09-13T11:50:27.000Z</time>
      </trkpt>
      <trkpt lat="49.40563" lon="5.78241">
        <ele>314.60000610352</ele>
        <time>2022-09-13T11:50:28.000Z</time>
      </trkpt>
      <trkpt lat="49.40565" lon="5.78239">
        <ele>314.20001220703</ele>
        <time>2022-09-13T11:50:29.000Z</time>
      </trkpt>
      <trkpt lat="49.40572" lon="5.78222">
        <ele>314</ele>
        <time>2022-09-13T11:50:32.000Z</time>
      </trkpt>
      <trkpt lat="49.40576" lon="5.78213">
        <ele>313.60000610352</ele>
        <time>2022-09-13T11:50:33.000Z</time>
      </trkpt>
      <trkpt lat="49.4058" lon="5.78201">
        <ele>313.39999389648</ele>
        <time>2022-09-13T11:50:34.000Z</time>
      </trkpt>
      <trkpt lat="49.40583" lon="5.78192">
        <ele>313</ele>
        <time>2022-09-13T11:50:35.000Z</time>
      </trkpt>
      <trkpt lat="49.40587" lon="5.78174">
        <ele>312.20001220703</ele>
        <time>2022-09-13T11:50:37.000Z</time>
      </trkpt>
      <trkpt lat="49.40587" lon="5.7817">
        <ele>311.39999389648</ele>
        <time>2022-09-13T11:50:38.000Z</time>
      </trkpt>
      <trkpt lat="49.40583" lon="5.78167">
        <ele>310.60000610352</ele>
        <time>2022-09-13T11:50:39.000Z</time>
      </trkpt>
      <trkpt lat="49.40579" lon="5.78166">
        <ele>309</ele>
        <time>2022-09-13T11:50:40.000Z</time>
      </trkpt>
      <trkpt lat="49.40576" lon="5.78165">
        <ele>308.20001220703</ele>
        <time>2022-09-13T11:50:41.000Z</time>
      </trkpt>
      <trkpt lat="49.40571" lon="5.78165">
        <ele>307.60000610352</ele>
        <time>2022-09-13T11:50:42.000Z</time>
      </trkpt>
      <trkpt lat="49.40566" lon="5.78163">
        <ele>307.39999389648</ele>
        <time>2022-09-13T11:50:43.000Z</time>
      </trkpt>
      <trkpt lat="49.4055" lon="5.78166">
        <ele>306.39999389648</ele>
        <time>2022-09-13T11:50:47.000Z</time>
      </trkpt>
      <trkpt lat="49.40515" lon="5.78181">
        <ele>305.39999389648</ele>
        <time>2022-09-13T11:50:55.000Z</time>
      </trkpt>
      <trkpt lat="49.40492" lon="5.78189">
        <ele>304.60000610352</ele>
        <time>2022-09-13T11:50:59.000Z</time>
      </trkpt>
      <trkpt lat="49.40471" lon="5.78193">
        <ele>304.20001220703</ele>
        <time>2022-09-13T11:51:02.000Z</time>
      </trkpt>
      <trkpt lat="49.40451" lon="5.782">
        <ele>303.60000610352</ele>
        <time>2022-09-13T11:51:05.000Z</time>
      </trkpt>
      <trkpt lat="49.40446" lon="5.78203">
        <ele>303.39999389648</ele>
        <time>2022-09-13T11:51:06.000Z</time>
      </trkpt>
      <trkpt lat="49.40442" lon="5.78205">
        <ele>302.20001220703</ele>
        <time>2022-09-13T11:51:07.000Z</time>
      </trkpt>
      <trkpt lat="49.40438" lon="5.78205">
        <ele>301.39999389648</ele>
        <time>2022-09-13T11:51:08.000Z</time>
      </trkpt>
      <trkpt lat="49.40435" lon="5.78205">
        <ele>300.79998779297</ele>
        <time>2022-09-13T11:51:09.000Z</time>
      </trkpt>
      <trkpt lat="49.40432" lon="5.78202">
        <ele>300</ele>
        <time>2022-09-13T11:51:10.000Z</time>
      </trkpt>
      <trkpt lat="49.40431" lon="5.78201">
        <ele>299.79998779297</ele>
        <time>2022-09-13T11:51:11.000Z</time>
      </trkpt>
      <trkpt lat="49.40429" lon="5.78199">
        <ele>299.60000610352</ele>
        <time>2022-09-13T11:51:12.000Z</time>
      </trkpt>
      <trkpt lat="49.40427" lon="5.78198">
        <ele>299.39999389648</ele>
        <time>2022-09-13T11:51:13.000Z</time>
      </trkpt>
      <trkpt lat="49.40425" lon="5.78198">
        <ele>299.20001220703</ele>
        <time>2022-09-13T11:51:14.000Z</time>
      </trkpt>
      <trkpt lat="49.40423" lon="5.78198">
        <ele>299.20001220703</ele>
        <time>2022-09-13T11:51:15.000Z</time>
      </trkpt>
      <trkpt lat="49.40416" lon="5.78202">
        <ele>299</ele>
        <time>2022-09-13T11:51:18.000Z</time>
      </trkpt>
      <trkpt lat="49.40414" lon="5.78203">
        <ele>299</ele>
        <time>2022-09-13T11:51:19.000Z</time>
      </trkpt>
      <trkpt lat="49.40404" lon="5.78208">
        <ele>299</ele>
        <time>2022-09-13T11:51:23.000Z</time>
      </trkpt>
      <trkpt lat="49.40394" lon="5.78212">
        <ele>299</ele>
        <time>2022-09-13T11:51:27.000Z</time>
      </trkpt>
      <trkpt lat="49.40392" lon="5.78213">
        <ele>299</ele>
        <time>2022-09-13T11:51:28.000Z</time>
      </trkpt>
      <trkpt lat="49.4039" lon="5.78214">
        <ele>299</ele>
        <time>2022-09-13T11:51:29.000Z</time>
      </trkpt>
      <trkpt lat="49.40388" lon="5.78215">
        <ele>299</ele>
        <time>2022-09-13T11:51:30.000Z</time>
      </trkpt>
      <trkpt lat="49.40386" lon="5.78215">
        <ele>299</ele>
        <time>2022-09-13T11:51:31.000Z</time>
      </trkpt>
      <trkpt lat="49.40383" lon="5.78216">
        <ele>299.20001220703</ele>
        <time>2022-09-13T11:51:32.000Z</time>
      </trkpt>
      <trkpt lat="49.40381" lon="5.78217">
        <ele>299.20001220703</ele>
        <time>2022-09-13T11:51:33.000Z</time>
      </trkpt>
      <trkpt lat="49.40379" lon="5.78218">
        <ele>299.39999389648</ele>
        <time>2022-09-13T11:51:34.000Z</time>
      </trkpt>
      <trkpt lat="49.40376" lon="5.78219">
        <ele>299.60000610352</ele>
        <time>2022-09-13T11:51:35.000Z</time>
      </trkpt>
      <trkpt lat="49.40374" lon="5.7822">
        <ele>299.60000610352</ele>
        <time>2022-09-13T11:51:36.000Z</time>
      </trkpt>
      <trkpt lat="49.40353" lon="5.78225">
        <ele>299.60000610352</ele>
        <time>2022-09-13T11:51:44.000Z</time>
      </trkpt>
      <trkpt lat="49.40334" lon="5.78223">
        <ele>298.60000610352</ele>
        <time>2022-09-13T11:51:51.000Z</time>
      </trkpt>
      <trkpt lat="49.40332" lon="5.78221">
        <ele>298.60000610352</ele>
        <time>2022-09-13T11:51:52.000Z</time>
      </trkpt>
      <trkpt lat="49.40331" lon="5.78221">
        <ele>298.60000610352</ele>
        <time>2022-09-13T11:51:53.000Z</time>
      </trkpt>
      <trkpt lat="49.4033" lon="5.78219">
        <ele>298.60000610352</ele>
        <time>2022-09-13T11:51:54.000Z</time>
      </trkpt>
      <trkpt lat="49.40328" lon="5.78218">
        <ele>298.60000610352</ele>
        <time>2022-09-13T11:51:55.000Z</time>
      </trkpt>
      <trkpt lat="49.40326" lon="5.78219">
        <ele>298.60000610352</ele>
        <time>2022-09-13T11:51:56.000Z</time>
      </trkpt>
      <trkpt lat="49.40324" lon="5.7822">
        <ele>298.60000610352</ele>
        <time>2022-09-13T11:51:57.000Z</time>
      </trkpt>
      <trkpt lat="49.4032" lon="5.78224">
        <ele>298.60000610352</ele>
        <time>2022-09-13T11:51:59.000Z</time>
      </trkpt>
      <trkpt lat="49.40318" lon="5.78224">
        <ele>298.60000610352</ele>
        <time>2022-09-13T11:52:00.000Z</time>
      </trkpt>
      <trkpt lat="49.40317" lon="5.78223">
        <ele>298.60000610352</ele>
        <time>2022-09-13T11:52:01.000Z</time>
      </trkpt>
      <trkpt lat="49.40315" lon="5.78221">
        <ele>298.60000610352</ele>
        <time>2022-09-13T11:52:02.000Z</time>
      </trkpt>
      <trkpt lat="49.40313" lon="5.78219">
        <ele>298.39999389648</ele>
        <time>2022-09-13T11:52:03.000Z</time>
      </trkpt>
      <trkpt lat="49.40311" lon="5.78218">
        <ele>298.39999389648</ele>
        <time>2022-09-13T11:52:04.000Z</time>
      </trkpt>
      <trkpt lat="49.40309" lon="5.78214">
        <ele>298.20001220703</ele>
        <time>2022-09-13T11:52:06.000Z</time>
      </trkpt>
      <trkpt lat="49.40307" lon="5.78212">
        <ele>298.20001220703</ele>
        <time>2022-09-13T11:52:07.000Z</time>
      </trkpt>
      <trkpt lat="49.40294" lon="5.78214">
        <ele>298.60000610352</ele>
        <time>2022-09-13T11:52:11.000Z</time>
      </trkpt>
      <trkpt lat="49.4029" lon="5.78212">
        <ele>298.79998779297</ele>
        <time>2022-09-13T11:52:12.000Z</time>
      </trkpt>
      <trkpt lat="49.40288" lon="5.7821">
        <ele>298.79998779297</ele>
        <time>2022-09-13T11:52:13.000Z</time>
      </trkpt>
      <trkpt lat="49.40286" lon="5.78207">
        <ele>298.79998779297</ele>
        <time>2022-09-13T11:52:14.000Z</time>
      </trkpt>
      <trkpt lat="49.40271" lon="5.78197">
        <ele>299.39999389648</ele>
        <time>2022-09-13T11:52:18.000Z</time>
      </trkpt>
      <trkpt lat="49.40269" lon="5.78197">
        <ele>299.39999389648</ele>
        <time>2022-09-13T11:52:19.000Z</time>
      </trkpt>
      <trkpt lat="49.40264" lon="5.78197">
        <ele>299.20001220703</ele>
        <time>2022-09-13T11:52:21.000Z</time>
      </trkpt>
      <trkpt lat="49.40261" lon="5.78197">
        <ele>299.20001220703</ele>
        <time>2022-09-13T11:52:22.000Z</time>
      </trkpt>
      <trkpt lat="49.40254" lon="5.78191">
        <ele>299</ele>
        <time>2022-09-13T11:52:25.000Z</time>
      </trkpt>
      <trkpt lat="49.4025" lon="5.78189">
        <ele>299</ele>
        <time>2022-09-13T11:52:26.000Z</time>
      </trkpt>
      <trkpt lat="49.40245" lon="5.78187">
        <ele>299</ele>
        <time>2022-09-13T11:52:27.000Z</time>
      </trkpt>
      <trkpt lat="49.40234" lon="5.7818">
        <ele>298.60000610352</ele>
        <time>2022-09-13T11:52:30.000Z</time>
      </trkpt>
      <trkpt lat="49.4023" lon="5.78179">
        <ele>298.60000610352</ele>
        <time>2022-09-13T11:52:31.000Z</time>
      </trkpt>
      <trkpt lat="49.40228" lon="5.78178">
        <ele>298.39999389648</ele>
        <time>2022-09-13T11:52:32.000Z</time>
      </trkpt>
      <trkpt lat="49.40221" lon="5.78175">
        <ele>298.20001220703</ele>
        <time>2022-09-13T11:52:34.000Z</time>
      </trkpt>
      <trkpt lat="49.4021" lon="5.78165">
        <ele>297.60000610352</ele>
        <time>2022-09-13T11:52:39.000Z</time>
      </trkpt>
      <trkpt lat="49.40207" lon="5.78164">
        <ele>297.60000610352</ele>
        <time>2022-09-13T11:52:40.000Z</time>
      </trkpt>
      <trkpt lat="49.40198" lon="5.78159">
        <ele>297.39999389648</ele>
        <time>2022-09-13T11:52:43.000Z</time>
      </trkpt>
      <trkpt lat="49.40192" lon="5.78153">
        <ele>297.20001220703</ele>
        <time>2022-09-13T11:52:45.000Z</time>
      </trkpt>
      <trkpt lat="49.40188" lon="5.78149">
        <ele>297.20001220703</ele>
        <time>2022-09-13T11:52:46.000Z</time>
      </trkpt>
      <trkpt lat="49.40184" lon="5.78148">
        <ele>297.20001220703</ele>
        <time>2022-09-13T11:52:47.000Z</time>
      </trkpt>
      <trkpt lat="49.40171" lon="5.78142">
        <ele>297.20001220703</ele>
        <time>2022-09-13T11:52:51.000Z</time>
      </trkpt>
      <trkpt lat="49.40161" lon="5.78134">
        <ele>297.20001220703</ele>
        <time>2022-09-13T11:52:54.000Z</time>
      </trkpt>
      <trkpt lat="49.40159" lon="5.78132">
        <ele>297.20001220703</ele>
        <time>2022-09-13T11:52:55.000Z</time>
      </trkpt>
      <trkpt lat="49.40156" lon="5.78133">
        <ele>297.20001220703</ele>
        <time>2022-09-13T11:52:56.000Z</time>
      </trkpt>
      <trkpt lat="49.40154" lon="5.78135">
        <ele>297.20001220703</ele>
        <time>2022-09-13T11:52:57.000Z</time>
      </trkpt>
      <trkpt lat="49.40151" lon="5.78135">
        <ele>297.39999389648</ele>
        <time>2022-09-13T11:52:58.000Z</time>
      </trkpt>
      <trkpt lat="49.40147" lon="5.78134">
        <ele>297.39999389648</ele>
        <time>2022-09-13T11:52:59.000Z</time>
      </trkpt>
      <trkpt lat="49.4014" lon="5.78132">
        <ele>297.39999389648</ele>
        <time>2022-09-13T11:53:01.000Z</time>
      </trkpt>
      <trkpt lat="49.40135" lon="5.78131">
        <ele>297.39999389648</ele>
        <time>2022-09-13T11:53:02.000Z</time>
      </trkpt>
      <trkpt lat="49.40131" lon="5.78131">
        <ele>297.20001220703</ele>
        <time>2022-09-13T11:53:03.000Z</time>
      </trkpt>
      <trkpt lat="49.40127" lon="5.78129">
        <ele>297.20001220703</ele>
        <time>2022-09-13T11:53:04.000Z</time>
      </trkpt>
      <trkpt lat="49.40123" lon="5.78127">
        <ele>297</ele>
        <time>2022-09-13T11:53:05.000Z</time>
      </trkpt>
      <trkpt lat="49.40119" lon="5.78124">
        <ele>296.60000610352</ele>
        <time>2022-09-13T11:53:06.000Z</time>
      </trkpt>
      <trkpt lat="49.40116" lon="5.78121">
        <ele>296.39999389648</ele>
        <time>2022-09-13T11:53:07.000Z</time>
      </trkpt>
      <trkpt lat="49.40113" lon="5.78119">
        <ele>296.20001220703</ele>
        <time>2022-09-13T11:53:08.000Z</time>
      </trkpt>
      <trkpt lat="49.40111" lon="5.78117">
        <ele>296</ele>
        <time>2022-09-13T11:53:09.000Z</time>
      </trkpt>
      <trkpt lat="49.40109" lon="5.78115">
        <ele>295.79998779297</ele>
        <time>2022-09-13T11:53:10.000Z</time>
      </trkpt>
      <trkpt lat="49.40107" lon="5.78114">
        <ele>295.60000610352</ele>
        <time>2022-09-13T11:53:11.000Z</time>
      </trkpt>
      <trkpt lat="49.40105" lon="5.78111">
        <ele>295.39999389648</ele>
        <time>2022-09-13T11:53:12.000Z</time>
      </trkpt>
      <trkpt lat="49.40102" lon="5.7811">
        <ele>295.39999389648</ele>
        <time>2022-09-13T11:53:13.000Z</time>
      </trkpt>
      <trkpt lat="49.40096" lon="5.78105">
        <ele>295.20001220703</ele>
        <time>2022-09-13T11:53:15.000Z</time>
      </trkpt>
      <trkpt lat="49.40074" lon="5.78101">
        <ele>295.20001220703</ele>
        <time>2022-09-13T11:53:20.000Z</time>
      </trkpt>
      <trkpt lat="49.40067" lon="5.78102">
        <ele>295.20001220703</ele>
        <time>2022-09-13T11:53:21.000Z</time>
      </trkpt>
      <trkpt lat="49.40056" lon="5.78101">
        <ele>295</ele>
        <time>2022-09-13T11:53:23.000Z</time>
      </trkpt>
      <trkpt lat="49.40049" lon="5.781">
        <ele>294.79998779297</ele>
        <time>2022-09-13T11:53:24.000Z</time>
      </trkpt>
      <trkpt lat="49.40034" lon="5.78093">
        <ele>293.60000610352</ele>
        <time>2022-09-13T11:53:26.000Z</time>
      </trkpt>
      <trkpt lat="49.40027" lon="5.78089">
        <ele>293.39999389648</ele>
        <time>2022-09-13T11:53:27.000Z</time>
      </trkpt>
      <trkpt lat="49.40023" lon="5.78086">
        <ele>293</ele>
        <time>2022-09-13T11:53:28.000Z</time>
      </trkpt>
      <trkpt lat="49.40019" lon="5.78084">
        <ele>292.79998779297</ele>
        <time>2022-09-13T11:53:29.000Z</time>
      </trkpt>
      <trkpt lat="49.40016" lon="5.78082">
        <ele>292.60000610352</ele>
        <time>2022-09-13T11:53:30.000Z</time>
      </trkpt>
      <trkpt lat="49.40013" lon="5.7808">
        <ele>292.60000610352</ele>
        <time>2022-09-13T11:53:31.000Z</time>
      </trkpt>
      <trkpt lat="49.40011" lon="5.78079">
        <ele>292.60000610352</ele>
        <time>2022-09-13T11:53:32.000Z</time>
      </trkpt>
      <trkpt lat="49.40009" lon="5.78077">
        <ele>292.79998779297</ele>
        <time>2022-09-13T11:53:33.000Z</time>
      </trkpt>
      <trkpt lat="49.40006" lon="5.78076">
        <ele>292.79998779297</ele>
        <time>2022-09-13T11:53:34.000Z</time>
      </trkpt>
      <trkpt lat="49.40003" lon="5.78074">
        <ele>293.20001220703</ele>
        <time>2022-09-13T11:53:35.000Z</time>
      </trkpt>
      <trkpt lat="49.39988" lon="5.78067">
        <ele>294</ele>
        <time>2022-09-13T11:53:39.000Z</time>
      </trkpt>
      <trkpt lat="49.39986" lon="5.78065">
        <ele>294.20001220703</ele>
        <time>2022-09-13T11:53:40.000Z</time>
      </trkpt>
      <trkpt lat="49.39985" lon="5.78064">
        <ele>294.20001220703</ele>
        <time>2022-09-13T11:53:41.000Z</time>
      </trkpt>
      <trkpt lat="49.39982" lon="5.78063">
        <ele>294.79998779297</ele>
        <time>2022-09-13T11:53:42.000Z</time>
      </trkpt>
      <trkpt lat="49.39973" lon="5.78059">
        <ele>296</ele>
        <time>2022-09-13T11:53:45.000Z</time>
      </trkpt>
      <trkpt lat="49.39972" lon="5.78057">
        <ele>296</ele>
        <time>2022-09-13T11:53:46.000Z</time>
      </trkpt>
      <trkpt lat="49.39971" lon="5.78055">
        <ele>296.39999389648</ele>
        <time>2022-09-13T11:53:47.000Z</time>
      </trkpt>
      <trkpt lat="49.3997" lon="5.78052">
        <ele>296.39999389648</ele>
        <time>2022-09-13T11:53:48.000Z</time>
      </trkpt>
      <trkpt lat="49.39968" lon="5.78048">
        <ele>296.60000610352</ele>
        <time>2022-09-13T11:53:49.000Z</time>
      </trkpt>
      <trkpt lat="49.39966" lon="5.78044">
        <ele>296.60000610352</ele>
        <time>2022-09-13T11:53:50.000Z</time>
      </trkpt>
      <trkpt lat="49.39961" lon="5.78038">
        <ele>296.79998779297</ele>
        <time>2022-09-13T11:53:52.000Z</time>
      </trkpt>
      <trkpt lat="49.3996" lon="5.78036">
        <ele>296.79998779297</ele>
        <time>2022-09-13T11:53:53.000Z</time>
      </trkpt>
      <trkpt lat="49.39958" lon="5.78034">
        <ele>296.79998779297</ele>
        <time>2022-09-13T11:53:54.000Z</time>
      </trkpt>
      <trkpt lat="49.39957" lon="5.78033">
        <ele>296.79998779297</ele>
        <time>2022-09-13T11:53:55.000Z</time>
      </trkpt>
      <trkpt lat="49.39956" lon="5.78031">
        <ele>296.79998779297</ele>
        <time>2022-09-13T11:53:56.000Z</time>
      </trkpt>
      <trkpt lat="49.39956" lon="5.78028">
        <ele>296.79998779297</ele>
        <time>2022-09-13T11:53:57.000Z</time>
      </trkpt>
      <trkpt lat="49.39955" lon="5.78025">
        <ele>296.79998779297</ele>
        <time>2022-09-13T11:53:58.000Z</time>
      </trkpt>
      <trkpt lat="49.39955" lon="5.78021">
        <ele>296.79998779297</ele>
        <time>2022-09-13T11:53:59.000Z</time>
      </trkpt>
      <trkpt lat="49.39955" lon="5.78017">
        <ele>296.79998779297</ele>
        <time>2022-09-13T11:54:00.000Z</time>
      </trkpt>
      <trkpt lat="49.39955" lon="5.78013">
        <ele>296.79998779297</ele>
        <time>2022-09-13T11:54:01.000Z</time>
      </trkpt>
      <trkpt lat="49.39956" lon="5.78009">
        <ele>296.79998779297</ele>
        <time>2022-09-13T11:54:02.000Z</time>
      </trkpt>
      <trkpt lat="49.39957" lon="5.78001">
        <ele>296.79998779297</ele>
        <time>2022-09-13T11:54:04.000Z</time>
      </trkpt>
      <trkpt lat="49.39959" lon="5.77993">
        <ele>296.60000610352</ele>
        <time>2022-09-13T11:54:07.000Z</time>
      </trkpt>
      <trkpt lat="49.39962" lon="5.77984">
        <ele>296.60000610352</ele>
        <time>2022-09-13T11:54:10.000Z</time>
      </trkpt>
      <trkpt lat="49.39963" lon="5.77981">
        <ele>296.60000610352</ele>
        <time>2022-09-13T11:54:11.000Z</time>
      </trkpt>
      <trkpt lat="49.39963" lon="5.77978">
        <ele>296.60000610352</ele>
        <time>2022-09-13T11:54:12.000Z</time>
      </trkpt>
      <trkpt lat="49.39964" lon="5.77967">
        <ele>296.60000610352</ele>
        <time>2022-09-13T11:54:15.000Z</time>
      </trkpt>
      <trkpt lat="49.39964" lon="5.77964">
        <ele>296.60000610352</ele>
        <time>2022-09-13T11:54:16.000Z</time>
      </trkpt>
      <trkpt lat="49.39965" lon="5.77961">
        <ele>296.60000610352</ele>
        <time>2022-09-13T11:54:17.000Z</time>
      </trkpt>
      <trkpt lat="49.39966" lon="5.77958">
        <ele>296.60000610352</ele>
        <time>2022-09-13T11:54:18.000Z</time>
      </trkpt>
      <trkpt lat="49.39967" lon="5.77954">
        <ele>296.60000610352</ele>
        <time>2022-09-13T11:54:19.000Z</time>
      </trkpt>
      <trkpt lat="49.39967" lon="5.77951">
        <ele>296.60000610352</ele>
        <time>2022-09-13T11:54:20.000Z</time>
      </trkpt>
      <trkpt lat="49.39968" lon="5.77948">
        <ele>296.79998779297</ele>
        <time>2022-09-13T11:54:21.000Z</time>
      </trkpt>
      <trkpt lat="49.39967" lon="5.77944">
        <ele>296.79998779297</ele>
        <time>2022-09-13T11:54:22.000Z</time>
      </trkpt>
      <trkpt lat="49.39966" lon="5.7794">
        <ele>296.79998779297</ele>
        <time>2022-09-13T11:54:23.000Z</time>
      </trkpt>
      <trkpt lat="49.39966" lon="5.77937">
        <ele>296.79998779297</ele>
        <time>2022-09-13T11:54:24.000Z</time>
      </trkpt>
      <trkpt lat="49.39967" lon="5.77929">
        <ele>297</ele>
        <time>2022-09-13T11:54:26.000Z</time>
      </trkpt>
      <trkpt lat="49.39967" lon="5.77924">
        <ele>297</ele>
        <time>2022-09-13T11:54:27.000Z</time>
      </trkpt>
      <trkpt lat="49.39966" lon="5.7792">
        <ele>297</ele>
        <time>2022-09-13T11:54:28.000Z</time>
      </trkpt>
      <trkpt lat="49.39967" lon="5.77916">
        <ele>297.20001220703</ele>
        <time>2022-09-13T11:54:29.000Z</time>
      </trkpt>
      <trkpt lat="49.39968" lon="5.77908">
        <ele>297.20001220703</ele>
        <time>2022-09-13T11:54:31.000Z</time>
      </trkpt>
      <trkpt lat="49.3997" lon="5.77883">
        <ele>297.20001220703</ele>
        <time>2022-09-13T11:54:36.000Z</time>
      </trkpt>
      <trkpt lat="49.39972" lon="5.77855">
        <ele>296.79998779297</ele>
        <time>2022-09-13T11:54:42.000Z</time>
      </trkpt>
      <trkpt lat="49.39972" lon="5.77851">
        <ele>297</ele>
        <time>2022-09-13T11:54:43.000Z</time>
      </trkpt>
      <trkpt lat="49.39972" lon="5.77847">
        <ele>297</ele>
        <time>2022-09-13T11:54:44.000Z</time>
      </trkpt>
      <trkpt lat="49.39972" lon="5.77842">
        <ele>297.20001220703</ele>
        <time>2022-09-13T11:54:45.000Z</time>
      </trkpt>
      <trkpt lat="49.39974" lon="5.77829">
        <ele>297.20001220703</ele>
        <time>2022-09-13T11:54:48.000Z</time>
      </trkpt>
      <trkpt lat="49.39975" lon="5.77815">
        <ele>297.39999389648</ele>
        <time>2022-09-13T11:54:51.000Z</time>
      </trkpt>
      <trkpt lat="49.39975" lon="5.77812">
        <ele>297.39999389648</ele>
        <time>2022-09-13T11:54:52.000Z</time>
      </trkpt>
      <trkpt lat="49.39975" lon="5.77804">
        <ele>297.60000610352</ele>
        <time>2022-09-13T11:54:54.000Z</time>
      </trkpt>
      <trkpt lat="49.39976" lon="5.778">
        <ele>297.60000610352</ele>
        <time>2022-09-13T11:54:55.000Z</time>
      </trkpt>
      <trkpt lat="49.39976" lon="5.77796">
        <ele>297.79998779297</ele>
        <time>2022-09-13T11:54:56.000Z</time>
      </trkpt>
      <trkpt lat="49.39976" lon="5.77793">
        <ele>297.79998779297</ele>
        <time>2022-09-13T11:54:57.000Z</time>
      </trkpt>
      <trkpt lat="49.39976" lon="5.77789">
        <ele>298.20001220703</ele>
        <time>2022-09-13T11:54:58.000Z</time>
      </trkpt>
      <trkpt lat="49.39976" lon="5.77785">
        <ele>298.39999389648</ele>
        <time>2022-09-13T11:54:59.000Z</time>
      </trkpt>
      <trkpt lat="49.39976" lon="5.77782">
        <ele>298.39999389648</ele>
        <time>2022-09-13T11:55:00.000Z</time>
      </trkpt>
      <trkpt lat="49.39975" lon="5.77778">
        <ele>298.39999389648</ele>
        <time>2022-09-13T11:55:01.000Z</time>
      </trkpt>
      <trkpt lat="49.39974" lon="5.77771">
        <ele>298.79998779297</ele>
        <time>2022-09-13T11:55:03.000Z</time>
      </trkpt>
      <trkpt lat="49.39976" lon="5.77767">
        <ele>298.79998779297</ele>
        <time>2022-09-13T11:55:04.000Z</time>
      </trkpt>
      <trkpt lat="49.39977" lon="5.77764">
        <ele>299</ele>
        <time>2022-09-13T11:55:05.000Z</time>
      </trkpt>
      <trkpt lat="49.39977" lon="5.77761">
        <ele>299.20001220703</ele>
        <time>2022-09-13T11:55:06.000Z</time>
      </trkpt>
      <trkpt lat="49.39979" lon="5.77756">
        <ele>299.20001220703</ele>
        <time>2022-09-13T11:55:07.000Z</time>
      </trkpt>
      <trkpt lat="49.39979" lon="5.77753">
        <ele>299.39999389648</ele>
        <time>2022-09-13T11:55:08.000Z</time>
      </trkpt>
      <trkpt lat="49.39981" lon="5.7775">
        <ele>299.39999389648</ele>
        <time>2022-09-13T11:55:09.000Z</time>
      </trkpt>
      <trkpt lat="49.39981" lon="5.77721">
        <ele>300.39999389648</ele>
        <time>2022-09-13T11:55:16.000Z</time>
      </trkpt>
      <trkpt lat="49.39981" lon="5.77717">
        <ele>300.79998779297</ele>
        <time>2022-09-13T11:55:17.000Z</time>
      </trkpt>
      <trkpt lat="49.39981" lon="5.77714">
        <ele>300.79998779297</ele>
        <time>2022-09-13T11:55:18.000Z</time>
      </trkpt>
      <trkpt lat="49.39981" lon="5.77711">
        <ele>300.79998779297</ele>
        <time>2022-09-13T11:55:19.000Z</time>
      </trkpt>
      <trkpt lat="49.39982" lon="5.77707">
        <ele>301</ele>
        <time>2022-09-13T11:55:20.000Z</time>
      </trkpt>
      <trkpt lat="49.39983" lon="5.77704">
        <ele>301.20001220703</ele>
        <time>2022-09-13T11:55:21.000Z</time>
      </trkpt>
      <trkpt lat="49.39983" lon="5.777">
        <ele>301.20001220703</ele>
        <time>2022-09-13T11:55:22.000Z</time>
      </trkpt>
      <trkpt lat="49.39984" lon="5.77697">
        <ele>301.39999389648</ele>
        <time>2022-09-13T11:55:23.000Z</time>
      </trkpt>
      <trkpt lat="49.39985" lon="5.77692">
        <ele>301.39999389648</ele>
        <time>2022-09-13T11:55:24.000Z</time>
      </trkpt>
      <trkpt lat="49.39984" lon="5.77686">
        <ele>301.39999389648</ele>
        <time>2022-09-13T11:55:25.000Z</time>
      </trkpt>
      <trkpt lat="49.39984" lon="5.77681">
        <ele>301.60000610352</ele>
        <time>2022-09-13T11:55:26.000Z</time>
      </trkpt>
      <trkpt lat="49.39983" lon="5.77677">
        <ele>301.60000610352</ele>
        <time>2022-09-13T11:55:27.000Z</time>
      </trkpt>
      <trkpt lat="49.39983" lon="5.77673">
        <ele>301.60000610352</ele>
        <time>2022-09-13T11:55:28.000Z</time>
      </trkpt>
      <trkpt lat="49.39983" lon="5.77669">
        <ele>301.60000610352</ele>
        <time>2022-09-13T11:55:29.000Z</time>
      </trkpt>
      <trkpt lat="49.39983" lon="5.77666">
        <ele>301.79998779297</ele>
        <time>2022-09-13T11:55:30.000Z</time>
      </trkpt>
      <trkpt lat="49.39982" lon="5.77661">
        <ele>301.79998779297</ele>
        <time>2022-09-13T11:55:31.000Z</time>
      </trkpt>
      <trkpt lat="49.39982" lon="5.77655">
        <ele>301.79998779297</ele>
        <time>2022-09-13T11:55:32.000Z</time>
      </trkpt>
      <trkpt lat="49.39983" lon="5.77649">
        <ele>302</ele>
        <time>2022-09-13T11:55:33.000Z</time>
      </trkpt>
      <trkpt lat="49.39984" lon="5.77643">
        <ele>302</ele>
        <time>2022-09-13T11:55:34.000Z</time>
      </trkpt>
      <trkpt lat="49.39984" lon="5.7764">
        <ele>302.20001220703</ele>
        <time>2022-09-13T11:55:35.000Z</time>
      </trkpt>
      <trkpt lat="49.39984" lon="5.77637">
        <ele>302.20001220703</ele>
        <time>2022-09-13T11:55:36.000Z</time>
      </trkpt>
      <trkpt lat="49.39984" lon="5.77633">
        <ele>302.39999389648</ele>
        <time>2022-09-13T11:55:37.000Z</time>
      </trkpt>
      <trkpt lat="49.39983" lon="5.77629">
        <ele>302.60000610352</ele>
        <time>2022-09-13T11:55:38.000Z</time>
      </trkpt>
      <trkpt lat="49.39982" lon="5.77623">
        <ele>302.79998779297</ele>
        <time>2022-09-13T11:55:39.000Z</time>
      </trkpt>
      <trkpt lat="49.39982" lon="5.77611">
        <ele>303.20001220703</ele>
        <time>2022-09-13T11:55:42.000Z</time>
      </trkpt>
      <trkpt lat="49.39982" lon="5.77608">
        <ele>303.39999389648</ele>
        <time>2022-09-13T11:55:43.000Z</time>
      </trkpt>
      <trkpt lat="49.39982" lon="5.77606">
        <ele>303.39999389648</ele>
        <time>2022-09-13T11:55:44.000Z</time>
      </trkpt>
      <trkpt lat="49.39983" lon="5.77602">
        <ele>303.60000610352</ele>
        <time>2022-09-13T11:55:45.000Z</time>
      </trkpt>
      <trkpt lat="49.39984" lon="5.77599">
        <ele>303.60000610352</ele>
        <time>2022-09-13T11:55:46.000Z</time>
      </trkpt>
      <trkpt lat="49.39985" lon="5.77595">
        <ele>303.60000610352</ele>
        <time>2022-09-13T11:55:47.000Z</time>
      </trkpt>
      <trkpt lat="49.39986" lon="5.77593">
        <ele>303.79998779297</ele>
        <time>2022-09-13T11:55:48.000Z</time>
      </trkpt>
      <trkpt lat="49.39987" lon="5.7759">
        <ele>304</ele>
        <time>2022-09-13T11:55:49.000Z</time>
      </trkpt>
      <trkpt lat="49.39988" lon="5.77588">
        <ele>304.20001220703</ele>
        <time>2022-09-13T11:55:50.000Z</time>
      </trkpt>
      <trkpt lat="49.3999" lon="5.77587">
        <ele>304.20001220703</ele>
        <time>2022-09-13T11:55:51.000Z</time>
      </trkpt>
      <trkpt lat="49.39992" lon="5.77586">
        <ele>304.39999389648</ele>
        <time>2022-09-13T11:55:52.000Z</time>
      </trkpt>
      <trkpt lat="49.39994" lon="5.77585">
        <ele>304.39999389648</ele>
        <time>2022-09-13T11:55:53.000Z</time>
      </trkpt>
      <trkpt lat="49.39997" lon="5.77584">
        <ele>304.79998779297</ele>
        <time>2022-09-13T11:55:54.000Z</time>
      </trkpt>
      <trkpt lat="49.39999" lon="5.77584">
        <ele>305</ele>
        <time>2022-09-13T11:55:55.000Z</time>
      </trkpt>
      <trkpt lat="49.40002" lon="5.77585">
        <ele>305.39999389648</ele>
        <time>2022-09-13T11:55:56.000Z</time>
      </trkpt>
      <trkpt lat="49.40006" lon="5.77586">
        <ele>305.79998779297</ele>
        <time>2022-09-13T11:55:57.000Z</time>
      </trkpt>
      <trkpt lat="49.4001" lon="5.77587">
        <ele>306</ele>
        <time>2022-09-13T11:55:58.000Z</time>
      </trkpt>
      <trkpt lat="49.40011" lon="5.77586">
        <ele>306.39999389648</ele>
        <time>2022-09-13T11:55:59.000Z</time>
      </trkpt>
      <trkpt lat="49.40014" lon="5.77585">
        <ele>306.39999389648</ele>
        <time>2022-09-13T11:56:00.000Z</time>
      </trkpt>
      <trkpt lat="49.40016" lon="5.77584">
        <ele>306.79998779297</ele>
        <time>2022-09-13T11:56:01.000Z</time>
      </trkpt>
      <trkpt lat="49.40018" lon="5.77584">
        <ele>307</ele>
        <time>2022-09-13T11:56:02.000Z</time>
      </trkpt>
      <trkpt lat="49.40021" lon="5.77583">
        <ele>307.20001220703</ele>
        <time>2022-09-13T11:56:03.000Z</time>
      </trkpt>
      <trkpt lat="49.40022" lon="5.77582">
        <ele>307.60000610352</ele>
        <time>2022-09-13T11:56:04.000Z</time>
      </trkpt>
      <trkpt lat="49.40024" lon="5.77581">
        <ele>307.79998779297</ele>
        <time>2022-09-13T11:56:05.000Z</time>
      </trkpt>
      <trkpt lat="49.40026" lon="5.77581">
        <ele>308.20001220703</ele>
        <time>2022-09-13T11:56:06.000Z</time>
      </trkpt>
      <trkpt lat="49.4003" lon="5.77581">
        <ele>308.20001220703</ele>
        <time>2022-09-13T11:56:07.000Z</time>
      </trkpt>
      <trkpt lat="49.40031" lon="5.77581">
        <ele>308.60000610352</ele>
        <time>2022-09-13T11:56:08.000Z</time>
      </trkpt>
      <trkpt lat="49.40033" lon="5.77581">
        <ele>308.60000610352</ele>
        <time>2022-09-13T11:56:09.000Z</time>
      </trkpt>
      <trkpt lat="49.40035" lon="5.77581">
        <ele>309</ele>
        <time>2022-09-13T11:56:10.000Z</time>
      </trkpt>
      <trkpt lat="49.40038" lon="5.77581">
        <ele>309</ele>
        <time>2022-09-13T11:56:11.000Z</time>
      </trkpt>
      <trkpt lat="49.40039" lon="5.77581">
        <ele>309.39999389648</ele>
        <time>2022-09-13T11:56:12.000Z</time>
      </trkpt>
      <trkpt lat="49.40041" lon="5.77581">
        <ele>309.60000610352</ele>
        <time>2022-09-13T11:56:13.000Z</time>
      </trkpt>
      <trkpt lat="49.40045" lon="5.77581">
        <ele>309.79998779297</ele>
        <time>2022-09-13T11:56:14.000Z</time>
      </trkpt>
      <trkpt lat="49.40049" lon="5.77581">
        <ele>310</ele>
        <time>2022-09-13T11:56:15.000Z</time>
      </trkpt>
      <trkpt lat="49.40051" lon="5.7758">
        <ele>310</ele>
        <time>2022-09-13T11:56:16.000Z</time>
      </trkpt>
      <trkpt lat="49.40053" lon="5.77581">
        <ele>310.20001220703</ele>
        <time>2022-09-13T11:56:17.000Z</time>
      </trkpt>
      <trkpt lat="49.40056" lon="5.77581">
        <ele>310.39999389648</ele>
        <time>2022-09-13T11:56:18.000Z</time>
      </trkpt>
      <trkpt lat="49.40059" lon="5.77581">
        <ele>310.60000610352</ele>
        <time>2022-09-13T11:56:19.000Z</time>
      </trkpt>
      <trkpt lat="49.40063" lon="5.7758">
        <ele>310.79998779297</ele>
        <time>2022-09-13T11:56:20.000Z</time>
      </trkpt>
      <trkpt lat="49.40065" lon="5.77579">
        <ele>310.79998779297</ele>
        <time>2022-09-13T11:56:21.000Z</time>
      </trkpt>
      <trkpt lat="49.40067" lon="5.77579">
        <ele>310.79998779297</ele>
        <time>2022-09-13T11:56:22.000Z</time>
      </trkpt>
      <trkpt lat="49.40071" lon="5.77579">
        <ele>310.79998779297</ele>
        <time>2022-09-13T11:56:23.000Z</time>
      </trkpt>
      <trkpt lat="49.40075" lon="5.77578">
        <ele>310.79998779297</ele>
        <time>2022-09-13T11:56:24.000Z</time>
      </trkpt>
      <trkpt lat="49.40078" lon="5.77577">
        <ele>310.79998779297</ele>
        <time>2022-09-13T11:56:25.000Z</time>
      </trkpt>
      <trkpt lat="49.4008" lon="5.77574">
        <ele>311</ele>
        <time>2022-09-13T11:56:26.000Z</time>
      </trkpt>
      <trkpt lat="49.40081" lon="5.77573">
        <ele>311.39999389648</ele>
        <time>2022-09-13T11:56:27.000Z</time>
      </trkpt>
      <trkpt lat="49.40084" lon="5.77571">
        <ele>311.39999389648</ele>
        <time>2022-09-13T11:56:28.000Z</time>
      </trkpt>
      <trkpt lat="49.40086" lon="5.77569">
        <ele>312</ele>
        <time>2022-09-13T11:56:29.000Z</time>
      </trkpt>
      <trkpt lat="49.40089" lon="5.77568">
        <ele>312.20001220703</ele>
        <time>2022-09-13T11:56:30.000Z</time>
      </trkpt>
      <trkpt lat="49.40091" lon="5.77568">
        <ele>312.60000610352</ele>
        <time>2022-09-13T11:56:31.000Z</time>
      </trkpt>
      <trkpt lat="49.40094" lon="5.77567">
        <ele>312.79998779297</ele>
        <time>2022-09-13T11:56:32.000Z</time>
      </trkpt>
      <trkpt lat="49.40097" lon="5.77567">
        <ele>313</ele>
        <time>2022-09-13T11:56:33.000Z</time>
      </trkpt>
      <trkpt lat="49.401" lon="5.77567">
        <ele>313</ele>
        <time>2022-09-13T11:56:34.000Z</time>
      </trkpt>
      <trkpt lat="49.40103" lon="5.77567">
        <ele>313.20001220703</ele>
        <time>2022-09-13T11:56:35.000Z</time>
      </trkpt>
      <trkpt lat="49.40106" lon="5.77567">
        <ele>313.20001220703</ele>
        <time>2022-09-13T11:56:36.000Z</time>
      </trkpt>
      <trkpt lat="49.40108" lon="5.77566">
        <ele>313.20001220703</ele>
        <time>2022-09-13T11:56:37.000Z</time>
      </trkpt>
      <trkpt lat="49.40111" lon="5.77566">
        <ele>313.20001220703</ele>
        <time>2022-09-13T11:56:38.000Z</time>
      </trkpt>
      <trkpt lat="49.40114" lon="5.77566">
        <ele>313.20001220703</ele>
        <time>2022-09-13T11:56:39.000Z</time>
      </trkpt>
      <trkpt lat="49.40117" lon="5.77566">
        <ele>313.20001220703</ele>
        <time>2022-09-13T11:56:40.000Z</time>
      </trkpt>
      <trkpt lat="49.40119" lon="5.77566">
        <ele>313.79998779297</ele>
        <time>2022-09-13T11:56:41.000Z</time>
      </trkpt>
      <trkpt lat="49.40122" lon="5.77566">
        <ele>313.79998779297</ele>
        <time>2022-09-13T11:56:42.000Z</time>
      </trkpt>
      <trkpt lat="49.40125" lon="5.77566">
        <ele>314</ele>
        <time>2022-09-13T11:56:43.000Z</time>
      </trkpt>
      <trkpt lat="49.40128" lon="5.77565">
        <ele>314</ele>
        <time>2022-09-13T11:56:44.000Z</time>
      </trkpt>
      <trkpt lat="49.40132" lon="5.77565">
        <ele>314</ele>
        <time>2022-09-13T11:56:45.000Z</time>
      </trkpt>
      <trkpt lat="49.40134" lon="5.77565">
        <ele>314.20001220703</ele>
        <time>2022-09-13T11:56:46.000Z</time>
      </trkpt>
      <trkpt lat="49.40138" lon="5.77564">
        <ele>314.20001220703</ele>
        <time>2022-09-13T11:56:47.000Z</time>
      </trkpt>
      <trkpt lat="49.40141" lon="5.77564">
        <ele>314.20001220703</ele>
        <time>2022-09-13T11:56:48.000Z</time>
      </trkpt>
      <trkpt lat="49.40145" lon="5.77564">
        <ele>314.20001220703</ele>
        <time>2022-09-13T11:56:49.000Z</time>
      </trkpt>
      <trkpt lat="49.40149" lon="5.77563">
        <ele>314.20001220703</ele>
        <time>2022-09-13T11:56:50.000Z</time>
      </trkpt>
      <trkpt lat="49.40152" lon="5.77563">
        <ele>314.20001220703</ele>
        <time>2022-09-13T11:56:51.000Z</time>
      </trkpt>
      <trkpt lat="49.40155" lon="5.77563">
        <ele>314.20001220703</ele>
        <time>2022-09-13T11:56:52.000Z</time>
      </trkpt>
      <trkpt lat="49.4016" lon="5.77562">
        <ele>314.20001220703</ele>
        <time>2022-09-13T11:56:53.000Z</time>
      </trkpt>
      <trkpt lat="49.40163" lon="5.77562">
        <ele>314.39999389648</ele>
        <time>2022-09-13T11:56:54.000Z</time>
      </trkpt>
      <trkpt lat="49.40167" lon="5.77561">
        <ele>314.39999389648</ele>
        <time>2022-09-13T11:56:55.000Z</time>
      </trkpt>
      <trkpt lat="49.40169" lon="5.77561">
        <ele>314.39999389648</ele>
        <time>2022-09-13T11:56:56.000Z</time>
      </trkpt>
      <trkpt lat="49.40181" lon="5.77561">
        <ele>315.20001220703</ele>
        <time>2022-09-13T11:56:59.000Z</time>
      </trkpt>
      <trkpt lat="49.40187" lon="5.7756">
        <ele>315.60000610352</ele>
        <time>2022-09-13T11:57:01.000Z</time>
      </trkpt>
      <trkpt lat="49.40216" lon="5.77561">
        <ele>315.79998779297</ele>
        <time>2022-09-13T11:57:09.000Z</time>
      </trkpt>
      <trkpt lat="49.40229" lon="5.77566">
        <ele>316.39999389648</ele>
        <time>2022-09-13T11:57:13.000Z</time>
      </trkpt>
      <trkpt lat="49.40238" lon="5.77572">
        <ele>317</ele>
        <time>2022-09-13T11:57:16.000Z</time>
      </trkpt>
      <trkpt lat="49.40241" lon="5.77574">
        <ele>317.20001220703</ele>
        <time>2022-09-13T11:57:17.000Z</time>
      </trkpt>
      <trkpt lat="49.40244" lon="5.77576">
        <ele>317.39999389648</ele>
        <time>2022-09-13T11:57:18.000Z</time>
      </trkpt>
      <trkpt lat="49.40248" lon="5.77578">
        <ele>317.39999389648</ele>
        <time>2022-09-13T11:57:19.000Z</time>
      </trkpt>
      <trkpt lat="49.4025" lon="5.77579">
        <ele>317.79998779297</ele>
        <time>2022-09-13T11:57:20.000Z</time>
      </trkpt>
      <trkpt lat="49.40254" lon="5.77581">
        <ele>317.79998779297</ele>
        <time>2022-09-13T11:57:21.000Z</time>
      </trkpt>
      <trkpt lat="49.40257" lon="5.77584">
        <ele>317.79998779297</ele>
        <time>2022-09-13T11:57:22.000Z</time>
      </trkpt>
      <trkpt lat="49.4026" lon="5.77585">
        <ele>318</ele>
        <time>2022-09-13T11:57:23.000Z</time>
      </trkpt>
      <trkpt lat="49.40263" lon="5.77587">
        <ele>318</ele>
        <time>2022-09-13T11:57:24.000Z</time>
      </trkpt>
      <trkpt lat="49.40266" lon="5.77588">
        <ele>318.20001220703</ele>
        <time>2022-09-13T11:57:25.000Z</time>
      </trkpt>
      <trkpt lat="49.40269" lon="5.7759">
        <ele>318.39999389648</ele>
        <time>2022-09-13T11:57:26.000Z</time>
      </trkpt>
      <trkpt lat="49.40272" lon="5.77592">
        <ele>318.39999389648</ele>
        <time>2022-09-13T11:57:27.000Z</time>
      </trkpt>
      <trkpt lat="49.40276" lon="5.77594">
        <ele>318.60000610352</ele>
        <time>2022-09-13T11:57:28.000Z</time>
      </trkpt>
      <trkpt lat="49.40279" lon="5.77595">
        <ele>318.60000610352</ele>
        <time>2022-09-13T11:57:29.000Z</time>
      </trkpt>
      <trkpt lat="49.40282" lon="5.77597">
        <ele>318.79998779297</ele>
        <time>2022-09-13T11:57:30.000Z</time>
      </trkpt>
      <trkpt lat="49.40285" lon="5.77598">
        <ele>318.79998779297</ele>
        <time>2022-09-13T11:57:31.000Z</time>
      </trkpt>
      <trkpt lat="49.40288" lon="5.776">
        <ele>319</ele>
        <time>2022-09-13T11:57:32.000Z</time>
      </trkpt>
      <trkpt lat="49.40292" lon="5.77602">
        <ele>319.20001220703</ele>
        <time>2022-09-13T11:57:33.000Z</time>
      </trkpt>
      <trkpt lat="49.40296" lon="5.77604">
        <ele>319.20001220703</ele>
        <time>2022-09-13T11:57:34.000Z</time>
      </trkpt>
      <trkpt lat="49.40298" lon="5.77606">
        <ele>319.39999389648</ele>
        <time>2022-09-13T11:57:35.000Z</time>
      </trkpt>
      <trkpt lat="49.40302" lon="5.77608">
        <ele>319.60000610352</ele>
        <time>2022-09-13T11:57:36.000Z</time>
      </trkpt>
      <trkpt lat="49.40305" lon="5.77609">
        <ele>319.60000610352</ele>
        <time>2022-09-13T11:57:37.000Z</time>
      </trkpt>
      <trkpt lat="49.40309" lon="5.77612">
        <ele>319.79998779297</ele>
        <time>2022-09-13T11:57:38.000Z</time>
      </trkpt>
      <trkpt lat="49.40312" lon="5.77613">
        <ele>319.79998779297</ele>
        <time>2022-09-13T11:57:39.000Z</time>
      </trkpt>
      <trkpt lat="49.40315" lon="5.77615">
        <ele>319.79998779297</ele>
        <time>2022-09-13T11:57:40.000Z</time>
      </trkpt>
      <trkpt lat="49.40318" lon="5.77617">
        <ele>320.20001220703</ele>
        <time>2022-09-13T11:57:41.000Z</time>
      </trkpt>
      <trkpt lat="49.40322" lon="5.77619">
        <ele>320.60000610352</ele>
        <time>2022-09-13T11:57:42.000Z</time>
      </trkpt>
      <trkpt lat="49.40325" lon="5.77621">
        <ele>321</ele>
        <time>2022-09-13T11:57:43.000Z</time>
      </trkpt>
      <trkpt lat="49.40328" lon="5.77622">
        <ele>321.20001220703</ele>
        <time>2022-09-13T11:57:44.000Z</time>
      </trkpt>
      <trkpt lat="49.40331" lon="5.77624">
        <ele>321.39999389648</ele>
        <time>2022-09-13T11:57:45.000Z</time>
      </trkpt>
      <trkpt lat="49.40334" lon="5.77626">
        <ele>321.39999389648</ele>
        <time>2022-09-13T11:57:46.000Z</time>
      </trkpt>
      <trkpt lat="49.40337" lon="5.77628">
        <ele>321.60000610352</ele>
        <time>2022-09-13T11:57:47.000Z</time>
      </trkpt>
      <trkpt lat="49.40341" lon="5.7763">
        <ele>321.60000610352</ele>
        <time>2022-09-13T11:57:48.000Z</time>
      </trkpt>
      <trkpt lat="49.40343" lon="5.77631">
        <ele>321.79998779297</ele>
        <time>2022-09-13T11:57:49.000Z</time>
      </trkpt>
      <trkpt lat="49.40346" lon="5.77632">
        <ele>321.79998779297</ele>
        <time>2022-09-13T11:57:50.000Z</time>
      </trkpt>
      <trkpt lat="49.40348" lon="5.77634">
        <ele>321.79998779297</ele>
        <time>2022-09-13T11:57:51.000Z</time>
      </trkpt>
      <trkpt lat="49.40351" lon="5.77636">
        <ele>322.20001220703</ele>
        <time>2022-09-13T11:57:52.000Z</time>
      </trkpt>
      <trkpt lat="49.40354" lon="5.77638">
        <ele>322.20001220703</ele>
        <time>2022-09-13T11:57:53.000Z</time>
      </trkpt>
      <trkpt lat="49.40357" lon="5.77639">
        <ele>322.39999389648</ele>
        <time>2022-09-13T11:57:54.000Z</time>
      </trkpt>
      <trkpt lat="49.4036" lon="5.77641">
        <ele>322.79998779297</ele>
        <time>2022-09-13T11:57:55.000Z</time>
      </trkpt>
      <trkpt lat="49.40363" lon="5.77644">
        <ele>323</ele>
        <time>2022-09-13T11:57:56.000Z</time>
      </trkpt>
      <trkpt lat="49.40365" lon="5.77646">
        <ele>323.39999389648</ele>
        <time>2022-09-13T11:57:57.000Z</time>
      </trkpt>
      <trkpt lat="49.40368" lon="5.77648">
        <ele>323.60000610352</ele>
        <time>2022-09-13T11:57:58.000Z</time>
      </trkpt>
      <trkpt lat="49.40371" lon="5.77649">
        <ele>323.79998779297</ele>
        <time>2022-09-13T11:57:59.000Z</time>
      </trkpt>
      <trkpt lat="49.40374" lon="5.77651">
        <ele>324</ele>
        <time>2022-09-13T11:58:00.000Z</time>
      </trkpt>
      <trkpt lat="49.40378" lon="5.77651">
        <ele>324.39999389648</ele>
        <time>2022-09-13T11:58:01.000Z</time>
      </trkpt>
      <trkpt lat="49.40381" lon="5.77651">
        <ele>324.79998779297</ele>
        <time>2022-09-13T11:58:02.000Z</time>
      </trkpt>
      <trkpt lat="49.40384" lon="5.7765">
        <ele>325</ele>
        <time>2022-09-13T11:58:03.000Z</time>
      </trkpt>
      <trkpt lat="49.40387" lon="5.77648">
        <ele>325.20001220703</ele>
        <time>2022-09-13T11:58:04.000Z</time>
      </trkpt>
      <trkpt lat="49.4039" lon="5.77646">
        <ele>325.20001220703</ele>
        <time>2022-09-13T11:58:05.000Z</time>
      </trkpt>
      <trkpt lat="49.40394" lon="5.77642">
        <ele>325.39999389648</ele>
        <time>2022-09-13T11:58:06.000Z</time>
      </trkpt>
      <trkpt lat="49.40397" lon="5.77638">
        <ele>325.39999389648</ele>
        <time>2022-09-13T11:58:07.000Z</time>
      </trkpt>
      <trkpt lat="49.404" lon="5.77635">
        <ele>325.60000610352</ele>
        <time>2022-09-13T11:58:08.000Z</time>
      </trkpt>
      <trkpt lat="49.40402" lon="5.77632">
        <ele>325.60000610352</ele>
        <time>2022-09-13T11:58:09.000Z</time>
      </trkpt>
      <trkpt lat="49.40405" lon="5.77629">
        <ele>325.79998779297</ele>
        <time>2022-09-13T11:58:10.000Z</time>
      </trkpt>
      <trkpt lat="49.40409" lon="5.77624">
        <ele>325.79998779297</ele>
        <time>2022-09-13T11:58:11.000Z</time>
      </trkpt>
      <trkpt lat="49.40412" lon="5.7762">
        <ele>326</ele>
        <time>2022-09-13T11:58:12.000Z</time>
      </trkpt>
      <trkpt lat="49.40415" lon="5.77616">
        <ele>326</ele>
        <time>2022-09-13T11:58:13.000Z</time>
      </trkpt>
      <trkpt lat="49.40418" lon="5.77613">
        <ele>326</ele>
        <time>2022-09-13T11:58:14.000Z</time>
      </trkpt>
      <trkpt lat="49.40422" lon="5.77609">
        <ele>326.20001220703</ele>
        <time>2022-09-13T11:58:15.000Z</time>
      </trkpt>
      <trkpt lat="49.40426" lon="5.77605">
        <ele>326.20001220703</ele>
        <time>2022-09-13T11:58:16.000Z</time>
      </trkpt>
      <trkpt lat="49.40429" lon="5.77601">
        <ele>326.20001220703</ele>
        <time>2022-09-13T11:58:17.000Z</time>
      </trkpt>
      <trkpt lat="49.40433" lon="5.77597">
        <ele>326.20001220703</ele>
        <time>2022-09-13T11:58:18.000Z</time>
      </trkpt>
      <trkpt lat="49.40436" lon="5.77594">
        <ele>326.20001220703</ele>
        <time>2022-09-13T11:58:19.000Z</time>
      </trkpt>
      <trkpt lat="49.4044" lon="5.7759">
        <ele>326.20001220703</ele>
        <time>2022-09-13T11:58:20.000Z</time>
      </trkpt>
      <trkpt lat="49.40444" lon="5.77586">
        <ele>326.20001220703</ele>
        <time>2022-09-13T11:58:21.000Z</time>
      </trkpt>
      <trkpt lat="49.40448" lon="5.77582">
        <ele>326.20001220703</ele>
        <time>2022-09-13T11:58:22.000Z</time>
      </trkpt>
      <trkpt lat="49.40451" lon="5.77578">
        <ele>326.39999389648</ele>
        <time>2022-09-13T11:58:23.000Z</time>
      </trkpt>
      <trkpt lat="49.40454" lon="5.77575">
        <ele>326.60000610352</ele>
        <time>2022-09-13T11:58:24.000Z</time>
      </trkpt>
      <trkpt lat="49.40458" lon="5.77572">
        <ele>326.60000610352</ele>
        <time>2022-09-13T11:58:25.000Z</time>
      </trkpt>
      <trkpt lat="49.40462" lon="5.77567">
        <ele>326.60000610352</ele>
        <time>2022-09-13T11:58:26.000Z</time>
      </trkpt>
      <trkpt lat="49.40466" lon="5.77563">
        <ele>326.79998779297</ele>
        <time>2022-09-13T11:58:27.000Z</time>
      </trkpt>
      <trkpt lat="49.40472" lon="5.77556">
        <ele>327</ele>
        <time>2022-09-13T11:58:29.000Z</time>
      </trkpt>
      <trkpt lat="49.40486" lon="5.77541">
        <ele>327.60000610352</ele>
        <time>2022-09-13T11:58:33.000Z</time>
      </trkpt>
      <trkpt lat="49.40489" lon="5.77538">
        <ele>327.79998779297</ele>
        <time>2022-09-13T11:58:34.000Z</time>
      </trkpt>
      <trkpt lat="49.40496" lon="5.7753">
        <ele>328</ele>
        <time>2022-09-13T11:58:36.000Z</time>
      </trkpt>
      <trkpt lat="49.405" lon="5.77526">
        <ele>328.20001220703</ele>
        <time>2022-09-13T11:58:37.000Z</time>
      </trkpt>
      <trkpt lat="49.40506" lon="5.77519">
        <ele>328.39999389648</ele>
        <time>2022-09-13T11:58:39.000Z</time>
      </trkpt>
      <trkpt lat="49.40514" lon="5.77511">
        <ele>328.60000610352</ele>
        <time>2022-09-13T11:58:41.000Z</time>
      </trkpt>
      <trkpt lat="49.40518" lon="5.77507">
        <ele>328.60000610352</ele>
        <time>2022-09-13T11:58:42.000Z</time>
      </trkpt>
      <trkpt lat="49.40522" lon="5.77504">
        <ele>329</ele>
        <time>2022-09-13T11:58:43.000Z</time>
      </trkpt>
      <trkpt lat="49.40525" lon="5.77501">
        <ele>329</ele>
        <time>2022-09-13T11:58:44.000Z</time>
      </trkpt>
      <trkpt lat="49.40529" lon="5.77497">
        <ele>329.20001220703</ele>
        <time>2022-09-13T11:58:45.000Z</time>
      </trkpt>
      <trkpt lat="49.40532" lon="5.77493">
        <ele>329.39999389648</ele>
        <time>2022-09-13T11:58:46.000Z</time>
      </trkpt>
      <trkpt lat="49.40536" lon="5.77489">
        <ele>329.39999389648</ele>
        <time>2022-09-13T11:58:47.000Z</time>
      </trkpt>
      <trkpt lat="49.40539" lon="5.77486">
        <ele>329.60000610352</ele>
        <time>2022-09-13T11:58:48.000Z</time>
      </trkpt>
      <trkpt lat="49.40542" lon="5.77482">
        <ele>329.60000610352</ele>
        <time>2022-09-13T11:58:49.000Z</time>
      </trkpt>
      <trkpt lat="49.40546" lon="5.77478">
        <ele>329.79998779297</ele>
        <time>2022-09-13T11:58:50.000Z</time>
      </trkpt>
      <trkpt lat="49.4055" lon="5.77474">
        <ele>330</ele>
        <time>2022-09-13T11:58:51.000Z</time>
      </trkpt>
      <trkpt lat="49.40554" lon="5.7747">
        <ele>330.20001220703</ele>
        <time>2022-09-13T11:58:52.000Z</time>
      </trkpt>
      <trkpt lat="49.40557" lon="5.77467">
        <ele>330.39999389648</ele>
        <time>2022-09-13T11:58:53.000Z</time>
      </trkpt>
      <trkpt lat="49.4056" lon="5.77463">
        <ele>330.60000610352</ele>
        <time>2022-09-13T11:58:54.000Z</time>
      </trkpt>
      <trkpt lat="49.40565" lon="5.77459">
        <ele>330.79998779297</ele>
        <time>2022-09-13T11:58:55.000Z</time>
      </trkpt>
      <trkpt lat="49.40569" lon="5.77455">
        <ele>331</ele>
        <time>2022-09-13T11:58:56.000Z</time>
      </trkpt>
      <trkpt lat="49.40573" lon="5.77451">
        <ele>331.20001220703</ele>
        <time>2022-09-13T11:58:57.000Z</time>
      </trkpt>
      <trkpt lat="49.40576" lon="5.77448">
        <ele>331.20001220703</ele>
        <time>2022-09-13T11:58:58.000Z</time>
      </trkpt>
      <trkpt lat="49.40581" lon="5.77442">
        <ele>331.39999389648</ele>
        <time>2022-09-13T11:58:59.000Z</time>
      </trkpt>
      <trkpt lat="49.40586" lon="5.77438">
        <ele>331.39999389648</ele>
        <time>2022-09-13T11:59:00.000Z</time>
      </trkpt>
      <trkpt lat="49.4059" lon="5.77434">
        <ele>331.60000610352</ele>
        <time>2022-09-13T11:59:01.000Z</time>
      </trkpt>
      <trkpt lat="49.40594" lon="5.77431">
        <ele>331.60000610352</ele>
        <time>2022-09-13T11:59:02.000Z</time>
      </trkpt>
      <trkpt lat="49.40598" lon="5.77427">
        <ele>331.60000610352</ele>
        <time>2022-09-13T11:59:03.000Z</time>
      </trkpt>
      <trkpt lat="49.40603" lon="5.77422">
        <ele>331.79998779297</ele>
        <time>2022-09-13T11:59:04.000Z</time>
      </trkpt>
      <trkpt lat="49.40607" lon="5.77418">
        <ele>331.79998779297</ele>
        <time>2022-09-13T11:59:05.000Z</time>
      </trkpt>
      <trkpt lat="49.40612" lon="5.77413">
        <ele>331.79998779297</ele>
        <time>2022-09-13T11:59:06.000Z</time>
      </trkpt>
      <trkpt lat="49.40616" lon="5.77408">
        <ele>331.79998779297</ele>
        <time>2022-09-13T11:59:07.000Z</time>
      </trkpt>
      <trkpt lat="49.40621" lon="5.77404">
        <ele>331.79998779297</ele>
        <time>2022-09-13T11:59:08.000Z</time>
      </trkpt>
      <trkpt lat="49.40625" lon="5.77399">
        <ele>331.79998779297</ele>
        <time>2022-09-13T11:59:09.000Z</time>
      </trkpt>
      <trkpt lat="49.40629" lon="5.77395">
        <ele>331.79998779297</ele>
        <time>2022-09-13T11:59:10.000Z</time>
      </trkpt>
      <trkpt lat="49.40633" lon="5.77391">
        <ele>332</ele>
        <time>2022-09-13T11:59:11.000Z</time>
      </trkpt>
      <trkpt lat="49.40636" lon="5.77387">
        <ele>332</ele>
        <time>2022-09-13T11:59:12.000Z</time>
      </trkpt>
      <trkpt lat="49.4064" lon="5.77383">
        <ele>332</ele>
        <time>2022-09-13T11:59:13.000Z</time>
      </trkpt>
      <trkpt lat="49.40645" lon="5.77378">
        <ele>332</ele>
        <time>2022-09-13T11:59:14.000Z</time>
      </trkpt>
      <trkpt lat="49.40684" lon="5.77339">
        <ele>332.39999389648</ele>
        <time>2022-09-13T11:59:23.000Z</time>
      </trkpt>
      <trkpt lat="49.40688" lon="5.77335">
        <ele>332.39999389648</ele>
        <time>2022-09-13T11:59:24.000Z</time>
      </trkpt>
      <trkpt lat="49.40692" lon="5.7733">
        <ele>332.60000610352</ele>
        <time>2022-09-13T11:59:25.000Z</time>
      </trkpt>
      <trkpt lat="49.40709" lon="5.77313">
        <ele>332.79998779297</ele>
        <time>2022-09-13T11:59:29.000Z</time>
      </trkpt>
      <trkpt lat="49.40717" lon="5.77305">
        <ele>332.79998779297</ele>
        <time>2022-09-13T11:59:31.000Z</time>
      </trkpt>
      <trkpt lat="49.40729" lon="5.77292">
        <ele>333.20001220703</ele>
        <time>2022-09-13T11:59:34.000Z</time>
      </trkpt>
      <trkpt lat="49.40732" lon="5.77288">
        <ele>333.39999389648</ele>
        <time>2022-09-13T11:59:35.000Z</time>
      </trkpt>
      <trkpt lat="49.4074" lon="5.77281">
        <ele>333.60000610352</ele>
        <time>2022-09-13T11:59:37.000Z</time>
      </trkpt>
      <trkpt lat="49.40744" lon="5.77277">
        <ele>333.60000610352</ele>
        <time>2022-09-13T11:59:38.000Z</time>
      </trkpt>
      <trkpt lat="49.40748" lon="5.77273">
        <ele>333.79998779297</ele>
        <time>2022-09-13T11:59:39.000Z</time>
      </trkpt>
      <trkpt lat="49.40751" lon="5.7727">
        <ele>333.79998779297</ele>
        <time>2022-09-13T11:59:40.000Z</time>
      </trkpt>
      <trkpt lat="49.40754" lon="5.77267">
        <ele>334</ele>
        <time>2022-09-13T11:59:41.000Z</time>
      </trkpt>
      <trkpt lat="49.40758" lon="5.77264">
        <ele>334</ele>
        <time>2022-09-13T11:59:42.000Z</time>
      </trkpt>
      <trkpt lat="49.40761" lon="5.77259">
        <ele>334</ele>
        <time>2022-09-13T11:59:43.000Z</time>
      </trkpt>
      <trkpt lat="49.40764" lon="5.77255">
        <ele>334</ele>
        <time>2022-09-13T11:59:44.000Z</time>
      </trkpt>
      <trkpt lat="49.40767" lon="5.7725">
        <ele>334</ele>
        <time>2022-09-13T11:59:45.000Z</time>
      </trkpt>
      <trkpt lat="49.40768" lon="5.77246">
        <ele>334</ele>
        <time>2022-09-13T11:59:46.000Z</time>
      </trkpt>
      <trkpt lat="49.4077" lon="5.77241">
        <ele>334</ele>
        <time>2022-09-13T11:59:47.000Z</time>
      </trkpt>
      <trkpt lat="49.40771" lon="5.77233">
        <ele>334</ele>
        <time>2022-09-13T11:59:48.000Z</time>
      </trkpt>
      <trkpt lat="49.40771" lon="5.77227">
        <ele>334</ele>
        <time>2022-09-13T11:59:49.000Z</time>
      </trkpt>
      <trkpt lat="49.40772" lon="5.7722">
        <ele>334</ele>
        <time>2022-09-13T11:59:50.000Z</time>
      </trkpt>
      <trkpt lat="49.40772" lon="5.77215">
        <ele>334</ele>
        <time>2022-09-13T11:59:51.000Z</time>
      </trkpt>
      <trkpt lat="49.40773" lon="5.77157">
        <ele>334.39999389648</ele>
        <time>2022-09-13T11:59:59.000Z</time>
      </trkpt>
      <trkpt lat="49.40774" lon="5.77105">
        <ele>334.39999389648</ele>
        <time>2022-09-13T12:00:06.000Z</time>
      </trkpt>
      <trkpt lat="49.40775" lon="5.77083">
        <ele>334.39999389648</ele>
        <time>2022-09-13T12:00:09.000Z</time>
      </trkpt>
      <trkpt lat="49.40777" lon="5.77032">
        <ele>333.20001220703</ele>
        <time>2022-09-13T12:00:16.000Z</time>
      </trkpt>
      <trkpt lat="49.40777" lon="5.77025">
        <ele>333</ele>
        <time>2022-09-13T12:00:17.000Z</time>
      </trkpt>
      <trkpt lat="49.40777" lon="5.77018">
        <ele>332.79998779297</ele>
        <time>2022-09-13T12:00:18.000Z</time>
      </trkpt>
      <trkpt lat="49.40774" lon="5.77005">
        <ele>332.79998779297</ele>
        <time>2022-09-13T12:00:20.000Z</time>
      </trkpt>
      <trkpt lat="49.40772" lon="5.76999">
        <ele>332.79998779297</ele>
        <time>2022-09-13T12:00:21.000Z</time>
      </trkpt>
      <trkpt lat="49.40769" lon="5.76993">
        <ele>332.79998779297</ele>
        <time>2022-09-13T12:00:22.000Z</time>
      </trkpt>
      <trkpt lat="49.40765" lon="5.76987">
        <ele>332.60000610352</ele>
        <time>2022-09-13T12:00:23.000Z</time>
      </trkpt>
      <trkpt lat="49.40761" lon="5.76982">
        <ele>332.60000610352</ele>
        <time>2022-09-13T12:00:24.000Z</time>
      </trkpt>
      <trkpt lat="49.40756" lon="5.76975">
        <ele>332.60000610352</ele>
        <time>2022-09-13T12:00:25.000Z</time>
      </trkpt>
      <trkpt lat="49.40753" lon="5.76968">
        <ele>332.60000610352</ele>
        <time>2022-09-13T12:00:26.000Z</time>
      </trkpt>
      <trkpt lat="49.40751" lon="5.76961">
        <ele>332.60000610352</ele>
        <time>2022-09-13T12:00:27.000Z</time>
      </trkpt>
      <trkpt lat="49.40751" lon="5.76953">
        <ele>332.60000610352</ele>
        <time>2022-09-13T12:00:28.000Z</time>
      </trkpt>
      <trkpt lat="49.40752" lon="5.76946">
        <ele>332.39999389648</ele>
        <time>2022-09-13T12:00:29.000Z</time>
      </trkpt>
      <trkpt lat="49.40755" lon="5.76939">
        <ele>332.20001220703</ele>
        <time>2022-09-13T12:00:30.000Z</time>
      </trkpt>
      <trkpt lat="49.40759" lon="5.76934">
        <ele>332</ele>
        <time>2022-09-13T12:00:31.000Z</time>
      </trkpt>
      <trkpt lat="49.40769" lon="5.76926">
        <ele>331.20001220703</ele>
        <time>2022-09-13T12:00:33.000Z</time>
      </trkpt>
      <trkpt lat="49.40773" lon="5.76922">
        <ele>330.79998779297</ele>
        <time>2022-09-13T12:00:34.000Z</time>
      </trkpt>
      <trkpt lat="49.40777" lon="5.76919">
        <ele>330.60000610352</ele>
        <time>2022-09-13T12:00:35.000Z</time>
      </trkpt>
      <trkpt lat="49.40781" lon="5.76917">
        <ele>330.60000610352</ele>
        <time>2022-09-13T12:00:36.000Z</time>
      </trkpt>
      <trkpt lat="49.40785" lon="5.76914">
        <ele>330.39999389648</ele>
        <time>2022-09-13T12:00:37.000Z</time>
      </trkpt>
      <trkpt lat="49.40789" lon="5.76911">
        <ele>330.39999389648</ele>
        <time>2022-09-13T12:00:38.000Z</time>
      </trkpt>
      <trkpt lat="49.40793" lon="5.76908">
        <ele>330.39999389648</ele>
        <time>2022-09-13T12:00:39.000Z</time>
      </trkpt>
      <trkpt lat="49.40796" lon="5.76905">
        <ele>330.39999389648</ele>
        <time>2022-09-13T12:00:40.000Z</time>
      </trkpt>
      <trkpt lat="49.40803" lon="5.76898">
        <ele>330.39999389648</ele>
        <time>2022-09-13T12:00:42.000Z</time>
      </trkpt>
      <trkpt lat="49.40806" lon="5.76894">
        <ele>330.39999389648</ele>
        <time>2022-09-13T12:00:43.000Z</time>
      </trkpt>
      <trkpt lat="49.40809" lon="5.76891">
        <ele>330.60000610352</ele>
        <time>2022-09-13T12:00:44.000Z</time>
      </trkpt>
      <trkpt lat="49.40812" lon="5.76888">
        <ele>330.60000610352</ele>
        <time>2022-09-13T12:00:45.000Z</time>
      </trkpt>
      <trkpt lat="49.40815" lon="5.76885">
        <ele>330.60000610352</ele>
        <time>2022-09-13T12:00:46.000Z</time>
      </trkpt>
      <trkpt lat="49.40819" lon="5.76882">
        <ele>330.60000610352</ele>
        <time>2022-09-13T12:00:47.000Z</time>
      </trkpt>
      <trkpt lat="49.40838" lon="5.76858">
        <ele>330.60000610352</ele>
        <time>2022-09-13T12:00:53.000Z</time>
      </trkpt>
      <trkpt lat="49.40839" lon="5.76852">
        <ele>330.60000610352</ele>
        <time>2022-09-13T12:00:54.000Z</time>
      </trkpt>
      <trkpt lat="49.40841" lon="5.76847">
        <ele>330.39999389648</ele>
        <time>2022-09-13T12:00:55.000Z</time>
      </trkpt>
      <trkpt lat="49.40841" lon="5.7684">
        <ele>330.39999389648</ele>
        <time>2022-09-13T12:00:56.000Z</time>
      </trkpt>
      <trkpt lat="49.4084" lon="5.76834">
        <ele>330.39999389648</ele>
        <time>2022-09-13T12:00:57.000Z</time>
      </trkpt>
      <trkpt lat="49.40838" lon="5.76827">
        <ele>330.20001220703</ele>
        <time>2022-09-13T12:00:58.000Z</time>
      </trkpt>
      <trkpt lat="49.40836" lon="5.76819">
        <ele>330.20001220703</ele>
        <time>2022-09-13T12:00:59.000Z</time>
      </trkpt>
      <trkpt lat="49.40834" lon="5.76811">
        <ele>330</ele>
        <time>2022-09-13T12:01:00.000Z</time>
      </trkpt>
      <trkpt lat="49.4083" lon="5.76794">
        <ele>329.60000610352</ele>
        <time>2022-09-13T12:01:02.000Z</time>
      </trkpt>
      <trkpt lat="49.40823" lon="5.76768">
        <ele>328.39999389648</ele>
        <time>2022-09-13T12:01:05.000Z</time>
      </trkpt>
      <trkpt lat="49.40821" lon="5.76759">
        <ele>328.20001220703</ele>
        <time>2022-09-13T12:01:06.000Z</time>
      </trkpt>
      <trkpt lat="49.4082" lon="5.76739">
        <ele>327.60000610352</ele>
        <time>2022-09-13T12:01:08.000Z</time>
      </trkpt>
      <trkpt lat="49.40822" lon="5.7673">
        <ele>327.39999389648</ele>
        <time>2022-09-13T12:01:09.000Z</time>
      </trkpt>
      <trkpt lat="49.40825" lon="5.76723">
        <ele>327.20001220703</ele>
        <time>2022-09-13T12:01:10.000Z</time>
      </trkpt>
      <trkpt lat="49.40829" lon="5.76716">
        <ele>327</ele>
        <time>2022-09-13T12:01:11.000Z</time>
      </trkpt>
      <trkpt lat="49.40832" lon="5.76709">
        <ele>327</ele>
        <time>2022-09-13T12:01:12.000Z</time>
      </trkpt>
      <trkpt lat="49.40836" lon="5.76703">
        <ele>326.79998779297</ele>
        <time>2022-09-13T12:01:13.000Z</time>
      </trkpt>
      <trkpt lat="49.40839" lon="5.76698">
        <ele>326.79998779297</ele>
        <time>2022-09-13T12:01:14.000Z</time>
      </trkpt>
      <trkpt lat="49.40841" lon="5.76692">
        <ele>326.79998779297</ele>
        <time>2022-09-13T12:01:15.000Z</time>
      </trkpt>
      <trkpt lat="49.40843" lon="5.76687">
        <ele>326.79998779297</ele>
        <time>2022-09-13T12:01:16.000Z</time>
      </trkpt>
      <trkpt lat="49.40846" lon="5.76682">
        <ele>326.79998779297</ele>
        <time>2022-09-13T12:01:17.000Z</time>
      </trkpt>
      <trkpt lat="49.40848" lon="5.76676">
        <ele>327</ele>
        <time>2022-09-13T12:01:18.000Z</time>
      </trkpt>
      <trkpt lat="49.40855" lon="5.76668">
        <ele>327</ele>
        <time>2022-09-13T12:01:20.000Z</time>
      </trkpt>
      <trkpt lat="49.40858" lon="5.76665">
        <ele>327.20001220703</ele>
        <time>2022-09-13T12:01:21.000Z</time>
      </trkpt>
      <trkpt lat="49.4086" lon="5.76665">
        <ele>327.20001220703</ele>
        <time>2022-09-13T12:01:22.000Z</time>
      </trkpt>
      <trkpt lat="49.40861" lon="5.76665">
        <ele>327.20001220703</ele>
        <time>2022-09-13T12:01:23.000Z</time>
      </trkpt>
      <trkpt lat="49.40863" lon="5.76665">
        <ele>327.39999389648</ele>
        <time>2022-09-13T12:01:24.000Z</time>
      </trkpt>
      <trkpt lat="49.40865" lon="5.76664">
        <ele>327.39999389648</ele>
        <time>2022-09-13T12:01:25.000Z</time>
      </trkpt>
      <trkpt lat="49.40867" lon="5.76663">
        <ele>327.60000610352</ele>
        <time>2022-09-13T12:01:26.000Z</time>
      </trkpt>
      <trkpt lat="49.4087" lon="5.76662">
        <ele>327.60000610352</ele>
        <time>2022-09-13T12:01:27.000Z</time>
      </trkpt>
      <trkpt lat="49.40872" lon="5.76661">
        <ele>327.79998779297</ele>
        <time>2022-09-13T12:01:28.000Z</time>
      </trkpt>
      <trkpt lat="49.40877" lon="5.7666">
        <ele>328.20001220703</ele>
        <time>2022-09-13T12:01:30.000Z</time>
      </trkpt>
      <trkpt lat="49.40888" lon="5.7666">
        <ele>328.60000610352</ele>
        <time>2022-09-13T12:01:34.000Z</time>
      </trkpt>
      <trkpt lat="49.40896" lon="5.76663">
        <ele>329.20001220703</ele>
        <time>2022-09-13T12:01:37.000Z</time>
      </trkpt>
      <trkpt lat="49.40901" lon="5.76663">
        <ele>329.60000610352</ele>
        <time>2022-09-13T12:01:39.000Z</time>
      </trkpt>
      <trkpt lat="49.40915" lon="5.76663">
        <ele>330.79998779297</ele>
        <time>2022-09-13T12:01:44.000Z</time>
      </trkpt>
      <trkpt lat="49.40918" lon="5.76663">
        <ele>331</ele>
        <time>2022-09-13T12:01:45.000Z</time>
      </trkpt>
      <trkpt lat="49.40921" lon="5.76662">
        <ele>331.20001220703</ele>
        <time>2022-09-13T12:01:46.000Z</time>
      </trkpt>
      <trkpt lat="49.40923" lon="5.76661">
        <ele>331.20001220703</ele>
        <time>2022-09-13T12:01:47.000Z</time>
      </trkpt>
      <trkpt lat="49.40926" lon="5.76659">
        <ele>331.39999389648</ele>
        <time>2022-09-13T12:01:48.000Z</time>
      </trkpt>
      <trkpt lat="49.40927" lon="5.76657">
        <ele>331.39999389648</ele>
        <time>2022-09-13T12:01:49.000Z</time>
      </trkpt>
      <trkpt lat="49.40929" lon="5.76653">
        <ele>331.39999389648</ele>
        <time>2022-09-13T12:01:50.000Z</time>
      </trkpt>
      <trkpt lat="49.40929" lon="5.7665">
        <ele>331.39999389648</ele>
        <time>2022-09-13T12:01:51.000Z</time>
      </trkpt>
      <trkpt lat="49.4093" lon="5.76646">
        <ele>331.60000610352</ele>
        <time>2022-09-13T12:01:52.000Z</time>
      </trkpt>
      <trkpt lat="49.40929" lon="5.76642">
        <ele>331.79998779297</ele>
        <time>2022-09-13T12:01:53.000Z</time>
      </trkpt>
      <trkpt lat="49.40929" lon="5.76638">
        <ele>331.60000610352</ele>
        <time>2022-09-13T12:01:54.000Z</time>
      </trkpt>
      <trkpt lat="49.40929" lon="5.76632">
        <ele>331.79998779297</ele>
        <time>2022-09-13T12:01:55.000Z</time>
      </trkpt>
      <trkpt lat="49.40929" lon="5.76627">
        <ele>331.60000610352</ele>
        <time>2022-09-13T12:01:56.000Z</time>
      </trkpt>
      <trkpt lat="49.40928" lon="5.76622">
        <ele>331.39999389648</ele>
        <time>2022-09-13T12:01:57.000Z</time>
      </trkpt>
      <trkpt lat="49.40928" lon="5.76616">
        <ele>331.20001220703</ele>
        <time>2022-09-13T12:01:58.000Z</time>
      </trkpt>
      <trkpt lat="49.40928" lon="5.76612">
        <ele>331.39999389648</ele>
        <time>2022-09-13T12:01:59.000Z</time>
      </trkpt>
      <trkpt lat="49.40927" lon="5.76605">
        <ele>331</ele>
        <time>2022-09-13T12:02:00.000Z</time>
      </trkpt>
      <trkpt lat="49.40926" lon="5.76599">
        <ele>331</ele>
        <time>2022-09-13T12:02:01.000Z</time>
      </trkpt>
      <trkpt lat="49.40925" lon="5.76593">
        <ele>331</ele>
        <time>2022-09-13T12:02:02.000Z</time>
      </trkpt>
      <trkpt lat="49.40918" lon="5.76568">
        <ele>330.60000610352</ele>
        <time>2022-09-13T12:02:06.000Z</time>
      </trkpt>
      <trkpt lat="49.40915" lon="5.76556">
        <ele>330.60000610352</ele>
        <time>2022-09-13T12:02:08.000Z</time>
      </trkpt>
      <trkpt lat="49.40914" lon="5.76551">
        <ele>330.39999389648</ele>
        <time>2022-09-13T12:02:09.000Z</time>
      </trkpt>
      <trkpt lat="49.40912" lon="5.76546">
        <ele>330.39999389648</ele>
        <time>2022-09-13T12:02:10.000Z</time>
      </trkpt>
      <trkpt lat="49.40907" lon="5.76531">
        <ele>330.20001220703</ele>
        <time>2022-09-13T12:02:13.000Z</time>
      </trkpt>
      <trkpt lat="49.40905" lon="5.76526">
        <ele>330.20001220703</ele>
        <time>2022-09-13T12:02:14.000Z</time>
      </trkpt>
      <trkpt lat="49.40904" lon="5.76521">
        <ele>330.20001220703</ele>
        <time>2022-09-13T12:02:15.000Z</time>
      </trkpt>
      <trkpt lat="49.40903" lon="5.76516">
        <ele>330.20001220703</ele>
        <time>2022-09-13T12:02:16.000Z</time>
      </trkpt>
      <trkpt lat="49.40903" lon="5.76511">
        <ele>330.20001220703</ele>
        <time>2022-09-13T12:02:17.000Z</time>
      </trkpt>
      <trkpt lat="49.40904" lon="5.76507">
        <ele>330.39999389648</ele>
        <time>2022-09-13T12:02:18.000Z</time>
      </trkpt>
      <trkpt lat="49.40905" lon="5.76502">
        <ele>330.60000610352</ele>
        <time>2022-09-13T12:02:19.000Z</time>
      </trkpt>
      <trkpt lat="49.40906" lon="5.76499">
        <ele>330.60000610352</ele>
        <time>2022-09-13T12:02:20.000Z</time>
      </trkpt>
      <trkpt lat="49.40907" lon="5.76496">
        <ele>330.79998779297</ele>
        <time>2022-09-13T12:02:21.000Z</time>
      </trkpt>
      <trkpt lat="49.40909" lon="5.76492">
        <ele>331</ele>
        <time>2022-09-13T12:02:22.000Z</time>
      </trkpt>
      <trkpt lat="49.40911" lon="5.76488">
        <ele>331</ele>
        <time>2022-09-13T12:02:23.000Z</time>
      </trkpt>
      <trkpt lat="49.40913" lon="5.76484">
        <ele>331.20001220703</ele>
        <time>2022-09-13T12:02:24.000Z</time>
      </trkpt>
      <trkpt lat="49.40919" lon="5.7646">
        <ele>332</ele>
        <time>2022-09-13T12:02:29.000Z</time>
      </trkpt>
      <trkpt lat="49.4092" lon="5.7645">
        <ele>332.39999389648</ele>
        <time>2022-09-13T12:02:31.000Z</time>
      </trkpt>
      <trkpt lat="49.40924" lon="5.76416">
        <ele>333</ele>
        <time>2022-09-13T12:02:38.000Z</time>
      </trkpt>
      <trkpt lat="49.40925" lon="5.76404">
        <ele>333.39999389648</ele>
        <time>2022-09-13T12:02:40.000Z</time>
      </trkpt>
      <trkpt lat="49.40928" lon="5.76367">
        <ele>334</ele>
        <time>2022-09-13T12:02:47.000Z</time>
      </trkpt>
      <trkpt lat="49.40928" lon="5.76355">
        <ele>334.39999389648</ele>
        <time>2022-09-13T12:02:49.000Z</time>
      </trkpt>
      <trkpt lat="49.40928" lon="5.76349">
        <ele>334.39999389648</ele>
        <time>2022-09-13T12:02:50.000Z</time>
      </trkpt>
      <trkpt lat="49.40928" lon="5.76344">
        <ele>334.60000610352</ele>
        <time>2022-09-13T12:02:51.000Z</time>
      </trkpt>
      <trkpt lat="49.40928" lon="5.76339">
        <ele>334.60000610352</ele>
        <time>2022-09-13T12:02:52.000Z</time>
      </trkpt>
      <trkpt lat="49.40928" lon="5.76333">
        <ele>334.79998779297</ele>
        <time>2022-09-13T12:02:53.000Z</time>
      </trkpt>
      <trkpt lat="49.40928" lon="5.76327">
        <ele>335</ele>
        <time>2022-09-13T12:02:54.000Z</time>
      </trkpt>
      <trkpt lat="49.40928" lon="5.76322">
        <ele>335</ele>
        <time>2022-09-13T12:02:55.000Z</time>
      </trkpt>
      <trkpt lat="49.40928" lon="5.76317">
        <ele>335.20001220703</ele>
        <time>2022-09-13T12:02:56.000Z</time>
      </trkpt>
      <trkpt lat="49.40928" lon="5.76311">
        <ele>335.20001220703</ele>
        <time>2022-09-13T12:02:57.000Z</time>
      </trkpt>
      <trkpt lat="49.40928" lon="5.76305">
        <ele>335.39999389648</ele>
        <time>2022-09-13T12:02:58.000Z</time>
      </trkpt>
      <trkpt lat="49.40928" lon="5.763">
        <ele>335.39999389648</ele>
        <time>2022-09-13T12:02:59.000Z</time>
      </trkpt>
      <trkpt lat="49.40928" lon="5.76295">
        <ele>335.39999389648</ele>
        <time>2022-09-13T12:03:00.000Z</time>
      </trkpt>
      <trkpt lat="49.40928" lon="5.76291">
        <ele>335.60000610352</ele>
        <time>2022-09-13T12:03:01.000Z</time>
      </trkpt>
      <trkpt lat="49.40928" lon="5.76286">
        <ele>335.60000610352</ele>
        <time>2022-09-13T12:03:02.000Z</time>
      </trkpt>
      <trkpt lat="49.40928" lon="5.76283">
        <ele>335.79998779297</ele>
        <time>2022-09-13T12:03:03.000Z</time>
      </trkpt>
      <trkpt lat="49.40929" lon="5.76279">
        <ele>335.79998779297</ele>
        <time>2022-09-13T12:03:04.000Z</time>
      </trkpt>
      <trkpt lat="49.4093" lon="5.76275">
        <ele>335.79998779297</ele>
        <time>2022-09-13T12:03:05.000Z</time>
      </trkpt>
      <trkpt lat="49.40932" lon="5.76271">
        <ele>335.79998779297</ele>
        <time>2022-09-13T12:03:06.000Z</time>
      </trkpt>
      <trkpt lat="49.40934" lon="5.76266">
        <ele>335.79998779297</ele>
        <time>2022-09-13T12:03:07.000Z</time>
      </trkpt>
      <trkpt lat="49.40936" lon="5.76261">
        <ele>335.79998779297</ele>
        <time>2022-09-13T12:03:08.000Z</time>
      </trkpt>
      <trkpt lat="49.40939" lon="5.76257">
        <ele>336</ele>
        <time>2022-09-13T12:03:09.000Z</time>
      </trkpt>
      <trkpt lat="49.40952" lon="5.76242">
        <ele>336.20001220703</ele>
        <time>2022-09-13T12:03:14.000Z</time>
      </trkpt>
      <trkpt lat="49.40959" lon="5.76233">
        <ele>336.20001220703</ele>
        <time>2022-09-13T12:03:17.000Z</time>
      </trkpt>
      <trkpt lat="49.40962" lon="5.76229">
        <ele>336.39999389648</ele>
        <time>2022-09-13T12:03:18.000Z</time>
      </trkpt>
      <trkpt lat="49.40968" lon="5.76219">
        <ele>336.60000610352</ele>
        <time>2022-09-13T12:03:21.000Z</time>
      </trkpt>
      <trkpt lat="49.40971" lon="5.76214">
        <ele>336.60000610352</ele>
        <time>2022-09-13T12:03:22.000Z</time>
      </trkpt>
      <trkpt lat="49.40993" lon="5.76183">
        <ele>337.79998779297</ele>
        <time>2022-09-13T12:03:31.000Z</time>
      </trkpt>
      <trkpt lat="49.40996" lon="5.7618">
        <ele>337.79998779297</ele>
        <time>2022-09-13T12:03:32.000Z</time>
      </trkpt>
      <trkpt lat="49.41019" lon="5.76154">
        <ele>337.79998779297</ele>
        <time>2022-09-13T12:03:40.000Z</time>
      </trkpt>
      <trkpt lat="49.41044" lon="5.76121">
        <ele>338.20001220703</ele>
        <time>2022-09-13T12:03:48.000Z</time>
      </trkpt>
      <trkpt lat="49.41062" lon="5.76099">
        <ele>338.60000610352</ele>
        <time>2022-09-13T12:03:54.000Z</time>
      </trkpt>
      <trkpt lat="49.41078" lon="5.76078">
        <ele>339</ele>
        <time>2022-09-13T12:03:59.000Z</time>
      </trkpt>
      <trkpt lat="49.41101" lon="5.76043">
        <ele>339.20001220703</ele>
        <time>2022-09-13T12:04:07.000Z</time>
      </trkpt>
      <trkpt lat="49.41116" lon="5.76014">
        <ele>339.79998779297</ele>
        <time>2022-09-13T12:04:13.000Z</time>
      </trkpt>
      <trkpt lat="49.4112" lon="5.76001">
        <ele>340</ele>
        <time>2022-09-13T12:04:15.000Z</time>
      </trkpt>
      <trkpt lat="49.41124" lon="5.75985">
        <ele>340.20001220703</ele>
        <time>2022-09-13T12:04:18.000Z</time>
      </trkpt>
      <trkpt lat="49.41129" lon="5.75959">
        <ele>340.60000610352</ele>
        <time>2022-09-13T12:04:22.000Z</time>
      </trkpt>
      <trkpt lat="49.41134" lon="5.75925">
        <ele>341</ele>
        <time>2022-09-13T12:04:27.000Z</time>
      </trkpt>
      <trkpt lat="49.41136" lon="5.75912">
        <ele>341.39999389648</ele>
        <time>2022-09-13T12:04:29.000Z</time>
      </trkpt>
      <trkpt lat="49.41138" lon="5.75897">
        <ele>341.60000610352</ele>
        <time>2022-09-13T12:04:31.000Z</time>
      </trkpt>
      <trkpt lat="49.41143" lon="5.75863">
        <ele>341.60000610352</ele>
        <time>2022-09-13T12:04:36.000Z</time>
      </trkpt>
      <trkpt lat="49.41146" lon="5.75852">
        <ele>341.39999389648</ele>
        <time>2022-09-13T12:04:38.000Z</time>
      </trkpt>
      <trkpt lat="49.41148" lon="5.75847">
        <ele>341.39999389648</ele>
        <time>2022-09-13T12:04:39.000Z</time>
      </trkpt>
      <trkpt lat="49.41152" lon="5.75842">
        <ele>341.20001220703</ele>
        <time>2022-09-13T12:04:40.000Z</time>
      </trkpt>
      <trkpt lat="49.41156" lon="5.75838">
        <ele>341.20001220703</ele>
        <time>2022-09-13T12:04:41.000Z</time>
      </trkpt>
      <trkpt lat="49.41159" lon="5.75836">
        <ele>341.20001220703</ele>
        <time>2022-09-13T12:04:42.000Z</time>
      </trkpt>
      <trkpt lat="49.41163" lon="5.75834">
        <ele>341</ele>
        <time>2022-09-13T12:04:43.000Z</time>
      </trkpt>
      <trkpt lat="49.41168" lon="5.75832">
        <ele>341</ele>
        <time>2022-09-13T12:04:44.000Z</time>
      </trkpt>
      <trkpt lat="49.41172" lon="5.7583">
        <ele>340.79998779297</ele>
        <time>2022-09-13T12:04:45.000Z</time>
      </trkpt>
      <trkpt lat="49.41175" lon="5.75828">
        <ele>340.79998779297</ele>
        <time>2022-09-13T12:04:46.000Z</time>
      </trkpt>
      <trkpt lat="49.41178" lon="5.75826">
        <ele>340.60000610352</ele>
        <time>2022-09-13T12:04:47.000Z</time>
      </trkpt>
      <trkpt lat="49.41182" lon="5.75823">
        <ele>340.60000610352</ele>
        <time>2022-09-13T12:04:48.000Z</time>
      </trkpt>
      <trkpt lat="49.41186" lon="5.7582">
        <ele>340.60000610352</ele>
        <time>2022-09-13T12:04:49.000Z</time>
      </trkpt>
      <trkpt lat="49.4119" lon="5.75818">
        <ele>340.60000610352</ele>
        <time>2022-09-13T12:04:50.000Z</time>
      </trkpt>
      <trkpt lat="49.41194" lon="5.75816">
        <ele>340.60000610352</ele>
        <time>2022-09-13T12:04:51.000Z</time>
      </trkpt>
      <trkpt lat="49.41197" lon="5.75814">
        <ele>340.60000610352</ele>
        <time>2022-09-13T12:04:52.000Z</time>
      </trkpt>
      <trkpt lat="49.412" lon="5.75811">
        <ele>340.60000610352</ele>
        <time>2022-09-13T12:04:53.000Z</time>
      </trkpt>
      <trkpt lat="49.41216" lon="5.75801">
        <ele>340.39999389648</ele>
        <time>2022-09-13T12:04:57.000Z</time>
      </trkpt>
      <trkpt lat="49.41242" lon="5.75786">
        <ele>340.20001220703</ele>
        <time>2022-09-13T12:05:04.000Z</time>
      </trkpt>
      <trkpt lat="49.41245" lon="5.75784">
        <ele>340.20001220703</ele>
        <time>2022-09-13T12:05:05.000Z</time>
      </trkpt>
      <trkpt lat="49.41256" lon="5.75776">
        <ele>340.39999389648</ele>
        <time>2022-09-13T12:05:08.000Z</time>
      </trkpt>
      <trkpt lat="49.41259" lon="5.75774">
        <ele>340.60000610352</ele>
        <time>2022-09-13T12:05:09.000Z</time>
      </trkpt>
      <trkpt lat="49.41263" lon="5.75772">
        <ele>340.60000610352</ele>
        <time>2022-09-13T12:05:10.000Z</time>
      </trkpt>
      <trkpt lat="49.41265" lon="5.75771">
        <ele>340.79998779297</ele>
        <time>2022-09-13T12:05:11.000Z</time>
      </trkpt>
      <trkpt lat="49.4128" lon="5.75762">
        <ele>341.39999389648</ele>
        <time>2022-09-13T12:05:15.000Z</time>
      </trkpt>
      <trkpt lat="49.41286" lon="5.75758">
        <ele>341.60000610352</ele>
        <time>2022-09-13T12:05:17.000Z</time>
      </trkpt>
      <trkpt lat="49.4129" lon="5.75755">
        <ele>341.60000610352</ele>
        <time>2022-09-13T12:05:18.000Z</time>
      </trkpt>
      <trkpt lat="49.41293" lon="5.75754">
        <ele>341.60000610352</ele>
        <time>2022-09-13T12:05:19.000Z</time>
      </trkpt>
      <trkpt lat="49.41296" lon="5.75755">
        <ele>341.60000610352</ele>
        <time>2022-09-13T12:05:20.000Z</time>
      </trkpt>
      <trkpt lat="49.41297" lon="5.75757">
        <ele>341.60000610352</ele>
        <time>2022-09-13T12:05:21.000Z</time>
      </trkpt>
      <trkpt lat="49.41299" lon="5.7576">
        <ele>341.60000610352</ele>
        <time>2022-09-13T12:05:22.000Z</time>
      </trkpt>
      <trkpt lat="49.413" lon="5.7577">
        <ele>341.60000610352</ele>
        <time>2022-09-13T12:05:24.000Z</time>
      </trkpt>
      <trkpt lat="49.41301" lon="5.75775">
        <ele>341.60000610352</ele>
        <time>2022-09-13T12:05:25.000Z</time>
      </trkpt>
      <trkpt lat="49.41302" lon="5.75778">
        <ele>341.60000610352</ele>
        <time>2022-09-13T12:05:26.000Z</time>
      </trkpt>
      <trkpt lat="49.4131" lon="5.75816">
        <ele>341.60000610352</ele>
        <time>2022-09-13T12:05:34.000Z</time>
      </trkpt>
      <trkpt lat="49.4132" lon="5.75855">
        <ele>342.60000610352</ele>
        <time>2022-09-13T12:05:42.000Z</time>
      </trkpt>
      <trkpt lat="49.41321" lon="5.75859">
        <ele>342.79998779297</ele>
        <time>2022-09-13T12:05:43.000Z</time>
      </trkpt>
      <trkpt lat="49.41323" lon="5.7587">
        <ele>342.79998779297</ele>
        <time>2022-09-13T12:05:46.000Z</time>
      </trkpt>
      <trkpt lat="49.41324" lon="5.75873">
        <ele>343</ele>
        <time>2022-09-13T12:05:47.000Z</time>
      </trkpt>
      <trkpt lat="49.41324" lon="5.75876">
        <ele>343.20001220703</ele>
        <time>2022-09-13T12:05:48.000Z</time>
      </trkpt>
      <trkpt lat="49.41325" lon="5.7588">
        <ele>343.20001220703</ele>
        <time>2022-09-13T12:05:49.000Z</time>
      </trkpt>
      <trkpt lat="49.41326" lon="5.75883">
        <ele>343.20001220703</ele>
        <time>2022-09-13T12:05:50.000Z</time>
      </trkpt>
      <trkpt lat="49.41327" lon="5.75888">
        <ele>343.20001220703</ele>
        <time>2022-09-13T12:05:52.000Z</time>
      </trkpt>
      <trkpt lat="49.41328" lon="5.75891">
        <ele>343.20001220703</ele>
        <time>2022-09-13T12:05:53.000Z</time>
      </trkpt>
      <trkpt lat="49.41329" lon="5.75893">
        <ele>343.39999389648</ele>
        <time>2022-09-13T12:05:54.000Z</time>
      </trkpt>
      <trkpt lat="49.41329" lon="5.75895">
        <ele>343.39999389648</ele>
        <time>2022-09-13T12:05:55.000Z</time>
      </trkpt>
      <trkpt lat="49.41331" lon="5.75896">
        <ele>343.39999389648</ele>
        <time>2022-09-13T12:05:56.000Z</time>
      </trkpt>
      <trkpt lat="49.41333" lon="5.75895">
        <ele>343.39999389648</ele>
        <time>2022-09-13T12:05:57.000Z</time>
      </trkpt>
      <trkpt lat="49.41336" lon="5.75894">
        <ele>343.39999389648</ele>
        <time>2022-09-13T12:05:58.000Z</time>
      </trkpt>
      <trkpt lat="49.41346" lon="5.75891">
        <ele>343.39999389648</ele>
        <time>2022-09-13T12:06:02.000Z</time>
      </trkpt>
      <trkpt lat="49.41349" lon="5.75891">
        <ele>343.39999389648</ele>
        <time>2022-09-13T12:06:03.000Z</time>
      </trkpt>
      <trkpt lat="49.41351" lon="5.75892">
        <ele>343.39999389648</ele>
        <time>2022-09-13T12:06:04.000Z</time>
      </trkpt>
      <trkpt lat="49.41355" lon="5.75893">
        <ele>343.39999389648</ele>
        <time>2022-09-13T12:06:05.000Z</time>
      </trkpt>
      <trkpt lat="49.41367" lon="5.75897">
        <ele>343.20001220703</ele>
        <time>2022-09-13T12:06:09.000Z</time>
      </trkpt>
      <trkpt lat="49.4137" lon="5.75897">
        <ele>343.20001220703</ele>
        <time>2022-09-13T12:06:10.000Z</time>
      </trkpt>
      <trkpt lat="49.41377" lon="5.75898">
        <ele>343.39999389648</ele>
        <time>2022-09-13T12:06:12.000Z</time>
      </trkpt>
      <trkpt lat="49.4138" lon="5.75898">
        <ele>343.39999389648</ele>
        <time>2022-09-13T12:06:13.000Z</time>
      </trkpt>
      <trkpt lat="49.41383" lon="5.75898">
        <ele>343.39999389648</ele>
        <time>2022-09-13T12:06:14.000Z</time>
      </trkpt>
      <trkpt lat="49.41386" lon="5.75901">
        <ele>343.39999389648</ele>
        <time>2022-09-13T12:06:15.000Z</time>
      </trkpt>
      <trkpt lat="49.41392" lon="5.759">
        <ele>343.60000610352</ele>
        <time>2022-09-13T12:06:16.000Z</time>
      </trkpt>
      <trkpt lat="49.41398" lon="5.75899">
        <ele>343.60000610352</ele>
        <time>2022-09-13T12:06:17.000Z</time>
      </trkpt>
      <trkpt lat="49.41405" lon="5.75898">
        <ele>343.79998779297</ele>
        <time>2022-09-13T12:06:18.000Z</time>
      </trkpt>
      <trkpt lat="49.4141" lon="5.75897">
        <ele>343.79998779297</ele>
        <time>2022-09-13T12:06:19.000Z</time>
      </trkpt>
      <trkpt lat="49.41414" lon="5.75897">
        <ele>343.79998779297</ele>
        <time>2022-09-13T12:06:20.000Z</time>
      </trkpt>
      <trkpt lat="49.41422" lon="5.75898">
        <ele>344</ele>
        <time>2022-09-13T12:06:22.000Z</time>
      </trkpt>
      <trkpt lat="49.41438" lon="5.75903">
        <ele>344.20001220703</ele>
        <time>2022-09-13T12:06:26.000Z</time>
      </trkpt>
      <trkpt lat="49.41442" lon="5.75903">
        <ele>344.20001220703</ele>
        <time>2022-09-13T12:06:27.000Z</time>
      </trkpt>
      <trkpt lat="49.41444" lon="5.75902">
        <ele>344.20001220703</ele>
        <time>2022-09-13T12:06:28.000Z</time>
      </trkpt>
      <trkpt lat="49.41447" lon="5.75901">
        <ele>344.20001220703</ele>
        <time>2022-09-13T12:06:29.000Z</time>
      </trkpt>
      <trkpt lat="49.41451" lon="5.759">
        <ele>344.20001220703</ele>
        <time>2022-09-13T12:06:30.000Z</time>
      </trkpt>
      <trkpt lat="49.41468" lon="5.759">
        <ele>344.20001220703</ele>
        <time>2022-09-13T12:06:34.000Z</time>
      </trkpt>
      <trkpt lat="49.41473" lon="5.75899">
        <ele>344.20001220703</ele>
        <time>2022-09-13T12:06:35.000Z</time>
      </trkpt>
      <trkpt lat="49.41479" lon="5.759">
        <ele>344.20001220703</ele>
        <time>2022-09-13T12:06:36.000Z</time>
      </trkpt>
      <trkpt lat="49.41498" lon="5.75894">
        <ele>344.60000610352</ele>
        <time>2022-09-13T12:06:41.000Z</time>
      </trkpt>
      <trkpt lat="49.415" lon="5.75894">
        <ele>344.79998779297</ele>
        <time>2022-09-13T12:06:42.000Z</time>
      </trkpt>
      <trkpt lat="49.41503" lon="5.75893">
        <ele>344.79998779297</ele>
        <time>2022-09-13T12:06:43.000Z</time>
      </trkpt>
      <trkpt lat="49.41513" lon="5.75891">
        <ele>345.20001220703</ele>
        <time>2022-09-13T12:06:46.000Z</time>
      </trkpt>
      <trkpt lat="49.41525" lon="5.75885">
        <ele>346</ele>
        <time>2022-09-13T12:06:50.000Z</time>
      </trkpt>
      <trkpt lat="49.41532" lon="5.75882">
        <ele>346.39999389648</ele>
        <time>2022-09-13T12:06:52.000Z</time>
      </trkpt>
      <trkpt lat="49.41542" lon="5.7588">
        <ele>347.39999389648</ele>
        <time>2022-09-13T12:06:55.000Z</time>
      </trkpt>
      <trkpt lat="49.41544" lon="5.75878">
        <ele>347.60000610352</ele>
        <time>2022-09-13T12:06:56.000Z</time>
      </trkpt>
      <trkpt lat="49.41547" lon="5.75874">
        <ele>348.20001220703</ele>
        <time>2022-09-13T12:06:57.000Z</time>
      </trkpt>
      <trkpt lat="49.41549" lon="5.75871">
        <ele>348.79998779297</ele>
        <time>2022-09-13T12:06:58.000Z</time>
      </trkpt>
      <trkpt lat="49.4155" lon="5.75868">
        <ele>349</ele>
        <time>2022-09-13T12:06:59.000Z</time>
      </trkpt>
      <trkpt lat="49.41552" lon="5.75867">
        <ele>349.20001220703</ele>
        <time>2022-09-13T12:07:00.000Z</time>
      </trkpt>
      <trkpt lat="49.41554" lon="5.75865">
        <ele>349.39999389648</ele>
        <time>2022-09-13T12:07:01.000Z</time>
      </trkpt>
      <trkpt lat="49.41556" lon="5.75863">
        <ele>349.60000610352</ele>
        <time>2022-09-13T12:07:02.000Z</time>
      </trkpt>
      <trkpt lat="49.4156" lon="5.75861">
        <ele>349.79998779297</ele>
        <time>2022-09-13T12:07:03.000Z</time>
      </trkpt>
      <trkpt lat="49.41562" lon="5.75857">
        <ele>350.20001220703</ele>
        <time>2022-09-13T12:07:04.000Z</time>
      </trkpt>
      <trkpt lat="49.41569" lon="5.75854">
        <ele>350.39999389648</ele>
        <time>2022-09-13T12:07:05.000Z</time>
      </trkpt>
      <trkpt lat="49.41572" lon="5.75851">
        <ele>350.79998779297</ele>
        <time>2022-09-13T12:07:06.000Z</time>
      </trkpt>
      <trkpt lat="49.41574" lon="5.75848">
        <ele>351.39999389648</ele>
        <time>2022-09-13T12:07:07.000Z</time>
      </trkpt>
      <trkpt lat="49.4158" lon="5.75844">
        <ele>351.39999389648</ele>
        <time>2022-09-13T12:07:08.000Z</time>
      </trkpt>
      <trkpt lat="49.41583" lon="5.7584">
        <ele>351.60000610352</ele>
        <time>2022-09-13T12:07:09.000Z</time>
      </trkpt>
      <trkpt lat="49.41585" lon="5.75836">
        <ele>351.60000610352</ele>
        <time>2022-09-13T12:07:10.000Z</time>
      </trkpt>
      <trkpt lat="49.41589" lon="5.75832">
        <ele>352</ele>
        <time>2022-09-13T12:07:11.000Z</time>
      </trkpt>
      <trkpt lat="49.4159" lon="5.75829">
        <ele>352</ele>
        <time>2022-09-13T12:07:12.000Z</time>
      </trkpt>
      <trkpt lat="49.41593" lon="5.75826">
        <ele>352.39999389648</ele>
        <time>2022-09-13T12:07:13.000Z</time>
      </trkpt>
      <trkpt lat="49.41597" lon="5.75824">
        <ele>352.60000610352</ele>
        <time>2022-09-13T12:07:14.000Z</time>
      </trkpt>
      <trkpt lat="49.41601" lon="5.75821">
        <ele>352.79998779297</ele>
        <time>2022-09-13T12:07:15.000Z</time>
      </trkpt>
      <trkpt lat="49.41604" lon="5.7582">
        <ele>353.20001220703</ele>
        <time>2022-09-13T12:07:16.000Z</time>
      </trkpt>
      <trkpt lat="49.41606" lon="5.75819">
        <ele>353.39999389648</ele>
        <time>2022-09-13T12:07:17.000Z</time>
      </trkpt>
      <trkpt lat="49.41607" lon="5.75818">
        <ele>353.60000610352</ele>
        <time>2022-09-13T12:07:18.000Z</time>
      </trkpt>
      <trkpt lat="49.41611" lon="5.75814">
        <ele>353.79998779297</ele>
        <time>2022-09-13T12:07:19.000Z</time>
      </trkpt>
      <trkpt lat="49.41615" lon="5.75811">
        <ele>354</ele>
        <time>2022-09-13T12:07:20.000Z</time>
      </trkpt>
      <trkpt lat="49.41618" lon="5.75806">
        <ele>354.39999389648</ele>
        <time>2022-09-13T12:07:21.000Z</time>
      </trkpt>
      <trkpt lat="49.41622" lon="5.75802">
        <ele>354.60000610352</ele>
        <time>2022-09-13T12:07:22.000Z</time>
      </trkpt>
      <trkpt lat="49.41625" lon="5.75798">
        <ele>354.79998779297</ele>
        <time>2022-09-13T12:07:23.000Z</time>
      </trkpt>
      <trkpt lat="49.41628" lon="5.75794">
        <ele>354.79998779297</ele>
        <time>2022-09-13T12:07:24.000Z</time>
      </trkpt>
      <trkpt lat="49.4163" lon="5.75791">
        <ele>355.20001220703</ele>
        <time>2022-09-13T12:07:25.000Z</time>
      </trkpt>
      <trkpt lat="49.41633" lon="5.75789">
        <ele>355.39999389648</ele>
        <time>2022-09-13T12:07:26.000Z</time>
      </trkpt>
      <trkpt lat="49.41634" lon="5.75787">
        <ele>355.39999389648</ele>
        <time>2022-09-13T12:07:27.000Z</time>
      </trkpt>
      <trkpt lat="49.41637" lon="5.75783">
        <ele>355.60000610352</ele>
        <time>2022-09-13T12:07:28.000Z</time>
      </trkpt>
      <trkpt lat="49.41639" lon="5.75779">
        <ele>355.79998779297</ele>
        <time>2022-09-13T12:07:29.000Z</time>
      </trkpt>
      <trkpt lat="49.41643" lon="5.75775">
        <ele>355.79998779297</ele>
        <time>2022-09-13T12:07:30.000Z</time>
      </trkpt>
      <trkpt lat="49.41645" lon="5.75772">
        <ele>355.79998779297</ele>
        <time>2022-09-13T12:07:31.000Z</time>
      </trkpt>
      <trkpt lat="49.41647" lon="5.7577">
        <ele>355.79998779297</ele>
        <time>2022-09-13T12:07:32.000Z</time>
      </trkpt>
      <trkpt lat="49.41651" lon="5.75766">
        <ele>355.79998779297</ele>
        <time>2022-09-13T12:07:33.000Z</time>
      </trkpt>
      <trkpt lat="49.41656" lon="5.75763">
        <ele>355.79998779297</ele>
        <time>2022-09-13T12:07:34.000Z</time>
      </trkpt>
      <trkpt lat="49.41659" lon="5.7576">
        <ele>355.79998779297</ele>
        <time>2022-09-13T12:07:35.000Z</time>
      </trkpt>
      <trkpt lat="49.41662" lon="5.75758">
        <ele>355.79998779297</ele>
        <time>2022-09-13T12:07:36.000Z</time>
      </trkpt>
      <trkpt lat="49.41665" lon="5.75755">
        <ele>355.79998779297</ele>
        <time>2022-09-13T12:07:37.000Z</time>
      </trkpt>
      <trkpt lat="49.41668" lon="5.75752">
        <ele>355.79998779297</ele>
        <time>2022-09-13T12:07:38.000Z</time>
      </trkpt>
      <trkpt lat="49.41671" lon="5.75749">
        <ele>356</ele>
        <time>2022-09-13T12:07:39.000Z</time>
      </trkpt>
      <trkpt lat="49.41674" lon="5.75746">
        <ele>356</ele>
        <time>2022-09-13T12:07:40.000Z</time>
      </trkpt>
      <trkpt lat="49.41677" lon="5.75744">
        <ele>356</ele>
        <time>2022-09-13T12:07:41.000Z</time>
      </trkpt>
      <trkpt lat="49.41681" lon="5.75741">
        <ele>356.20001220703</ele>
        <time>2022-09-13T12:07:42.000Z</time>
      </trkpt>
      <trkpt lat="49.41688" lon="5.75736">
        <ele>356.20001220703</ele>
        <time>2022-09-13T12:07:43.000Z</time>
      </trkpt>
      <trkpt lat="49.41692" lon="5.75732">
        <ele>356.39999389648</ele>
        <time>2022-09-13T12:07:44.000Z</time>
      </trkpt>
      <trkpt lat="49.41694" lon="5.75729">
        <ele>356.39999389648</ele>
        <time>2022-09-13T12:07:45.000Z</time>
      </trkpt>
      <trkpt lat="49.41695" lon="5.75727">
        <ele>356.79998779297</ele>
        <time>2022-09-13T12:07:46.000Z</time>
      </trkpt>
      <trkpt lat="49.41698" lon="5.75723">
        <ele>356.79998779297</ele>
        <time>2022-09-13T12:07:47.000Z</time>
      </trkpt>
      <trkpt lat="49.41701" lon="5.7572">
        <ele>356.79998779297</ele>
        <time>2022-09-13T12:07:48.000Z</time>
      </trkpt>
      <trkpt lat="49.41704" lon="5.75717">
        <ele>357</ele>
        <time>2022-09-13T12:07:49.000Z</time>
      </trkpt>
      <trkpt lat="49.41708" lon="5.75716">
        <ele>357.20001220703</ele>
        <time>2022-09-13T12:07:50.000Z</time>
      </trkpt>
      <trkpt lat="49.41711" lon="5.75713">
        <ele>357.20001220703</ele>
        <time>2022-09-13T12:07:51.000Z</time>
      </trkpt>
      <trkpt lat="49.41717" lon="5.75709">
        <ele>357.20001220703</ele>
        <time>2022-09-13T12:07:52.000Z</time>
      </trkpt>
      <trkpt lat="49.41721" lon="5.75705">
        <ele>357.39999389648</ele>
        <time>2022-09-13T12:07:53.000Z</time>
      </trkpt>
      <trkpt lat="49.41723" lon="5.75701">
        <ele>357.39999389648</ele>
        <time>2022-09-13T12:07:54.000Z</time>
      </trkpt>
      <trkpt lat="49.41724" lon="5.75698">
        <ele>357.60000610352</ele>
        <time>2022-09-13T12:07:55.000Z</time>
      </trkpt>
      <trkpt lat="49.41727" lon="5.75695">
        <ele>357.79998779297</ele>
        <time>2022-09-13T12:07:56.000Z</time>
      </trkpt>
      <trkpt lat="49.4173" lon="5.75691">
        <ele>357.79998779297</ele>
        <time>2022-09-13T12:07:57.000Z</time>
      </trkpt>
      <trkpt lat="49.41732" lon="5.75689">
        <ele>358</ele>
        <time>2022-09-13T12:07:58.000Z</time>
      </trkpt>
      <trkpt lat="49.41736" lon="5.75686">
        <ele>358</ele>
        <time>2022-09-13T12:07:59.000Z</time>
      </trkpt>
      <trkpt lat="49.41739" lon="5.75684">
        <ele>358.20001220703</ele>
        <time>2022-09-13T12:08:00.000Z</time>
      </trkpt>
      <trkpt lat="49.41743" lon="5.7568">
        <ele>358.39999389648</ele>
        <time>2022-09-13T12:08:01.000Z</time>
      </trkpt>
      <trkpt lat="49.41745" lon="5.75676">
        <ele>358.39999389648</ele>
        <time>2022-09-13T12:08:02.000Z</time>
      </trkpt>
      <trkpt lat="49.41746" lon="5.75674">
        <ele>358.60000610352</ele>
        <time>2022-09-13T12:08:03.000Z</time>
      </trkpt>
      <trkpt lat="49.41747" lon="5.75671">
        <ele>358.60000610352</ele>
        <time>2022-09-13T12:08:04.000Z</time>
      </trkpt>
      <trkpt lat="49.41749" lon="5.75669">
        <ele>358.60000610352</ele>
        <time>2022-09-13T12:08:05.000Z</time>
      </trkpt>
      <trkpt lat="49.41751" lon="5.75667">
        <ele>358.79998779297</ele>
        <time>2022-09-13T12:08:06.000Z</time>
      </trkpt>
      <trkpt lat="49.41754" lon="5.75664">
        <ele>358.79998779297</ele>
        <time>2022-09-13T12:08:07.000Z</time>
      </trkpt>
      <trkpt lat="49.41756" lon="5.75662">
        <ele>358.79998779297</ele>
        <time>2022-09-13T12:08:08.000Z</time>
      </trkpt>
      <trkpt lat="49.41759" lon="5.7566">
        <ele>358.79998779297</ele>
        <time>2022-09-13T12:08:09.000Z</time>
      </trkpt>
      <trkpt lat="49.41763" lon="5.75658">
        <ele>358.79998779297</ele>
        <time>2022-09-13T12:08:10.000Z</time>
      </trkpt>
      <trkpt lat="49.41767" lon="5.75656">
        <ele>358.79998779297</ele>
        <time>2022-09-13T12:08:11.000Z</time>
      </trkpt>
      <trkpt lat="49.4177" lon="5.75654">
        <ele>358.79998779297</ele>
        <time>2022-09-13T12:08:12.000Z</time>
      </trkpt>
      <trkpt lat="49.41772" lon="5.75652">
        <ele>359</ele>
        <time>2022-09-13T12:08:13.000Z</time>
      </trkpt>
      <trkpt lat="49.41775" lon="5.75649">
        <ele>359</ele>
        <time>2022-09-13T12:08:14.000Z</time>
      </trkpt>
      <trkpt lat="49.41783" lon="5.75643">
        <ele>359</ele>
        <time>2022-09-13T12:08:16.000Z</time>
      </trkpt>
      <trkpt lat="49.41793" lon="5.75632">
        <ele>358.79998779297</ele>
        <time>2022-09-13T12:08:19.000Z</time>
      </trkpt>
      <trkpt lat="49.41795" lon="5.75629">
        <ele>358.60000610352</ele>
        <time>2022-09-13T12:08:20.000Z</time>
      </trkpt>
      <trkpt lat="49.41798" lon="5.75627">
        <ele>358.60000610352</ele>
        <time>2022-09-13T12:08:21.000Z</time>
      </trkpt>
      <trkpt lat="49.41799" lon="5.75625">
        <ele>358.60000610352</ele>
        <time>2022-09-13T12:08:22.000Z</time>
      </trkpt>
      <trkpt lat="49.418" lon="5.75623">
        <ele>358.60000610352</ele>
        <time>2022-09-13T12:08:23.000Z</time>
      </trkpt>
      <trkpt lat="49.418" lon="5.75623">
        <ele>358.60000610352</ele>
        <time>2022-09-13T12:08:24.000Z</time>
      </trkpt>
      <trkpt lat="49.41801" lon="5.75621">
        <ele>358.39999389648</ele>
        <time>2022-09-13T12:08:25.000Z</time>
      </trkpt>
      <trkpt lat="49.41803" lon="5.75615">
        <ele>358.39999389648</ele>
        <time>2022-09-13T12:08:27.000Z</time>
      </trkpt>
      <trkpt lat="49.41803" lon="5.75612">
        <ele>358.39999389648</ele>
        <time>2022-09-13T12:08:28.000Z</time>
      </trkpt>
      <trkpt lat="49.41805" lon="5.75609">
        <ele>358.20001220703</ele>
        <time>2022-09-13T12:08:29.000Z</time>
      </trkpt>
      <trkpt lat="49.41807" lon="5.75606">
        <ele>358.20001220703</ele>
        <time>2022-09-13T12:08:30.000Z</time>
      </trkpt>
      <trkpt lat="49.41808" lon="5.75602">
        <ele>358.20001220703</ele>
        <time>2022-09-13T12:08:31.000Z</time>
      </trkpt>
      <trkpt lat="49.41808" lon="5.75599">
        <ele>358</ele>
        <time>2022-09-13T12:08:32.000Z</time>
      </trkpt>
      <trkpt lat="49.41814" lon="5.75593">
        <ele>358</ele>
        <time>2022-09-13T12:08:33.000Z</time>
      </trkpt>
      <trkpt lat="49.41815" lon="5.75585">
        <ele>358</ele>
        <time>2022-09-13T12:08:35.000Z</time>
      </trkpt>
      <trkpt lat="49.41816" lon="5.75581">
        <ele>358</ele>
        <time>2022-09-13T12:08:36.000Z</time>
      </trkpt>
      <trkpt lat="49.41816" lon="5.75579">
        <ele>357.79998779297</ele>
        <time>2022-09-13T12:08:37.000Z</time>
      </trkpt>
      <trkpt lat="49.41818" lon="5.75575">
        <ele>357.79998779297</ele>
        <time>2022-09-13T12:08:38.000Z</time>
      </trkpt>
      <trkpt lat="49.41818" lon="5.75575">
        <ele>357.79998779297</ele>
        <time>2022-09-13T12:08:39.000Z</time>
      </trkpt>
      <trkpt lat="49.41818" lon="5.75568">
        <ele>356.79998779297</ele>
        <time>2022-09-13T12:09:27.000Z</time>
      </trkpt>
      <trkpt lat="49.41819" lon="5.7556">
        <ele>356.79998779297</ele>
        <time>2022-09-13T12:09:29.000Z</time>
      </trkpt>
      <trkpt lat="49.41818" lon="5.75549">
        <ele>356.79998779297</ele>
        <time>2022-09-13T12:09:32.000Z</time>
      </trkpt>
      <trkpt lat="49.41817" lon="5.75545">
        <ele>356.79998779297</ele>
        <time>2022-09-13T12:09:33.000Z</time>
      </trkpt>
      <trkpt lat="49.41816" lon="5.75538">
        <ele>357</ele>
        <time>2022-09-13T12:09:35.000Z</time>
      </trkpt>
      <trkpt lat="49.41809" lon="5.75523">
        <ele>357</ele>
        <time>2022-09-13T12:09:38.000Z</time>
      </trkpt>
      <trkpt lat="49.41807" lon="5.7552">
        <ele>357</ele>
        <time>2022-09-13T12:09:39.000Z</time>
      </trkpt>
      <trkpt lat="49.41803" lon="5.75514">
        <ele>357</ele>
        <time>2022-09-13T12:09:41.000Z</time>
      </trkpt>
      <trkpt lat="49.41801" lon="5.75511">
        <ele>357</ele>
        <time>2022-09-13T12:09:42.000Z</time>
      </trkpt>
      <trkpt lat="49.41799" lon="5.75505">
        <ele>357</ele>
        <time>2022-09-13T12:09:43.000Z</time>
      </trkpt>
      <trkpt lat="49.41791" lon="5.75482">
        <ele>357</ele>
        <time>2022-09-13T12:09:48.000Z</time>
      </trkpt>
      <trkpt lat="49.41791" lon="5.75476">
        <ele>357.20001220703</ele>
        <time>2022-09-13T12:09:49.000Z</time>
      </trkpt>
      <trkpt lat="49.41784" lon="5.75463">
        <ele>357.20001220703</ele>
        <time>2022-09-13T12:09:52.000Z</time>
      </trkpt>
      <trkpt lat="49.41782" lon="5.75458">
        <ele>357.20001220703</ele>
        <time>2022-09-13T12:09:53.000Z</time>
      </trkpt>
      <trkpt lat="49.4178" lon="5.75455">
        <ele>357.20001220703</ele>
        <time>2022-09-13T12:09:54.000Z</time>
      </trkpt>
      <trkpt lat="49.41777" lon="5.75451">
        <ele>357.20001220703</ele>
        <time>2022-09-13T12:09:55.000Z</time>
      </trkpt>
      <trkpt lat="49.41775" lon="5.75449">
        <ele>357.20001220703</ele>
        <time>2022-09-13T12:09:56.000Z</time>
      </trkpt>
      <trkpt lat="49.41774" lon="5.75447">
        <ele>357.20001220703</ele>
        <time>2022-09-13T12:09:57.000Z</time>
      </trkpt>
      <trkpt lat="49.41773" lon="5.75444">
        <ele>357.20001220703</ele>
        <time>2022-09-13T12:09:58.000Z</time>
      </trkpt>
      <trkpt lat="49.41769" lon="5.75437">
        <ele>357.20001220703</ele>
        <time>2022-09-13T12:10:00.000Z</time>
      </trkpt>
      <trkpt lat="49.41767" lon="5.75434">
        <ele>357</ele>
        <time>2022-09-13T12:10:01.000Z</time>
      </trkpt>
      <trkpt lat="49.41768" lon="5.75431">
        <ele>357</ele>
        <time>2022-09-13T12:10:02.000Z</time>
      </trkpt>
      <trkpt lat="49.41769" lon="5.75426">
        <ele>356.79998779297</ele>
        <time>2022-09-13T12:10:03.000Z</time>
      </trkpt>
      <trkpt lat="49.41768" lon="5.75423">
        <ele>356.79998779297</ele>
        <time>2022-09-13T12:10:04.000Z</time>
      </trkpt>
      <trkpt lat="49.41767" lon="5.7542">
        <ele>356.79998779297</ele>
        <time>2022-09-13T12:10:05.000Z</time>
      </trkpt>
      <trkpt lat="49.41766" lon="5.75415">
        <ele>356.79998779297</ele>
        <time>2022-09-13T12:10:06.000Z</time>
      </trkpt>
      <trkpt lat="49.41764" lon="5.7541">
        <ele>356.60000610352</ele>
        <time>2022-09-13T12:10:07.000Z</time>
      </trkpt>
      <trkpt lat="49.41756" lon="5.75394">
        <ele>356.60000610352</ele>
        <time>2022-09-13T12:10:11.000Z</time>
      </trkpt>
      <trkpt lat="49.41752" lon="5.7539">
        <ele>356.39999389648</ele>
        <time>2022-09-13T12:10:12.000Z</time>
      </trkpt>
      <trkpt lat="49.41749" lon="5.75385">
        <ele>356.39999389648</ele>
        <time>2022-09-13T12:10:13.000Z</time>
      </trkpt>
      <trkpt lat="49.41746" lon="5.75377">
        <ele>356.20001220703</ele>
        <time>2022-09-13T12:10:15.000Z</time>
      </trkpt>
      <trkpt lat="49.41745" lon="5.75374">
        <ele>356.20001220703</ele>
        <time>2022-09-13T12:10:16.000Z</time>
      </trkpt>
      <trkpt lat="49.41744" lon="5.7537">
        <ele>356</ele>
        <time>2022-09-13T12:10:17.000Z</time>
      </trkpt>
      <trkpt lat="49.41744" lon="5.75362">
        <ele>356</ele>
        <time>2022-09-13T12:10:18.000Z</time>
      </trkpt>
      <trkpt lat="49.41739" lon="5.75346">
        <ele>356</ele>
        <time>2022-09-13T12:10:21.000Z</time>
      </trkpt>
      <trkpt lat="49.41735" lon="5.75334">
        <ele>356</ele>
        <time>2022-09-13T12:10:23.000Z</time>
      </trkpt>
      <trkpt lat="49.41726" lon="5.75307">
        <ele>356</ele>
        <time>2022-09-13T12:10:28.000Z</time>
      </trkpt>
      <trkpt lat="49.41724" lon="5.75303">
        <ele>356</ele>
        <time>2022-09-13T12:10:29.000Z</time>
      </trkpt>
      <trkpt lat="49.4172" lon="5.75297">
        <ele>356</ele>
        <time>2022-09-13T12:10:30.000Z</time>
      </trkpt>
      <trkpt lat="49.41719" lon="5.75294">
        <ele>356</ele>
        <time>2022-09-13T12:10:31.000Z</time>
      </trkpt>
      <trkpt lat="49.41718" lon="5.75292">
        <ele>356</ele>
        <time>2022-09-13T12:10:32.000Z</time>
      </trkpt>
      <trkpt lat="49.41716" lon="5.75288">
        <ele>355.79998779297</ele>
        <time>2022-09-13T12:10:33.000Z</time>
      </trkpt>
      <trkpt lat="49.41713" lon="5.75283">
        <ele>355.60000610352</ele>
        <time>2022-09-13T12:10:34.000Z</time>
      </trkpt>
      <trkpt lat="49.41711" lon="5.75279">
        <ele>355.39999389648</ele>
        <time>2022-09-13T12:10:35.000Z</time>
      </trkpt>
      <trkpt lat="49.41708" lon="5.75277">
        <ele>355.20001220703</ele>
        <time>2022-09-13T12:10:36.000Z</time>
      </trkpt>
      <trkpt lat="49.41705" lon="5.75274">
        <ele>355</ele>
        <time>2022-09-13T12:10:37.000Z</time>
      </trkpt>
      <trkpt lat="49.41703" lon="5.75273">
        <ele>355</ele>
        <time>2022-09-13T12:10:38.000Z</time>
      </trkpt>
      <trkpt lat="49.41702" lon="5.75272">
        <ele>354.79998779297</ele>
        <time>2022-09-13T12:10:39.000Z</time>
      </trkpt>
      <trkpt lat="49.41701" lon="5.7527">
        <ele>354.79998779297</ele>
        <time>2022-09-13T12:10:40.000Z</time>
      </trkpt>
      <trkpt lat="49.41702" lon="5.75268">
        <ele>354.60000610352</ele>
        <time>2022-09-13T12:10:42.000Z</time>
      </trkpt>
      <trkpt lat="49.41715" lon="5.75256">
        <ele>354.20001220703</ele>
        <time>2022-09-13T12:10:48.000Z</time>
      </trkpt>
      <trkpt lat="49.41719" lon="5.75251">
        <ele>354</ele>
        <time>2022-09-13T12:10:50.000Z</time>
      </trkpt>
      <trkpt lat="49.41721" lon="5.75249">
        <ele>354</ele>
        <time>2022-09-13T12:10:51.000Z</time>
      </trkpt>
      <trkpt lat="49.4173" lon="5.7524">
        <ele>354.20001220703</ele>
        <time>2022-09-13T12:10:55.000Z</time>
      </trkpt>
      <trkpt lat="49.41747" lon="5.75223">
        <ele>354</ele>
        <time>2022-09-13T12:11:01.000Z</time>
      </trkpt>
      <trkpt lat="49.41748" lon="5.75222">
        <ele>353.79998779297</ele>
        <time>2022-09-13T12:11:02.000Z</time>
      </trkpt>
      <trkpt lat="49.41749" lon="5.75222">
        <ele>353.60000610352</ele>
        <time>2022-09-13T12:11:03.000Z</time>
      </trkpt>
      <trkpt lat="49.4175" lon="5.75223">
        <ele>353.39999389648</ele>
        <time>2022-09-13T12:11:05.000Z</time>
      </trkpt>
      <trkpt lat="49.41751" lon="5.75225">
        <ele>353.39999389648</ele>
        <time>2022-09-13T12:11:06.000Z</time>
      </trkpt>
      <trkpt lat="49.41752" lon="5.75231">
        <ele>353.20001220703</ele>
        <time>2022-09-13T12:11:08.000Z</time>
      </trkpt>
      <trkpt lat="49.41754" lon="5.75236">
        <ele>353.20001220703</ele>
        <time>2022-09-13T12:11:10.000Z</time>
      </trkpt>
      <trkpt lat="49.41755" lon="5.75238">
        <ele>353.20001220703</ele>
        <time>2022-09-13T12:11:11.000Z</time>
      </trkpt>
      <trkpt lat="49.41767" lon="5.75268">
        <ele>353.60000610352</ele>
        <time>2022-09-13T12:11:19.000Z</time>
      </trkpt>
      <trkpt lat="49.41774" lon="5.75287">
        <ele>354</ele>
        <time>2022-09-13T12:11:23.000Z</time>
      </trkpt>
      <trkpt lat="49.41777" lon="5.75289">
        <ele>354.20001220703</ele>
        <time>2022-09-13T12:11:24.000Z</time>
      </trkpt>
      <trkpt lat="49.41779" lon="5.75292">
        <ele>354.20001220703</ele>
        <time>2022-09-13T12:11:25.000Z</time>
      </trkpt>
      <trkpt lat="49.41782" lon="5.753">
        <ele>354.20001220703</ele>
        <time>2022-09-13T12:11:26.000Z</time>
      </trkpt>
      <trkpt lat="49.41786" lon="5.75311">
        <ele>354.20001220703</ele>
        <time>2022-09-13T12:11:28.000Z</time>
      </trkpt>
      <trkpt lat="49.41788" lon="5.75314">
        <ele>354.39999389648</ele>
        <time>2022-09-13T12:11:29.000Z</time>
      </trkpt>
      <trkpt lat="49.41791" lon="5.75319">
        <ele>354.39999389648</ele>
        <time>2022-09-13T12:11:30.000Z</time>
      </trkpt>
      <trkpt lat="49.41794" lon="5.75324">
        <ele>354.39999389648</ele>
        <time>2022-09-13T12:11:31.000Z</time>
      </trkpt>
      <trkpt lat="49.41797" lon="5.75329">
        <ele>354.60000610352</ele>
        <time>2022-09-13T12:11:32.000Z</time>
      </trkpt>
      <trkpt lat="49.41799" lon="5.7534">
        <ele>354.60000610352</ele>
        <time>2022-09-13T12:11:34.000Z</time>
      </trkpt>
      <trkpt lat="49.41802" lon="5.75345">
        <ele>354.79998779297</ele>
        <time>2022-09-13T12:11:35.000Z</time>
      </trkpt>
      <trkpt lat="49.41805" lon="5.75349">
        <ele>355</ele>
        <time>2022-09-13T12:11:36.000Z</time>
      </trkpt>
      <trkpt lat="49.41814" lon="5.75372">
        <ele>355.20001220703</ele>
        <time>2022-09-13T12:11:41.000Z</time>
      </trkpt>
      <trkpt lat="49.41826" lon="5.75401">
        <ele>355.60000610352</ele>
        <time>2022-09-13T12:11:46.000Z</time>
      </trkpt>
      <trkpt lat="49.4183" lon="5.75406">
        <ele>355.60000610352</ele>
        <time>2022-09-13T12:11:47.000Z</time>
      </trkpt>
      <trkpt lat="49.41832" lon="5.75418">
        <ele>355.60000610352</ele>
        <time>2022-09-13T12:11:49.000Z</time>
      </trkpt>
      <trkpt lat="49.41832" lon="5.7542">
        <ele>355.60000610352</ele>
        <time>2022-09-13T12:11:50.000Z</time>
      </trkpt>
      <trkpt lat="49.41833" lon="5.75423">
        <ele>355.60000610352</ele>
        <time>2022-09-13T12:11:51.000Z</time>
      </trkpt>
      <trkpt lat="49.41833" lon="5.75426">
        <ele>355.60000610352</ele>
        <time>2022-09-13T12:11:52.000Z</time>
      </trkpt>
      <trkpt lat="49.41834" lon="5.7543">
        <ele>355.60000610352</ele>
        <time>2022-09-13T12:11:53.000Z</time>
      </trkpt>
      <trkpt lat="49.41835" lon="5.75433">
        <ele>355.60000610352</ele>
        <time>2022-09-13T12:11:54.000Z</time>
      </trkpt>
      <trkpt lat="49.41836" lon="5.7544">
        <ele>355.20001220703</ele>
        <time>2022-09-13T12:11:56.000Z</time>
      </trkpt>
      <trkpt lat="49.41838" lon="5.75444">
        <ele>355.20001220703</ele>
        <time>2022-09-13T12:11:57.000Z</time>
      </trkpt>
      <trkpt lat="49.41839" lon="5.75449">
        <ele>355.20001220703</ele>
        <time>2022-09-13T12:11:58.000Z</time>
      </trkpt>
      <trkpt lat="49.41845" lon="5.75467">
        <ele>355</ele>
        <time>2022-09-13T12:12:02.000Z</time>
      </trkpt>
      <trkpt lat="49.41851" lon="5.75478">
        <ele>354.79998779297</ele>
        <time>2022-09-13T12:12:06.000Z</time>
      </trkpt>
      <trkpt lat="49.41853" lon="5.75482">
        <ele>354.79998779297</ele>
        <time>2022-09-13T12:12:07.000Z</time>
      </trkpt>
      <trkpt lat="49.41855" lon="5.75488">
        <ele>354.79998779297</ele>
        <time>2022-09-13T12:12:08.000Z</time>
      </trkpt>
      <trkpt lat="49.41865" lon="5.75521">
        <ele>354</ele>
        <time>2022-09-13T12:12:13.000Z</time>
      </trkpt>
      <trkpt lat="49.41868" lon="5.75535">
        <ele>353.20001220703</ele>
        <time>2022-09-13T12:12:15.000Z</time>
      </trkpt>
      <trkpt lat="49.41873" lon="5.75541">
        <ele>353</ele>
        <time>2022-09-13T12:12:16.000Z</time>
      </trkpt>
      <trkpt lat="49.41875" lon="5.75548">
        <ele>352.39999389648</ele>
        <time>2022-09-13T12:12:17.000Z</time>
      </trkpt>
      <trkpt lat="49.41878" lon="5.75556">
        <ele>352.20001220703</ele>
        <time>2022-09-13T12:12:18.000Z</time>
      </trkpt>
      <trkpt lat="49.41882" lon="5.75562">
        <ele>352</ele>
        <time>2022-09-13T12:12:19.000Z</time>
      </trkpt>
      <trkpt lat="49.41885" lon="5.75566">
        <ele>351.39999389648</ele>
        <time>2022-09-13T12:12:20.000Z</time>
      </trkpt>
      <trkpt lat="49.41889" lon="5.75569">
        <ele>351.20001220703</ele>
        <time>2022-09-13T12:12:21.000Z</time>
      </trkpt>
      <trkpt lat="49.41893" lon="5.75569">
        <ele>350.79998779297</ele>
        <time>2022-09-13T12:12:22.000Z</time>
      </trkpt>
      <trkpt lat="49.41902" lon="5.75567">
        <ele>350</ele>
        <time>2022-09-13T12:12:24.000Z</time>
      </trkpt>
      <trkpt lat="49.41911" lon="5.75568">
        <ele>349.79998779297</ele>
        <time>2022-09-13T12:12:25.000Z</time>
      </trkpt>
      <trkpt lat="49.41919" lon="5.75569">
        <ele>348.20001220703</ele>
        <time>2022-09-13T12:12:27.000Z</time>
      </trkpt>
      <trkpt lat="49.41934" lon="5.75569">
        <ele>347.20001220703</ele>
        <time>2022-09-13T12:12:30.000Z</time>
      </trkpt>
      <trkpt lat="49.41942" lon="5.7557">
        <ele>346.79998779297</ele>
        <time>2022-09-13T12:12:31.000Z</time>
      </trkpt>
      <trkpt lat="49.41957" lon="5.75571">
        <ele>346.20001220703</ele>
        <time>2022-09-13T12:12:33.000Z</time>
      </trkpt>
      <trkpt lat="49.41967" lon="5.75569">
        <ele>345.39999389648</ele>
        <time>2022-09-13T12:12:35.000Z</time>
      </trkpt>
      <trkpt lat="49.41974" lon="5.75566">
        <ele>344.60000610352</ele>
        <time>2022-09-13T12:12:36.000Z</time>
      </trkpt>
      <trkpt lat="49.41979" lon="5.75565">
        <ele>344.39999389648</ele>
        <time>2022-09-13T12:12:37.000Z</time>
      </trkpt>
      <trkpt lat="49.41993" lon="5.75563">
        <ele>344</ele>
        <time>2022-09-13T12:12:39.000Z</time>
      </trkpt>
      <trkpt lat="49.41997" lon="5.75563">
        <ele>344</ele>
        <time>2022-09-13T12:12:40.000Z</time>
      </trkpt>
      <trkpt lat="49.42001" lon="5.75564">
        <ele>343.79998779297</ele>
        <time>2022-09-13T12:12:41.000Z</time>
      </trkpt>
      <trkpt lat="49.42005" lon="5.75565">
        <ele>343.60000610352</ele>
        <time>2022-09-13T12:12:42.000Z</time>
      </trkpt>
      <trkpt lat="49.42013" lon="5.75566">
        <ele>343.39999389648</ele>
        <time>2022-09-13T12:12:43.000Z</time>
      </trkpt>
      <trkpt lat="49.4202" lon="5.75566">
        <ele>343.20001220703</ele>
        <time>2022-09-13T12:12:44.000Z</time>
      </trkpt>
      <trkpt lat="49.42027" lon="5.75564">
        <ele>342.79998779297</ele>
        <time>2022-09-13T12:12:45.000Z</time>
      </trkpt>
      <trkpt lat="49.42038" lon="5.75559">
        <ele>342.39999389648</ele>
        <time>2022-09-13T12:12:47.000Z</time>
      </trkpt>
      <trkpt lat="49.42043" lon="5.75556">
        <ele>342.39999389648</ele>
        <time>2022-09-13T12:12:48.000Z</time>
      </trkpt>
      <trkpt lat="49.4205" lon="5.75554">
        <ele>342</ele>
        <time>2022-09-13T12:12:49.000Z</time>
      </trkpt>
      <trkpt lat="49.42053" lon="5.75551">
        <ele>341.79998779297</ele>
        <time>2022-09-13T12:12:50.000Z</time>
      </trkpt>
      <trkpt lat="49.42066" lon="5.75538">
        <ele>341.79998779297</ele>
        <time>2022-09-13T12:12:54.000Z</time>
      </trkpt>
      <trkpt lat="49.4207" lon="5.75532">
        <ele>341.60000610352</ele>
        <time>2022-09-13T12:12:55.000Z</time>
      </trkpt>
      <trkpt lat="49.42075" lon="5.75528">
        <ele>341.60000610352</ele>
        <time>2022-09-13T12:12:56.000Z</time>
      </trkpt>
      <trkpt lat="49.42079" lon="5.75524">
        <ele>341.60000610352</ele>
        <time>2022-09-13T12:12:57.000Z</time>
      </trkpt>
      <trkpt lat="49.42081" lon="5.75522">
        <ele>341.39999389648</ele>
        <time>2022-09-13T12:12:58.000Z</time>
      </trkpt>
      <trkpt lat="49.42085" lon="5.7552">
        <ele>341.39999389648</ele>
        <time>2022-09-13T12:12:59.000Z</time>
      </trkpt>
      <trkpt lat="49.42089" lon="5.75517">
        <ele>341.20001220703</ele>
        <time>2022-09-13T12:13:00.000Z</time>
      </trkpt>
      <trkpt lat="49.42093" lon="5.75514">
        <ele>341.20001220703</ele>
        <time>2022-09-13T12:13:01.000Z</time>
      </trkpt>
      <trkpt lat="49.42104" lon="5.75506">
        <ele>341.20001220703</ele>
        <time>2022-09-13T12:13:04.000Z</time>
      </trkpt>
      <trkpt lat="49.42107" lon="5.75504">
        <ele>341.20001220703</ele>
        <time>2022-09-13T12:13:05.000Z</time>
      </trkpt>
      <trkpt lat="49.4211" lon="5.75501">
        <ele>341.20001220703</ele>
        <time>2022-09-13T12:13:06.000Z</time>
      </trkpt>
      <trkpt lat="49.42123" lon="5.75481">
        <ele>341.20001220703</ele>
        <time>2022-09-13T12:13:10.000Z</time>
      </trkpt>
      <trkpt lat="49.42125" lon="5.75475">
        <ele>341.20001220703</ele>
        <time>2022-09-13T12:13:11.000Z</time>
      </trkpt>
      <trkpt lat="49.42128" lon="5.7547">
        <ele>341.20001220703</ele>
        <time>2022-09-13T12:13:12.000Z</time>
      </trkpt>
      <trkpt lat="49.42138" lon="5.75448">
        <ele>341.20001220703</ele>
        <time>2022-09-13T12:13:16.000Z</time>
      </trkpt>
      <trkpt lat="49.42152" lon="5.75417">
        <ele>341</ele>
        <time>2022-09-13T12:13:23.000Z</time>
      </trkpt>
      <trkpt lat="49.42159" lon="5.75404">
        <ele>341</ele>
        <time>2022-09-13T12:13:26.000Z</time>
      </trkpt>
      <trkpt lat="49.4216" lon="5.754">
        <ele>341</ele>
        <time>2022-09-13T12:13:27.000Z</time>
      </trkpt>
      <trkpt lat="49.42162" lon="5.75397">
        <ele>341</ele>
        <time>2022-09-13T12:13:28.000Z</time>
      </trkpt>
      <trkpt lat="49.42164" lon="5.75392">
        <ele>341</ele>
        <time>2022-09-13T12:13:29.000Z</time>
      </trkpt>
      <trkpt lat="49.42166" lon="5.75388">
        <ele>341</ele>
        <time>2022-09-13T12:13:30.000Z</time>
      </trkpt>
      <trkpt lat="49.42169" lon="5.75379">
        <ele>341</ele>
        <time>2022-09-13T12:13:32.000Z</time>
      </trkpt>
      <trkpt lat="49.42184" lon="5.75348">
        <ele>340.39999389648</ele>
        <time>2022-09-13T12:13:39.000Z</time>
      </trkpt>
      <trkpt lat="49.42193" lon="5.75322">
        <ele>340.20001220703</ele>
        <time>2022-09-13T12:13:44.000Z</time>
      </trkpt>
      <trkpt lat="49.42195" lon="5.75318">
        <ele>340.20001220703</ele>
        <time>2022-09-13T12:13:45.000Z</time>
      </trkpt>
      <trkpt lat="49.42198" lon="5.75308">
        <ele>340.20001220703</ele>
        <time>2022-09-13T12:13:47.000Z</time>
      </trkpt>
      <trkpt lat="49.422" lon="5.75304">
        <ele>340.20001220703</ele>
        <time>2022-09-13T12:13:48.000Z</time>
      </trkpt>
      <trkpt lat="49.42202" lon="5.75299">
        <ele>340.20001220703</ele>
        <time>2022-09-13T12:13:49.000Z</time>
      </trkpt>
      <trkpt lat="49.42204" lon="5.75295">
        <ele>340</ele>
        <time>2022-09-13T12:13:50.000Z</time>
      </trkpt>
      <trkpt lat="49.42207" lon="5.75289">
        <ele>340</ele>
        <time>2022-09-13T12:13:51.000Z</time>
      </trkpt>
      <trkpt lat="49.4221" lon="5.75284">
        <ele>339.79998779297</ele>
        <time>2022-09-13T12:13:52.000Z</time>
      </trkpt>
      <trkpt lat="49.42217" lon="5.75266">
        <ele>339.60000610352</ele>
        <time>2022-09-13T12:13:56.000Z</time>
      </trkpt>
      <trkpt lat="49.42218" lon="5.75263">
        <ele>339.60000610352</ele>
        <time>2022-09-13T12:13:57.000Z</time>
      </trkpt>
      <trkpt lat="49.42219" lon="5.75261">
        <ele>339.60000610352</ele>
        <time>2022-09-13T12:13:58.000Z</time>
      </trkpt>
      <trkpt lat="49.4222" lon="5.75259">
        <ele>339.60000610352</ele>
        <time>2022-09-13T12:13:59.000Z</time>
      </trkpt>
      <trkpt lat="49.42221" lon="5.75256">
        <ele>339.39999389648</ele>
        <time>2022-09-13T12:14:00.000Z</time>
      </trkpt>
      <trkpt lat="49.42222" lon="5.75254">
        <ele>339.39999389648</ele>
        <time>2022-09-13T12:14:01.000Z</time>
      </trkpt>
      <trkpt lat="49.42223" lon="5.75253">
        <ele>339.39999389648</ele>
        <time>2022-09-13T12:14:02.000Z</time>
      </trkpt>
      <trkpt lat="49.42224" lon="5.75253">
        <ele>339.39999389648</ele>
        <time>2022-09-13T12:14:03.000Z</time>
      </trkpt>
      <trkpt lat="49.42224" lon="5.75253">
        <ele>339.60000610352</ele>
        <time>2022-09-13T12:14:04.000Z</time>
      </trkpt>
      <trkpt lat="49.42224" lon="5.75254">
        <ele>339.60000610352</ele>
        <time>2022-09-13T12:14:05.000Z</time>
      </trkpt>
      <trkpt lat="49.42225" lon="5.75256">
        <ele>339.79998779297</ele>
        <time>2022-09-13T12:14:06.000Z</time>
      </trkpt>
      <trkpt lat="49.42225" lon="5.75258">
        <ele>340</ele>
        <time>2022-09-13T12:14:07.000Z</time>
      </trkpt>
      <trkpt lat="49.42226" lon="5.7526">
        <ele>340</ele>
        <time>2022-09-13T12:14:08.000Z</time>
      </trkpt>
      <trkpt lat="49.42226" lon="5.75263">
        <ele>340</ele>
        <time>2022-09-13T12:14:09.000Z</time>
      </trkpt>
      <trkpt lat="49.42226" lon="5.75267">
        <ele>340</ele>
        <time>2022-09-13T12:14:10.000Z</time>
      </trkpt>
      <trkpt lat="49.42228" lon="5.75282">
        <ele>340</ele>
        <time>2022-09-13T12:14:14.000Z</time>
      </trkpt>
      <trkpt lat="49.42228" lon="5.75288">
        <ele>340</ele>
        <time>2022-09-13T12:14:15.000Z</time>
      </trkpt>
      <trkpt lat="49.42227" lon="5.75293">
        <ele>340</ele>
        <time>2022-09-13T12:14:16.000Z</time>
      </trkpt>
      <trkpt lat="49.42225" lon="5.7531">
        <ele>340</ele>
        <time>2022-09-13T12:14:19.000Z</time>
      </trkpt>
      <trkpt lat="49.42225" lon="5.75322">
        <ele>340</ele>
        <time>2022-09-13T12:14:21.000Z</time>
      </trkpt>
      <trkpt lat="49.42224" lon="5.75328">
        <ele>340</ele>
        <time>2022-09-13T12:14:22.000Z</time>
      </trkpt>
      <trkpt lat="49.42224" lon="5.75348">
        <ele>340.60000610352</ele>
        <time>2022-09-13T12:14:25.000Z</time>
      </trkpt>
      <trkpt lat="49.42222" lon="5.75368">
        <ele>341</ele>
        <time>2022-09-13T12:14:28.000Z</time>
      </trkpt>
      <trkpt lat="49.4222" lon="5.75381">
        <ele>341</ele>
        <time>2022-09-13T12:14:30.000Z</time>
      </trkpt>
      <trkpt lat="49.42219" lon="5.75388">
        <ele>341</ele>
        <time>2022-09-13T12:14:31.000Z</time>
      </trkpt>
      <trkpt lat="49.42219" lon="5.75393">
        <ele>341</ele>
        <time>2022-09-13T12:14:32.000Z</time>
      </trkpt>
      <trkpt lat="49.42217" lon="5.75423">
        <ele>341</ele>
        <time>2022-09-13T12:14:36.000Z</time>
      </trkpt>
      <trkpt lat="49.42215" lon="5.75437">
        <ele>341</ele>
        <time>2022-09-13T12:14:38.000Z</time>
      </trkpt>
      <trkpt lat="49.42213" lon="5.75445">
        <ele>341</ele>
        <time>2022-09-13T12:14:39.000Z</time>
      </trkpt>
      <trkpt lat="49.42212" lon="5.75452">
        <ele>341</ele>
        <time>2022-09-13T12:14:40.000Z</time>
      </trkpt>
      <trkpt lat="49.4221" lon="5.75459">
        <ele>341.20001220703</ele>
        <time>2022-09-13T12:14:41.000Z</time>
      </trkpt>
      <trkpt lat="49.422" lon="5.75511">
        <ele>341.79998779297</ele>
        <time>2022-09-13T12:14:48.000Z</time>
      </trkpt>
      <trkpt lat="49.42201" lon="5.75534">
        <ele>341.60000610352</ele>
        <time>2022-09-13T12:14:52.000Z</time>
      </trkpt>
      <trkpt lat="49.42201" lon="5.7554">
        <ele>341.39999389648</ele>
        <time>2022-09-13T12:14:53.000Z</time>
      </trkpt>
      <trkpt lat="49.422" lon="5.75546">
        <ele>341.20001220703</ele>
        <time>2022-09-13T12:14:54.000Z</time>
      </trkpt>
      <trkpt lat="49.42198" lon="5.75572">
        <ele>341</ele>
        <time>2022-09-13T12:14:58.000Z</time>
      </trkpt>
      <trkpt lat="49.42195" lon="5.75587">
        <ele>340.79998779297</ele>
        <time>2022-09-13T12:15:00.000Z</time>
      </trkpt>
      <trkpt lat="49.42196" lon="5.75591">
        <ele>340.79998779297</ele>
        <time>2022-09-13T12:15:01.000Z</time>
      </trkpt>
      <trkpt lat="49.42195" lon="5.75599">
        <ele>340.79998779297</ele>
        <time>2022-09-13T12:15:02.000Z</time>
      </trkpt>
      <trkpt lat="49.42194" lon="5.75604">
        <ele>340.60000610352</ele>
        <time>2022-09-13T12:15:03.000Z</time>
      </trkpt>
      <trkpt lat="49.42192" lon="5.75613">
        <ele>340.60000610352</ele>
        <time>2022-09-13T12:15:04.000Z</time>
      </trkpt>
      <trkpt lat="49.42191" lon="5.7563">
        <ele>340.20001220703</ele>
        <time>2022-09-13T12:15:06.000Z</time>
      </trkpt>
      <trkpt lat="49.42192" lon="5.75641">
        <ele>340.20001220703</ele>
        <time>2022-09-13T12:15:08.000Z</time>
      </trkpt>
      <trkpt lat="49.42192" lon="5.75645">
        <ele>340</ele>
        <time>2022-09-13T12:15:09.000Z</time>
      </trkpt>
      <trkpt lat="49.42191" lon="5.75654">
        <ele>340</ele>
        <time>2022-09-13T12:15:10.000Z</time>
      </trkpt>
      <trkpt lat="49.42191" lon="5.75662">
        <ele>340</ele>
        <time>2022-09-13T12:15:11.000Z</time>
      </trkpt>
      <trkpt lat="49.42193" lon="5.75684">
        <ele>340</ele>
        <time>2022-09-13T12:15:14.000Z</time>
      </trkpt>
      <trkpt lat="49.42193" lon="5.75692">
        <ele>340</ele>
        <time>2022-09-13T12:15:15.000Z</time>
      </trkpt>
      <trkpt lat="49.42194" lon="5.75707">
        <ele>340</ele>
        <time>2022-09-13T12:15:17.000Z</time>
      </trkpt>
      <trkpt lat="49.42195" lon="5.75712">
        <ele>340.20001220703</ele>
        <time>2022-09-13T12:15:18.000Z</time>
      </trkpt>
      <trkpt lat="49.42197" lon="5.75716">
        <ele>340.20001220703</ele>
        <time>2022-09-13T12:15:19.000Z</time>
      </trkpt>
      <trkpt lat="49.42203" lon="5.75723">
        <ele>340.60000610352</ele>
        <time>2022-09-13T12:15:21.000Z</time>
      </trkpt>
      <trkpt lat="49.42205" lon="5.75728">
        <ele>340.79998779297</ele>
        <time>2022-09-13T12:15:22.000Z</time>
      </trkpt>
      <trkpt lat="49.42205" lon="5.75734">
        <ele>340.79998779297</ele>
        <time>2022-09-13T12:15:23.000Z</time>
      </trkpt>
      <trkpt lat="49.42206" lon="5.75741">
        <ele>341</ele>
        <time>2022-09-13T12:15:24.000Z</time>
      </trkpt>
      <trkpt lat="49.42206" lon="5.75752">
        <ele>341</ele>
        <time>2022-09-13T12:15:25.000Z</time>
      </trkpt>
      <trkpt lat="49.42206" lon="5.75759">
        <ele>341</ele>
        <time>2022-09-13T12:15:26.000Z</time>
      </trkpt>
      <trkpt lat="49.42207" lon="5.75764">
        <ele>341</ele>
        <time>2022-09-13T12:15:27.000Z</time>
      </trkpt>
      <trkpt lat="49.42207" lon="5.7577">
        <ele>341</ele>
        <time>2022-09-13T12:15:28.000Z</time>
      </trkpt>
      <trkpt lat="49.42208" lon="5.75776">
        <ele>341.20001220703</ele>
        <time>2022-09-13T12:15:29.000Z</time>
      </trkpt>
      <trkpt lat="49.42211" lon="5.758">
        <ele>341.20001220703</ele>
        <time>2022-09-13T12:15:32.000Z</time>
      </trkpt>
      <trkpt lat="49.42221" lon="5.75839">
        <ele>341.39999389648</ele>
        <time>2022-09-13T12:15:36.000Z</time>
      </trkpt>
      <trkpt lat="49.42221" lon="5.75847">
        <ele>341.39999389648</ele>
        <time>2022-09-13T12:15:37.000Z</time>
      </trkpt>
      <trkpt lat="49.42221" lon="5.75856">
        <ele>341.39999389648</ele>
        <time>2022-09-13T12:15:38.000Z</time>
      </trkpt>
      <trkpt lat="49.42222" lon="5.75862">
        <ele>341.20001220703</ele>
        <time>2022-09-13T12:15:39.000Z</time>
      </trkpt>
      <trkpt lat="49.42222" lon="5.75868">
        <ele>341.20001220703</ele>
        <time>2022-09-13T12:15:40.000Z</time>
      </trkpt>
      <trkpt lat="49.42223" lon="5.75873">
        <ele>341.20001220703</ele>
        <time>2022-09-13T12:15:41.000Z</time>
      </trkpt>
      <trkpt lat="49.42223" lon="5.75876">
        <ele>341.20001220703</ele>
        <time>2022-09-13T12:15:42.000Z</time>
      </trkpt>
      <trkpt lat="49.42224" lon="5.75879">
        <ele>341.20001220703</ele>
        <time>2022-09-13T12:15:43.000Z</time>
      </trkpt>
      <trkpt lat="49.42224" lon="5.75884">
        <ele>341.20001220703</ele>
        <time>2022-09-13T12:15:44.000Z</time>
      </trkpt>
      <trkpt lat="49.42222" lon="5.75899">
        <ele>341.20001220703</ele>
        <time>2022-09-13T12:15:46.000Z</time>
      </trkpt>
      <trkpt lat="49.42221" lon="5.75903">
        <ele>341.20001220703</ele>
        <time>2022-09-13T12:15:47.000Z</time>
      </trkpt>
      <trkpt lat="49.4222" lon="5.75907">
        <ele>341.20001220703</ele>
        <time>2022-09-13T12:15:48.000Z</time>
      </trkpt>
      <trkpt lat="49.42219" lon="5.75912">
        <ele>341.39999389648</ele>
        <time>2022-09-13T12:15:49.000Z</time>
      </trkpt>
      <trkpt lat="49.4222" lon="5.75918">
        <ele>341.39999389648</ele>
        <time>2022-09-13T12:15:50.000Z</time>
      </trkpt>
      <trkpt lat="49.4222" lon="5.75923">
        <ele>341.39999389648</ele>
        <time>2022-09-13T12:15:51.000Z</time>
      </trkpt>
      <trkpt lat="49.4222" lon="5.75932">
        <ele>341.60000610352</ele>
        <time>2022-09-13T12:15:52.000Z</time>
      </trkpt>
      <trkpt lat="49.42221" lon="5.75936">
        <ele>341.60000610352</ele>
        <time>2022-09-13T12:15:53.000Z</time>
      </trkpt>
      <trkpt lat="49.42222" lon="5.75941">
        <ele>341.79998779297</ele>
        <time>2022-09-13T12:15:54.000Z</time>
      </trkpt>
      <trkpt lat="49.42222" lon="5.75948">
        <ele>342</ele>
        <time>2022-09-13T12:15:55.000Z</time>
      </trkpt>
      <trkpt lat="49.42221" lon="5.75954">
        <ele>342</ele>
        <time>2022-09-13T12:15:56.000Z</time>
      </trkpt>
      <trkpt lat="49.42221" lon="5.75959">
        <ele>342.20001220703</ele>
        <time>2022-09-13T12:15:57.000Z</time>
      </trkpt>
      <trkpt lat="49.42222" lon="5.75963">
        <ele>342.20001220703</ele>
        <time>2022-09-13T12:15:58.000Z</time>
      </trkpt>
      <trkpt lat="49.42222" lon="5.75966">
        <ele>342.39999389648</ele>
        <time>2022-09-13T12:15:59.000Z</time>
      </trkpt>
      <trkpt lat="49.42219" lon="5.75977">
        <ele>342.79998779297</ele>
        <time>2022-09-13T12:16:02.000Z</time>
      </trkpt>
      <trkpt lat="49.42218" lon="5.75984">
        <ele>342.79998779297</ele>
        <time>2022-09-13T12:16:03.000Z</time>
      </trkpt>
      <trkpt lat="49.42214" lon="5.76002">
        <ele>343</ele>
        <time>2022-09-13T12:16:05.000Z</time>
      </trkpt>
      <trkpt lat="49.42212" lon="5.76018">
        <ele>343.20001220703</ele>
        <time>2022-09-13T12:16:07.000Z</time>
      </trkpt>
      <trkpt lat="49.42212" lon="5.76022">
        <ele>343.39999389648</ele>
        <time>2022-09-13T12:16:08.000Z</time>
      </trkpt>
      <trkpt lat="49.42212" lon="5.76027">
        <ele>343.60000610352</ele>
        <time>2022-09-13T12:16:09.000Z</time>
      </trkpt>
      <trkpt lat="49.42212" lon="5.76033">
        <ele>343.60000610352</ele>
        <time>2022-09-13T12:16:10.000Z</time>
      </trkpt>
      <trkpt lat="49.42213" lon="5.7606">
        <ele>343.79998779297</ele>
        <time>2022-09-13T12:16:14.000Z</time>
      </trkpt>
      <trkpt lat="49.42213" lon="5.76074">
        <ele>343.79998779297</ele>
        <time>2022-09-13T12:16:15.000Z</time>
      </trkpt>
      <trkpt lat="49.42213" lon="5.76079">
        <ele>344</ele>
        <time>2022-09-13T12:16:16.000Z</time>
      </trkpt>
      <trkpt lat="49.42214" lon="5.76083">
        <ele>344</ele>
        <time>2022-09-13T12:16:17.000Z</time>
      </trkpt>
      <trkpt lat="49.42213" lon="5.7609">
        <ele>344.20001220703</ele>
        <time>2022-09-13T12:16:19.000Z</time>
      </trkpt>
      <trkpt lat="49.42212" lon="5.76099">
        <ele>344.20001220703</ele>
        <time>2022-09-13T12:16:21.000Z</time>
      </trkpt>
      <trkpt lat="49.4221" lon="5.76105">
        <ele>344.20001220703</ele>
        <time>2022-09-13T12:16:22.000Z</time>
      </trkpt>
      <trkpt lat="49.42209" lon="5.76111">
        <ele>344.20001220703</ele>
        <time>2022-09-13T12:16:23.000Z</time>
      </trkpt>
      <trkpt lat="49.42207" lon="5.76119">
        <ele>344.39999389648</ele>
        <time>2022-09-13T12:16:24.000Z</time>
      </trkpt>
      <trkpt lat="49.42206" lon="5.76126">
        <ele>344.39999389648</ele>
        <time>2022-09-13T12:16:25.000Z</time>
      </trkpt>
      <trkpt lat="49.42205" lon="5.76135">
        <ele>344.39999389648</ele>
        <time>2022-09-13T12:16:26.000Z</time>
      </trkpt>
      <trkpt lat="49.42202" lon="5.7615">
        <ele>344.39999389648</ele>
        <time>2022-09-13T12:16:29.000Z</time>
      </trkpt>
      <trkpt lat="49.42201" lon="5.76175">
        <ele>344.39999389648</ele>
        <time>2022-09-13T12:16:33.000Z</time>
      </trkpt>
      <trkpt lat="49.422" lon="5.76183">
        <ele>344.39999389648</ele>
        <time>2022-09-13T12:16:34.000Z</time>
      </trkpt>
      <trkpt lat="49.42201" lon="5.76196">
        <ele>344.39999389648</ele>
        <time>2022-09-13T12:16:36.000Z</time>
      </trkpt>
      <trkpt lat="49.42202" lon="5.76201">
        <ele>344.39999389648</ele>
        <time>2022-09-13T12:16:37.000Z</time>
      </trkpt>
      <trkpt lat="49.42204" lon="5.76206">
        <ele>344.20001220703</ele>
        <time>2022-09-13T12:16:38.000Z</time>
      </trkpt>
      <trkpt lat="49.42205" lon="5.76211">
        <ele>344.20001220703</ele>
        <time>2022-09-13T12:16:39.000Z</time>
      </trkpt>
      <trkpt lat="49.42207" lon="5.76214">
        <ele>344</ele>
        <time>2022-09-13T12:16:40.000Z</time>
      </trkpt>
      <trkpt lat="49.42209" lon="5.76215">
        <ele>344</ele>
        <time>2022-09-13T12:16:41.000Z</time>
      </trkpt>
      <trkpt lat="49.42213" lon="5.76216">
        <ele>344</ele>
        <time>2022-09-13T12:16:42.000Z</time>
      </trkpt>
      <trkpt lat="49.42216" lon="5.76218">
        <ele>343.79998779297</ele>
        <time>2022-09-13T12:16:43.000Z</time>
      </trkpt>
      <trkpt lat="49.42218" lon="5.76221">
        <ele>343.60000610352</ele>
        <time>2022-09-13T12:16:44.000Z</time>
      </trkpt>
      <trkpt lat="49.4222" lon="5.76224">
        <ele>343.60000610352</ele>
        <time>2022-09-13T12:16:45.000Z</time>
      </trkpt>
      <trkpt lat="49.42224" lon="5.76229">
        <ele>343.39999389648</ele>
        <time>2022-09-13T12:16:46.000Z</time>
      </trkpt>
      <trkpt lat="49.42227" lon="5.76231">
        <ele>343.39999389648</ele>
        <time>2022-09-13T12:16:47.000Z</time>
      </trkpt>
      <trkpt lat="49.42228" lon="5.76232">
        <ele>343.20001220703</ele>
        <time>2022-09-13T12:16:48.000Z</time>
      </trkpt>
      <trkpt lat="49.42229" lon="5.76231">
        <ele>343</ele>
        <time>2022-09-13T12:16:49.000Z</time>
      </trkpt>
      <trkpt lat="49.42232" lon="5.7623">
        <ele>342.60000610352</ele>
        <time>2022-09-13T12:16:50.000Z</time>
      </trkpt>
      <trkpt lat="49.42234" lon="5.76225">
        <ele>342.39999389648</ele>
        <time>2022-09-13T12:16:52.000Z</time>
      </trkpt>
      <trkpt lat="49.42236" lon="5.76222">
        <ele>342.20001220703</ele>
        <time>2022-09-13T12:16:53.000Z</time>
      </trkpt>
      <trkpt lat="49.42238" lon="5.76219">
        <ele>342.20001220703</ele>
        <time>2022-09-13T12:16:54.000Z</time>
      </trkpt>
      <trkpt lat="49.4224" lon="5.76214">
        <ele>342</ele>
        <time>2022-09-13T12:16:55.000Z</time>
      </trkpt>
      <trkpt lat="49.42243" lon="5.76205">
        <ele>342</ele>
        <time>2022-09-13T12:16:57.000Z</time>
      </trkpt>
      <trkpt lat="49.42244" lon="5.762">
        <ele>342</ele>
        <time>2022-09-13T12:16:58.000Z</time>
      </trkpt>
      <trkpt lat="49.42245" lon="5.76196">
        <ele>342</ele>
        <time>2022-09-13T12:16:59.000Z</time>
      </trkpt>
      <trkpt lat="49.42246" lon="5.76191">
        <ele>342</ele>
        <time>2022-09-13T12:17:00.000Z</time>
      </trkpt>
      <trkpt lat="49.42252" lon="5.76176">
        <ele>342</ele>
        <time>2022-09-13T12:17:03.000Z</time>
      </trkpt>
      <trkpt lat="49.42265" lon="5.76142">
        <ele>342</ele>
        <time>2022-09-13T12:17:09.000Z</time>
      </trkpt>
      <trkpt lat="49.42267" lon="5.76128">
        <ele>342</ele>
        <time>2022-09-13T12:17:12.000Z</time>
      </trkpt>
      <trkpt lat="49.4227" lon="5.7612">
        <ele>342</ele>
        <time>2022-09-13T12:17:13.000Z</time>
      </trkpt>
      <trkpt lat="49.42273" lon="5.76107">
        <ele>342</ele>
        <time>2022-09-13T12:17:15.000Z</time>
      </trkpt>
      <trkpt lat="49.42275" lon="5.76096">
        <ele>342</ele>
        <time>2022-09-13T12:17:17.000Z</time>
      </trkpt>
      <trkpt lat="49.42278" lon="5.7609">
        <ele>342</ele>
        <time>2022-09-13T12:17:18.000Z</time>
      </trkpt>
      <trkpt lat="49.42282" lon="5.76081">
        <ele>341.79998779297</ele>
        <time>2022-09-13T12:17:19.000Z</time>
      </trkpt>
      <trkpt lat="49.42287" lon="5.76068">
        <ele>341.79998779297</ele>
        <time>2022-09-13T12:17:21.000Z</time>
      </trkpt>
      <trkpt lat="49.42291" lon="5.76058">
        <ele>330.5</ele>
      </trkpt>
      <trkpt lat="49.42292" lon="5.76058">
        <ele>330.5</ele>
        <time>2022-09-13T12:17:22.000Z</time>
      </trkpt>
      <trkpt lat="49.42292" lon="5.76045">
        <ele>330.3</ele>
      </trkpt>
      <trkpt lat="49.42293" lon="5.76018">
        <ele>329.9</ele>
      </trkpt>
      <trkpt lat="49.42304" lon="5.75982">
        <ele>329.1</ele>
      </trkpt>
      <trkpt lat="49.42327" lon="5.75954">
        <ele>327.5</ele>
      </trkpt>
      <trkpt lat="49.42372" lon="5.75903">
        <ele>322.1</ele>
      </trkpt>
      <trkpt lat="49.42391" lon="5.7588">
        <ele>318.4</ele>
      </trkpt>
      <trkpt lat="49.42399" lon="5.75864">
        <ele>316.7</ele>
      </trkpt>
      <trkpt lat="49.42404" lon="5.7585">
        <ele>315.6</ele>
      </trkpt>
      <trkpt lat="49.42404" lon="5.75851">
        <ele>315.6</ele>
      </trkpt>
      <trkpt lat="49.42429" lon="5.75744">
        <ele>311.2</ele>
      </trkpt>
      <trkpt lat="49.42438" lon="5.75718">
        <ele>312.7</ele>
      </trkpt>
      <trkpt lat="49.42449" lon="5.75699">
        <ele>312.5</ele>
      </trkpt>
      <trkpt lat="49.4246" lon="5.7568">
        <ele>312.9</ele>
      </trkpt>
      <trkpt lat="49.42452" lon="5.75673">
        <ele>314</ele>
      </trkpt>
      <trkpt lat="49.42448" lon="5.75662">
        <ele>315.3</ele>
      </trkpt>
      <trkpt lat="49.42459" lon="5.75682">
        <ele>312.9</ele>
      </trkpt>
      <trkpt lat="49.42438" lon="5.75717">
        <ele>312.7</ele>
      </trkpt>
      <trkpt lat="49.42429" lon="5.75745">
        <ele>311.2</ele>
      </trkpt>
      <trkpt lat="49.42423" lon="5.75768">
        <ele>311.5</ele>
      </trkpt>
      <trkpt lat="49.42404" lon="5.75851">
        <ele>315.6</ele>
      </trkpt>
      <trkpt lat="49.42399" lon="5.75864">
        <ele>316.7</ele>
      </trkpt>
      <trkpt lat="49.42393" lon="5.75876">
        <ele>317.9</ele>
      </trkpt>
      <trkpt lat="49.4239" lon="5.75881">
        <ele>318.5</ele>
      </trkpt>
      <trkpt lat="49.42372" lon="5.75902">
        <ele>322.1</ele>
      </trkpt>
      <trkpt lat="49.42304" lon="5.75981">
        <ele>329.1</ele>
      </trkpt>
      <trkpt lat="49.42294" lon="5.76017">
        <ele>329.9</ele>
      </trkpt>
      <trkpt lat="49.42293" lon="5.76017">
        <ele>329.9</ele>
      </trkpt>
      <trkpt lat="49.42292" lon="5.76059">
        <ele>330.5</ele>
      </trkpt>
      <trkpt lat="49.42293" lon="5.76057">
        <ele>341.60000610352</ele>
        <time>2022-09-13T12:17:24.000Z</time>
      </trkpt>
      <trkpt lat="49.42296" lon="5.76057">
        <ele>341.39999389648</ele>
        <time>2022-09-13T12:17:25.000Z</time>
      </trkpt>
    </trkseg>
  </trk>
</gpx>